<?xml version="1.0" encoding="UTF-8" standalone="no" ?>
<gpx xmlns="http://www.topografix.com/GPX/1/1" xmlns:xsi="http://www.w3.org/2001/XMLSchema-instance" xsi:schemaLocation="http://www.topografix.com/GPX/1/1 http://www.topografix.com/GPX/1/1/gpx.xsd" version="1.1" creator="VisuGPX - https://www.visugpx.com">
  <metadata>
    <name> Puy de Dome -Medeyrolle Jour 5</name>
    <desc><![CDATA[Au départ du gîte municipal.
Boucle sans trop de dénivelé ]]></desc>
  </metadata>
  <trk>
    <name><![CDATA[SityTrail - 2019 Forez 5 Tour Mederolles]]></name>
    <trkseg>
      <trkpt lat="45.40459" lon="3.80394">
        <ele>1046</ele>
        <time>2019-05-31T08:27:47.181Z</time>
      </trkpt>
      <trkpt lat="45.40461" lon="3.8039">
        <ele>1046</ele>
        <time>2019-05-31T08:28:06.555Z</time>
      </trkpt>
      <trkpt lat="45.40467" lon="3.80392">
        <ele>1046</ele>
        <time>2019-05-31T08:28:11.590Z</time>
      </trkpt>
      <trkpt lat="45.40476" lon="3.80394">
        <ele>1046</ele>
        <time>2019-05-31T08:28:16.578Z</time>
      </trkpt>
      <trkpt lat="45.40484" lon="3.80396">
        <ele>1046</ele>
        <time>2019-05-31T08:28:21.574Z</time>
      </trkpt>
      <trkpt lat="45.40491" lon="3.804">
        <ele>1045</ele>
        <time>2019-05-31T08:28:26.555Z</time>
      </trkpt>
      <trkpt lat="45.40494" lon="3.80403">
        <ele>1047</ele>
        <time>2019-05-31T08:28:30.577Z</time>
      </trkpt>
      <trkpt lat="45.40499" lon="3.8041">
        <ele>1047</ele>
        <time>2019-05-31T08:28:35.555Z</time>
      </trkpt>
      <trkpt lat="45.40498" lon="3.80418">
        <ele>1047</ele>
        <time>2019-05-31T08:28:39.562Z</time>
      </trkpt>
      <trkpt lat="45.40492" lon="3.80421">
        <ele>1047</ele>
        <time>2019-05-31T08:28:44.575Z</time>
      </trkpt>
      <trkpt lat="45.40484" lon="3.80427">
        <ele>1047</ele>
        <time>2019-05-31T08:28:49.570Z</time>
      </trkpt>
      <trkpt lat="45.40477" lon="3.80428">
        <ele>1047</ele>
        <time>2019-05-31T08:28:54.583Z</time>
      </trkpt>
      <trkpt lat="45.4047" lon="3.80431">
        <ele>1048</ele>
        <time>2019-05-31T08:28:59.576Z</time>
      </trkpt>
      <trkpt lat="45.40464" lon="3.80434">
        <ele>1048</ele>
        <time>2019-05-31T08:29:04.559Z</time>
      </trkpt>
      <trkpt lat="45.40455" lon="3.80436">
        <ele>1047</ele>
        <time>2019-05-31T08:29:09.563Z</time>
      </trkpt>
      <trkpt lat="45.40449" lon="3.80436">
        <ele>1047</ele>
        <time>2019-05-31T08:29:14.576Z</time>
      </trkpt>
      <trkpt lat="45.40445" lon="3.80436">
        <ele>1047</ele>
        <time>2019-05-31T08:29:19.556Z</time>
      </trkpt>
      <trkpt lat="45.40443" lon="3.80437">
        <ele>1047</ele>
        <time>2019-05-31T08:29:24.577Z</time>
      </trkpt>
      <trkpt lat="45.40443" lon="3.80438">
        <ele>1047</ele>
        <time>2019-05-31T08:29:29.571Z</time>
      </trkpt>
      <trkpt lat="45.4044" lon="3.8044">
        <ele>1047</ele>
        <time>2019-05-31T08:29:34.561Z</time>
      </trkpt>
      <trkpt lat="45.40437" lon="3.80447">
        <ele>1047</ele>
        <time>2019-05-31T08:29:39.568Z</time>
      </trkpt>
      <trkpt lat="45.40434" lon="3.80452">
        <ele>1047</ele>
        <time>2019-05-31T08:29:44.558Z</time>
      </trkpt>
      <trkpt lat="45.4043" lon="3.80459">
        <ele>1046</ele>
        <time>2019-05-31T08:29:48.581Z</time>
      </trkpt>
      <trkpt lat="45.40428" lon="3.80469">
        <ele>1046</ele>
        <time>2019-05-31T08:29:53.563Z</time>
      </trkpt>
      <trkpt lat="45.40429" lon="3.80478">
        <ele>1046</ele>
        <time>2019-05-31T08:29:57.574Z</time>
      </trkpt>
      <trkpt lat="45.40429" lon="3.80488">
        <ele>1048</ele>
        <time>2019-05-31T08:30:02.567Z</time>
      </trkpt>
      <trkpt lat="45.4043" lon="3.80496">
        <ele>1048</ele>
        <time>2019-05-31T08:30:07.558Z</time>
      </trkpt>
      <trkpt lat="45.40432" lon="3.80504">
        <ele>1051</ele>
        <time>2019-05-31T08:30:11.569Z</time>
      </trkpt>
      <trkpt lat="45.40433" lon="3.80512">
        <ele>1051</ele>
        <time>2019-05-31T08:30:16.564Z</time>
      </trkpt>
      <trkpt lat="45.40438" lon="3.80522">
        <ele>1051</ele>
        <time>2019-05-31T08:30:21.562Z</time>
      </trkpt>
      <trkpt lat="45.40443" lon="3.80531">
        <ele>1051</ele>
        <time>2019-05-31T08:30:26.571Z</time>
      </trkpt>
      <trkpt lat="45.40449" lon="3.80538">
        <ele>1051</ele>
        <time>2019-05-31T08:30:31.566Z</time>
      </trkpt>
      <trkpt lat="45.40456" lon="3.80545">
        <ele>1052</ele>
        <time>2019-05-31T08:30:36.562Z</time>
      </trkpt>
      <trkpt lat="45.40461" lon="3.80553">
        <ele>1053</ele>
        <time>2019-05-31T08:30:41.564Z</time>
      </trkpt>
      <trkpt lat="45.40464" lon="3.80559">
        <ele>1053</ele>
        <time>2019-05-31T08:30:45.572Z</time>
      </trkpt>
      <trkpt lat="45.40468" lon="3.80566">
        <ele>1053</ele>
        <time>2019-05-31T08:30:50.569Z</time>
      </trkpt>
      <trkpt lat="45.40471" lon="3.80574">
        <ele>1053</ele>
        <time>2019-05-31T08:30:55.553Z</time>
      </trkpt>
      <trkpt lat="45.40475" lon="3.8058">
        <ele>1053</ele>
        <time>2019-05-31T08:30:59.572Z</time>
      </trkpt>
      <trkpt lat="45.4048" lon="3.80589">
        <ele>1053</ele>
        <time>2019-05-31T08:31:04.566Z</time>
      </trkpt>
      <trkpt lat="45.40484" lon="3.80598">
        <ele>1053</ele>
        <time>2019-05-31T08:31:09.563Z</time>
      </trkpt>
      <trkpt lat="45.40487" lon="3.80607">
        <ele>1054</ele>
        <time>2019-05-31T08:31:14.555Z</time>
      </trkpt>
      <trkpt lat="45.4049" lon="3.80614">
        <ele>1054</ele>
        <time>2019-05-31T08:31:18.570Z</time>
      </trkpt>
      <trkpt lat="45.40493" lon="3.80622">
        <ele>1054</ele>
        <time>2019-05-31T08:31:23.565Z</time>
      </trkpt>
      <trkpt lat="45.40496" lon="3.80631">
        <ele>1054</ele>
        <time>2019-05-31T08:31:28.561Z</time>
      </trkpt>
      <trkpt lat="45.40498" lon="3.80642">
        <ele>1054</ele>
        <time>2019-05-31T08:31:33.570Z</time>
      </trkpt>
      <trkpt lat="45.40497" lon="3.80651">
        <ele>1054</ele>
        <time>2019-05-31T08:31:38.566Z</time>
      </trkpt>
      <trkpt lat="45.40495" lon="3.80654">
        <ele>1055</ele>
        <time>2019-05-31T08:31:43.565Z</time>
      </trkpt>
      <trkpt lat="45.40495" lon="3.80655">
        <ele>1055</ele>
        <time>2019-05-31T08:31:47.573Z</time>
      </trkpt>
      <trkpt lat="45.40495" lon="3.80663">
        <ele>1055</ele>
        <time>2019-05-31T08:31:52.562Z</time>
      </trkpt>
      <trkpt lat="45.40497" lon="3.8067">
        <ele>1055</ele>
        <time>2019-05-31T08:31:56.564Z</time>
      </trkpt>
      <trkpt lat="45.405" lon="3.80679">
        <ele>1055</ele>
        <time>2019-05-31T08:34:03.565Z</time>
      </trkpt>
      <trkpt lat="45.40501" lon="3.80688">
        <ele>1056</ele>
        <time>2019-05-31T08:34:08.557Z</time>
      </trkpt>
      <trkpt lat="45.40502" lon="3.80696">
        <ele>1056</ele>
        <time>2019-05-31T08:34:12.573Z</time>
      </trkpt>
      <trkpt lat="45.40504" lon="3.80708">
        <ele>1057</ele>
        <time>2019-05-31T08:34:17.550Z</time>
      </trkpt>
      <trkpt lat="45.40505" lon="3.80719">
        <ele>1057</ele>
        <time>2019-05-31T08:34:21.572Z</time>
      </trkpt>
      <trkpt lat="45.40508" lon="3.80731">
        <ele>1057</ele>
        <time>2019-05-31T08:34:26.562Z</time>
      </trkpt>
      <trkpt lat="45.4051" lon="3.80738">
        <ele>1057</ele>
        <time>2019-05-31T08:34:30.562Z</time>
      </trkpt>
      <trkpt lat="45.40511" lon="3.80748">
        <ele>1057</ele>
        <time>2019-05-31T08:34:35.585Z</time>
      </trkpt>
      <trkpt lat="45.40512" lon="3.80757">
        <ele>1057</ele>
        <time>2019-05-31T08:34:40.568Z</time>
      </trkpt>
      <trkpt lat="45.40514" lon="3.80764">
        <ele>1057</ele>
        <time>2019-05-31T08:34:44.588Z</time>
      </trkpt>
      <trkpt lat="45.40516" lon="3.80766">
        <ele>1058</ele>
        <time>2019-05-31T08:34:49.575Z</time>
      </trkpt>
      <trkpt lat="45.40517" lon="3.80776">
        <ele>1058</ele>
        <time>2019-05-31T08:34:54.574Z</time>
      </trkpt>
      <trkpt lat="45.40518" lon="3.80785">
        <ele>1058</ele>
        <time>2019-05-31T08:34:59.573Z</time>
      </trkpt>
      <trkpt lat="45.40519" lon="3.80795">
        <ele>1057</ele>
        <time>2019-05-31T08:35:04.565Z</time>
      </trkpt>
      <trkpt lat="45.40518" lon="3.80805">
        <ele>1057</ele>
        <time>2019-05-31T08:35:09.575Z</time>
      </trkpt>
      <trkpt lat="45.40519" lon="3.80815">
        <ele>1057</ele>
        <time>2019-05-31T08:35:14.555Z</time>
      </trkpt>
      <trkpt lat="45.40519" lon="3.80823">
        <ele>1057</ele>
        <time>2019-05-31T08:35:18.557Z</time>
      </trkpt>
      <trkpt lat="45.40517" lon="3.80832">
        <ele>1057</ele>
        <time>2019-05-31T08:35:23.569Z</time>
      </trkpt>
      <trkpt lat="45.40513" lon="3.80841">
        <ele>1056</ele>
        <time>2019-05-31T08:35:28.563Z</time>
      </trkpt>
      <trkpt lat="45.40508" lon="3.80849">
        <ele>1057</ele>
        <time>2019-05-31T08:35:33.571Z</time>
      </trkpt>
      <trkpt lat="45.40503" lon="3.80856">
        <ele>1057</ele>
        <time>2019-05-31T08:35:38.566Z</time>
      </trkpt>
      <trkpt lat="45.405" lon="3.80862">
        <ele>1057</ele>
        <time>2019-05-31T08:35:43.579Z</time>
      </trkpt>
      <trkpt lat="45.40498" lon="3.80871">
        <ele>1057</ele>
        <time>2019-05-31T08:35:48.561Z</time>
      </trkpt>
      <trkpt lat="45.40497" lon="3.80879">
        <ele>1058</ele>
        <time>2019-05-31T08:35:53.566Z</time>
      </trkpt>
      <trkpt lat="45.40496" lon="3.80889">
        <ele>1058</ele>
        <time>2019-05-31T08:35:58.573Z</time>
      </trkpt>
      <trkpt lat="45.40497" lon="3.80897">
        <ele>1058</ele>
        <time>2019-05-31T08:36:03.533Z</time>
      </trkpt>
      <trkpt lat="45.40496" lon="3.80905">
        <ele>1059</ele>
        <time>2019-05-31T08:36:07.564Z</time>
      </trkpt>
      <trkpt lat="45.40494" lon="3.80915">
        <ele>1059</ele>
        <time>2019-05-31T08:36:12.549Z</time>
      </trkpt>
      <trkpt lat="45.40492" lon="3.80922">
        <ele>1059</ele>
        <time>2019-05-31T08:36:16.554Z</time>
      </trkpt>
      <trkpt lat="45.40491" lon="3.8093">
        <ele>1059</ele>
        <time>2019-05-31T08:36:21.571Z</time>
      </trkpt>
      <trkpt lat="45.40491" lon="3.80941">
        <ele>1060</ele>
        <time>2019-05-31T08:36:26.559Z</time>
      </trkpt>
      <trkpt lat="45.40492" lon="3.80947">
        <ele>1060</ele>
        <time>2019-05-31T08:36:31.573Z</time>
      </trkpt>
      <trkpt lat="45.40492" lon="3.80956">
        <ele>1060</ele>
        <time>2019-05-31T08:36:36.570Z</time>
      </trkpt>
      <trkpt lat="45.40492" lon="3.80963">
        <ele>1060</ele>
        <time>2019-05-31T08:36:41.564Z</time>
      </trkpt>
      <trkpt lat="45.40494" lon="3.80971">
        <ele>1060</ele>
        <time>2019-05-31T08:36:46.576Z</time>
      </trkpt>
      <trkpt lat="45.40494" lon="3.8098">
        <ele>1060</ele>
        <time>2019-05-31T08:36:51.576Z</time>
      </trkpt>
      <trkpt lat="45.40494" lon="3.80987">
        <ele>1060</ele>
        <time>2019-05-31T08:36:55.569Z</time>
      </trkpt>
      <trkpt lat="45.40496" lon="3.80998">
        <ele>1060</ele>
        <time>2019-05-31T08:37:00.582Z</time>
      </trkpt>
      <trkpt lat="45.40497" lon="3.81007">
        <ele>1060</ele>
        <time>2019-05-31T08:37:05.573Z</time>
      </trkpt>
      <trkpt lat="45.40496" lon="3.81015">
        <ele>1059</ele>
        <time>2019-05-31T08:37:10.551Z</time>
      </trkpt>
      <trkpt lat="45.40496" lon="3.81027">
        <ele>1059</ele>
        <time>2019-05-31T08:37:15.555Z</time>
      </trkpt>
      <trkpt lat="45.40497" lon="3.81035">
        <ele>1059</ele>
        <time>2019-05-31T08:37:19.565Z</time>
      </trkpt>
      <trkpt lat="45.40496" lon="3.81042">
        <ele>1061</ele>
        <time>2019-05-31T08:37:23.575Z</time>
      </trkpt>
      <trkpt lat="45.40495" lon="3.81048">
        <ele>1061</ele>
        <time>2019-05-31T08:37:28.581Z</time>
      </trkpt>
      <trkpt lat="45.40494" lon="3.81056">
        <ele>1061</ele>
        <time>2019-05-31T08:37:33.565Z</time>
      </trkpt>
      <trkpt lat="45.40494" lon="3.81063">
        <ele>1061</ele>
        <time>2019-05-31T08:37:38.554Z</time>
      </trkpt>
      <trkpt lat="45.40492" lon="3.81068">
        <ele>1061</ele>
        <time>2019-05-31T08:37:42.568Z</time>
      </trkpt>
      <trkpt lat="45.40491" lon="3.81083">
        <ele>1063</ele>
        <time>2019-05-31T08:37:47.549Z</time>
      </trkpt>
      <trkpt lat="45.40487" lon="3.81092">
        <ele>1063</ele>
        <time>2019-05-31T08:37:52.565Z</time>
      </trkpt>
      <trkpt lat="45.40485" lon="3.81099">
        <ele>1064</ele>
        <time>2019-05-31T08:37:56.564Z</time>
      </trkpt>
      <trkpt lat="45.40487" lon="3.81105">
        <ele>1064</ele>
        <time>2019-05-31T08:38:00.586Z</time>
      </trkpt>
      <trkpt lat="45.40494" lon="3.81116">
        <ele>1064</ele>
        <time>2019-05-31T08:38:05.568Z</time>
      </trkpt>
      <trkpt lat="45.40497" lon="3.81127">
        <ele>1063</ele>
        <time>2019-05-31T08:38:10.564Z</time>
      </trkpt>
      <trkpt lat="45.40503" lon="3.81134">
        <ele>1063</ele>
        <time>2019-05-31T08:38:15.565Z</time>
      </trkpt>
      <trkpt lat="45.405" lon="3.81139">
        <ele>1063</ele>
        <time>2019-05-31T08:38:20.554Z</time>
      </trkpt>
      <trkpt lat="45.40504" lon="3.81141">
        <ele>1063</ele>
        <time>2019-05-31T08:38:24.578Z</time>
      </trkpt>
      <trkpt lat="45.40514" lon="3.8115">
        <ele>1063</ele>
        <time>2019-05-31T08:38:29.559Z</time>
      </trkpt>
      <trkpt lat="45.40518" lon="3.81156">
        <ele>1063</ele>
        <time>2019-05-31T08:38:33.569Z</time>
      </trkpt>
      <trkpt lat="45.4052" lon="3.81161">
        <ele>1063</ele>
        <time>2019-05-31T08:38:38.566Z</time>
      </trkpt>
      <trkpt lat="45.4052" lon="3.81167">
        <ele>1063</ele>
        <time>2019-05-31T08:38:43.562Z</time>
      </trkpt>
      <trkpt lat="45.40523" lon="3.81173">
        <ele>1063</ele>
        <time>2019-05-31T08:38:48.560Z</time>
      </trkpt>
      <trkpt lat="45.40525" lon="3.81182">
        <ele>1063</ele>
        <time>2019-05-31T08:38:52.581Z</time>
      </trkpt>
      <trkpt lat="45.40521" lon="3.81207">
        <ele>1063</ele>
        <time>2019-05-31T08:38:56.572Z</time>
      </trkpt>
      <trkpt lat="45.40521" lon="3.81211">
        <ele>1061</ele>
        <time>2019-05-31T08:39:01.549Z</time>
      </trkpt>
      <trkpt lat="45.40522" lon="3.81218">
        <ele>1061</ele>
        <time>2019-05-31T08:39:06.561Z</time>
      </trkpt>
      <trkpt lat="45.40522" lon="3.81225">
        <ele>1061</ele>
        <time>2019-05-31T08:39:11.551Z</time>
      </trkpt>
      <trkpt lat="45.40521" lon="3.81228">
        <ele>1061</ele>
        <time>2019-05-31T08:39:15.565Z</time>
      </trkpt>
      <trkpt lat="45.40524" lon="3.81237">
        <ele>1060</ele>
        <time>2019-05-31T08:39:20.572Z</time>
      </trkpt>
      <trkpt lat="45.40527" lon="3.81244">
        <ele>1060</ele>
        <time>2019-05-31T08:39:25.554Z</time>
      </trkpt>
      <trkpt lat="45.40527" lon="3.81258">
        <ele>1060</ele>
        <time>2019-05-31T08:39:30.559Z</time>
      </trkpt>
      <trkpt lat="45.40526" lon="3.81279">
        <ele>1059</ele>
        <time>2019-05-31T08:39:35.547Z</time>
      </trkpt>
      <trkpt lat="45.40529" lon="3.81299">
        <ele>1059</ele>
        <time>2019-05-31T08:39:39.555Z</time>
      </trkpt>
      <trkpt lat="45.40532" lon="3.81303">
        <ele>1059</ele>
        <time>2019-05-31T08:39:44.548Z</time>
      </trkpt>
      <trkpt lat="45.40537" lon="3.81301">
        <ele>1059</ele>
        <time>2019-05-31T08:39:53.530Z</time>
      </trkpt>
      <trkpt lat="45.40538" lon="3.81301">
        <ele>1059</ele>
        <time>2019-05-31T08:39:57.552Z</time>
      </trkpt>
      <trkpt lat="45.4054" lon="3.81301">
        <ele>1059</ele>
        <time>2019-05-31T08:40:01.563Z</time>
      </trkpt>
      <trkpt lat="45.40544" lon="3.81303">
        <ele>1058</ele>
        <time>2019-05-31T08:40:06.562Z</time>
      </trkpt>
      <trkpt lat="45.40549" lon="3.81308">
        <ele>1058</ele>
        <time>2019-05-31T08:40:10.563Z</time>
      </trkpt>
      <trkpt lat="45.40554" lon="3.81311">
        <ele>1058</ele>
        <time>2019-05-31T08:40:15.564Z</time>
      </trkpt>
      <trkpt lat="45.40565" lon="3.81311">
        <ele>1058</ele>
        <time>2019-05-31T08:40:20.562Z</time>
      </trkpt>
      <trkpt lat="45.40567" lon="3.81311">
        <ele>1058</ele>
        <time>2019-05-31T08:40:25.545Z</time>
      </trkpt>
      <trkpt lat="45.40572" lon="3.81308">
        <ele>1056</ele>
        <time>2019-05-31T08:40:30.559Z</time>
      </trkpt>
      <trkpt lat="45.40579" lon="3.81308">
        <ele>1056</ele>
        <time>2019-05-31T08:40:35.542Z</time>
      </trkpt>
      <trkpt lat="45.4058" lon="3.81308">
        <ele>1056</ele>
        <time>2019-05-31T08:40:39.552Z</time>
      </trkpt>
      <trkpt lat="45.40582" lon="3.81308">
        <ele>1056</ele>
        <time>2019-05-31T08:40:44.565Z</time>
      </trkpt>
      <trkpt lat="45.40585" lon="3.81311">
        <ele>1056</ele>
        <time>2019-05-31T08:40:49.543Z</time>
      </trkpt>
      <trkpt lat="45.40603" lon="3.81321">
        <ele>1055</ele>
        <time>2019-05-31T08:40:54.542Z</time>
      </trkpt>
      <trkpt lat="45.4061" lon="3.81325">
        <ele>1055</ele>
        <time>2019-05-31T08:40:59.556Z</time>
      </trkpt>
      <trkpt lat="45.40614" lon="3.81332">
        <ele>1055</ele>
        <time>2019-05-31T08:41:04.552Z</time>
      </trkpt>
      <trkpt lat="45.40617" lon="3.81338">
        <ele>1055</ele>
        <time>2019-05-31T08:41:09.540Z</time>
      </trkpt>
      <trkpt lat="45.4062" lon="3.81339">
        <ele>1055</ele>
        <time>2019-05-31T08:41:14.558Z</time>
      </trkpt>
      <trkpt lat="45.40624" lon="3.81342">
        <ele>1055</ele>
        <time>2019-05-31T08:41:19.554Z</time>
      </trkpt>
      <trkpt lat="45.40632" lon="3.81346">
        <ele>1053</ele>
        <time>2019-05-31T08:41:23.550Z</time>
      </trkpt>
      <trkpt lat="45.40633" lon="3.81346">
        <ele>1053</ele>
        <time>2019-05-31T08:41:28.562Z</time>
      </trkpt>
      <trkpt lat="45.4064" lon="3.81349">
        <ele>1055</ele>
        <time>2019-05-31T08:41:33.545Z</time>
      </trkpt>
      <trkpt lat="45.40653" lon="3.81356">
        <ele>1055</ele>
        <time>2019-05-31T08:41:38.562Z</time>
      </trkpt>
      <trkpt lat="45.40666" lon="3.81375">
        <ele>1057</ele>
        <time>2019-05-31T08:41:43.557Z</time>
      </trkpt>
      <trkpt lat="45.40678" lon="3.81388">
        <ele>1059</ele>
        <time>2019-05-31T08:41:48.560Z</time>
      </trkpt>
      <trkpt lat="45.40686" lon="3.81398">
        <ele>1060</ele>
        <time>2019-05-31T08:41:52.565Z</time>
      </trkpt>
      <trkpt lat="45.40693" lon="3.81405">
        <ele>1061</ele>
        <time>2019-05-31T08:41:56.561Z</time>
      </trkpt>
      <trkpt lat="45.40696" lon="3.81413">
        <ele>1061</ele>
        <time>2019-05-31T08:42:00.581Z</time>
      </trkpt>
      <trkpt lat="45.40702" lon="3.81423">
        <ele>1061</ele>
        <time>2019-05-31T08:42:05.553Z</time>
      </trkpt>
      <trkpt lat="45.40705" lon="3.81429">
        <ele>1061</ele>
        <time>2019-05-31T08:42:09.554Z</time>
      </trkpt>
      <trkpt lat="45.40708" lon="3.81437">
        <ele>1058</ele>
        <time>2019-05-31T08:42:14.567Z</time>
      </trkpt>
      <trkpt lat="45.40711" lon="3.81443">
        <ele>1053</ele>
        <time>2019-05-31T08:42:19.542Z</time>
      </trkpt>
      <trkpt lat="45.40717" lon="3.8145">
        <ele>1053</ele>
        <time>2019-05-31T08:42:23.559Z</time>
      </trkpt>
      <trkpt lat="45.40722" lon="3.8146">
        <ele>1051</ele>
        <time>2019-05-31T08:42:28.572Z</time>
      </trkpt>
      <trkpt lat="45.40729" lon="3.81471">
        <ele>1051</ele>
        <time>2019-05-31T08:42:33.548Z</time>
      </trkpt>
      <trkpt lat="45.40735" lon="3.81481">
        <ele>1051</ele>
        <time>2019-05-31T08:42:38.568Z</time>
      </trkpt>
      <trkpt lat="45.40739" lon="3.81487">
        <ele>1047</ele>
        <time>2019-05-31T08:42:43.546Z</time>
      </trkpt>
      <trkpt lat="45.40744" lon="3.8149">
        <ele>1047</ele>
        <time>2019-05-31T08:42:47.549Z</time>
      </trkpt>
      <trkpt lat="45.40748" lon="3.81494">
        <ele>1047</ele>
        <time>2019-05-31T08:42:52.562Z</time>
      </trkpt>
      <trkpt lat="45.40748" lon="3.81497">
        <ele>1047</ele>
        <time>2019-05-31T08:42:57.559Z</time>
      </trkpt>
      <trkpt lat="45.40748" lon="3.81501">
        <ele>1047</ele>
        <time>2019-05-31T08:43:02.561Z</time>
      </trkpt>
      <trkpt lat="45.40748" lon="3.81506">
        <ele>1047</ele>
        <time>2019-05-31T08:43:06.571Z</time>
      </trkpt>
      <trkpt lat="45.40749" lon="3.81507">
        <ele>1047</ele>
        <time>2019-05-31T08:43:11.551Z</time>
      </trkpt>
      <trkpt lat="45.40755" lon="3.81513">
        <ele>1047</ele>
        <time>2019-05-31T08:43:30.556Z</time>
      </trkpt>
      <trkpt lat="45.40756" lon="3.8151">
        <ele>1047</ele>
        <time>2019-05-31T08:43:34.558Z</time>
      </trkpt>
      <trkpt lat="45.40757" lon="3.81507">
        <ele>1047</ele>
        <time>2019-05-31T08:43:38.558Z</time>
      </trkpt>
      <trkpt lat="45.40758" lon="3.81505">
        <ele>1047</ele>
        <time>2019-05-31T08:43:43.533Z</time>
      </trkpt>
      <trkpt lat="45.40758" lon="3.81503">
        <ele>1047</ele>
        <time>2019-05-31T08:43:47.548Z</time>
      </trkpt>
      <trkpt lat="45.4077" lon="3.81489">
        <ele>1045</ele>
        <time>2019-05-31T08:43:52.552Z</time>
      </trkpt>
      <trkpt lat="45.40778" lon="3.81476">
        <ele>1046</ele>
        <time>2019-05-31T08:43:56.567Z</time>
      </trkpt>
      <trkpt lat="45.40783" lon="3.81472">
        <ele>1046</ele>
        <time>2019-05-31T08:44:01.560Z</time>
      </trkpt>
      <trkpt lat="45.40784" lon="3.81473">
        <ele>1046</ele>
        <time>2019-05-31T08:44:06.557Z</time>
      </trkpt>
      <trkpt lat="45.40785" lon="3.81475">
        <ele>1046</ele>
        <time>2019-05-31T08:44:10.597Z</time>
      </trkpt>
      <trkpt lat="45.40789" lon="3.81482">
        <ele>1046</ele>
        <time>2019-05-31T08:44:15.541Z</time>
      </trkpt>
      <trkpt lat="45.4079" lon="3.81487">
        <ele>1045</ele>
        <time>2019-05-31T08:44:19.557Z</time>
      </trkpt>
      <trkpt lat="45.408" lon="3.81497">
        <ele>1043</ele>
        <time>2019-05-31T08:44:24.565Z</time>
      </trkpt>
      <trkpt lat="45.40802" lon="3.81505">
        <ele>1043</ele>
        <time>2019-05-31T08:45:01.573Z</time>
      </trkpt>
      <trkpt lat="45.40804" lon="3.81506">
        <ele>1043</ele>
        <time>2019-05-31T08:45:06.549Z</time>
      </trkpt>
      <trkpt lat="45.40804" lon="3.81507">
        <ele>1043</ele>
        <time>2019-05-31T08:45:11.543Z</time>
      </trkpt>
      <trkpt lat="45.40805" lon="3.81509">
        <ele>1043</ele>
        <time>2019-05-31T08:45:15.575Z</time>
      </trkpt>
      <trkpt lat="45.40807" lon="3.81511">
        <ele>1043</ele>
        <time>2019-05-31T08:45:20.556Z</time>
      </trkpt>
      <trkpt lat="45.40811" lon="3.81512">
        <ele>1043</ele>
        <time>2019-05-31T08:45:25.533Z</time>
      </trkpt>
      <trkpt lat="45.40819" lon="3.81519">
        <ele>1042</ele>
        <time>2019-05-31T08:45:30.552Z</time>
      </trkpt>
      <trkpt lat="45.4082" lon="3.81519">
        <ele>1040</ele>
        <time>2019-05-31T08:45:34.554Z</time>
      </trkpt>
      <trkpt lat="45.40821" lon="3.8152">
        <ele>1040</ele>
        <time>2019-05-31T08:45:39.528Z</time>
      </trkpt>
      <trkpt lat="45.40827" lon="3.81522">
        <ele>1040</ele>
        <time>2019-05-31T08:45:44.559Z</time>
      </trkpt>
      <trkpt lat="45.40828" lon="3.81523">
        <ele>1040</ele>
        <time>2019-05-31T08:45:49.555Z</time>
      </trkpt>
      <trkpt lat="45.40829" lon="3.81523">
        <ele>1040</ele>
        <time>2019-05-31T08:45:54.556Z</time>
      </trkpt>
      <trkpt lat="45.40835" lon="3.81523">
        <ele>1040</ele>
        <time>2019-05-31T08:45:59.538Z</time>
      </trkpt>
      <trkpt lat="45.4085" lon="3.8152">
        <ele>1034</ele>
        <time>2019-05-31T08:46:04.566Z</time>
      </trkpt>
      <trkpt lat="45.40854" lon="3.81519">
        <ele>1034</ele>
        <time>2019-05-31T08:46:08.547Z</time>
      </trkpt>
      <trkpt lat="45.40863" lon="3.81515">
        <ele>1034</ele>
        <time>2019-05-31T08:46:13.550Z</time>
      </trkpt>
      <trkpt lat="45.40863" lon="3.81515">
        <ele>1034</ele>
        <time>2019-05-31T08:46:18.571Z</time>
      </trkpt>
      <trkpt lat="45.40864" lon="3.81514">
        <ele>1034</ele>
        <time>2019-05-31T08:46:22.573Z</time>
      </trkpt>
      <trkpt lat="45.40868" lon="3.81507">
        <ele>1033</ele>
        <time>2019-05-31T08:46:37.604Z</time>
      </trkpt>
      <trkpt lat="45.4087" lon="3.81501">
        <ele>1033</ele>
        <time>2019-05-31T08:46:42.569Z</time>
      </trkpt>
      <trkpt lat="45.40877" lon="3.81502">
        <ele>1025</ele>
        <time>2019-05-31T08:46:47.527Z</time>
      </trkpt>
      <trkpt lat="45.40881" lon="3.81497">
        <ele>1025</ele>
        <time>2019-05-31T08:46:51.552Z</time>
      </trkpt>
      <trkpt lat="45.40876" lon="3.8149">
        <ele>1025</ele>
        <time>2019-05-31T08:46:55.560Z</time>
      </trkpt>
      <trkpt lat="45.40877" lon="3.81483">
        <ele>1023</ele>
        <time>2019-05-31T08:47:10.568Z</time>
      </trkpt>
      <trkpt lat="45.4088" lon="3.81485">
        <ele>1023</ele>
        <time>2019-05-31T08:47:15.554Z</time>
      </trkpt>
      <trkpt lat="45.4088" lon="3.81491">
        <ele>1025</ele>
        <time>2019-05-31T08:47:20.545Z</time>
      </trkpt>
      <trkpt lat="45.40881" lon="3.81498">
        <ele>1025</ele>
        <time>2019-05-31T08:47:24.562Z</time>
      </trkpt>
      <trkpt lat="45.40882" lon="3.81503">
        <ele>1025</ele>
        <time>2019-05-31T08:47:28.558Z</time>
      </trkpt>
      <trkpt lat="45.40882" lon="3.81514">
        <ele>1027</ele>
        <time>2019-05-31T08:47:33.603Z</time>
      </trkpt>
      <trkpt lat="45.40886" lon="3.81519">
        <ele>1027</ele>
        <time>2019-05-31T08:47:38.579Z</time>
      </trkpt>
      <trkpt lat="45.40891" lon="3.81526">
        <ele>1027</ele>
        <time>2019-05-31T08:47:43.551Z</time>
      </trkpt>
      <trkpt lat="45.40892" lon="3.81533">
        <ele>1027</ele>
        <time>2019-05-31T08:47:47.566Z</time>
      </trkpt>
      <trkpt lat="45.40894" lon="3.81547">
        <ele>1027</ele>
        <time>2019-05-31T08:47:52.564Z</time>
      </trkpt>
      <trkpt lat="45.40899" lon="3.81559">
        <ele>1027</ele>
        <time>2019-05-31T08:47:57.542Z</time>
      </trkpt>
      <trkpt lat="45.40906" lon="3.81564">
        <ele>1023</ele>
        <time>2019-05-31T08:48:02.554Z</time>
      </trkpt>
      <trkpt lat="45.40908" lon="3.81567">
        <ele>1023</ele>
        <time>2019-05-31T08:48:06.579Z</time>
      </trkpt>
      <trkpt lat="45.40913" lon="3.81574">
        <ele>1020</ele>
        <time>2019-05-31T08:48:11.547Z</time>
      </trkpt>
      <trkpt lat="45.40915" lon="3.81583">
        <ele>1020</ele>
        <time>2019-05-31T08:48:16.553Z</time>
      </trkpt>
      <trkpt lat="45.40912" lon="3.8159">
        <ele>1020</ele>
        <time>2019-05-31T08:48:21.544Z</time>
      </trkpt>
      <trkpt lat="45.40911" lon="3.816">
        <ele>1016</ele>
        <time>2019-05-31T08:48:25.579Z</time>
      </trkpt>
      <trkpt lat="45.40908" lon="3.81612">
        <ele>1016</ele>
        <time>2019-05-31T08:48:30.545Z</time>
      </trkpt>
      <trkpt lat="45.40908" lon="3.81621">
        <ele>1016</ele>
        <time>2019-05-31T08:48:34.566Z</time>
      </trkpt>
      <trkpt lat="45.40913" lon="3.81634">
        <ele>1013</ele>
        <time>2019-05-31T08:48:39.552Z</time>
      </trkpt>
      <trkpt lat="45.40919" lon="3.81646">
        <ele>1013</ele>
        <time>2019-05-31T08:48:44.568Z</time>
      </trkpt>
      <trkpt lat="45.40924" lon="3.81661">
        <ele>1014</ele>
        <time>2019-05-31T08:48:49.548Z</time>
      </trkpt>
      <trkpt lat="45.40928" lon="3.81678">
        <ele>1014</ele>
        <time>2019-05-31T08:48:54.550Z</time>
      </trkpt>
      <trkpt lat="45.40932" lon="3.81694">
        <ele>1012</ele>
        <time>2019-05-31T08:48:59.544Z</time>
      </trkpt>
      <trkpt lat="45.40935" lon="3.81706">
        <ele>1012</ele>
        <time>2019-05-31T08:49:03.551Z</time>
      </trkpt>
      <trkpt lat="45.40933" lon="3.81721">
        <ele>1015</ele>
        <time>2019-05-31T08:49:08.553Z</time>
      </trkpt>
      <trkpt lat="45.40933" lon="3.8173">
        <ele>1015</ele>
        <time>2019-05-31T08:49:12.575Z</time>
      </trkpt>
      <trkpt lat="45.40934" lon="3.81736">
        <ele>1015</ele>
        <time>2019-05-31T08:49:16.568Z</time>
      </trkpt>
      <trkpt lat="45.40938" lon="3.81742">
        <ele>1015</ele>
        <time>2019-05-31T08:49:21.545Z</time>
      </trkpt>
      <trkpt lat="45.40944" lon="3.81746">
        <ele>1015</ele>
        <time>2019-05-31T08:49:25.582Z</time>
      </trkpt>
      <trkpt lat="45.40953" lon="3.81752">
        <ele>1015</ele>
        <time>2019-05-31T08:49:30.562Z</time>
      </trkpt>
      <trkpt lat="45.40958" lon="3.81755">
        <ele>1015</ele>
        <time>2019-05-31T08:49:35.552Z</time>
      </trkpt>
      <trkpt lat="45.40962" lon="3.81761">
        <ele>1013</ele>
        <time>2019-05-31T08:49:39.561Z</time>
      </trkpt>
      <trkpt lat="45.40971" lon="3.81766">
        <ele>1013</ele>
        <time>2019-05-31T08:49:44.554Z</time>
      </trkpt>
      <trkpt lat="45.40976" lon="3.81769">
        <ele>1013</ele>
        <time>2019-05-31T08:49:48.565Z</time>
      </trkpt>
      <trkpt lat="45.40981" lon="3.81772">
        <ele>1013</ele>
        <time>2019-05-31T08:49:53.551Z</time>
      </trkpt>
      <trkpt lat="45.40987" lon="3.81777">
        <ele>1011</ele>
        <time>2019-05-31T08:49:58.568Z</time>
      </trkpt>
      <trkpt lat="45.40994" lon="3.81783">
        <ele>1011</ele>
        <time>2019-05-31T08:50:03.553Z</time>
      </trkpt>
      <trkpt lat="45.41" lon="3.81788">
        <ele>1011</ele>
        <time>2019-05-31T08:50:07.574Z</time>
      </trkpt>
      <trkpt lat="45.41007" lon="3.81809">
        <ele>1011</ele>
        <time>2019-05-31T08:50:12.561Z</time>
      </trkpt>
      <trkpt lat="45.4101" lon="3.81819">
        <ele>1011</ele>
        <time>2019-05-31T08:50:17.560Z</time>
      </trkpt>
      <trkpt lat="45.41014" lon="3.81828">
        <ele>1010</ele>
        <time>2019-05-31T08:50:22.559Z</time>
      </trkpt>
      <trkpt lat="45.41016" lon="3.81833">
        <ele>1008</ele>
        <time>2019-05-31T08:50:26.543Z</time>
      </trkpt>
      <trkpt lat="45.4102" lon="3.8184">
        <ele>1008</ele>
        <time>2019-05-31T08:50:31.564Z</time>
      </trkpt>
      <trkpt lat="45.41033" lon="3.8185">
        <ele>1007</ele>
        <time>2019-05-31T08:50:36.564Z</time>
      </trkpt>
      <trkpt lat="45.41038" lon="3.81855">
        <ele>1007</ele>
        <time>2019-05-31T08:50:41.557Z</time>
      </trkpt>
      <trkpt lat="45.41041" lon="3.81859">
        <ele>1007</ele>
        <time>2019-05-31T08:50:45.562Z</time>
      </trkpt>
      <trkpt lat="45.41048" lon="3.81864">
        <ele>1011</ele>
        <time>2019-05-31T08:50:50.542Z</time>
      </trkpt>
      <trkpt lat="45.41052" lon="3.8187">
        <ele>1011</ele>
        <time>2019-05-31T08:50:54.568Z</time>
      </trkpt>
      <trkpt lat="45.41053" lon="3.81877">
        <ele>1012</ele>
        <time>2019-05-31T08:50:58.561Z</time>
      </trkpt>
      <trkpt lat="45.41055" lon="3.81886">
        <ele>1012</ele>
        <time>2019-05-31T08:51:03.560Z</time>
      </trkpt>
      <trkpt lat="45.41056" lon="3.81889">
        <ele>1012</ele>
        <time>2019-05-31T08:51:07.584Z</time>
      </trkpt>
      <trkpt lat="45.41059" lon="3.81898">
        <ele>1012</ele>
        <time>2019-05-31T08:51:12.559Z</time>
      </trkpt>
      <trkpt lat="45.41061" lon="3.81907">
        <ele>1013</ele>
        <time>2019-05-31T08:51:17.555Z</time>
      </trkpt>
      <trkpt lat="45.41063" lon="3.81914">
        <ele>1013</ele>
        <time>2019-05-31T08:51:22.561Z</time>
      </trkpt>
      <trkpt lat="45.41064" lon="3.81919">
        <ele>1013</ele>
        <time>2019-05-31T08:51:26.566Z</time>
      </trkpt>
      <trkpt lat="45.41065" lon="3.81924">
        <ele>1013</ele>
        <time>2019-05-31T08:51:31.561Z</time>
      </trkpt>
      <trkpt lat="45.41068" lon="3.81927">
        <ele>1013</ele>
        <time>2019-05-31T08:51:35.553Z</time>
      </trkpt>
      <trkpt lat="45.41072" lon="3.81933">
        <ele>1019</ele>
        <time>2019-05-31T08:51:39.536Z</time>
      </trkpt>
      <trkpt lat="45.4108" lon="3.81942">
        <ele>1019</ele>
        <time>2019-05-31T08:51:44.542Z</time>
      </trkpt>
      <trkpt lat="45.4109" lon="3.81953">
        <ele>1019</ele>
        <time>2019-05-31T08:51:49.527Z</time>
      </trkpt>
      <trkpt lat="45.41095" lon="3.81962">
        <ele>1018</ele>
        <time>2019-05-31T08:51:53.555Z</time>
      </trkpt>
      <trkpt lat="45.41102" lon="3.81969">
        <ele>1022</ele>
        <time>2019-05-31T08:51:58.556Z</time>
      </trkpt>
      <trkpt lat="45.41113" lon="3.81975">
        <ele>1022</ele>
        <time>2019-05-31T08:52:03.539Z</time>
      </trkpt>
      <trkpt lat="45.4112" lon="3.81983">
        <ele>1022</ele>
        <time>2019-05-31T08:52:08.536Z</time>
      </trkpt>
      <trkpt lat="45.41127" lon="3.8199">
        <ele>1024</ele>
        <time>2019-05-31T08:52:12.564Z</time>
      </trkpt>
      <trkpt lat="45.4113" lon="3.81997">
        <ele>1024</ele>
        <time>2019-05-31T08:52:17.538Z</time>
      </trkpt>
      <trkpt lat="45.41133" lon="3.82001">
        <ele>1024</ele>
        <time>2019-05-31T08:52:21.555Z</time>
      </trkpt>
      <trkpt lat="45.41139" lon="3.82005">
        <ele>1024</ele>
        <time>2019-05-31T08:52:25.567Z</time>
      </trkpt>
      <trkpt lat="45.41142" lon="3.82016">
        <ele>1027</ele>
        <time>2019-05-31T08:52:30.564Z</time>
      </trkpt>
      <trkpt lat="45.41148" lon="3.82022">
        <ele>1027</ele>
        <time>2019-05-31T08:52:35.562Z</time>
      </trkpt>
      <trkpt lat="45.41151" lon="3.82028">
        <ele>1027</ele>
        <time>2019-05-31T08:52:39.583Z</time>
      </trkpt>
      <trkpt lat="45.41156" lon="3.8203">
        <ele>1028</ele>
        <time>2019-05-31T08:52:44.572Z</time>
      </trkpt>
      <trkpt lat="45.4116" lon="3.82034">
        <ele>1028</ele>
        <time>2019-05-31T08:52:49.565Z</time>
      </trkpt>
      <trkpt lat="45.41163" lon="3.82035">
        <ele>1028</ele>
        <time>2019-05-31T08:52:53.664Z</time>
      </trkpt>
      <trkpt lat="45.41166" lon="3.82041">
        <ele>1028</ele>
        <time>2019-05-31T08:52:58.553Z</time>
      </trkpt>
      <trkpt lat="45.41171" lon="3.82046">
        <ele>1031</ele>
        <time>2019-05-31T08:53:03.537Z</time>
      </trkpt>
      <trkpt lat="45.41179" lon="3.82049">
        <ele>1031</ele>
        <time>2019-05-31T08:53:07.550Z</time>
      </trkpt>
      <trkpt lat="45.41185" lon="3.82052">
        <ele>1030</ele>
        <time>2019-05-31T08:53:12.557Z</time>
      </trkpt>
      <trkpt lat="45.41187" lon="3.82058">
        <ele>1030</ele>
        <time>2019-05-31T08:53:17.557Z</time>
      </trkpt>
      <trkpt lat="45.41192" lon="3.82063">
        <ele>1030</ele>
        <time>2019-05-31T08:53:21.550Z</time>
      </trkpt>
      <trkpt lat="45.41199" lon="3.82071">
        <ele>1031</ele>
        <time>2019-05-31T08:53:26.588Z</time>
      </trkpt>
      <trkpt lat="45.41205" lon="3.82076">
        <ele>1031</ele>
        <time>2019-05-31T08:53:31.551Z</time>
      </trkpt>
      <trkpt lat="45.41214" lon="3.82081">
        <ele>1032</ele>
        <time>2019-05-31T08:53:36.535Z</time>
      </trkpt>
      <trkpt lat="45.41218" lon="3.82085">
        <ele>1032</ele>
        <time>2019-05-31T08:53:40.558Z</time>
      </trkpt>
      <trkpt lat="45.41221" lon="3.82091">
        <ele>1032</ele>
        <time>2019-05-31T08:53:44.589Z</time>
      </trkpt>
      <trkpt lat="45.41224" lon="3.821">
        <ele>1032</ele>
        <time>2019-05-31T08:53:49.559Z</time>
      </trkpt>
      <trkpt lat="45.41229" lon="3.82106">
        <ele>1032</ele>
        <time>2019-05-31T08:53:54.562Z</time>
      </trkpt>
      <trkpt lat="45.41236" lon="3.82113">
        <ele>1032</ele>
        <time>2019-05-31T08:53:59.558Z</time>
      </trkpt>
      <trkpt lat="45.41243" lon="3.82124">
        <ele>1035</ele>
        <time>2019-05-31T08:54:04.557Z</time>
      </trkpt>
      <trkpt lat="45.41246" lon="3.82133">
        <ele>1034</ele>
        <time>2019-05-31T08:54:09.558Z</time>
      </trkpt>
      <trkpt lat="45.41248" lon="3.82139">
        <ele>1034</ele>
        <time>2019-05-31T08:54:14.551Z</time>
      </trkpt>
      <trkpt lat="45.41254" lon="3.82145">
        <ele>1034</ele>
        <time>2019-05-31T08:54:19.547Z</time>
      </trkpt>
      <trkpt lat="45.41259" lon="3.82149">
        <ele>1034</ele>
        <time>2019-05-31T08:54:23.567Z</time>
      </trkpt>
      <trkpt lat="45.41259" lon="3.82146">
        <ele>1034</ele>
        <time>2019-05-31T08:54:28.549Z</time>
      </trkpt>
      <trkpt lat="45.41262" lon="3.82146">
        <ele>1034</ele>
        <time>2019-05-31T08:54:32.567Z</time>
      </trkpt>
      <trkpt lat="45.41266" lon="3.82149">
        <ele>1038</ele>
        <time>2019-05-31T08:54:36.548Z</time>
      </trkpt>
      <trkpt lat="45.41273" lon="3.82142">
        <ele>1038</ele>
        <time>2019-05-31T08:54:41.541Z</time>
      </trkpt>
      <trkpt lat="45.41278" lon="3.8214">
        <ele>1038</ele>
        <time>2019-05-31T08:54:45.553Z</time>
      </trkpt>
      <trkpt lat="45.41281" lon="3.82138">
        <ele>1038</ele>
        <time>2019-05-31T08:54:49.559Z</time>
      </trkpt>
      <trkpt lat="45.41286" lon="3.82138">
        <ele>1038</ele>
        <time>2019-05-31T08:54:54.568Z</time>
      </trkpt>
      <trkpt lat="45.41294" lon="3.82129">
        <ele>1041</ele>
        <time>2019-05-31T08:54:59.592Z</time>
      </trkpt>
      <trkpt lat="45.41303" lon="3.8212">
        <ele>1040</ele>
        <time>2019-05-31T08:55:04.562Z</time>
      </trkpt>
      <trkpt lat="45.41307" lon="3.82117">
        <ele>1040</ele>
        <time>2019-05-31T08:55:08.615Z</time>
      </trkpt>
      <trkpt lat="45.4131" lon="3.82114">
        <ele>1040</ele>
        <time>2019-05-31T08:55:13.560Z</time>
      </trkpt>
      <trkpt lat="45.41315" lon="3.82111">
        <ele>1040</ele>
        <time>2019-05-31T08:55:17.593Z</time>
      </trkpt>
      <trkpt lat="45.4132" lon="3.82107">
        <ele>1039</ele>
        <time>2019-05-31T08:55:22.566Z</time>
      </trkpt>
      <trkpt lat="45.41321" lon="3.82106">
        <ele>1039</ele>
        <time>2019-05-31T08:55:26.601Z</time>
      </trkpt>
      <trkpt lat="45.41326" lon="3.82103">
        <ele>1039</ele>
        <time>2019-05-31T08:55:31.551Z</time>
      </trkpt>
      <trkpt lat="45.41337" lon="3.82097">
        <ele>1039</ele>
        <time>2019-05-31T08:55:36.554Z</time>
      </trkpt>
      <trkpt lat="45.41343" lon="3.82092">
        <ele>1039</ele>
        <time>2019-05-31T08:55:45.552Z</time>
      </trkpt>
      <trkpt lat="45.41344" lon="3.82092">
        <ele>1039</ele>
        <time>2019-05-31T08:55:50.562Z</time>
      </trkpt>
      <trkpt lat="45.41348" lon="3.82089">
        <ele>1041</ele>
        <time>2019-05-31T08:55:55.560Z</time>
      </trkpt>
      <trkpt lat="45.41349" lon="3.82089">
        <ele>1041</ele>
        <time>2019-05-31T08:56:00.561Z</time>
      </trkpt>
      <trkpt lat="45.4135" lon="3.82089">
        <ele>1041</ele>
        <time>2019-05-31T08:56:04.564Z</time>
      </trkpt>
      <trkpt lat="45.41357" lon="3.82086">
        <ele>1041</ele>
        <time>2019-05-31T08:56:09.549Z</time>
      </trkpt>
      <trkpt lat="45.41368" lon="3.82076">
        <ele>1041</ele>
        <time>2019-05-31T08:56:14.529Z</time>
      </trkpt>
      <trkpt lat="45.4137" lon="3.82075">
        <ele>1041</ele>
        <time>2019-05-31T08:56:18.549Z</time>
      </trkpt>
      <trkpt lat="45.41373" lon="3.82073">
        <ele>1041</ele>
        <time>2019-05-31T08:56:22.545Z</time>
      </trkpt>
      <trkpt lat="45.41379" lon="3.82065">
        <ele>1044</ele>
        <time>2019-05-31T08:56:27.549Z</time>
      </trkpt>
      <trkpt lat="45.4139" lon="3.82052">
        <ele>1044</ele>
        <time>2019-05-31T08:56:32.557Z</time>
      </trkpt>
      <trkpt lat="45.41393" lon="3.8205">
        <ele>1044</ele>
        <time>2019-05-31T08:56:37.555Z</time>
      </trkpt>
      <trkpt lat="45.41396" lon="3.82046">
        <ele>1044</ele>
        <time>2019-05-31T08:56:42.539Z</time>
      </trkpt>
      <trkpt lat="45.41404" lon="3.82037">
        <ele>1048</ele>
        <time>2019-05-31T08:56:47.541Z</time>
      </trkpt>
      <trkpt lat="45.41408" lon="3.8203">
        <ele>1048</ele>
        <time>2019-05-31T08:56:52.558Z</time>
      </trkpt>
      <trkpt lat="45.41414" lon="3.82025">
        <ele>1048</ele>
        <time>2019-05-31T08:56:57.536Z</time>
      </trkpt>
      <trkpt lat="45.41426" lon="3.82016">
        <ele>1048</ele>
        <time>2019-05-31T08:57:01.587Z</time>
      </trkpt>
      <trkpt lat="45.41439" lon="3.8201">
        <ele>1048</ele>
        <time>2019-05-31T08:57:06.551Z</time>
      </trkpt>
      <trkpt lat="45.41446" lon="3.82006">
        <ele>1048</ele>
        <time>2019-05-31T08:57:10.589Z</time>
      </trkpt>
      <trkpt lat="45.4145" lon="3.81996">
        <ele>1048</ele>
        <time>2019-05-31T08:57:15.561Z</time>
      </trkpt>
      <trkpt lat="45.41455" lon="3.8199">
        <ele>1048</ele>
        <time>2019-05-31T08:57:20.559Z</time>
      </trkpt>
      <trkpt lat="45.41461" lon="3.81987">
        <ele>1047</ele>
        <time>2019-05-31T08:57:25.555Z</time>
      </trkpt>
      <trkpt lat="45.41463" lon="3.8198">
        <ele>1044</ele>
        <time>2019-05-31T08:57:30.560Z</time>
      </trkpt>
      <trkpt lat="45.41466" lon="3.81977">
        <ele>1044</ele>
        <time>2019-05-31T08:57:35.559Z</time>
      </trkpt>
      <trkpt lat="45.41473" lon="3.81976">
        <ele>1044</ele>
        <time>2019-05-31T08:57:40.566Z</time>
      </trkpt>
      <trkpt lat="45.41482" lon="3.81975">
        <ele>1044</ele>
        <time>2019-05-31T08:57:45.560Z</time>
      </trkpt>
      <trkpt lat="45.41485" lon="3.81975">
        <ele>1044</ele>
        <time>2019-05-31T08:57:49.565Z</time>
      </trkpt>
      <trkpt lat="45.41486" lon="3.81972">
        <ele>1044</ele>
        <time>2019-05-31T08:57:54.563Z</time>
      </trkpt>
      <trkpt lat="45.41496" lon="3.81963">
        <ele>1044</ele>
        <time>2019-05-31T08:57:59.559Z</time>
      </trkpt>
      <trkpt lat="45.41501" lon="3.81956">
        <ele>1040</ele>
        <time>2019-05-31T08:58:04.536Z</time>
      </trkpt>
      <trkpt lat="45.41512" lon="3.81952">
        <ele>1040</ele>
        <time>2019-05-31T08:58:08.574Z</time>
      </trkpt>
      <trkpt lat="45.41517" lon="3.81947">
        <ele>1042</ele>
        <time>2019-05-31T08:58:12.629Z</time>
      </trkpt>
      <trkpt lat="45.41522" lon="3.81943">
        <ele>1042</ele>
        <time>2019-05-31T08:58:17.559Z</time>
      </trkpt>
      <trkpt lat="45.41534" lon="3.81936">
        <ele>1042</ele>
        <time>2019-05-31T08:58:22.574Z</time>
      </trkpt>
      <trkpt lat="45.41547" lon="3.81934">
        <ele>1044</ele>
        <time>2019-05-31T08:58:26.582Z</time>
      </trkpt>
      <trkpt lat="45.41552" lon="3.81935">
        <ele>1044</ele>
        <time>2019-05-31T08:58:30.622Z</time>
      </trkpt>
      <trkpt lat="45.41557" lon="3.81935">
        <ele>1044</ele>
        <time>2019-05-31T08:58:35.575Z</time>
      </trkpt>
      <trkpt lat="45.41566" lon="3.81932">
        <ele>1044</ele>
        <time>2019-05-31T08:58:40.550Z</time>
      </trkpt>
      <trkpt lat="45.41569" lon="3.81933">
        <ele>1044</ele>
        <time>2019-05-31T08:58:44.560Z</time>
      </trkpt>
      <trkpt lat="45.41579" lon="3.81936">
        <ele>1041</ele>
        <time>2019-05-31T08:58:48.584Z</time>
      </trkpt>
      <trkpt lat="45.41588" lon="3.81938">
        <ele>1041</ele>
        <time>2019-05-31T08:58:53.559Z</time>
      </trkpt>
      <trkpt lat="45.41594" lon="3.81933">
        <ele>1041</ele>
        <time>2019-05-31T08:58:58.551Z</time>
      </trkpt>
      <trkpt lat="45.41602" lon="3.81927">
        <ele>1038</ele>
        <time>2019-05-31T08:59:02.576Z</time>
      </trkpt>
      <trkpt lat="45.41613" lon="3.81914">
        <ele>1038</ele>
        <time>2019-05-31T08:59:07.555Z</time>
      </trkpt>
      <trkpt lat="45.41619" lon="3.81905">
        <ele>1038</ele>
        <time>2019-05-31T08:59:12.568Z</time>
      </trkpt>
      <trkpt lat="45.41623" lon="3.81897">
        <ele>1037</ele>
        <time>2019-05-31T08:59:17.568Z</time>
      </trkpt>
      <trkpt lat="45.41628" lon="3.8189">
        <ele>1041</ele>
        <time>2019-05-31T08:59:22.546Z</time>
      </trkpt>
      <trkpt lat="45.41633" lon="3.81884">
        <ele>1041</ele>
        <time>2019-05-31T08:59:26.554Z</time>
      </trkpt>
      <trkpt lat="45.41637" lon="3.81875">
        <ele>1040</ele>
        <time>2019-05-31T08:59:31.582Z</time>
      </trkpt>
      <trkpt lat="45.41643" lon="3.81867">
        <ele>1040</ele>
        <time>2019-05-31T08:59:36.556Z</time>
      </trkpt>
      <trkpt lat="45.41649" lon="3.8186">
        <ele>1040</ele>
        <time>2019-05-31T08:59:41.584Z</time>
      </trkpt>
      <trkpt lat="45.41654" lon="3.81854">
        <ele>1045</ele>
        <time>2019-05-31T08:59:46.565Z</time>
      </trkpt>
      <trkpt lat="45.41657" lon="3.8185">
        <ele>1045</ele>
        <time>2019-05-31T08:59:50.578Z</time>
      </trkpt>
      <trkpt lat="45.4166" lon="3.81845">
        <ele>1045</ele>
        <time>2019-05-31T08:59:54.588Z</time>
      </trkpt>
      <trkpt lat="45.41661" lon="3.81836">
        <ele>1045</ele>
        <time>2019-05-31T08:59:59.574Z</time>
      </trkpt>
      <trkpt lat="45.41663" lon="3.81829">
        <ele>1045</ele>
        <time>2019-05-31T09:00:04.557Z</time>
      </trkpt>
      <trkpt lat="45.41664" lon="3.81822">
        <ele>1045</ele>
        <time>2019-05-31T09:00:08.556Z</time>
      </trkpt>
      <trkpt lat="45.41669" lon="3.81816">
        <ele>1046</ele>
        <time>2019-05-31T09:00:12.596Z</time>
      </trkpt>
      <trkpt lat="45.41671" lon="3.81804">
        <ele>1046</ele>
        <time>2019-05-31T09:00:17.567Z</time>
      </trkpt>
      <trkpt lat="45.41671" lon="3.81797">
        <ele>1046</ele>
        <time>2019-05-31T09:00:22.573Z</time>
      </trkpt>
      <trkpt lat="45.41673" lon="3.81794">
        <ele>1046</ele>
        <time>2019-05-31T09:00:27.545Z</time>
      </trkpt>
      <trkpt lat="45.41677" lon="3.81784">
        <ele>1047</ele>
        <time>2019-05-31T09:00:31.573Z</time>
      </trkpt>
      <trkpt lat="45.41683" lon="3.81774">
        <ele>1052</ele>
        <time>2019-05-31T09:00:36.538Z</time>
      </trkpt>
      <trkpt lat="45.41688" lon="3.81765">
        <ele>1052</ele>
        <time>2019-05-31T09:00:40.564Z</time>
      </trkpt>
      <trkpt lat="45.41689" lon="3.81762">
        <ele>1051</ele>
        <time>2019-05-31T09:00:44.693Z</time>
      </trkpt>
      <trkpt lat="45.41694" lon="3.81755">
        <ele>1051</ele>
        <time>2019-05-31T09:00:49.570Z</time>
      </trkpt>
      <trkpt lat="45.41699" lon="3.81748">
        <ele>1051</ele>
        <time>2019-05-31T09:00:54.562Z</time>
      </trkpt>
      <trkpt lat="45.41705" lon="3.81741">
        <ele>1051</ele>
        <time>2019-05-31T09:00:59.563Z</time>
      </trkpt>
      <trkpt lat="45.41709" lon="3.81735">
        <ele>1055</ele>
        <time>2019-05-31T09:01:04.580Z</time>
      </trkpt>
      <trkpt lat="45.41713" lon="3.81727">
        <ele>1055</ele>
        <time>2019-05-31T09:01:09.564Z</time>
      </trkpt>
      <trkpt lat="45.41719" lon="3.81718">
        <ele>1055</ele>
        <time>2019-05-31T09:01:14.564Z</time>
      </trkpt>
      <trkpt lat="45.41724" lon="3.81711">
        <ele>1055</ele>
        <time>2019-05-31T09:01:18.614Z</time>
      </trkpt>
      <trkpt lat="45.4173" lon="3.817">
        <ele>1052</ele>
        <time>2019-05-31T09:01:23.558Z</time>
      </trkpt>
      <trkpt lat="45.41734" lon="3.81694">
        <ele>1052</ele>
        <time>2019-05-31T09:01:27.570Z</time>
      </trkpt>
      <trkpt lat="45.41737" lon="3.81695">
        <ele>1057</ele>
        <time>2019-05-31T09:01:32.551Z</time>
      </trkpt>
      <trkpt lat="45.41739" lon="3.81693">
        <ele>1057</ele>
        <time>2019-05-31T09:01:36.576Z</time>
      </trkpt>
      <trkpt lat="45.41744" lon="3.81692">
        <ele>1057</ele>
        <time>2019-05-31T09:01:41.587Z</time>
      </trkpt>
      <trkpt lat="45.41746" lon="3.81692">
        <ele>1057</ele>
        <time>2019-05-31T09:01:45.592Z</time>
      </trkpt>
      <trkpt lat="45.41756" lon="3.81691">
        <ele>1057</ele>
        <time>2019-05-31T09:01:50.574Z</time>
      </trkpt>
      <trkpt lat="45.41762" lon="3.8169">
        <ele>1057</ele>
        <time>2019-05-31T09:01:54.589Z</time>
      </trkpt>
      <trkpt lat="45.41766" lon="3.81687">
        <ele>1059</ele>
        <time>2019-05-31T09:01:59.548Z</time>
      </trkpt>
      <trkpt lat="45.41768" lon="3.81686">
        <ele>1059</ele>
        <time>2019-05-31T09:02:09.531Z</time>
      </trkpt>
      <trkpt lat="45.4177" lon="3.81685">
        <ele>1059</ele>
        <time>2019-05-31T09:02:13.561Z</time>
      </trkpt>
      <trkpt lat="45.41772" lon="3.81685">
        <ele>1059</ele>
        <time>2019-05-31T09:02:18.564Z</time>
      </trkpt>
      <trkpt lat="45.41775" lon="3.81687">
        <ele>1059</ele>
        <time>2019-05-31T09:02:23.610Z</time>
      </trkpt>
      <trkpt lat="45.4179" lon="3.81692">
        <ele>1059</ele>
        <time>2019-05-31T09:02:28.543Z</time>
      </trkpt>
      <trkpt lat="45.41802" lon="3.81695">
        <ele>1060</ele>
        <time>2019-05-31T09:02:32.555Z</time>
      </trkpt>
      <trkpt lat="45.41814" lon="3.81694">
        <ele>1060</ele>
        <time>2019-05-31T09:02:37.561Z</time>
      </trkpt>
      <trkpt lat="45.41833" lon="3.81691">
        <ele>1061</ele>
        <time>2019-05-31T09:02:42.567Z</time>
      </trkpt>
      <trkpt lat="45.41846" lon="3.81694">
        <ele>1061</ele>
        <time>2019-05-31T09:02:47.563Z</time>
      </trkpt>
      <trkpt lat="45.41855" lon="3.81703">
        <ele>1064</ele>
        <time>2019-05-31T09:02:52.566Z</time>
      </trkpt>
      <trkpt lat="45.41857" lon="3.81708">
        <ele>1064</ele>
        <time>2019-05-31T09:02:56.581Z</time>
      </trkpt>
      <trkpt lat="45.41863" lon="3.81715">
        <ele>1064</ele>
        <time>2019-05-31T09:03:01.564Z</time>
      </trkpt>
      <trkpt lat="45.41869" lon="3.81719">
        <ele>1064</ele>
        <time>2019-05-31T09:03:06.609Z</time>
      </trkpt>
      <trkpt lat="45.41872" lon="3.81718">
        <ele>1064</ele>
        <time>2019-05-31T09:03:11.549Z</time>
      </trkpt>
      <trkpt lat="45.41877" lon="3.81719">
        <ele>1069</ele>
        <time>2019-05-31T09:03:15.562Z</time>
      </trkpt>
      <trkpt lat="45.41883" lon="3.81726">
        <ele>1069</ele>
        <time>2019-05-31T09:03:20.560Z</time>
      </trkpt>
      <trkpt lat="45.4189" lon="3.81733">
        <ele>1069</ele>
        <time>2019-05-31T09:03:25.562Z</time>
      </trkpt>
      <trkpt lat="45.41897" lon="3.81738">
        <ele>1070</ele>
        <time>2019-05-31T09:03:30.569Z</time>
      </trkpt>
      <trkpt lat="45.41904" lon="3.81742">
        <ele>1072</ele>
        <time>2019-05-31T09:03:35.570Z</time>
      </trkpt>
      <trkpt lat="45.41911" lon="3.81748">
        <ele>1072</ele>
        <time>2019-05-31T09:03:40.616Z</time>
      </trkpt>
      <trkpt lat="45.41917" lon="3.81753">
        <ele>1072</ele>
        <time>2019-05-31T09:03:45.570Z</time>
      </trkpt>
      <trkpt lat="45.41921" lon="3.81755">
        <ele>1072</ele>
        <time>2019-05-31T09:03:49.564Z</time>
      </trkpt>
      <trkpt lat="45.41926" lon="3.8176">
        <ele>1072</ele>
        <time>2019-05-31T09:03:54.551Z</time>
      </trkpt>
      <trkpt lat="45.4193" lon="3.81762">
        <ele>1072</ele>
        <time>2019-05-31T09:03:58.576Z</time>
      </trkpt>
      <trkpt lat="45.41933" lon="3.81764">
        <ele>1075</ele>
        <time>2019-05-31T09:04:03.552Z</time>
      </trkpt>
      <trkpt lat="45.41938" lon="3.81768">
        <ele>1075</ele>
        <time>2019-05-31T09:04:07.565Z</time>
      </trkpt>
      <trkpt lat="45.41942" lon="3.81771">
        <ele>1075</ele>
        <time>2019-05-31T09:04:12.573Z</time>
      </trkpt>
      <trkpt lat="45.41943" lon="3.81772">
        <ele>1075</ele>
        <time>2019-05-31T09:04:16.581Z</time>
      </trkpt>
      <trkpt lat="45.41948" lon="3.81778">
        <ele>1075</ele>
        <time>2019-05-31T09:04:21.586Z</time>
      </trkpt>
      <trkpt lat="45.41949" lon="3.81779">
        <ele>1075</ele>
        <time>2019-05-31T09:04:26.560Z</time>
      </trkpt>
      <trkpt lat="45.41955" lon="3.81783">
        <ele>1075</ele>
        <time>2019-05-31T09:04:30.587Z</time>
      </trkpt>
      <trkpt lat="45.41956" lon="3.81785">
        <ele>1075</ele>
        <time>2019-05-31T09:04:35.599Z</time>
      </trkpt>
      <trkpt lat="45.41963" lon="3.81794">
        <ele>1078</ele>
        <time>2019-05-31T09:04:40.550Z</time>
      </trkpt>
      <trkpt lat="45.41965" lon="3.81797">
        <ele>1078</ele>
        <time>2019-05-31T09:04:45.580Z</time>
      </trkpt>
      <trkpt lat="45.41973" lon="3.81803">
        <ele>1078</ele>
        <time>2019-05-31T09:04:50.559Z</time>
      </trkpt>
      <trkpt lat="45.41974" lon="3.81804">
        <ele>1078</ele>
        <time>2019-05-31T09:04:54.546Z</time>
      </trkpt>
      <trkpt lat="45.41977" lon="3.81806">
        <ele>1078</ele>
        <time>2019-05-31T09:04:59.569Z</time>
      </trkpt>
      <trkpt lat="45.41984" lon="3.81815">
        <ele>1078</ele>
        <time>2019-05-31T09:05:03.541Z</time>
      </trkpt>
      <trkpt lat="45.41992" lon="3.81824">
        <ele>1081</ele>
        <time>2019-05-31T09:05:08.554Z</time>
      </trkpt>
      <trkpt lat="45.41997" lon="3.8183">
        <ele>1081</ele>
        <time>2019-05-31T09:05:12.569Z</time>
      </trkpt>
      <trkpt lat="45.42002" lon="3.81835">
        <ele>1081</ele>
        <time>2019-05-31T09:05:17.534Z</time>
      </trkpt>
      <trkpt lat="45.42013" lon="3.81845">
        <ele>1081</ele>
        <time>2019-05-31T09:05:22.559Z</time>
      </trkpt>
      <trkpt lat="45.42042" lon="3.81882">
        <ele>1083</ele>
        <time>2019-05-31T09:05:27.567Z</time>
      </trkpt>
      <trkpt lat="45.42063" lon="3.81912">
        <ele>1083</ele>
        <time>2019-05-31T09:05:32.551Z</time>
      </trkpt>
      <trkpt lat="45.42076" lon="3.81921">
        <ele>1080</ele>
        <time>2019-05-31T09:05:36.585Z</time>
      </trkpt>
      <trkpt lat="45.42085" lon="3.81926">
        <ele>1080</ele>
        <time>2019-05-31T09:05:41.548Z</time>
      </trkpt>
      <trkpt lat="45.4209" lon="3.81928">
        <ele>1080</ele>
        <time>2019-05-31T09:05:45.559Z</time>
      </trkpt>
      <trkpt lat="45.42101" lon="3.81935">
        <ele>1080</ele>
        <time>2019-05-31T09:05:50.560Z</time>
      </trkpt>
      <trkpt lat="45.42108" lon="3.81938">
        <ele>1080</ele>
        <time>2019-05-31T09:05:54.683Z</time>
      </trkpt>
      <trkpt lat="45.42114" lon="3.81939">
        <ele>1080</ele>
        <time>2019-05-31T09:05:59.566Z</time>
      </trkpt>
      <trkpt lat="45.42124" lon="3.81947">
        <ele>1080</ele>
        <time>2019-05-31T09:06:04.564Z</time>
      </trkpt>
      <trkpt lat="45.42133" lon="3.81952">
        <ele>1080</ele>
        <time>2019-05-31T09:06:09.561Z</time>
      </trkpt>
      <trkpt lat="45.42142" lon="3.81957">
        <ele>1080</ele>
        <time>2019-05-31T09:06:14.581Z</time>
      </trkpt>
      <trkpt lat="45.42149" lon="3.81966">
        <ele>1080</ele>
        <time>2019-05-31T09:06:19.552Z</time>
      </trkpt>
      <trkpt lat="45.42158" lon="3.81972">
        <ele>1079</ele>
        <time>2019-05-31T09:06:24.561Z</time>
      </trkpt>
      <trkpt lat="45.42166" lon="3.81979">
        <ele>1079</ele>
        <time>2019-05-31T09:06:29.561Z</time>
      </trkpt>
      <trkpt lat="45.42174" lon="3.81985">
        <ele>1079</ele>
        <time>2019-05-31T09:06:34.543Z</time>
      </trkpt>
      <trkpt lat="45.42179" lon="3.81987">
        <ele>1079</ele>
        <time>2019-05-31T09:06:38.560Z</time>
      </trkpt>
      <trkpt lat="45.42184" lon="3.81993">
        <ele>1078</ele>
        <time>2019-05-31T09:06:42.575Z</time>
      </trkpt>
      <trkpt lat="45.4219" lon="3.82001">
        <ele>1078</ele>
        <time>2019-05-31T09:06:47.549Z</time>
      </trkpt>
      <trkpt lat="45.42195" lon="3.82004">
        <ele>1078</ele>
        <time>2019-05-31T09:06:51.568Z</time>
      </trkpt>
      <trkpt lat="45.42201" lon="3.82008">
        <ele>1078</ele>
        <time>2019-05-31T09:06:55.562Z</time>
      </trkpt>
      <trkpt lat="45.42207" lon="3.82013">
        <ele>1078</ele>
        <time>2019-05-31T09:07:00.563Z</time>
      </trkpt>
      <trkpt lat="45.42213" lon="3.82017">
        <ele>1078</ele>
        <time>2019-05-31T09:07:04.563Z</time>
      </trkpt>
      <trkpt lat="45.42221" lon="3.82022">
        <ele>1078</ele>
        <time>2019-05-31T09:07:09.557Z</time>
      </trkpt>
      <trkpt lat="45.42226" lon="3.82027">
        <ele>1078</ele>
        <time>2019-05-31T09:07:13.555Z</time>
      </trkpt>
      <trkpt lat="45.42233" lon="3.82032">
        <ele>1078</ele>
        <time>2019-05-31T09:07:18.564Z</time>
      </trkpt>
      <trkpt lat="45.4224" lon="3.82037">
        <ele>1076</ele>
        <time>2019-05-31T09:07:23.567Z</time>
      </trkpt>
      <trkpt lat="45.42246" lon="3.82041">
        <ele>1076</ele>
        <time>2019-05-31T09:07:27.554Z</time>
      </trkpt>
      <trkpt lat="45.42253" lon="3.82047">
        <ele>1078</ele>
        <time>2019-05-31T09:07:32.544Z</time>
      </trkpt>
      <trkpt lat="45.42259" lon="3.82052">
        <ele>1078</ele>
        <time>2019-05-31T09:07:36.558Z</time>
      </trkpt>
      <trkpt lat="45.42264" lon="3.82058">
        <ele>1078</ele>
        <time>2019-05-31T09:07:40.571Z</time>
      </trkpt>
      <trkpt lat="45.42271" lon="3.82065">
        <ele>1075</ele>
        <time>2019-05-31T09:07:45.562Z</time>
      </trkpt>
      <trkpt lat="45.42278" lon="3.82071">
        <ele>1075</ele>
        <time>2019-05-31T09:07:50.555Z</time>
      </trkpt>
      <trkpt lat="45.42282" lon="3.82076">
        <ele>1075</ele>
        <time>2019-05-31T09:07:54.554Z</time>
      </trkpt>
      <trkpt lat="45.42285" lon="3.8208">
        <ele>1075</ele>
        <time>2019-05-31T09:07:59.556Z</time>
      </trkpt>
      <trkpt lat="45.42288" lon="3.82085">
        <ele>1075</ele>
        <time>2019-05-31T09:08:03.556Z</time>
      </trkpt>
      <trkpt lat="45.42292" lon="3.82092">
        <ele>1075</ele>
        <time>2019-05-31T09:08:08.562Z</time>
      </trkpt>
      <trkpt lat="45.42295" lon="3.82095">
        <ele>1073</ele>
        <time>2019-05-31T09:08:12.575Z</time>
      </trkpt>
      <trkpt lat="45.423" lon="3.82101">
        <ele>1072</ele>
        <time>2019-05-31T09:08:17.564Z</time>
      </trkpt>
      <trkpt lat="45.42305" lon="3.82106">
        <ele>1072</ele>
        <time>2019-05-31T09:08:22.557Z</time>
      </trkpt>
      <trkpt lat="45.42312" lon="3.8211">
        <ele>1072</ele>
        <time>2019-05-31T09:08:27.567Z</time>
      </trkpt>
      <trkpt lat="45.42322" lon="3.82116">
        <ele>1073</ele>
        <time>2019-05-31T09:08:32.554Z</time>
      </trkpt>
      <trkpt lat="45.42329" lon="3.82119">
        <ele>1073</ele>
        <time>2019-05-31T09:08:36.572Z</time>
      </trkpt>
      <trkpt lat="45.42341" lon="3.82123">
        <ele>1073</ele>
        <time>2019-05-31T09:08:41.563Z</time>
      </trkpt>
      <trkpt lat="45.42351" lon="3.82131">
        <ele>1076</ele>
        <time>2019-05-31T09:08:46.559Z</time>
      </trkpt>
      <trkpt lat="45.42357" lon="3.82136">
        <ele>1076</ele>
        <time>2019-05-31T09:08:51.568Z</time>
      </trkpt>
      <trkpt lat="45.42364" lon="3.82139">
        <ele>1076</ele>
        <time>2019-05-31T09:08:56.566Z</time>
      </trkpt>
      <trkpt lat="45.42372" lon="3.82145">
        <ele>1076</ele>
        <time>2019-05-31T09:09:01.574Z</time>
      </trkpt>
      <trkpt lat="45.4238" lon="3.82149">
        <ele>1078</ele>
        <time>2019-05-31T09:09:06.551Z</time>
      </trkpt>
      <trkpt lat="45.42387" lon="3.82153">
        <ele>1078</ele>
        <time>2019-05-31T09:09:11.568Z</time>
      </trkpt>
      <trkpt lat="45.42395" lon="3.82157">
        <ele>1079</ele>
        <time>2019-05-31T09:09:16.630Z</time>
      </trkpt>
      <trkpt lat="45.42402" lon="3.82162">
        <ele>1079</ele>
        <time>2019-05-31T09:09:21.562Z</time>
      </trkpt>
      <trkpt lat="45.4241" lon="3.82166">
        <ele>1080</ele>
        <time>2019-05-31T09:09:26.616Z</time>
      </trkpt>
      <trkpt lat="45.42417" lon="3.8217">
        <ele>1080</ele>
        <time>2019-05-31T09:09:31.558Z</time>
      </trkpt>
      <trkpt lat="45.42425" lon="3.82174">
        <ele>1080</ele>
        <time>2019-05-31T09:09:36.556Z</time>
      </trkpt>
      <trkpt lat="45.4243" lon="3.82178">
        <ele>1080</ele>
        <time>2019-05-31T09:09:41.562Z</time>
      </trkpt>
      <trkpt lat="45.42436" lon="3.82179">
        <ele>1078</ele>
        <time>2019-05-31T09:09:46.603Z</time>
      </trkpt>
      <trkpt lat="45.42445" lon="3.82183">
        <ele>1080</ele>
        <time>2019-05-31T09:09:51.557Z</time>
      </trkpt>
      <trkpt lat="45.42453" lon="3.82187">
        <ele>1080</ele>
        <time>2019-05-31T09:09:56.552Z</time>
      </trkpt>
      <trkpt lat="45.42458" lon="3.82189">
        <ele>1080</ele>
        <time>2019-05-31T09:10:00.576Z</time>
      </trkpt>
      <trkpt lat="45.42465" lon="3.82192">
        <ele>1080</ele>
        <time>2019-05-31T09:10:05.556Z</time>
      </trkpt>
      <trkpt lat="45.42473" lon="3.82191">
        <ele>1080</ele>
        <time>2019-05-31T09:10:10.572Z</time>
      </trkpt>
      <trkpt lat="45.4248" lon="3.82192">
        <ele>1080</ele>
        <time>2019-05-31T09:10:14.597Z</time>
      </trkpt>
      <trkpt lat="45.42484" lon="3.82192">
        <ele>1080</ele>
        <time>2019-05-31T09:10:19.552Z</time>
      </trkpt>
      <trkpt lat="45.4249" lon="3.82197">
        <ele>1080</ele>
        <time>2019-05-31T09:10:24.564Z</time>
      </trkpt>
      <trkpt lat="45.42496" lon="3.82201">
        <ele>1080</ele>
        <time>2019-05-31T09:10:29.560Z</time>
      </trkpt>
      <trkpt lat="45.425" lon="3.82202">
        <ele>1080</ele>
        <time>2019-05-31T09:10:33.565Z</time>
      </trkpt>
      <trkpt lat="45.42505" lon="3.82205">
        <ele>1080</ele>
        <time>2019-05-31T09:10:38.570Z</time>
      </trkpt>
      <trkpt lat="45.42512" lon="3.82208">
        <ele>1080</ele>
        <time>2019-05-31T09:10:42.571Z</time>
      </trkpt>
      <trkpt lat="45.4252" lon="3.82213">
        <ele>1083</ele>
        <time>2019-05-31T09:10:47.583Z</time>
      </trkpt>
      <trkpt lat="45.42528" lon="3.82218">
        <ele>1083</ele>
        <time>2019-05-31T09:10:52.558Z</time>
      </trkpt>
      <trkpt lat="45.42533" lon="3.82221">
        <ele>1083</ele>
        <time>2019-05-31T09:10:56.554Z</time>
      </trkpt>
      <trkpt lat="45.4254" lon="3.82227">
        <ele>1083</ele>
        <time>2019-05-31T09:11:00.569Z</time>
      </trkpt>
      <trkpt lat="45.42545" lon="3.82232">
        <ele>1081</ele>
        <time>2019-05-31T09:11:05.557Z</time>
      </trkpt>
      <trkpt lat="45.42551" lon="3.82237">
        <ele>1080</ele>
        <time>2019-05-31T09:11:10.608Z</time>
      </trkpt>
      <trkpt lat="45.42557" lon="3.82242">
        <ele>1080</ele>
        <time>2019-05-31T09:11:15.567Z</time>
      </trkpt>
      <trkpt lat="45.42561" lon="3.82251">
        <ele>1080</ele>
        <time>2019-05-31T09:11:20.560Z</time>
      </trkpt>
      <trkpt lat="45.42566" lon="3.82257">
        <ele>1080</ele>
        <time>2019-05-31T09:11:24.689Z</time>
      </trkpt>
      <trkpt lat="45.4257" lon="3.82263">
        <ele>1078</ele>
        <time>2019-05-31T09:11:29.552Z</time>
      </trkpt>
      <trkpt lat="45.42576" lon="3.82273">
        <ele>1079</ele>
        <time>2019-05-31T09:11:34.592Z</time>
      </trkpt>
      <trkpt lat="45.42583" lon="3.82279">
        <ele>1079</ele>
        <time>2019-05-31T09:11:38.633Z</time>
      </trkpt>
      <trkpt lat="45.42588" lon="3.82282">
        <ele>1079</ele>
        <time>2019-05-31T09:11:43.551Z</time>
      </trkpt>
      <trkpt lat="45.42592" lon="3.82288">
        <ele>1079</ele>
        <time>2019-05-31T09:11:47.556Z</time>
      </trkpt>
      <trkpt lat="45.42604" lon="3.82297">
        <ele>1080</ele>
        <time>2019-05-31T09:11:52.573Z</time>
      </trkpt>
      <trkpt lat="45.42616" lon="3.82308">
        <ele>1080</ele>
        <time>2019-05-31T09:11:57.556Z</time>
      </trkpt>
      <trkpt lat="45.42625" lon="3.82323">
        <ele>1083</ele>
        <time>2019-05-31T09:12:01.558Z</time>
      </trkpt>
      <trkpt lat="45.42631" lon="3.82328">
        <ele>1081</ele>
        <time>2019-05-31T09:12:06.567Z</time>
      </trkpt>
      <trkpt lat="45.42637" lon="3.82333">
        <ele>1081</ele>
        <time>2019-05-31T09:12:11.560Z</time>
      </trkpt>
      <trkpt lat="45.42648" lon="3.82331">
        <ele>1081</ele>
        <time>2019-05-31T09:12:16.573Z</time>
      </trkpt>
      <trkpt lat="45.42662" lon="3.82327">
        <ele>1080</ele>
        <time>2019-05-31T09:12:21.559Z</time>
      </trkpt>
      <trkpt lat="45.42664" lon="3.82327">
        <ele>1080</ele>
        <time>2019-05-31T09:12:25.564Z</time>
      </trkpt>
      <trkpt lat="45.42675" lon="3.82336">
        <ele>1080</ele>
        <time>2019-05-31T09:12:30.552Z</time>
      </trkpt>
      <trkpt lat="45.42688" lon="3.82347">
        <ele>1081</ele>
        <time>2019-05-31T09:12:35.559Z</time>
      </trkpt>
      <trkpt lat="45.42694" lon="3.82356">
        <ele>1084</ele>
        <time>2019-05-31T09:12:39.569Z</time>
      </trkpt>
      <trkpt lat="45.42702" lon="3.82362">
        <ele>1084</ele>
        <time>2019-05-31T09:12:44.567Z</time>
      </trkpt>
      <trkpt lat="45.42709" lon="3.82367">
        <ele>1082</ele>
        <time>2019-05-31T09:12:49.565Z</time>
      </trkpt>
      <trkpt lat="45.42721" lon="3.82371">
        <ele>1082</ele>
        <time>2019-05-31T09:12:54.571Z</time>
      </trkpt>
      <trkpt lat="45.42729" lon="3.82365">
        <ele>1082</ele>
        <time>2019-05-31T09:12:59.553Z</time>
      </trkpt>
      <trkpt lat="45.42743" lon="3.82373">
        <ele>1079</ele>
        <time>2019-05-31T09:13:04.565Z</time>
      </trkpt>
      <trkpt lat="45.42766" lon="3.82397">
        <ele>1079</ele>
        <time>2019-05-31T09:13:09.541Z</time>
      </trkpt>
      <trkpt lat="45.42775" lon="3.82406">
        <ele>1079</ele>
        <time>2019-05-31T09:13:13.562Z</time>
      </trkpt>
      <trkpt lat="45.42788" lon="3.82414">
        <ele>1079</ele>
        <time>2019-05-31T09:13:18.619Z</time>
      </trkpt>
      <trkpt lat="45.42804" lon="3.82423">
        <ele>1079</ele>
        <time>2019-05-31T09:13:23.562Z</time>
      </trkpt>
      <trkpt lat="45.4281" lon="3.82428">
        <ele>1079</ele>
        <time>2019-05-31T09:13:28.553Z</time>
      </trkpt>
      <trkpt lat="45.42813" lon="3.82431">
        <ele>1078</ele>
        <time>2019-05-31T09:13:32.565Z</time>
      </trkpt>
      <trkpt lat="45.42819" lon="3.82437">
        <ele>1078</ele>
        <time>2019-05-31T09:13:37.554Z</time>
      </trkpt>
      <trkpt lat="45.42834" lon="3.8245">
        <ele>1078</ele>
        <time>2019-05-31T09:13:42.544Z</time>
      </trkpt>
      <trkpt lat="45.42837" lon="3.82451">
        <ele>1078</ele>
        <time>2019-05-31T09:13:46.565Z</time>
      </trkpt>
      <trkpt lat="45.42845" lon="3.82457">
        <ele>1078</ele>
        <time>2019-05-31T09:13:51.527Z</time>
      </trkpt>
      <trkpt lat="45.42847" lon="3.82457">
        <ele>1078</ele>
        <time>2019-05-31T09:13:55.553Z</time>
      </trkpt>
      <trkpt lat="45.42848" lon="3.82456">
        <ele>1077</ele>
        <time>2019-05-31T09:14:00.562Z</time>
      </trkpt>
      <trkpt lat="45.42864" lon="3.82462">
        <ele>1075</ele>
        <time>2019-05-31T09:14:05.552Z</time>
      </trkpt>
      <trkpt lat="45.42873" lon="3.8247">
        <ele>1075</ele>
        <time>2019-05-31T09:14:10.553Z</time>
      </trkpt>
      <trkpt lat="45.4288" lon="3.82475">
        <ele>1074</ele>
        <time>2019-05-31T09:14:14.578Z</time>
      </trkpt>
      <trkpt lat="45.42887" lon="3.82486">
        <ele>1075</ele>
        <time>2019-05-31T09:14:19.551Z</time>
      </trkpt>
      <trkpt lat="45.42892" lon="3.82496">
        <ele>1075</ele>
        <time>2019-05-31T09:14:24.555Z</time>
      </trkpt>
      <trkpt lat="45.42896" lon="3.82504">
        <ele>1075</ele>
        <time>2019-05-31T09:14:29.558Z</time>
      </trkpt>
      <trkpt lat="45.429" lon="3.8251">
        <ele>1075</ele>
        <time>2019-05-31T09:14:33.547Z</time>
      </trkpt>
      <trkpt lat="45.42905" lon="3.82518">
        <ele>1073</ele>
        <time>2019-05-31T09:14:37.555Z</time>
      </trkpt>
      <trkpt lat="45.42912" lon="3.82528">
        <ele>1073</ele>
        <time>2019-05-31T09:14:42.555Z</time>
      </trkpt>
      <trkpt lat="45.4292" lon="3.82535">
        <ele>1073</ele>
        <time>2019-05-31T09:14:46.568Z</time>
      </trkpt>
      <trkpt lat="45.42926" lon="3.82541">
        <ele>1073</ele>
        <time>2019-05-31T09:14:51.560Z</time>
      </trkpt>
      <trkpt lat="45.42928" lon="3.82546">
        <ele>1071</ele>
        <time>2019-05-31T09:14:55.561Z</time>
      </trkpt>
      <trkpt lat="45.42929" lon="3.82555">
        <ele>1071</ele>
        <time>2019-05-31T09:15:00.555Z</time>
      </trkpt>
      <trkpt lat="45.42934" lon="3.82563">
        <ele>1069</ele>
        <time>2019-05-31T09:15:05.549Z</time>
      </trkpt>
      <trkpt lat="45.42938" lon="3.82565">
        <ele>1069</ele>
        <time>2019-05-31T09:15:09.570Z</time>
      </trkpt>
      <trkpt lat="45.42944" lon="3.8257">
        <ele>1069</ele>
        <time>2019-05-31T09:15:14.557Z</time>
      </trkpt>
      <trkpt lat="45.42949" lon="3.8258">
        <ele>1069</ele>
        <time>2019-05-31T09:15:18.567Z</time>
      </trkpt>
      <trkpt lat="45.42952" lon="3.82595">
        <ele>1069</ele>
        <time>2019-05-31T09:15:23.568Z</time>
      </trkpt>
      <trkpt lat="45.42966" lon="3.82612">
        <ele>1073</ele>
        <time>2019-05-31T09:15:28.545Z</time>
      </trkpt>
      <trkpt lat="45.42976" lon="3.82637">
        <ele>1074</ele>
        <time>2019-05-31T09:15:32.556Z</time>
      </trkpt>
      <trkpt lat="45.42986" lon="3.82661">
        <ele>1074</ele>
        <time>2019-05-31T09:15:36.572Z</time>
      </trkpt>
      <trkpt lat="45.43002" lon="3.82679">
        <ele>1074</ele>
        <time>2019-05-31T09:15:40.554Z</time>
      </trkpt>
      <trkpt lat="45.43025" lon="3.82695">
        <ele>1074</ele>
        <time>2019-05-31T09:15:45.568Z</time>
      </trkpt>
      <trkpt lat="45.43042" lon="3.82712">
        <ele>1074</ele>
        <time>2019-05-31T09:15:50.552Z</time>
      </trkpt>
      <trkpt lat="45.43047" lon="3.82718">
        <ele>1074</ele>
        <time>2019-05-31T09:15:55.560Z</time>
      </trkpt>
      <trkpt lat="45.4305" lon="3.82728">
        <ele>1074</ele>
        <time>2019-05-31T09:15:59.555Z</time>
      </trkpt>
      <trkpt lat="45.43055" lon="3.8274">
        <ele>1073</ele>
        <time>2019-05-31T09:16:04.575Z</time>
      </trkpt>
      <trkpt lat="45.43065" lon="3.8275">
        <ele>1073</ele>
        <time>2019-05-31T09:16:09.565Z</time>
      </trkpt>
      <trkpt lat="45.43074" lon="3.82758">
        <ele>1074</ele>
        <time>2019-05-31T09:16:14.559Z</time>
      </trkpt>
      <trkpt lat="45.43085" lon="3.82766">
        <ele>1072</ele>
        <time>2019-05-31T09:16:19.556Z</time>
      </trkpt>
      <trkpt lat="45.43092" lon="3.82769">
        <ele>1072</ele>
        <time>2019-05-31T09:16:23.561Z</time>
      </trkpt>
      <trkpt lat="45.43097" lon="3.82777">
        <ele>1072</ele>
        <time>2019-05-31T09:16:28.533Z</time>
      </trkpt>
      <trkpt lat="45.43101" lon="3.82781">
        <ele>1074</ele>
        <time>2019-05-31T09:16:32.574Z</time>
      </trkpt>
      <trkpt lat="45.43107" lon="3.82787">
        <ele>1074</ele>
        <time>2019-05-31T09:16:37.555Z</time>
      </trkpt>
      <trkpt lat="45.43113" lon="3.82789">
        <ele>1074</ele>
        <time>2019-05-31T09:16:42.564Z</time>
      </trkpt>
      <trkpt lat="45.43117" lon="3.82794">
        <ele>1073</ele>
        <time>2019-05-31T09:16:46.578Z</time>
      </trkpt>
      <trkpt lat="45.4312" lon="3.82799">
        <ele>1073</ele>
        <time>2019-05-31T09:16:51.561Z</time>
      </trkpt>
      <trkpt lat="45.43123" lon="3.8281">
        <ele>1073</ele>
        <time>2019-05-31T09:16:56.568Z</time>
      </trkpt>
      <trkpt lat="45.43127" lon="3.82817">
        <ele>1075</ele>
        <time>2019-05-31T09:17:01.562Z</time>
      </trkpt>
      <trkpt lat="45.4313" lon="3.82825">
        <ele>1075</ele>
        <time>2019-05-31T09:17:06.562Z</time>
      </trkpt>
      <trkpt lat="45.43133" lon="3.82837">
        <ele>1075</ele>
        <time>2019-05-31T09:17:11.571Z</time>
      </trkpt>
      <trkpt lat="45.43132" lon="3.82851">
        <ele>1075</ele>
        <time>2019-05-31T09:17:16.559Z</time>
      </trkpt>
      <trkpt lat="45.43137" lon="3.82857">
        <ele>1075</ele>
        <time>2019-05-31T09:17:21.565Z</time>
      </trkpt>
      <trkpt lat="45.43143" lon="3.82868">
        <ele>1075</ele>
        <time>2019-05-31T09:17:25.564Z</time>
      </trkpt>
      <trkpt lat="45.43149" lon="3.82877">
        <ele>1075</ele>
        <time>2019-05-31T09:17:30.558Z</time>
      </trkpt>
      <trkpt lat="45.43153" lon="3.82888">
        <ele>1075</ele>
        <time>2019-05-31T09:17:35.559Z</time>
      </trkpt>
      <trkpt lat="45.43157" lon="3.82896">
        <ele>1075</ele>
        <time>2019-05-31T09:17:40.555Z</time>
      </trkpt>
      <trkpt lat="45.43165" lon="3.82903">
        <ele>1075</ele>
        <time>2019-05-31T09:17:45.565Z</time>
      </trkpt>
      <trkpt lat="45.43171" lon="3.82908">
        <ele>1073</ele>
        <time>2019-05-31T09:17:49.554Z</time>
      </trkpt>
      <trkpt lat="45.43176" lon="3.82914">
        <ele>1073</ele>
        <time>2019-05-31T09:17:54.561Z</time>
      </trkpt>
      <trkpt lat="45.43181" lon="3.8292">
        <ele>1074</ele>
        <time>2019-05-31T09:17:59.560Z</time>
      </trkpt>
      <trkpt lat="45.43184" lon="3.82923">
        <ele>1074</ele>
        <time>2019-05-31T09:18:03.551Z</time>
      </trkpt>
      <trkpt lat="45.43195" lon="3.82932">
        <ele>1072</ele>
        <time>2019-05-31T09:18:08.544Z</time>
      </trkpt>
      <trkpt lat="45.43206" lon="3.82938">
        <ele>1072</ele>
        <time>2019-05-31T09:18:13.562Z</time>
      </trkpt>
      <trkpt lat="45.43214" lon="3.8294">
        <ele>1074</ele>
        <time>2019-05-31T09:18:18.554Z</time>
      </trkpt>
      <trkpt lat="45.4322" lon="3.82941">
        <ele>1074</ele>
        <time>2019-05-31T09:18:23.547Z</time>
      </trkpt>
      <trkpt lat="45.43228" lon="3.82945">
        <ele>1074</ele>
        <time>2019-05-31T09:18:28.552Z</time>
      </trkpt>
      <trkpt lat="45.43232" lon="3.82948">
        <ele>1074</ele>
        <time>2019-05-31T09:18:32.557Z</time>
      </trkpt>
      <trkpt lat="45.43236" lon="3.82965">
        <ele>1072</ele>
        <time>2019-05-31T09:18:37.553Z</time>
      </trkpt>
      <trkpt lat="45.43242" lon="3.82974">
        <ele>1073</ele>
        <time>2019-05-31T09:18:42.559Z</time>
      </trkpt>
      <trkpt lat="45.43249" lon="3.82987">
        <ele>1070</ele>
        <time>2019-05-31T09:18:47.560Z</time>
      </trkpt>
      <trkpt lat="45.43254" lon="3.82996">
        <ele>1070</ele>
        <time>2019-05-31T09:18:51.572Z</time>
      </trkpt>
      <trkpt lat="45.4326" lon="3.83003">
        <ele>1070</ele>
        <time>2019-05-31T09:18:56.569Z</time>
      </trkpt>
      <trkpt lat="45.43265" lon="3.83016">
        <ele>1071</ele>
        <time>2019-05-31T09:19:01.570Z</time>
      </trkpt>
      <trkpt lat="45.43268" lon="3.83025">
        <ele>1071</ele>
        <time>2019-05-31T09:19:06.568Z</time>
      </trkpt>
      <trkpt lat="45.43272" lon="3.83033">
        <ele>1071</ele>
        <time>2019-05-31T09:19:11.554Z</time>
      </trkpt>
      <trkpt lat="45.43275" lon="3.83038">
        <ele>1071</ele>
        <time>2019-05-31T09:19:15.562Z</time>
      </trkpt>
      <trkpt lat="45.43282" lon="3.83043">
        <ele>1073</ele>
        <time>2019-05-31T09:19:20.567Z</time>
      </trkpt>
      <trkpt lat="45.43288" lon="3.83052">
        <ele>1073</ele>
        <time>2019-05-31T09:19:25.564Z</time>
      </trkpt>
      <trkpt lat="45.43293" lon="3.83063">
        <ele>1072</ele>
        <time>2019-05-31T09:19:30.568Z</time>
      </trkpt>
      <trkpt lat="45.43298" lon="3.83071">
        <ele>1074</ele>
        <time>2019-05-31T09:19:35.544Z</time>
      </trkpt>
      <trkpt lat="45.43301" lon="3.83077">
        <ele>1074</ele>
        <time>2019-05-31T09:19:39.552Z</time>
      </trkpt>
      <trkpt lat="45.43305" lon="3.83082">
        <ele>1074</ele>
        <time>2019-05-31T09:19:43.564Z</time>
      </trkpt>
      <trkpt lat="45.43305" lon="3.83091">
        <ele>1074</ele>
        <time>2019-05-31T09:19:48.555Z</time>
      </trkpt>
      <trkpt lat="45.43306" lon="3.831">
        <ele>1074</ele>
        <time>2019-05-31T09:19:52.561Z</time>
      </trkpt>
      <trkpt lat="45.43309" lon="3.83111">
        <ele>1074</ele>
        <time>2019-05-31T09:19:57.565Z</time>
      </trkpt>
      <trkpt lat="45.43313" lon="3.83116">
        <ele>1074</ele>
        <time>2019-05-31T09:20:02.564Z</time>
      </trkpt>
      <trkpt lat="45.43316" lon="3.83122">
        <ele>1074</ele>
        <time>2019-05-31T09:20:07.558Z</time>
      </trkpt>
      <trkpt lat="45.4332" lon="3.8313">
        <ele>1074</ele>
        <time>2019-05-31T09:20:12.559Z</time>
      </trkpt>
      <trkpt lat="45.43323" lon="3.83138">
        <ele>1074</ele>
        <time>2019-05-31T09:20:17.560Z</time>
      </trkpt>
      <trkpt lat="45.43333" lon="3.83142">
        <ele>1074</ele>
        <time>2019-05-31T09:20:22.560Z</time>
      </trkpt>
      <trkpt lat="45.43338" lon="3.83147">
        <ele>1074</ele>
        <time>2019-05-31T09:20:26.575Z</time>
      </trkpt>
      <trkpt lat="45.43341" lon="3.83156">
        <ele>1075</ele>
        <time>2019-05-31T09:20:30.568Z</time>
      </trkpt>
      <trkpt lat="45.43349" lon="3.83163">
        <ele>1076</ele>
        <time>2019-05-31T09:20:35.562Z</time>
      </trkpt>
      <trkpt lat="45.43355" lon="3.8317">
        <ele>1076</ele>
        <time>2019-05-31T09:20:40.559Z</time>
      </trkpt>
      <trkpt lat="45.43359" lon="3.8318">
        <ele>1076</ele>
        <time>2019-05-31T09:20:44.554Z</time>
      </trkpt>
      <trkpt lat="45.43363" lon="3.83185">
        <ele>1077</ele>
        <time>2019-05-31T09:20:49.556Z</time>
      </trkpt>
      <trkpt lat="45.43367" lon="3.8319">
        <ele>1077</ele>
        <time>2019-05-31T09:20:54.546Z</time>
      </trkpt>
      <trkpt lat="45.43371" lon="3.83194">
        <ele>1077</ele>
        <time>2019-05-31T09:20:58.567Z</time>
      </trkpt>
      <trkpt lat="45.43374" lon="3.83198">
        <ele>1077</ele>
        <time>2019-05-31T09:21:03.560Z</time>
      </trkpt>
      <trkpt lat="45.43379" lon="3.83203">
        <ele>1077</ele>
        <time>2019-05-31T09:21:08.546Z</time>
      </trkpt>
      <trkpt lat="45.43384" lon="3.83206">
        <ele>1077</ele>
        <time>2019-05-31T09:21:12.581Z</time>
      </trkpt>
      <trkpt lat="45.43389" lon="3.83211">
        <ele>1078</ele>
        <time>2019-05-31T09:21:16.575Z</time>
      </trkpt>
      <trkpt lat="45.43393" lon="3.83218">
        <ele>1078</ele>
        <time>2019-05-31T09:21:21.557Z</time>
      </trkpt>
      <trkpt lat="45.43397" lon="3.83225">
        <ele>1078</ele>
        <time>2019-05-31T09:21:25.551Z</time>
      </trkpt>
      <trkpt lat="45.43401" lon="3.8323">
        <ele>1078</ele>
        <time>2019-05-31T09:21:30.561Z</time>
      </trkpt>
      <trkpt lat="45.43406" lon="3.83241">
        <ele>1077</ele>
        <time>2019-05-31T09:21:35.571Z</time>
      </trkpt>
      <trkpt lat="45.4341" lon="3.83251">
        <ele>1077</ele>
        <time>2019-05-31T09:21:40.556Z</time>
      </trkpt>
      <trkpt lat="45.43413" lon="3.83258">
        <ele>1077</ele>
        <time>2019-05-31T09:21:44.583Z</time>
      </trkpt>
      <trkpt lat="45.43415" lon="3.83268">
        <ele>1077</ele>
        <time>2019-05-31T09:21:49.562Z</time>
      </trkpt>
      <trkpt lat="45.43417" lon="3.83276">
        <ele>1077</ele>
        <time>2019-05-31T09:21:54.560Z</time>
      </trkpt>
      <trkpt lat="45.4342" lon="3.83285">
        <ele>1077</ele>
        <time>2019-05-31T09:21:59.540Z</time>
      </trkpt>
      <trkpt lat="45.43425" lon="3.83296">
        <ele>1077</ele>
        <time>2019-05-31T09:22:04.556Z</time>
      </trkpt>
      <trkpt lat="45.43428" lon="3.83301">
        <ele>1077</ele>
        <time>2019-05-31T09:22:08.554Z</time>
      </trkpt>
      <trkpt lat="45.43432" lon="3.83311">
        <ele>1077</ele>
        <time>2019-05-31T09:22:13.567Z</time>
      </trkpt>
      <trkpt lat="45.43437" lon="3.83321">
        <ele>1078</ele>
        <time>2019-05-31T09:22:18.562Z</time>
      </trkpt>
      <trkpt lat="45.43442" lon="3.83333">
        <ele>1078</ele>
        <time>2019-05-31T09:22:23.549Z</time>
      </trkpt>
      <trkpt lat="45.43448" lon="3.8334">
        <ele>1078</ele>
        <time>2019-05-31T09:22:28.540Z</time>
      </trkpt>
      <trkpt lat="45.43452" lon="3.83345">
        <ele>1078</ele>
        <time>2019-05-31T09:22:32.581Z</time>
      </trkpt>
      <trkpt lat="45.43458" lon="3.83353">
        <ele>1080</ele>
        <time>2019-05-31T09:22:37.582Z</time>
      </trkpt>
      <trkpt lat="45.4346" lon="3.83364">
        <ele>1078</ele>
        <time>2019-05-31T09:22:42.559Z</time>
      </trkpt>
      <trkpt lat="45.43463" lon="3.83372">
        <ele>1078</ele>
        <time>2019-05-31T09:22:47.558Z</time>
      </trkpt>
      <trkpt lat="45.43465" lon="3.8338">
        <ele>1081</ele>
        <time>2019-05-31T09:22:51.560Z</time>
      </trkpt>
      <trkpt lat="45.43467" lon="3.83387">
        <ele>1081</ele>
        <time>2019-05-31T09:22:55.579Z</time>
      </trkpt>
      <trkpt lat="45.4347" lon="3.83396">
        <ele>1081</ele>
        <time>2019-05-31T09:23:00.554Z</time>
      </trkpt>
      <trkpt lat="45.43473" lon="3.83408">
        <ele>1082</ele>
        <time>2019-05-31T09:23:05.534Z</time>
      </trkpt>
      <trkpt lat="45.43476" lon="3.83417">
        <ele>1082</ele>
        <time>2019-05-31T09:23:09.559Z</time>
      </trkpt>
      <trkpt lat="45.43479" lon="3.83426">
        <ele>1082</ele>
        <time>2019-05-31T09:23:14.554Z</time>
      </trkpt>
      <trkpt lat="45.43482" lon="3.83433">
        <ele>1085</ele>
        <time>2019-05-31T09:23:18.577Z</time>
      </trkpt>
      <trkpt lat="45.43485" lon="3.83438">
        <ele>1085</ele>
        <time>2019-05-31T09:23:23.563Z</time>
      </trkpt>
      <trkpt lat="45.43491" lon="3.83445">
        <ele>1085</ele>
        <time>2019-05-31T09:23:28.563Z</time>
      </trkpt>
      <trkpt lat="45.43491" lon="3.83463">
        <ele>1087</ele>
        <time>2019-05-31T09:23:33.548Z</time>
      </trkpt>
      <trkpt lat="45.43493" lon="3.83468">
        <ele>1087</ele>
        <time>2019-05-31T09:23:37.562Z</time>
      </trkpt>
      <trkpt lat="45.43494" lon="3.83475">
        <ele>1087</ele>
        <time>2019-05-31T09:23:41.573Z</time>
      </trkpt>
      <trkpt lat="45.43498" lon="3.83485">
        <ele>1087</ele>
        <time>2019-05-31T09:23:46.569Z</time>
      </trkpt>
      <trkpt lat="45.43499" lon="3.8349">
        <ele>1089</ele>
        <time>2019-05-31T09:23:50.566Z</time>
      </trkpt>
      <trkpt lat="45.43502" lon="3.83494">
        <ele>1089</ele>
        <time>2019-05-31T09:23:55.555Z</time>
      </trkpt>
      <trkpt lat="45.43506" lon="3.83501">
        <ele>1089</ele>
        <time>2019-05-31T09:23:59.579Z</time>
      </trkpt>
      <trkpt lat="45.43515" lon="3.83508">
        <ele>1088</ele>
        <time>2019-05-31T09:24:04.559Z</time>
      </trkpt>
      <trkpt lat="45.43521" lon="3.83516">
        <ele>1090</ele>
        <time>2019-05-31T09:24:09.567Z</time>
      </trkpt>
      <trkpt lat="45.43524" lon="3.8352">
        <ele>1090</ele>
        <time>2019-05-31T09:24:13.581Z</time>
      </trkpt>
      <trkpt lat="45.43532" lon="3.83526">
        <ele>1090</ele>
        <time>2019-05-31T09:24:18.562Z</time>
      </trkpt>
      <trkpt lat="45.43536" lon="3.83533">
        <ele>1090</ele>
        <time>2019-05-31T09:24:23.559Z</time>
      </trkpt>
      <trkpt lat="45.43542" lon="3.8354">
        <ele>1091</ele>
        <time>2019-05-31T09:24:27.571Z</time>
      </trkpt>
      <trkpt lat="45.43547" lon="3.83548">
        <ele>1093</ele>
        <time>2019-05-31T09:24:32.549Z</time>
      </trkpt>
      <trkpt lat="45.4355" lon="3.83553">
        <ele>1093</ele>
        <time>2019-05-31T09:24:36.571Z</time>
      </trkpt>
      <trkpt lat="45.43553" lon="3.83555">
        <ele>1093</ele>
        <time>2019-05-31T09:24:41.554Z</time>
      </trkpt>
      <trkpt lat="45.43557" lon="3.83557">
        <ele>1093</ele>
        <time>2019-05-31T09:24:45.593Z</time>
      </trkpt>
      <trkpt lat="45.43561" lon="3.83562">
        <ele>1093</ele>
        <time>2019-05-31T09:24:50.572Z</time>
      </trkpt>
      <trkpt lat="45.43565" lon="3.83567">
        <ele>1093</ele>
        <time>2019-05-31T09:24:55.573Z</time>
      </trkpt>
      <trkpt lat="45.4357" lon="3.8357">
        <ele>1094</ele>
        <time>2019-05-31T09:25:00.556Z</time>
      </trkpt>
      <trkpt lat="45.43572" lon="3.83582">
        <ele>1094</ele>
        <time>2019-05-31T09:25:04.582Z</time>
      </trkpt>
      <trkpt lat="45.43577" lon="3.8359">
        <ele>1094</ele>
        <time>2019-05-31T09:25:09.556Z</time>
      </trkpt>
      <trkpt lat="45.43583" lon="3.83594">
        <ele>1094</ele>
        <time>2019-05-31T09:25:14.567Z</time>
      </trkpt>
      <trkpt lat="45.43584" lon="3.836">
        <ele>1095</ele>
        <time>2019-05-31T09:25:19.564Z</time>
      </trkpt>
      <trkpt lat="45.43587" lon="3.83609">
        <ele>1095</ele>
        <time>2019-05-31T09:25:24.564Z</time>
      </trkpt>
      <trkpt lat="45.43591" lon="3.83619">
        <ele>1095</ele>
        <time>2019-05-31T09:25:29.556Z</time>
      </trkpt>
      <trkpt lat="45.43594" lon="3.83628">
        <ele>1098</ele>
        <time>2019-05-31T09:25:34.558Z</time>
      </trkpt>
      <trkpt lat="45.436" lon="3.83637">
        <ele>1097</ele>
        <time>2019-05-31T09:25:39.557Z</time>
      </trkpt>
      <trkpt lat="45.43602" lon="3.83648">
        <ele>1097</ele>
        <time>2019-05-31T09:25:44.557Z</time>
      </trkpt>
      <trkpt lat="45.43604" lon="3.8366">
        <ele>1100</ele>
        <time>2019-05-31T09:25:49.562Z</time>
      </trkpt>
      <trkpt lat="45.43606" lon="3.83671">
        <ele>1100</ele>
        <time>2019-05-31T09:25:54.549Z</time>
      </trkpt>
      <trkpt lat="45.43612" lon="3.83676">
        <ele>1100</ele>
        <time>2019-05-31T09:25:59.562Z</time>
      </trkpt>
      <trkpt lat="45.43618" lon="3.83681">
        <ele>1102</ele>
        <time>2019-05-31T09:26:04.545Z</time>
      </trkpt>
      <trkpt lat="45.43619" lon="3.83686">
        <ele>1102</ele>
        <time>2019-05-31T09:26:08.550Z</time>
      </trkpt>
      <trkpt lat="45.43622" lon="3.83694">
        <ele>1102</ele>
        <time>2019-05-31T09:26:13.563Z</time>
      </trkpt>
      <trkpt lat="45.43625" lon="3.83701">
        <ele>1101</ele>
        <time>2019-05-31T09:26:17.558Z</time>
      </trkpt>
      <trkpt lat="45.4363" lon="3.83709">
        <ele>1103</ele>
        <time>2019-05-31T09:26:22.561Z</time>
      </trkpt>
      <trkpt lat="45.43632" lon="3.83716">
        <ele>1103</ele>
        <time>2019-05-31T09:26:26.562Z</time>
      </trkpt>
      <trkpt lat="45.43634" lon="3.83726">
        <ele>1103</ele>
        <time>2019-05-31T09:26:31.554Z</time>
      </trkpt>
      <trkpt lat="45.43637" lon="3.83732">
        <ele>1103</ele>
        <time>2019-05-31T09:26:35.559Z</time>
      </trkpt>
      <trkpt lat="45.43642" lon="3.83748">
        <ele>1105</ele>
        <time>2019-05-31T09:26:40.545Z</time>
      </trkpt>
      <trkpt lat="45.43646" lon="3.83754">
        <ele>1105</ele>
        <time>2019-05-31T09:26:44.562Z</time>
      </trkpt>
      <trkpt lat="45.4365" lon="3.8376">
        <ele>1105</ele>
        <time>2019-05-31T09:26:49.553Z</time>
      </trkpt>
      <trkpt lat="45.43653" lon="3.83766">
        <ele>1105</ele>
        <time>2019-05-31T09:26:54.565Z</time>
      </trkpt>
      <trkpt lat="45.43654" lon="3.83773">
        <ele>1105</ele>
        <time>2019-05-31T09:26:58.580Z</time>
      </trkpt>
      <trkpt lat="45.43661" lon="3.83778">
        <ele>1105</ele>
        <time>2019-05-31T09:27:03.567Z</time>
      </trkpt>
      <trkpt lat="45.43665" lon="3.83785">
        <ele>1105</ele>
        <time>2019-05-31T09:27:08.565Z</time>
      </trkpt>
      <trkpt lat="45.43666" lon="3.83787">
        <ele>1105</ele>
        <time>2019-05-31T09:27:13.553Z</time>
      </trkpt>
      <trkpt lat="45.43671" lon="3.83788">
        <ele>1105</ele>
        <time>2019-05-31T09:27:17.571Z</time>
      </trkpt>
      <trkpt lat="45.43679" lon="3.8379">
        <ele>1105</ele>
        <time>2019-05-31T09:27:22.554Z</time>
      </trkpt>
      <trkpt lat="45.43691" lon="3.83797">
        <ele>1107</ele>
        <time>2019-05-31T09:27:27.562Z</time>
      </trkpt>
      <trkpt lat="45.43696" lon="3.83797">
        <ele>1107</ele>
        <time>2019-05-31T09:27:32.570Z</time>
      </trkpt>
      <trkpt lat="45.437" lon="3.83797">
        <ele>1107</ele>
        <time>2019-05-31T09:27:36.575Z</time>
      </trkpt>
      <trkpt lat="45.43705" lon="3.838">
        <ele>1107</ele>
        <time>2019-05-31T09:27:40.566Z</time>
      </trkpt>
      <trkpt lat="45.43713" lon="3.83803">
        <ele>1107</ele>
        <time>2019-05-31T09:27:45.567Z</time>
      </trkpt>
      <trkpt lat="45.43726" lon="3.83807">
        <ele>1107</ele>
        <time>2019-05-31T09:27:50.556Z</time>
      </trkpt>
      <trkpt lat="45.43731" lon="3.83812">
        <ele>1107</ele>
        <time>2019-05-31T09:27:55.556Z</time>
      </trkpt>
      <trkpt lat="45.43738" lon="3.83817">
        <ele>1107</ele>
        <time>2019-05-31T09:28:00.547Z</time>
      </trkpt>
      <trkpt lat="45.43746" lon="3.83819">
        <ele>1107</ele>
        <time>2019-05-31T09:28:05.550Z</time>
      </trkpt>
      <trkpt lat="45.43753" lon="3.83822">
        <ele>1110</ele>
        <time>2019-05-31T09:28:09.556Z</time>
      </trkpt>
      <trkpt lat="45.43762" lon="3.83825">
        <ele>1110</ele>
        <time>2019-05-31T09:28:14.558Z</time>
      </trkpt>
      <trkpt lat="45.43767" lon="3.83831">
        <ele>1111</ele>
        <time>2019-05-31T09:28:19.551Z</time>
      </trkpt>
      <trkpt lat="45.43776" lon="3.83837">
        <ele>1111</ele>
        <time>2019-05-31T09:28:24.561Z</time>
      </trkpt>
      <trkpt lat="45.43785" lon="3.83843">
        <ele>1111</ele>
        <time>2019-05-31T09:28:29.554Z</time>
      </trkpt>
      <trkpt lat="45.43795" lon="3.83851">
        <ele>1111</ele>
        <time>2019-05-31T09:28:34.551Z</time>
      </trkpt>
      <trkpt lat="45.43802" lon="3.83856">
        <ele>1111</ele>
        <time>2019-05-31T09:28:38.561Z</time>
      </trkpt>
      <trkpt lat="45.43798" lon="3.83865">
        <ele>1111</ele>
        <time>2019-05-31T09:28:43.559Z</time>
      </trkpt>
      <trkpt lat="45.43801" lon="3.83874">
        <ele>1111</ele>
        <time>2019-05-31T09:28:48.556Z</time>
      </trkpt>
      <trkpt lat="45.43806" lon="3.83886">
        <ele>1111</ele>
        <time>2019-05-31T09:28:53.565Z</time>
      </trkpt>
      <trkpt lat="45.43808" lon="3.83892">
        <ele>1111</ele>
        <time>2019-05-31T09:28:58.558Z</time>
      </trkpt>
      <trkpt lat="45.43809" lon="3.83896">
        <ele>1111</ele>
        <time>2019-05-31T09:29:02.562Z</time>
      </trkpt>
      <trkpt lat="45.43814" lon="3.83906">
        <ele>1112</ele>
        <time>2019-05-31T09:29:07.560Z</time>
      </trkpt>
      <trkpt lat="45.43818" lon="3.83913">
        <ele>1112</ele>
        <time>2019-05-31T09:29:12.556Z</time>
      </trkpt>
      <trkpt lat="45.43821" lon="3.83921">
        <ele>1108</ele>
        <time>2019-05-31T09:29:17.553Z</time>
      </trkpt>
      <trkpt lat="45.43825" lon="3.83931">
        <ele>1108</ele>
        <time>2019-05-31T09:29:22.551Z</time>
      </trkpt>
      <trkpt lat="45.43829" lon="3.83939">
        <ele>1108</ele>
        <time>2019-05-31T09:29:27.552Z</time>
      </trkpt>
      <trkpt lat="45.43834" lon="3.83946">
        <ele>1108</ele>
        <time>2019-05-31T09:29:32.548Z</time>
      </trkpt>
      <trkpt lat="45.43837" lon="3.83952">
        <ele>1108</ele>
        <time>2019-05-31T09:29:36.563Z</time>
      </trkpt>
      <trkpt lat="45.43842" lon="3.83955">
        <ele>1108</ele>
        <time>2019-05-31T09:29:41.562Z</time>
      </trkpt>
      <trkpt lat="45.43845" lon="3.83958">
        <ele>1108</ele>
        <time>2019-05-31T09:29:45.564Z</time>
      </trkpt>
      <trkpt lat="45.43856" lon="3.83963">
        <ele>1106</ele>
        <time>2019-05-31T09:29:50.557Z</time>
      </trkpt>
      <trkpt lat="45.43865" lon="3.8397">
        <ele>1106</ele>
        <time>2019-05-31T09:29:55.564Z</time>
      </trkpt>
      <trkpt lat="45.43872" lon="3.83973">
        <ele>1106</ele>
        <time>2019-05-31T09:30:00.545Z</time>
      </trkpt>
      <trkpt lat="45.43879" lon="3.83975">
        <ele>1104</ele>
        <time>2019-05-31T09:30:05.554Z</time>
      </trkpt>
      <trkpt lat="45.43885" lon="3.83983">
        <ele>1104</ele>
        <time>2019-05-31T09:30:10.561Z</time>
      </trkpt>
      <trkpt lat="45.4389" lon="3.83988">
        <ele>1107</ele>
        <time>2019-05-31T09:30:15.561Z</time>
      </trkpt>
      <trkpt lat="45.43895" lon="3.83994">
        <ele>1107</ele>
        <time>2019-05-31T09:30:20.550Z</time>
      </trkpt>
      <trkpt lat="45.439" lon="3.83998">
        <ele>1107</ele>
        <time>2019-05-31T09:30:25.551Z</time>
      </trkpt>
      <trkpt lat="45.43906" lon="3.84004">
        <ele>1105</ele>
        <time>2019-05-31T09:30:30.564Z</time>
      </trkpt>
      <trkpt lat="45.43911" lon="3.84009">
        <ele>1105</ele>
        <time>2019-05-31T09:30:35.562Z</time>
      </trkpt>
      <trkpt lat="45.43919" lon="3.84016">
        <ele>1108</ele>
        <time>2019-05-31T09:30:40.549Z</time>
      </trkpt>
      <trkpt lat="45.43926" lon="3.84026">
        <ele>1108</ele>
        <time>2019-05-31T09:30:45.553Z</time>
      </trkpt>
      <trkpt lat="45.43933" lon="3.84029">
        <ele>1107</ele>
        <time>2019-05-31T09:30:49.561Z</time>
      </trkpt>
      <trkpt lat="45.43935" lon="3.84033">
        <ele>1107</ele>
        <time>2019-05-31T09:30:54.559Z</time>
      </trkpt>
      <trkpt lat="45.43938" lon="3.84037">
        <ele>1107</ele>
        <time>2019-05-31T09:30:58.582Z</time>
      </trkpt>
      <trkpt lat="45.43943" lon="3.84034">
        <ele>1107</ele>
        <time>2019-05-31T09:31:03.550Z</time>
      </trkpt>
      <trkpt lat="45.43947" lon="3.84027">
        <ele>1107</ele>
        <time>2019-05-31T09:31:08.560Z</time>
      </trkpt>
      <trkpt lat="45.43952" lon="3.84016">
        <ele>1107</ele>
        <time>2019-05-31T09:31:13.561Z</time>
      </trkpt>
      <trkpt lat="45.43959" lon="3.84011">
        <ele>1108</ele>
        <time>2019-05-31T09:31:17.554Z</time>
      </trkpt>
      <trkpt lat="45.43965" lon="3.84001">
        <ele>1108</ele>
        <time>2019-05-31T09:31:22.549Z</time>
      </trkpt>
      <trkpt lat="45.43974" lon="3.83977">
        <ele>1106</ele>
        <time>2019-05-31T09:31:27.551Z</time>
      </trkpt>
      <trkpt lat="45.43988" lon="3.83953">
        <ele>1107</ele>
        <time>2019-05-31T09:31:31.559Z</time>
      </trkpt>
      <trkpt lat="45.44004" lon="3.83921">
        <ele>1106</ele>
        <time>2019-05-31T09:31:36.548Z</time>
      </trkpt>
      <trkpt lat="45.44015" lon="3.83905">
        <ele>1109</ele>
        <time>2019-05-31T09:31:40.558Z</time>
      </trkpt>
      <trkpt lat="45.44021" lon="3.83894">
        <ele>1106</ele>
        <time>2019-05-31T09:31:45.557Z</time>
      </trkpt>
      <trkpt lat="45.44026" lon="3.83885">
        <ele>1106</ele>
        <time>2019-05-31T09:31:50.528Z</time>
      </trkpt>
      <trkpt lat="45.44027" lon="3.83878">
        <ele>1106</ele>
        <time>2019-05-31T09:31:55.563Z</time>
      </trkpt>
      <trkpt lat="45.4403" lon="3.83867">
        <ele>1104</ele>
        <time>2019-05-31T09:32:00.556Z</time>
      </trkpt>
      <trkpt lat="45.44033" lon="3.83854">
        <ele>1104</ele>
        <time>2019-05-31T09:32:05.552Z</time>
      </trkpt>
      <trkpt lat="45.44035" lon="3.83845">
        <ele>1103</ele>
        <time>2019-05-31T09:32:09.557Z</time>
      </trkpt>
      <trkpt lat="45.44038" lon="3.83837">
        <ele>1103</ele>
        <time>2019-05-31T09:32:14.540Z</time>
      </trkpt>
      <trkpt lat="45.44042" lon="3.83831">
        <ele>1101</ele>
        <time>2019-05-31T09:32:18.558Z</time>
      </trkpt>
      <trkpt lat="45.44049" lon="3.83827">
        <ele>1101</ele>
        <time>2019-05-31T09:32:23.560Z</time>
      </trkpt>
      <trkpt lat="45.44053" lon="3.83819">
        <ele>1100</ele>
        <time>2019-05-31T09:32:28.560Z</time>
      </trkpt>
      <trkpt lat="45.44058" lon="3.8381">
        <ele>1100</ele>
        <time>2019-05-31T09:32:33.547Z</time>
      </trkpt>
      <trkpt lat="45.44062" lon="3.83805">
        <ele>1100</ele>
        <time>2019-05-31T09:32:37.555Z</time>
      </trkpt>
      <trkpt lat="45.44067" lon="3.83798">
        <ele>1100</ele>
        <time>2019-05-31T09:32:42.559Z</time>
      </trkpt>
      <trkpt lat="45.44074" lon="3.83786">
        <ele>1095</ele>
        <time>2019-05-31T09:32:47.543Z</time>
      </trkpt>
      <trkpt lat="45.44078" lon="3.83781">
        <ele>1095</ele>
        <time>2019-05-31T09:32:52.560Z</time>
      </trkpt>
      <trkpt lat="45.44083" lon="3.83771">
        <ele>1095</ele>
        <time>2019-05-31T09:32:57.562Z</time>
      </trkpt>
      <trkpt lat="45.44088" lon="3.83762">
        <ele>1094</ele>
        <time>2019-05-31T09:33:02.565Z</time>
      </trkpt>
      <trkpt lat="45.44093" lon="3.83758">
        <ele>1094</ele>
        <time>2019-05-31T09:33:07.568Z</time>
      </trkpt>
      <trkpt lat="45.44101" lon="3.83759">
        <ele>1090</ele>
        <time>2019-05-31T09:33:12.554Z</time>
      </trkpt>
      <trkpt lat="45.44112" lon="3.83759">
        <ele>1090</ele>
        <time>2019-05-31T09:33:17.574Z</time>
      </trkpt>
      <trkpt lat="45.4412" lon="3.83765">
        <ele>1091</ele>
        <time>2019-05-31T09:33:22.556Z</time>
      </trkpt>
      <trkpt lat="45.44122" lon="3.83767">
        <ele>1091</ele>
        <time>2019-05-31T09:33:27.556Z</time>
      </trkpt>
      <trkpt lat="45.44129" lon="3.83773">
        <ele>1089</ele>
        <time>2019-05-31T09:33:32.530Z</time>
      </trkpt>
      <trkpt lat="45.44135" lon="3.83782">
        <ele>1089</ele>
        <time>2019-05-31T09:33:36.552Z</time>
      </trkpt>
      <trkpt lat="45.44147" lon="3.83802">
        <ele>1090</ele>
        <time>2019-05-31T09:33:54.542Z</time>
      </trkpt>
      <trkpt lat="45.44148" lon="3.83803">
        <ele>1090</ele>
        <time>2019-05-31T09:33:58.568Z</time>
      </trkpt>
      <trkpt lat="45.44149" lon="3.83804">
        <ele>1090</ele>
        <time>2019-05-31T09:34:03.565Z</time>
      </trkpt>
      <trkpt lat="45.4415" lon="3.83807">
        <ele>1090</ele>
        <time>2019-05-31T09:34:08.560Z</time>
      </trkpt>
      <trkpt lat="45.44155" lon="3.83808">
        <ele>1092</ele>
        <time>2019-05-31T09:34:13.544Z</time>
      </trkpt>
      <trkpt lat="45.44159" lon="3.83806">
        <ele>1092</ele>
        <time>2019-05-31T09:34:17.570Z</time>
      </trkpt>
      <trkpt lat="45.44166" lon="3.83809">
        <ele>1092</ele>
        <time>2019-05-31T09:34:22.578Z</time>
      </trkpt>
      <trkpt lat="45.44175" lon="3.83813">
        <ele>1092</ele>
        <time>2019-05-31T09:34:27.549Z</time>
      </trkpt>
      <trkpt lat="45.44183" lon="3.83814">
        <ele>1091</ele>
        <time>2019-05-31T09:34:32.563Z</time>
      </trkpt>
      <trkpt lat="45.44186" lon="3.8381">
        <ele>1091</ele>
        <time>2019-05-31T09:34:36.578Z</time>
      </trkpt>
      <trkpt lat="45.44192" lon="3.83807">
        <ele>1091</ele>
        <time>2019-05-31T09:34:41.562Z</time>
      </trkpt>
      <trkpt lat="45.442" lon="3.83809">
        <ele>1091</ele>
        <time>2019-05-31T09:34:46.570Z</time>
      </trkpt>
      <trkpt lat="45.44209" lon="3.83809">
        <ele>1089</ele>
        <time>2019-05-31T09:34:51.554Z</time>
      </trkpt>
      <trkpt lat="45.44216" lon="3.83807">
        <ele>1089</ele>
        <time>2019-05-31T09:34:56.552Z</time>
      </trkpt>
      <trkpt lat="45.44219" lon="3.83809">
        <ele>1089</ele>
        <time>2019-05-31T09:35:01.572Z</time>
      </trkpt>
      <trkpt lat="45.44222" lon="3.83808">
        <ele>1089</ele>
        <time>2019-05-31T09:35:06.563Z</time>
      </trkpt>
      <trkpt lat="45.44225" lon="3.83806">
        <ele>1089</ele>
        <time>2019-05-31T09:35:11.555Z</time>
      </trkpt>
      <trkpt lat="45.4423" lon="3.83807">
        <ele>1089</ele>
        <time>2019-05-31T09:35:16.548Z</time>
      </trkpt>
      <trkpt lat="45.44235" lon="3.83795">
        <ele>1089</ele>
        <time>2019-05-31T09:35:21.549Z</time>
      </trkpt>
      <trkpt lat="45.44238" lon="3.83795">
        <ele>1091</ele>
        <time>2019-05-31T09:35:26.567Z</time>
      </trkpt>
      <trkpt lat="45.44239" lon="3.83794">
        <ele>1091</ele>
        <time>2019-05-31T09:35:30.564Z</time>
      </trkpt>
      <trkpt lat="45.44246" lon="3.83793">
        <ele>1091</ele>
        <time>2019-05-31T09:35:35.564Z</time>
      </trkpt>
      <trkpt lat="45.44253" lon="3.83789">
        <ele>1087</ele>
        <time>2019-05-31T09:35:40.547Z</time>
      </trkpt>
      <trkpt lat="45.4426" lon="3.83783">
        <ele>1087</ele>
        <time>2019-05-31T09:35:45.556Z</time>
      </trkpt>
      <trkpt lat="45.44266" lon="3.83787">
        <ele>1087</ele>
        <time>2019-05-31T09:35:49.556Z</time>
      </trkpt>
      <trkpt lat="45.44274" lon="3.83781">
        <ele>1087</ele>
        <time>2019-05-31T09:35:54.541Z</time>
      </trkpt>
      <trkpt lat="45.44281" lon="3.83774">
        <ele>1087</ele>
        <time>2019-05-31T09:35:58.544Z</time>
      </trkpt>
      <trkpt lat="45.44287" lon="3.8377">
        <ele>1087</ele>
        <time>2019-05-31T09:36:03.530Z</time>
      </trkpt>
      <trkpt lat="45.44294" lon="3.83769">
        <ele>1088</ele>
        <time>2019-05-31T09:36:07.545Z</time>
      </trkpt>
      <trkpt lat="45.44304" lon="3.83769">
        <ele>1088</ele>
        <time>2019-05-31T09:36:12.536Z</time>
      </trkpt>
      <trkpt lat="45.44307" lon="3.83765">
        <ele>1088</ele>
        <time>2019-05-31T09:36:16.556Z</time>
      </trkpt>
      <trkpt lat="45.44312" lon="3.83761">
        <ele>1083</ele>
        <time>2019-05-31T09:36:20.567Z</time>
      </trkpt>
      <trkpt lat="45.4432" lon="3.83759">
        <ele>1084</ele>
        <time>2019-05-31T09:36:25.565Z</time>
      </trkpt>
      <trkpt lat="45.44331" lon="3.83753">
        <ele>1084</ele>
        <time>2019-05-31T09:36:30.561Z</time>
      </trkpt>
      <trkpt lat="45.4434" lon="3.83745">
        <ele>1084</ele>
        <time>2019-05-31T09:36:35.549Z</time>
      </trkpt>
      <trkpt lat="45.44344" lon="3.83739">
        <ele>1084</ele>
        <time>2019-05-31T09:36:39.546Z</time>
      </trkpt>
      <trkpt lat="45.44347" lon="3.83736">
        <ele>1084</ele>
        <time>2019-05-31T09:36:44.571Z</time>
      </trkpt>
      <trkpt lat="45.44348" lon="3.83733">
        <ele>1084</ele>
        <time>2019-05-31T09:36:49.565Z</time>
      </trkpt>
      <trkpt lat="45.44351" lon="3.83729">
        <ele>1084</ele>
        <time>2019-05-31T09:36:53.556Z</time>
      </trkpt>
      <trkpt lat="45.44355" lon="3.83723">
        <ele>1084</ele>
        <time>2019-05-31T09:36:58.552Z</time>
      </trkpt>
      <trkpt lat="45.44359" lon="3.83716">
        <ele>1084</ele>
        <time>2019-05-31T09:37:03.559Z</time>
      </trkpt>
      <trkpt lat="45.44363" lon="3.8371">
        <ele>1084</ele>
        <time>2019-05-31T09:37:08.564Z</time>
      </trkpt>
      <trkpt lat="45.44371" lon="3.837">
        <ele>1081</ele>
        <time>2019-05-31T09:37:13.554Z</time>
      </trkpt>
      <trkpt lat="45.44377" lon="3.83692">
        <ele>1083</ele>
        <time>2019-05-31T09:37:18.555Z</time>
      </trkpt>
      <trkpt lat="45.44381" lon="3.83685">
        <ele>1083</ele>
        <time>2019-05-31T09:37:22.557Z</time>
      </trkpt>
      <trkpt lat="45.44385" lon="3.83677">
        <ele>1080</ele>
        <time>2019-05-31T09:37:27.550Z</time>
      </trkpt>
      <trkpt lat="45.44392" lon="3.83674">
        <ele>1080</ele>
        <time>2019-05-31T09:37:32.545Z</time>
      </trkpt>
      <trkpt lat="45.444" lon="3.83678">
        <ele>1080</ele>
        <time>2019-05-31T09:37:36.551Z</time>
      </trkpt>
      <trkpt lat="45.44408" lon="3.83676">
        <ele>1081</ele>
        <time>2019-05-31T09:37:41.564Z</time>
      </trkpt>
      <trkpt lat="45.44415" lon="3.83669">
        <ele>1081</ele>
        <time>2019-05-31T09:37:46.564Z</time>
      </trkpt>
      <trkpt lat="45.44425" lon="3.83661">
        <ele>1081</ele>
        <time>2019-05-31T09:37:51.563Z</time>
      </trkpt>
      <trkpt lat="45.44431" lon="3.83651">
        <ele>1078</ele>
        <time>2019-05-31T09:37:56.554Z</time>
      </trkpt>
      <trkpt lat="45.44434" lon="3.83647">
        <ele>1078</ele>
        <time>2019-05-31T09:38:01.554Z</time>
      </trkpt>
      <trkpt lat="45.44443" lon="3.83645">
        <ele>1078</ele>
        <time>2019-05-31T09:38:06.556Z</time>
      </trkpt>
      <trkpt lat="45.44448" lon="3.83648">
        <ele>1078</ele>
        <time>2019-05-31T09:38:11.570Z</time>
      </trkpt>
      <trkpt lat="45.4445" lon="3.83646">
        <ele>1078</ele>
        <time>2019-05-31T09:38:16.564Z</time>
      </trkpt>
      <trkpt lat="45.44458" lon="3.83642">
        <ele>1078</ele>
        <time>2019-05-31T09:38:21.548Z</time>
      </trkpt>
      <trkpt lat="45.44469" lon="3.83638">
        <ele>1076</ele>
        <time>2019-05-31T09:38:26.560Z</time>
      </trkpt>
      <trkpt lat="45.44473" lon="3.83631">
        <ele>1076</ele>
        <time>2019-05-31T09:38:31.554Z</time>
      </trkpt>
      <trkpt lat="45.44477" lon="3.83632">
        <ele>1076</ele>
        <time>2019-05-31T09:38:35.545Z</time>
      </trkpt>
      <trkpt lat="45.44481" lon="3.83633">
        <ele>1076</ele>
        <time>2019-05-31T09:38:40.551Z</time>
      </trkpt>
      <trkpt lat="45.44485" lon="3.83632">
        <ele>1076</ele>
        <time>2019-05-31T09:38:44.554Z</time>
      </trkpt>
      <trkpt lat="45.44489" lon="3.83626">
        <ele>1074</ele>
        <time>2019-05-31T09:38:49.554Z</time>
      </trkpt>
      <trkpt lat="45.44495" lon="3.83623">
        <ele>1071</ele>
        <time>2019-05-31T09:38:54.546Z</time>
      </trkpt>
      <trkpt lat="45.44498" lon="3.83621">
        <ele>1071</ele>
        <time>2019-05-31T09:38:58.552Z</time>
      </trkpt>
      <trkpt lat="45.44506" lon="3.83621">
        <ele>1071</ele>
        <time>2019-05-31T09:39:03.554Z</time>
      </trkpt>
      <trkpt lat="45.44513" lon="3.83623">
        <ele>1071</ele>
        <time>2019-05-31T09:39:07.570Z</time>
      </trkpt>
      <trkpt lat="45.44525" lon="3.83627">
        <ele>1073</ele>
        <time>2019-05-31T09:39:12.554Z</time>
      </trkpt>
      <trkpt lat="45.44534" lon="3.83631">
        <ele>1073</ele>
        <time>2019-05-31T09:39:17.549Z</time>
      </trkpt>
      <trkpt lat="45.44538" lon="3.83635">
        <ele>1073</ele>
        <time>2019-05-31T09:39:22.566Z</time>
      </trkpt>
      <trkpt lat="45.44544" lon="3.83637">
        <ele>1073</ele>
        <time>2019-05-31T09:39:27.560Z</time>
      </trkpt>
      <trkpt lat="45.44547" lon="3.83639">
        <ele>1073</ele>
        <time>2019-05-31T09:39:32.552Z</time>
      </trkpt>
      <trkpt lat="45.44555" lon="3.83637">
        <ele>1073</ele>
        <time>2019-05-31T09:39:37.547Z</time>
      </trkpt>
      <trkpt lat="45.44565" lon="3.83627">
        <ele>1073</ele>
        <time>2019-05-31T09:39:41.565Z</time>
      </trkpt>
      <trkpt lat="45.44579" lon="3.83629">
        <ele>1073</ele>
        <time>2019-05-31T09:39:46.562Z</time>
      </trkpt>
      <trkpt lat="45.44588" lon="3.83635">
        <ele>1073</ele>
        <time>2019-05-31T09:39:51.556Z</time>
      </trkpt>
      <trkpt lat="45.446" lon="3.83634">
        <ele>1072</ele>
        <time>2019-05-31T09:39:56.557Z</time>
      </trkpt>
      <trkpt lat="45.44607" lon="3.83641">
        <ele>1072</ele>
        <time>2019-05-31T09:40:01.569Z</time>
      </trkpt>
      <trkpt lat="45.44613" lon="3.83643">
        <ele>1072</ele>
        <time>2019-05-31T09:40:06.566Z</time>
      </trkpt>
      <trkpt lat="45.44621" lon="3.83642">
        <ele>1072</ele>
        <time>2019-05-31T09:40:11.570Z</time>
      </trkpt>
      <trkpt lat="45.44629" lon="3.83645">
        <ele>1069</ele>
        <time>2019-05-31T09:40:16.551Z</time>
      </trkpt>
      <trkpt lat="45.44635" lon="3.8365">
        <ele>1069</ele>
        <time>2019-05-31T09:40:21.548Z</time>
      </trkpt>
      <trkpt lat="45.44638" lon="3.83651">
        <ele>1069</ele>
        <time>2019-05-31T09:40:26.557Z</time>
      </trkpt>
      <trkpt lat="45.44644" lon="3.83647">
        <ele>1069</ele>
        <time>2019-05-31T09:40:31.560Z</time>
      </trkpt>
      <trkpt lat="45.44648" lon="3.83647">
        <ele>1069</ele>
        <time>2019-05-31T09:40:36.562Z</time>
      </trkpt>
      <trkpt lat="45.44653" lon="3.83645">
        <ele>1069</ele>
        <time>2019-05-31T09:40:41.548Z</time>
      </trkpt>
      <trkpt lat="45.44659" lon="3.83648">
        <ele>1069</ele>
        <time>2019-05-31T09:40:46.537Z</time>
      </trkpt>
      <trkpt lat="45.44665" lon="3.8365">
        <ele>1069</ele>
        <time>2019-05-31T09:40:50.558Z</time>
      </trkpt>
      <trkpt lat="45.44668" lon="3.83652">
        <ele>1069</ele>
        <time>2019-05-31T09:40:55.572Z</time>
      </trkpt>
      <trkpt lat="45.44678" lon="3.83653">
        <ele>1074</ele>
        <time>2019-05-31T09:41:00.540Z</time>
      </trkpt>
      <trkpt lat="45.4468" lon="3.83653">
        <ele>1069</ele>
        <time>2019-05-31T09:41:05.559Z</time>
      </trkpt>
      <trkpt lat="45.44685" lon="3.83656">
        <ele>1072</ele>
        <time>2019-05-31T09:41:10.550Z</time>
      </trkpt>
      <trkpt lat="45.44695" lon="3.83656">
        <ele>1072</ele>
        <time>2019-05-31T09:41:15.551Z</time>
      </trkpt>
      <trkpt lat="45.447" lon="3.83657">
        <ele>1072</ele>
        <time>2019-05-31T09:41:19.570Z</time>
      </trkpt>
      <trkpt lat="45.44702" lon="3.83658">
        <ele>1072</ele>
        <time>2019-05-31T09:41:24.549Z</time>
      </trkpt>
      <trkpt lat="45.44703" lon="3.83658">
        <ele>1072</ele>
        <time>2019-05-31T09:41:28.563Z</time>
      </trkpt>
      <trkpt lat="45.44705" lon="3.83659">
        <ele>1072</ele>
        <time>2019-05-31T09:41:33.570Z</time>
      </trkpt>
      <trkpt lat="45.44711" lon="3.83653">
        <ele>1070</ele>
        <time>2019-05-31T09:41:38.554Z</time>
      </trkpt>
      <trkpt lat="45.44723" lon="3.8365">
        <ele>1066</ele>
        <time>2019-05-31T09:41:47.563Z</time>
      </trkpt>
      <trkpt lat="45.44724" lon="3.83651">
        <ele>1066</ele>
        <time>2019-05-31T09:41:52.552Z</time>
      </trkpt>
      <trkpt lat="45.44725" lon="3.83651">
        <ele>1066</ele>
        <time>2019-05-31T09:41:57.557Z</time>
      </trkpt>
      <trkpt lat="45.44725" lon="3.83652">
        <ele>1066</ele>
        <time>2019-05-31T09:42:02.550Z</time>
      </trkpt>
      <trkpt lat="45.44725" lon="3.83653">
        <ele>1070</ele>
        <time>2019-05-31T09:42:07.543Z</time>
      </trkpt>
      <trkpt lat="45.44729" lon="3.83658">
        <ele>1070</ele>
        <time>2019-05-31T09:42:37.550Z</time>
      </trkpt>
      <trkpt lat="45.44731" lon="3.83652">
        <ele>1066</ele>
        <time>2019-05-31T09:42:42.538Z</time>
      </trkpt>
      <trkpt lat="45.44732" lon="3.83651">
        <ele>1066</ele>
        <time>2019-05-31T09:42:47.558Z</time>
      </trkpt>
      <trkpt lat="45.44732" lon="3.83649">
        <ele>1066</ele>
        <time>2019-05-31T09:42:52.539Z</time>
      </trkpt>
      <trkpt lat="45.44737" lon="3.8365">
        <ele>1065</ele>
        <time>2019-05-31T09:42:57.552Z</time>
      </trkpt>
      <trkpt lat="45.44742" lon="3.83651">
        <ele>1065</ele>
        <time>2019-05-31T09:43:02.554Z</time>
      </trkpt>
      <trkpt lat="45.44748" lon="3.8365">
        <ele>1065</ele>
        <time>2019-05-31T09:43:07.568Z</time>
      </trkpt>
      <trkpt lat="45.44757" lon="3.8365">
        <ele>1065</ele>
        <time>2019-05-31T09:43:12.550Z</time>
      </trkpt>
      <trkpt lat="45.44764" lon="3.83649">
        <ele>1067</ele>
        <time>2019-05-31T09:43:17.552Z</time>
      </trkpt>
      <trkpt lat="45.44771" lon="3.83651">
        <ele>1067</ele>
        <time>2019-05-31T09:43:22.556Z</time>
      </trkpt>
      <trkpt lat="45.44778" lon="3.83653">
        <ele>1072</ele>
        <time>2019-05-31T09:43:27.527Z</time>
      </trkpt>
      <trkpt lat="45.44786" lon="3.83652">
        <ele>1067</ele>
        <time>2019-05-31T09:43:31.566Z</time>
      </trkpt>
      <trkpt lat="45.44792" lon="3.83659">
        <ele>1072</ele>
        <time>2019-05-31T09:43:36.548Z</time>
      </trkpt>
      <trkpt lat="45.44793" lon="3.8366">
        <ele>1074</ele>
        <time>2019-05-31T09:43:40.560Z</time>
      </trkpt>
      <trkpt lat="45.44799" lon="3.83657">
        <ele>1074</ele>
        <time>2019-05-31T09:43:45.554Z</time>
      </trkpt>
      <trkpt lat="45.44807" lon="3.83656">
        <ele>1074</ele>
        <time>2019-05-31T09:43:50.551Z</time>
      </trkpt>
      <trkpt lat="45.44813" lon="3.83653">
        <ele>1074</ele>
        <time>2019-05-31T09:43:55.553Z</time>
      </trkpt>
      <trkpt lat="45.4482" lon="3.83653">
        <ele>1073</ele>
        <time>2019-05-31T09:44:00.556Z</time>
      </trkpt>
      <trkpt lat="45.44832" lon="3.83654">
        <ele>1073</ele>
        <time>2019-05-31T09:44:04.573Z</time>
      </trkpt>
      <trkpt lat="45.4484" lon="3.83657">
        <ele>1073</ele>
        <time>2019-05-31T09:44:09.550Z</time>
      </trkpt>
      <trkpt lat="45.44844" lon="3.83659">
        <ele>1073</ele>
        <time>2019-05-31T09:44:14.536Z</time>
      </trkpt>
      <trkpt lat="45.44845" lon="3.83658">
        <ele>1073</ele>
        <time>2019-05-31T09:44:18.551Z</time>
      </trkpt>
      <trkpt lat="45.44855" lon="3.83648">
        <ele>1069</ele>
        <time>2019-05-31T09:44:23.551Z</time>
      </trkpt>
      <trkpt lat="45.44863" lon="3.83644">
        <ele>1069</ele>
        <time>2019-05-31T09:44:28.550Z</time>
      </trkpt>
      <trkpt lat="45.4487" lon="3.83643">
        <ele>1069</ele>
        <time>2019-05-31T09:44:33.568Z</time>
      </trkpt>
      <trkpt lat="45.44877" lon="3.83639">
        <ele>1070</ele>
        <time>2019-05-31T09:44:38.556Z</time>
      </trkpt>
      <trkpt lat="45.44882" lon="3.8363">
        <ele>1070</ele>
        <time>2019-05-31T09:44:43.574Z</time>
      </trkpt>
      <trkpt lat="45.4489" lon="3.83621">
        <ele>1068</ele>
        <time>2019-05-31T09:44:48.558Z</time>
      </trkpt>
      <trkpt lat="45.44894" lon="3.83614">
        <ele>1068</ele>
        <time>2019-05-31T09:44:53.572Z</time>
      </trkpt>
      <trkpt lat="45.44895" lon="3.83607">
        <ele>1068</ele>
        <time>2019-05-31T09:44:58.552Z</time>
      </trkpt>
      <trkpt lat="45.44898" lon="3.83594">
        <ele>1065</ele>
        <time>2019-05-31T09:45:03.544Z</time>
      </trkpt>
      <trkpt lat="45.44905" lon="3.83581">
        <ele>1069</ele>
        <time>2019-05-31T09:45:08.550Z</time>
      </trkpt>
      <trkpt lat="45.44911" lon="3.8357">
        <ele>1069</ele>
        <time>2019-05-31T09:45:13.556Z</time>
      </trkpt>
      <trkpt lat="45.44916" lon="3.83564">
        <ele>1066</ele>
        <time>2019-05-31T09:45:18.549Z</time>
      </trkpt>
      <trkpt lat="45.4492" lon="3.83558">
        <ele>1066</ele>
        <time>2019-05-31T09:45:22.565Z</time>
      </trkpt>
      <trkpt lat="45.44924" lon="3.83551">
        <ele>1066</ele>
        <time>2019-05-31T09:45:27.549Z</time>
      </trkpt>
      <trkpt lat="45.44927" lon="3.8354">
        <ele>1064</ele>
        <time>2019-05-31T09:45:31.578Z</time>
      </trkpt>
      <trkpt lat="45.44932" lon="3.83533">
        <ele>1067</ele>
        <time>2019-05-31T09:45:36.549Z</time>
      </trkpt>
      <trkpt lat="45.44935" lon="3.83525">
        <ele>1067</ele>
        <time>2019-05-31T09:45:41.564Z</time>
      </trkpt>
      <trkpt lat="45.44936" lon="3.83519">
        <ele>1067</ele>
        <time>2019-05-31T09:45:45.577Z</time>
      </trkpt>
      <trkpt lat="45.4494" lon="3.83511">
        <ele>1066</ele>
        <time>2019-05-31T09:45:50.551Z</time>
      </trkpt>
      <trkpt lat="45.44947" lon="3.83505">
        <ele>1066</ele>
        <time>2019-05-31T09:45:55.546Z</time>
      </trkpt>
      <trkpt lat="45.44949" lon="3.83503">
        <ele>1066</ele>
        <time>2019-05-31T09:45:59.557Z</time>
      </trkpt>
      <trkpt lat="45.44951" lon="3.83496">
        <ele>1066</ele>
        <time>2019-05-31T09:46:04.538Z</time>
      </trkpt>
      <trkpt lat="45.44955" lon="3.83491">
        <ele>1066</ele>
        <time>2019-05-31T09:46:08.564Z</time>
      </trkpt>
      <trkpt lat="45.44959" lon="3.83488">
        <ele>1067</ele>
        <time>2019-05-31T09:46:13.566Z</time>
      </trkpt>
      <trkpt lat="45.44967" lon="3.83488">
        <ele>1067</ele>
        <time>2019-05-31T09:46:18.555Z</time>
      </trkpt>
      <trkpt lat="45.44973" lon="3.83485">
        <ele>1066</ele>
        <time>2019-05-31T09:46:23.560Z</time>
      </trkpt>
      <trkpt lat="45.44985" lon="3.83476">
        <ele>1066</ele>
        <time>2019-05-31T09:46:28.565Z</time>
      </trkpt>
      <trkpt lat="45.44994" lon="3.8347">
        <ele>1067</ele>
        <time>2019-05-31T09:46:33.557Z</time>
      </trkpt>
      <trkpt lat="45.45002" lon="3.8347">
        <ele>1067</ele>
        <time>2019-05-31T09:46:38.556Z</time>
      </trkpt>
      <trkpt lat="45.45006" lon="3.8347">
        <ele>1067</ele>
        <time>2019-05-31T09:46:43.536Z</time>
      </trkpt>
      <trkpt lat="45.4501" lon="3.83471">
        <ele>1067</ele>
        <time>2019-05-31T09:46:47.559Z</time>
      </trkpt>
      <trkpt lat="45.45012" lon="3.83471">
        <ele>1067</ele>
        <time>2019-05-31T09:46:52.563Z</time>
      </trkpt>
      <trkpt lat="45.45022" lon="3.8347">
        <ele>1065</ele>
        <time>2019-05-31T09:46:57.542Z</time>
      </trkpt>
      <trkpt lat="45.45029" lon="3.83466">
        <ele>1065</ele>
        <time>2019-05-31T09:47:02.562Z</time>
      </trkpt>
      <trkpt lat="45.45041" lon="3.83467">
        <ele>1065</ele>
        <time>2019-05-31T09:47:07.553Z</time>
      </trkpt>
      <trkpt lat="45.45052" lon="3.83471">
        <ele>1062</ele>
        <time>2019-05-31T09:47:12.534Z</time>
      </trkpt>
      <trkpt lat="45.45061" lon="3.83474">
        <ele>1062</ele>
        <time>2019-05-31T09:47:16.553Z</time>
      </trkpt>
      <trkpt lat="45.45069" lon="3.83476">
        <ele>1062</ele>
        <time>2019-05-31T09:47:21.559Z</time>
      </trkpt>
      <trkpt lat="45.45074" lon="3.83478">
        <ele>1061</ele>
        <time>2019-05-31T09:47:26.556Z</time>
      </trkpt>
      <trkpt lat="45.45081" lon="3.83471">
        <ele>1061</ele>
        <time>2019-05-31T09:47:31.550Z</time>
      </trkpt>
      <trkpt lat="45.45091" lon="3.83459">
        <ele>1061</ele>
        <time>2019-05-31T09:47:36.548Z</time>
      </trkpt>
      <trkpt lat="45.45097" lon="3.83455">
        <ele>1059</ele>
        <time>2019-05-31T09:47:40.566Z</time>
      </trkpt>
      <trkpt lat="45.45104" lon="3.83447">
        <ele>1059</ele>
        <time>2019-05-31T09:47:45.536Z</time>
      </trkpt>
      <trkpt lat="45.4511" lon="3.83448">
        <ele>1059</ele>
        <time>2019-05-31T09:47:50.559Z</time>
      </trkpt>
      <trkpt lat="45.45121" lon="3.83452">
        <ele>1059</ele>
        <time>2019-05-31T09:47:55.538Z</time>
      </trkpt>
      <trkpt lat="45.45131" lon="3.83451">
        <ele>1063</ele>
        <time>2019-05-31T09:48:00.556Z</time>
      </trkpt>
      <trkpt lat="45.45135" lon="3.83445">
        <ele>1063</ele>
        <time>2019-05-31T09:48:05.539Z</time>
      </trkpt>
      <trkpt lat="45.4514" lon="3.83439">
        <ele>1063</ele>
        <time>2019-05-31T09:48:10.552Z</time>
      </trkpt>
      <trkpt lat="45.45146" lon="3.83432">
        <ele>1063</ele>
        <time>2019-05-31T09:48:15.538Z</time>
      </trkpt>
      <trkpt lat="45.45153" lon="3.83428">
        <ele>1063</ele>
        <time>2019-05-31T09:48:20.554Z</time>
      </trkpt>
      <trkpt lat="45.45167" lon="3.83437">
        <ele>1066</ele>
        <time>2019-05-31T09:48:24.570Z</time>
      </trkpt>
      <trkpt lat="45.45175" lon="3.83434">
        <ele>1066</ele>
        <time>2019-05-31T09:48:29.565Z</time>
      </trkpt>
      <trkpt lat="45.45176" lon="3.83426">
        <ele>1063</ele>
        <time>2019-05-31T09:48:34.554Z</time>
      </trkpt>
      <trkpt lat="45.45183" lon="3.83418">
        <ele>1065</ele>
        <time>2019-05-31T09:48:39.543Z</time>
      </trkpt>
      <trkpt lat="45.45189" lon="3.83415">
        <ele>1065</ele>
        <time>2019-05-31T09:48:44.561Z</time>
      </trkpt>
      <trkpt lat="45.45195" lon="3.83409">
        <ele>1065</ele>
        <time>2019-05-31T09:48:49.551Z</time>
      </trkpt>
      <trkpt lat="45.452" lon="3.83413">
        <ele>1065</ele>
        <time>2019-05-31T09:48:54.564Z</time>
      </trkpt>
      <trkpt lat="45.45203" lon="3.83408">
        <ele>1065</ele>
        <time>2019-05-31T09:48:59.558Z</time>
      </trkpt>
      <trkpt lat="45.45205" lon="3.83406">
        <ele>1065</ele>
        <time>2019-05-31T09:49:04.556Z</time>
      </trkpt>
      <trkpt lat="45.45209" lon="3.83401">
        <ele>1063</ele>
        <time>2019-05-31T09:49:09.543Z</time>
      </trkpt>
      <trkpt lat="45.45214" lon="3.83396">
        <ele>1063</ele>
        <time>2019-05-31T09:49:14.553Z</time>
      </trkpt>
      <trkpt lat="45.45218" lon="3.83388">
        <ele>1063</ele>
        <time>2019-05-31T09:49:19.543Z</time>
      </trkpt>
      <trkpt lat="45.45223" lon="3.83381">
        <ele>1063</ele>
        <time>2019-05-31T09:49:24.570Z</time>
      </trkpt>
      <trkpt lat="45.45229" lon="3.83376">
        <ele>1063</ele>
        <time>2019-05-31T09:49:29.538Z</time>
      </trkpt>
      <trkpt lat="45.45239" lon="3.83369">
        <ele>1059</ele>
        <time>2019-05-31T09:49:34.564Z</time>
      </trkpt>
      <trkpt lat="45.45244" lon="3.83362">
        <ele>1059</ele>
        <time>2019-05-31T09:49:39.535Z</time>
      </trkpt>
      <trkpt lat="45.45252" lon="3.8336">
        <ele>1059</ele>
        <time>2019-05-31T09:49:44.556Z</time>
      </trkpt>
      <trkpt lat="45.45258" lon="3.8336">
        <ele>1059</ele>
        <time>2019-05-31T09:49:49.536Z</time>
      </trkpt>
      <trkpt lat="45.45262" lon="3.83362">
        <ele>1059</ele>
        <time>2019-05-31T09:49:54.552Z</time>
      </trkpt>
      <trkpt lat="45.45262" lon="3.83359">
        <ele>1059</ele>
        <time>2019-05-31T09:49:59.538Z</time>
      </trkpt>
      <trkpt lat="45.45267" lon="3.83362">
        <ele>1056</ele>
        <time>2019-05-31T09:50:04.568Z</time>
      </trkpt>
      <trkpt lat="45.45276" lon="3.83364">
        <ele>1056</ele>
        <time>2019-05-31T09:50:09.536Z</time>
      </trkpt>
      <trkpt lat="45.45286" lon="3.83374">
        <ele>1056</ele>
        <time>2019-05-31T09:50:14.565Z</time>
      </trkpt>
      <trkpt lat="45.45294" lon="3.8338">
        <ele>1058</ele>
        <time>2019-05-31T09:50:19.536Z</time>
      </trkpt>
      <trkpt lat="45.45297" lon="3.83379">
        <ele>1058</ele>
        <time>2019-05-31T09:50:24.563Z</time>
      </trkpt>
      <trkpt lat="45.453" lon="3.8338">
        <ele>1058</ele>
        <time>2019-05-31T09:50:29.537Z</time>
      </trkpt>
      <trkpt lat="45.45302" lon="3.83377">
        <ele>1058</ele>
        <time>2019-05-31T09:50:34.568Z</time>
      </trkpt>
      <trkpt lat="45.45306" lon="3.83374">
        <ele>1053</ele>
        <time>2019-05-31T09:50:39.548Z</time>
      </trkpt>
      <trkpt lat="45.45309" lon="3.83373">
        <ele>1053</ele>
        <time>2019-05-31T09:50:44.561Z</time>
      </trkpt>
      <trkpt lat="45.45309" lon="3.83373">
        <ele>1053</ele>
        <time>2019-05-31T09:50:49.540Z</time>
      </trkpt>
      <trkpt lat="45.45314" lon="3.83366">
        <ele>1053</ele>
        <time>2019-05-31T09:50:53.557Z</time>
      </trkpt>
      <trkpt lat="45.45324" lon="3.83366">
        <ele>1053</ele>
        <time>2019-05-31T09:50:58.552Z</time>
      </trkpt>
      <trkpt lat="45.45331" lon="3.83359">
        <ele>1053</ele>
        <time>2019-05-31T09:51:03.545Z</time>
      </trkpt>
      <trkpt lat="45.45337" lon="3.83355">
        <ele>1053</ele>
        <time>2019-05-31T09:51:08.555Z</time>
      </trkpt>
      <trkpt lat="45.45346" lon="3.83347">
        <ele>1049</ele>
        <time>2019-05-31T09:51:13.538Z</time>
      </trkpt>
      <trkpt lat="45.45347" lon="3.83346">
        <ele>1049</ele>
        <time>2019-05-31T09:51:17.550Z</time>
      </trkpt>
      <trkpt lat="45.45348" lon="3.83346">
        <ele>1049</ele>
        <time>2019-05-31T09:51:22.563Z</time>
      </trkpt>
      <trkpt lat="45.4535" lon="3.83347">
        <ele>1049</ele>
        <time>2019-05-31T09:51:27.557Z</time>
      </trkpt>
      <trkpt lat="45.45362" lon="3.83342">
        <ele>1049</ele>
        <time>2019-05-31T09:51:32.556Z</time>
      </trkpt>
      <trkpt lat="45.45368" lon="3.83339">
        <ele>1049</ele>
        <time>2019-05-31T09:51:36.571Z</time>
      </trkpt>
      <trkpt lat="45.45377" lon="3.8334">
        <ele>1048</ele>
        <time>2019-05-31T09:51:41.541Z</time>
      </trkpt>
      <trkpt lat="45.45387" lon="3.83339">
        <ele>1048</ele>
        <time>2019-05-31T09:51:45.549Z</time>
      </trkpt>
      <trkpt lat="45.45395" lon="3.83342">
        <ele>1048</ele>
        <time>2019-05-31T09:51:50.567Z</time>
      </trkpt>
      <trkpt lat="45.45404" lon="3.83344">
        <ele>1047</ele>
        <time>2019-05-31T09:51:55.540Z</time>
      </trkpt>
      <trkpt lat="45.45411" lon="3.8334">
        <ele>1047</ele>
        <time>2019-05-31T09:52:00.554Z</time>
      </trkpt>
      <trkpt lat="45.45417" lon="3.83332">
        <ele>1047</ele>
        <time>2019-05-31T09:52:05.538Z</time>
      </trkpt>
      <trkpt lat="45.45426" lon="3.83332">
        <ele>1047</ele>
        <time>2019-05-31T09:52:10.555Z</time>
      </trkpt>
      <trkpt lat="45.45435" lon="3.83337">
        <ele>1046</ele>
        <time>2019-05-31T09:52:15.539Z</time>
      </trkpt>
      <trkpt lat="45.45441" lon="3.83342">
        <ele>1046</ele>
        <time>2019-05-31T09:52:20.563Z</time>
      </trkpt>
      <trkpt lat="45.45447" lon="3.83343">
        <ele>1046</ele>
        <time>2019-05-31T09:52:25.557Z</time>
      </trkpt>
      <trkpt lat="45.45457" lon="3.83345">
        <ele>1046</ele>
        <time>2019-05-31T09:52:30.554Z</time>
      </trkpt>
      <trkpt lat="45.45465" lon="3.83344">
        <ele>1048</ele>
        <time>2019-05-31T09:52:35.536Z</time>
      </trkpt>
      <trkpt lat="45.45473" lon="3.8334">
        <ele>1048</ele>
        <time>2019-05-31T09:52:39.549Z</time>
      </trkpt>
      <trkpt lat="45.45483" lon="3.83332">
        <ele>1048</ele>
        <time>2019-05-31T09:52:44.547Z</time>
      </trkpt>
      <trkpt lat="45.45493" lon="3.83322">
        <ele>1053</ele>
        <time>2019-05-31T09:52:49.543Z</time>
      </trkpt>
      <trkpt lat="45.45499" lon="3.83312">
        <ele>1047</ele>
        <time>2019-05-31T09:52:54.559Z</time>
      </trkpt>
      <trkpt lat="45.45504" lon="3.83302">
        <ele>1047</ele>
        <time>2019-05-31T09:52:59.540Z</time>
      </trkpt>
      <trkpt lat="45.45506" lon="3.83294">
        <ele>1047</ele>
        <time>2019-05-31T09:53:03.564Z</time>
      </trkpt>
      <trkpt lat="45.45509" lon="3.83279">
        <ele>1040</ele>
        <time>2019-05-31T09:53:08.543Z</time>
      </trkpt>
      <trkpt lat="45.45511" lon="3.83271">
        <ele>1040</ele>
        <time>2019-05-31T09:53:12.560Z</time>
      </trkpt>
      <trkpt lat="45.45511" lon="3.83265">
        <ele>1040</ele>
        <time>2019-05-31T09:53:17.540Z</time>
      </trkpt>
      <trkpt lat="45.45511" lon="3.83256">
        <ele>1037</ele>
        <time>2019-05-31T09:53:22.549Z</time>
      </trkpt>
      <trkpt lat="45.45511" lon="3.83248">
        <ele>1037</ele>
        <time>2019-05-31T09:53:27.559Z</time>
      </trkpt>
      <trkpt lat="45.45511" lon="3.83243">
        <ele>1037</ele>
        <time>2019-05-31T09:53:32.551Z</time>
      </trkpt>
      <trkpt lat="45.45511" lon="3.83243">
        <ele>1037</ele>
        <time>2019-05-31T09:53:37.553Z</time>
      </trkpt>
      <trkpt lat="45.45516" lon="3.8324">
        <ele>1040</ele>
        <time>2019-05-31T09:53:42.536Z</time>
      </trkpt>
      <trkpt lat="45.45521" lon="3.83234">
        <ele>1039</ele>
        <time>2019-05-31T09:53:46.552Z</time>
      </trkpt>
      <trkpt lat="45.45525" lon="3.83229">
        <ele>1039</ele>
        <time>2019-05-31T09:53:50.568Z</time>
      </trkpt>
      <trkpt lat="45.4553" lon="3.83224">
        <ele>1039</ele>
        <time>2019-05-31T09:53:55.541Z</time>
      </trkpt>
      <trkpt lat="45.45537" lon="3.83218">
        <ele>1039</ele>
        <time>2019-05-31T09:54:00.556Z</time>
      </trkpt>
      <trkpt lat="45.45538" lon="3.83214">
        <ele>1039</ele>
        <time>2019-05-31T09:54:04.574Z</time>
      </trkpt>
      <trkpt lat="45.4554" lon="3.83208">
        <ele>1040</ele>
        <time>2019-05-31T09:54:09.545Z</time>
      </trkpt>
      <trkpt lat="45.45542" lon="3.83201">
        <ele>1042</ele>
        <time>2019-05-31T09:54:13.556Z</time>
      </trkpt>
      <trkpt lat="45.45545" lon="3.83193">
        <ele>1042</ele>
        <time>2019-05-31T09:54:18.555Z</time>
      </trkpt>
      <trkpt lat="45.45551" lon="3.83183">
        <ele>1042</ele>
        <time>2019-05-31T09:54:23.546Z</time>
      </trkpt>
      <trkpt lat="45.45556" lon="3.83174">
        <ele>1040</ele>
        <time>2019-05-31T09:54:28.556Z</time>
      </trkpt>
      <trkpt lat="45.45562" lon="3.83164">
        <ele>1040</ele>
        <time>2019-05-31T09:54:33.565Z</time>
      </trkpt>
      <trkpt lat="45.4557" lon="3.8316">
        <ele>1041</ele>
        <time>2019-05-31T09:54:38.530Z</time>
      </trkpt>
      <trkpt lat="45.45578" lon="3.83162">
        <ele>1041</ele>
        <time>2019-05-31T09:54:42.563Z</time>
      </trkpt>
      <trkpt lat="45.45586" lon="3.83168">
        <ele>1041</ele>
        <time>2019-05-31T09:54:47.563Z</time>
      </trkpt>
      <trkpt lat="45.4559" lon="3.83167">
        <ele>1041</ele>
        <time>2019-05-31T09:54:52.565Z</time>
      </trkpt>
      <trkpt lat="45.45597" lon="3.83161">
        <ele>1041</ele>
        <time>2019-05-31T09:54:57.545Z</time>
      </trkpt>
      <trkpt lat="45.45607" lon="3.83147">
        <ele>1037</ele>
        <time>2019-05-31T09:55:02.560Z</time>
      </trkpt>
      <trkpt lat="45.45614" lon="3.83143">
        <ele>1037</ele>
        <time>2019-05-31T09:55:07.558Z</time>
      </trkpt>
      <trkpt lat="45.45621" lon="3.8314">
        <ele>1037</ele>
        <time>2019-05-31T09:55:12.564Z</time>
      </trkpt>
      <trkpt lat="45.45632" lon="3.83137">
        <ele>1035</ele>
        <time>2019-05-31T09:55:17.559Z</time>
      </trkpt>
      <trkpt lat="45.45642" lon="3.83135">
        <ele>1035</ele>
        <time>2019-05-31T09:55:31.547Z</time>
      </trkpt>
      <trkpt lat="45.45644" lon="3.83133">
        <ele>1035</ele>
        <time>2019-05-31T09:55:36.564Z</time>
      </trkpt>
      <trkpt lat="45.45653" lon="3.83127">
        <ele>1034</ele>
        <time>2019-05-31T09:55:41.533Z</time>
      </trkpt>
      <trkpt lat="45.4566" lon="3.83126">
        <ele>1034</ele>
        <time>2019-05-31T09:55:45.554Z</time>
      </trkpt>
      <trkpt lat="45.45668" lon="3.83128">
        <ele>1034</ele>
        <time>2019-05-31T09:55:49.574Z</time>
      </trkpt>
      <trkpt lat="45.45675" lon="3.83132">
        <ele>1034</ele>
        <time>2019-05-31T09:55:54.547Z</time>
      </trkpt>
      <trkpt lat="45.4568" lon="3.8313">
        <ele>1034</ele>
        <time>2019-05-31T09:55:59.545Z</time>
      </trkpt>
      <trkpt lat="45.45688" lon="3.83125">
        <ele>1033</ele>
        <time>2019-05-31T09:56:04.560Z</time>
      </trkpt>
      <trkpt lat="45.45697" lon="3.83122">
        <ele>1028</ele>
        <time>2019-05-31T09:56:09.553Z</time>
      </trkpt>
      <trkpt lat="45.45703" lon="3.83119">
        <ele>1028</ele>
        <time>2019-05-31T09:56:14.559Z</time>
      </trkpt>
      <trkpt lat="45.45712" lon="3.83123">
        <ele>1026</ele>
        <time>2019-05-31T09:56:19.558Z</time>
      </trkpt>
      <trkpt lat="45.4572" lon="3.83121">
        <ele>1026</ele>
        <time>2019-05-31T09:56:24.536Z</time>
      </trkpt>
      <trkpt lat="45.45725" lon="3.83119">
        <ele>1026</ele>
        <time>2019-05-31T09:56:28.547Z</time>
      </trkpt>
      <trkpt lat="45.4573" lon="3.83118">
        <ele>1026</ele>
        <time>2019-05-31T09:56:32.564Z</time>
      </trkpt>
      <trkpt lat="45.45736" lon="3.83118">
        <ele>1026</ele>
        <time>2019-05-31T09:56:37.518Z</time>
      </trkpt>
      <trkpt lat="45.4574" lon="3.83116">
        <ele>1023</ele>
        <time>2019-05-31T09:56:41.556Z</time>
      </trkpt>
      <trkpt lat="45.45748" lon="3.83112">
        <ele>1023</ele>
        <time>2019-05-31T09:56:46.562Z</time>
      </trkpt>
      <trkpt lat="45.45754" lon="3.83108">
        <ele>1023</ele>
        <time>2019-05-31T09:56:51.549Z</time>
      </trkpt>
      <trkpt lat="45.4576" lon="3.83104">
        <ele>1023</ele>
        <time>2019-05-31T09:56:56.557Z</time>
      </trkpt>
      <trkpt lat="45.45765" lon="3.83104">
        <ele>1021</ele>
        <time>2019-05-31T09:57:01.573Z</time>
      </trkpt>
      <trkpt lat="45.4577" lon="3.83103">
        <ele>1021</ele>
        <time>2019-05-31T09:57:06.568Z</time>
      </trkpt>
      <trkpt lat="45.45776" lon="3.83101">
        <ele>1021</ele>
        <time>2019-05-31T09:57:11.607Z</time>
      </trkpt>
      <trkpt lat="45.45777" lon="3.83105">
        <ele>1021</ele>
        <time>2019-05-31T09:57:16.560Z</time>
      </trkpt>
      <trkpt lat="45.4578" lon="3.83102">
        <ele>1021</ele>
        <time>2019-05-31T09:57:21.557Z</time>
      </trkpt>
      <trkpt lat="45.45785" lon="3.83102">
        <ele>1021</ele>
        <time>2019-05-31T09:57:25.608Z</time>
      </trkpt>
      <trkpt lat="45.45791" lon="3.83102">
        <ele>1021</ele>
        <time>2019-05-31T09:57:30.559Z</time>
      </trkpt>
      <trkpt lat="45.45798" lon="3.83101">
        <ele>1022</ele>
        <time>2019-05-31T09:57:35.582Z</time>
      </trkpt>
      <trkpt lat="45.45803" lon="3.83098">
        <ele>1022</ele>
        <time>2019-05-31T09:57:40.556Z</time>
      </trkpt>
      <trkpt lat="45.45806" lon="3.83098">
        <ele>1022</ele>
        <time>2019-05-31T09:57:45.553Z</time>
      </trkpt>
      <trkpt lat="45.45806" lon="3.83105">
        <ele>1022</ele>
        <time>2019-05-31T09:57:50.558Z</time>
      </trkpt>
      <trkpt lat="45.45808" lon="3.83107">
        <ele>1022</ele>
        <time>2019-05-31T09:57:55.553Z</time>
      </trkpt>
      <trkpt lat="45.45811" lon="3.83105">
        <ele>1022</ele>
        <time>2019-05-31T09:57:59.600Z</time>
      </trkpt>
      <trkpt lat="45.45821" lon="3.83101">
        <ele>1024</ele>
        <time>2019-05-31T09:58:04.522Z</time>
      </trkpt>
      <trkpt lat="45.45836" lon="3.83096">
        <ele>1024</ele>
        <time>2019-05-31T09:58:11.526Z</time>
      </trkpt>
      <trkpt lat="45.45846" lon="3.83095">
        <ele>1024</ele>
        <time>2019-05-31T09:58:15.532Z</time>
      </trkpt>
      <trkpt lat="45.45857" lon="3.83096">
        <ele>1024</ele>
        <time>2019-05-31T09:58:20.556Z</time>
      </trkpt>
      <trkpt lat="45.4586" lon="3.83096">
        <ele>1024</ele>
        <time>2019-05-31T09:58:25.589Z</time>
      </trkpt>
      <trkpt lat="45.45859" lon="3.83099">
        <ele>1022</ele>
        <time>2019-05-31T09:58:49.560Z</time>
      </trkpt>
      <trkpt lat="45.4586" lon="3.831">
        <ele>1022</ele>
        <time>2019-05-31T09:58:54.549Z</time>
      </trkpt>
      <trkpt lat="45.45864" lon="3.83094">
        <ele>1024</ele>
        <time>2019-05-31T09:58:59.552Z</time>
      </trkpt>
      <trkpt lat="45.45866" lon="3.83085">
        <ele>1024</ele>
        <time>2019-05-31T09:59:03.583Z</time>
      </trkpt>
      <trkpt lat="45.45872" lon="3.83082">
        <ele>1024</ele>
        <time>2019-05-31T09:59:08.541Z</time>
      </trkpt>
      <trkpt lat="45.45877" lon="3.83081">
        <ele>1021</ele>
        <time>2019-05-31T09:59:13.525Z</time>
      </trkpt>
      <trkpt lat="45.45877" lon="3.8308">
        <ele>1021</ele>
        <time>2019-05-31T09:59:17.543Z</time>
      </trkpt>
      <trkpt lat="45.45882" lon="3.83081">
        <ele>1021</ele>
        <time>2019-05-31T09:59:21.546Z</time>
      </trkpt>
      <trkpt lat="45.45889" lon="3.83082">
        <ele>1021</ele>
        <time>2019-05-31T09:59:25.578Z</time>
      </trkpt>
      <trkpt lat="45.45894" lon="3.83079">
        <ele>1021</ele>
        <time>2019-05-31T09:59:30.552Z</time>
      </trkpt>
      <trkpt lat="45.45901" lon="3.83079">
        <ele>1021</ele>
        <time>2019-05-31T09:59:35.546Z</time>
      </trkpt>
      <trkpt lat="45.45904" lon="3.83078">
        <ele>1017</ele>
        <time>2019-05-31T09:59:39.544Z</time>
      </trkpt>
      <trkpt lat="45.45905" lon="3.83074">
        <ele>1017</ele>
        <time>2019-05-31T09:59:44.552Z</time>
      </trkpt>
      <trkpt lat="45.45909" lon="3.83067">
        <ele>1016</ele>
        <time>2019-05-31T09:59:49.547Z</time>
      </trkpt>
      <trkpt lat="45.45913" lon="3.83061">
        <ele>1016</ele>
        <time>2019-05-31T09:59:53.549Z</time>
      </trkpt>
      <trkpt lat="45.45918" lon="3.83055">
        <ele>1016</ele>
        <time>2019-05-31T09:59:57.561Z</time>
      </trkpt>
      <trkpt lat="45.45926" lon="3.83045">
        <ele>1016</ele>
        <time>2019-05-31T10:00:02.545Z</time>
      </trkpt>
      <trkpt lat="45.45934" lon="3.83041">
        <ele>1012</ele>
        <time>2019-05-31T10:00:07.550Z</time>
      </trkpt>
      <trkpt lat="45.45943" lon="3.83031">
        <ele>1012</ele>
        <time>2019-05-31T10:00:12.554Z</time>
      </trkpt>
      <trkpt lat="45.45948" lon="3.8302">
        <ele>1012</ele>
        <time>2019-05-31T10:00:17.550Z</time>
      </trkpt>
      <trkpt lat="45.45954" lon="3.8302">
        <ele>1012</ele>
        <time>2019-05-31T10:00:22.553Z</time>
      </trkpt>
      <trkpt lat="45.4596" lon="3.83023">
        <ele>1013</ele>
        <time>2019-05-31T10:00:26.582Z</time>
      </trkpt>
      <trkpt lat="45.45965" lon="3.83014">
        <ele>1013</ele>
        <time>2019-05-31T10:00:31.563Z</time>
      </trkpt>
      <trkpt lat="45.45971" lon="3.83008">
        <ele>1012</ele>
        <time>2019-05-31T10:00:36.548Z</time>
      </trkpt>
      <trkpt lat="45.45973" lon="3.83001">
        <ele>1012</ele>
        <time>2019-05-31T10:00:40.562Z</time>
      </trkpt>
      <trkpt lat="45.45983" lon="3.82988">
        <ele>1012</ele>
        <time>2019-05-31T10:00:55.538Z</time>
      </trkpt>
      <trkpt lat="45.45985" lon="3.82988">
        <ele>1012</ele>
        <time>2019-05-31T10:01:00.537Z</time>
      </trkpt>
      <trkpt lat="45.45985" lon="3.82988">
        <ele>1012</ele>
        <time>2019-05-31T10:01:05.526Z</time>
      </trkpt>
      <trkpt lat="45.45985" lon="3.82988">
        <ele>1012</ele>
        <time>2019-05-31T10:01:09.553Z</time>
      </trkpt>
      <trkpt lat="45.45988" lon="3.82982">
        <ele>1011</ele>
        <time>2019-05-31T10:01:14.541Z</time>
      </trkpt>
      <trkpt lat="45.45992" lon="3.82978">
        <ele>1011</ele>
        <time>2019-05-31T10:01:19.530Z</time>
      </trkpt>
      <trkpt lat="45.45995" lon="3.82972">
        <ele>1011</ele>
        <time>2019-05-31T10:01:23.547Z</time>
      </trkpt>
      <trkpt lat="45.46001" lon="3.82964">
        <ele>1011</ele>
        <time>2019-05-31T10:01:28.543Z</time>
      </trkpt>
      <trkpt lat="45.46008" lon="3.82967">
        <ele>1011</ele>
        <time>2019-05-31T10:01:32.552Z</time>
      </trkpt>
      <trkpt lat="45.46012" lon="3.82964">
        <ele>1011</ele>
        <time>2019-05-31T10:01:37.544Z</time>
      </trkpt>
      <trkpt lat="45.4602" lon="3.82956">
        <ele>1009</ele>
        <time>2019-05-31T10:01:41.579Z</time>
      </trkpt>
      <trkpt lat="45.46024" lon="3.82946">
        <ele>1009</ele>
        <time>2019-05-31T10:01:46.546Z</time>
      </trkpt>
      <trkpt lat="45.46028" lon="3.82938">
        <ele>1009</ele>
        <time>2019-05-31T10:01:51.570Z</time>
      </trkpt>
      <trkpt lat="45.46034" lon="3.82934">
        <ele>1009</ele>
        <time>2019-05-31T10:01:56.544Z</time>
      </trkpt>
      <trkpt lat="45.46039" lon="3.82928">
        <ele>1008</ele>
        <time>2019-05-31T10:02:01.541Z</time>
      </trkpt>
      <trkpt lat="45.46045" lon="3.82929">
        <ele>1010</ele>
        <time>2019-05-31T10:02:05.556Z</time>
      </trkpt>
      <trkpt lat="45.46047" lon="3.82932">
        <ele>1011</ele>
        <time>2019-05-31T10:02:10.550Z</time>
      </trkpt>
      <trkpt lat="45.4605" lon="3.82933">
        <ele>1011</ele>
        <time>2019-05-31T10:02:14.554Z</time>
      </trkpt>
      <trkpt lat="45.46055" lon="3.82931">
        <ele>1011</ele>
        <time>2019-05-31T10:02:19.556Z</time>
      </trkpt>
      <trkpt lat="45.4606" lon="3.82932">
        <ele>1011</ele>
        <time>2019-05-31T10:02:24.562Z</time>
      </trkpt>
      <trkpt lat="45.46065" lon="3.82932">
        <ele>1011</ele>
        <time>2019-05-31T10:02:29.551Z</time>
      </trkpt>
      <trkpt lat="45.46073" lon="3.82932">
        <ele>1013</ele>
        <time>2019-05-31T10:02:34.546Z</time>
      </trkpt>
      <trkpt lat="45.46077" lon="3.82932">
        <ele>1013</ele>
        <time>2019-05-31T10:02:39.549Z</time>
      </trkpt>
      <trkpt lat="45.46082" lon="3.82932">
        <ele>1013</ele>
        <time>2019-05-31T10:02:44.562Z</time>
      </trkpt>
      <trkpt lat="45.46085" lon="3.82931">
        <ele>1013</ele>
        <time>2019-05-31T10:02:49.549Z</time>
      </trkpt>
      <trkpt lat="45.46085" lon="3.82932">
        <ele>1013</ele>
        <time>2019-05-31T10:02:54.552Z</time>
      </trkpt>
      <trkpt lat="45.46089" lon="3.8294">
        <ele>1013</ele>
        <time>2019-05-31T10:02:59.551Z</time>
      </trkpt>
      <trkpt lat="45.46093" lon="3.82955">
        <ele>1013</ele>
        <time>2019-05-31T10:03:04.552Z</time>
      </trkpt>
      <trkpt lat="45.46095" lon="3.82964">
        <ele>1014</ele>
        <time>2019-05-31T10:03:09.557Z</time>
      </trkpt>
      <trkpt lat="45.46107" lon="3.82964">
        <ele>1007</ele>
        <time>2019-05-31T10:03:14.553Z</time>
      </trkpt>
      <trkpt lat="45.4611" lon="3.82973">
        <ele>1007</ele>
        <time>2019-05-31T10:03:19.548Z</time>
      </trkpt>
      <trkpt lat="45.4611" lon="3.82985">
        <ele>1007</ele>
        <time>2019-05-31T10:03:24.562Z</time>
      </trkpt>
      <trkpt lat="45.46109" lon="3.82996">
        <ele>1006</ele>
        <time>2019-05-31T10:03:29.553Z</time>
      </trkpt>
      <trkpt lat="45.46108" lon="3.83007">
        <ele>1006</ele>
        <time>2019-05-31T10:03:34.554Z</time>
      </trkpt>
      <trkpt lat="45.46108" lon="3.83018">
        <ele>1005</ele>
        <time>2019-05-31T10:03:39.557Z</time>
      </trkpt>
      <trkpt lat="45.46106" lon="3.83027">
        <ele>1005</ele>
        <time>2019-05-31T10:03:44.556Z</time>
      </trkpt>
      <trkpt lat="45.46105" lon="3.83029">
        <ele>1005</ele>
        <time>2019-05-31T10:03:49.550Z</time>
      </trkpt>
      <trkpt lat="45.46105" lon="3.83036">
        <ele>1005</ele>
        <time>2019-05-31T10:03:54.562Z</time>
      </trkpt>
      <trkpt lat="45.46103" lon="3.83047">
        <ele>1004</ele>
        <time>2019-05-31T10:03:59.555Z</time>
      </trkpt>
      <trkpt lat="45.46099" lon="3.83061">
        <ele>1004</ele>
        <time>2019-05-31T10:04:04.562Z</time>
      </trkpt>
      <trkpt lat="45.46095" lon="3.8307">
        <ele>1009</ele>
        <time>2019-05-31T10:04:09.550Z</time>
      </trkpt>
      <trkpt lat="45.46092" lon="3.83078">
        <ele>1009</ele>
        <time>2019-05-31T10:04:14.556Z</time>
      </trkpt>
      <trkpt lat="45.46088" lon="3.83081">
        <ele>1009</ele>
        <time>2019-05-31T10:04:19.556Z</time>
      </trkpt>
      <trkpt lat="45.46084" lon="3.83085">
        <ele>1009</ele>
        <time>2019-05-31T10:04:23.565Z</time>
      </trkpt>
      <trkpt lat="45.46081" lon="3.83088">
        <ele>1009</ele>
        <time>2019-05-31T10:04:28.546Z</time>
      </trkpt>
      <trkpt lat="45.46076" lon="3.83095">
        <ele>1009</ele>
        <time>2019-05-31T10:04:33.557Z</time>
      </trkpt>
      <trkpt lat="45.4607" lon="3.83105">
        <ele>1008</ele>
        <time>2019-05-31T10:04:38.548Z</time>
      </trkpt>
      <trkpt lat="45.46068" lon="3.83113">
        <ele>1012</ele>
        <time>2019-05-31T10:04:42.566Z</time>
      </trkpt>
      <trkpt lat="45.46065" lon="3.83122">
        <ele>1012</ele>
        <time>2019-05-31T10:04:47.564Z</time>
      </trkpt>
      <trkpt lat="45.4606" lon="3.83135">
        <ele>1012</ele>
        <time>2019-05-31T10:04:52.542Z</time>
      </trkpt>
      <trkpt lat="45.46058" lon="3.83143">
        <ele>1012</ele>
        <time>2019-05-31T10:04:56.560Z</time>
      </trkpt>
      <trkpt lat="45.46056" lon="3.83151">
        <ele>1012</ele>
        <time>2019-05-31T10:05:01.563Z</time>
      </trkpt>
      <trkpt lat="45.46055" lon="3.83159">
        <ele>1014</ele>
        <time>2019-05-31T10:05:06.546Z</time>
      </trkpt>
      <trkpt lat="45.46055" lon="3.83166">
        <ele>1014</ele>
        <time>2019-05-31T10:05:11.555Z</time>
      </trkpt>
      <trkpt lat="45.46058" lon="3.83173">
        <ele>1014</ele>
        <time>2019-05-31T10:05:15.565Z</time>
      </trkpt>
      <trkpt lat="45.46059" lon="3.83185">
        <ele>1016</ele>
        <time>2019-05-31T10:05:20.561Z</time>
      </trkpt>
      <trkpt lat="45.46057" lon="3.83195">
        <ele>1016</ele>
        <time>2019-05-31T10:05:25.552Z</time>
      </trkpt>
      <trkpt lat="45.46058" lon="3.83203">
        <ele>1016</ele>
        <time>2019-05-31T10:05:30.551Z</time>
      </trkpt>
      <trkpt lat="45.46059" lon="3.8321">
        <ele>1018</ele>
        <time>2019-05-31T10:05:35.561Z</time>
      </trkpt>
      <trkpt lat="45.46059" lon="3.83222">
        <ele>1018</ele>
        <time>2019-05-31T10:05:40.538Z</time>
      </trkpt>
      <trkpt lat="45.46059" lon="3.83231">
        <ele>1018</ele>
        <time>2019-05-31T10:05:44.555Z</time>
      </trkpt>
      <trkpt lat="45.4606" lon="3.8324">
        <ele>1019</ele>
        <time>2019-05-31T10:05:49.562Z</time>
      </trkpt>
      <trkpt lat="45.46059" lon="3.83251">
        <ele>1019</ele>
        <time>2019-05-31T10:05:54.550Z</time>
      </trkpt>
      <trkpt lat="45.46058" lon="3.83263">
        <ele>1019</ele>
        <time>2019-05-31T10:05:59.534Z</time>
      </trkpt>
      <trkpt lat="45.46055" lon="3.83272">
        <ele>1021</ele>
        <time>2019-05-31T10:06:03.553Z</time>
      </trkpt>
      <trkpt lat="45.46053" lon="3.83284">
        <ele>1021</ele>
        <time>2019-05-31T10:06:08.547Z</time>
      </trkpt>
      <trkpt lat="45.46053" lon="3.83291">
        <ele>1021</ele>
        <time>2019-05-31T10:06:12.566Z</time>
      </trkpt>
      <trkpt lat="45.46053" lon="3.83302">
        <ele>1021</ele>
        <time>2019-05-31T10:06:17.541Z</time>
      </trkpt>
      <trkpt lat="45.46054" lon="3.83312">
        <ele>1021</ele>
        <time>2019-05-31T10:06:22.558Z</time>
      </trkpt>
      <trkpt lat="45.46055" lon="3.83323">
        <ele>1020</ele>
        <time>2019-05-31T10:06:27.553Z</time>
      </trkpt>
      <trkpt lat="45.46057" lon="3.83333">
        <ele>1020</ele>
        <time>2019-05-31T10:06:32.552Z</time>
      </trkpt>
      <trkpt lat="45.46064" lon="3.83337">
        <ele>1020</ele>
        <time>2019-05-31T10:06:37.551Z</time>
      </trkpt>
      <trkpt lat="45.46067" lon="3.83351">
        <ele>1021</ele>
        <time>2019-05-31T10:06:42.556Z</time>
      </trkpt>
      <trkpt lat="45.46065" lon="3.83365">
        <ele>1021</ele>
        <time>2019-05-31T10:06:47.553Z</time>
      </trkpt>
      <trkpt lat="45.46071" lon="3.83371">
        <ele>1020</ele>
        <time>2019-05-31T10:06:52.549Z</time>
      </trkpt>
      <trkpt lat="45.46086" lon="3.83376">
        <ele>1019</ele>
        <time>2019-05-31T10:06:57.555Z</time>
      </trkpt>
      <trkpt lat="45.46091" lon="3.83386">
        <ele>1019</ele>
        <time>2019-05-31T10:07:02.566Z</time>
      </trkpt>
      <trkpt lat="45.46092" lon="3.83398">
        <ele>1019</ele>
        <time>2019-05-31T10:07:07.554Z</time>
      </trkpt>
      <trkpt lat="45.46092" lon="3.83408">
        <ele>1019</ele>
        <time>2019-05-31T10:07:12.553Z</time>
      </trkpt>
      <trkpt lat="45.46089" lon="3.83416">
        <ele>1019</ele>
        <time>2019-05-31T10:07:16.544Z</time>
      </trkpt>
      <trkpt lat="45.46085" lon="3.83425">
        <ele>1019</ele>
        <time>2019-05-31T10:07:21.558Z</time>
      </trkpt>
      <trkpt lat="45.46082" lon="3.83436">
        <ele>1018</ele>
        <time>2019-05-31T10:07:26.548Z</time>
      </trkpt>
      <trkpt lat="45.46075" lon="3.83447">
        <ele>1018</ele>
        <time>2019-05-31T10:07:31.564Z</time>
      </trkpt>
      <trkpt lat="45.46068" lon="3.83458">
        <ele>1022</ele>
        <time>2019-05-31T10:07:36.553Z</time>
      </trkpt>
      <trkpt lat="45.46064" lon="3.83461">
        <ele>1021</ele>
        <time>2019-05-31T10:07:41.552Z</time>
      </trkpt>
      <trkpt lat="45.46069" lon="3.83469">
        <ele>1021</ele>
        <time>2019-05-31T10:07:46.558Z</time>
      </trkpt>
      <trkpt lat="45.46075" lon="3.83477">
        <ele>1017</ele>
        <time>2019-05-31T10:07:51.560Z</time>
      </trkpt>
      <trkpt lat="45.46074" lon="3.83487">
        <ele>1018</ele>
        <time>2019-05-31T10:07:56.543Z</time>
      </trkpt>
      <trkpt lat="45.46072" lon="3.83503">
        <ele>1018</ele>
        <time>2019-05-31T10:08:01.545Z</time>
      </trkpt>
      <trkpt lat="45.46067" lon="3.83515">
        <ele>1024</ele>
        <time>2019-05-31T10:08:06.530Z</time>
      </trkpt>
      <trkpt lat="45.46064" lon="3.83523">
        <ele>1024</ele>
        <time>2019-05-31T10:08:11.547Z</time>
      </trkpt>
      <trkpt lat="45.46064" lon="3.83533">
        <ele>1024</ele>
        <time>2019-05-31T10:08:16.552Z</time>
      </trkpt>
      <trkpt lat="45.46067" lon="3.83542">
        <ele>1025</ele>
        <time>2019-05-31T10:08:21.536Z</time>
      </trkpt>
      <trkpt lat="45.46064" lon="3.83546">
        <ele>1025</ele>
        <time>2019-05-31T10:08:25.548Z</time>
      </trkpt>
      <trkpt lat="45.46063" lon="3.83555">
        <ele>1025</ele>
        <time>2019-05-31T10:08:30.550Z</time>
      </trkpt>
      <trkpt lat="45.46063" lon="3.83569">
        <ele>1025</ele>
        <time>2019-05-31T10:08:35.548Z</time>
      </trkpt>
      <trkpt lat="45.4606" lon="3.83575">
        <ele>1026</ele>
        <time>2019-05-31T10:08:40.544Z</time>
      </trkpt>
      <trkpt lat="45.46056" lon="3.83581">
        <ele>1026</ele>
        <time>2019-05-31T10:08:45.544Z</time>
      </trkpt>
      <trkpt lat="45.46055" lon="3.83589">
        <ele>1026</ele>
        <time>2019-05-31T10:08:49.557Z</time>
      </trkpt>
      <trkpt lat="45.46053" lon="3.83602">
        <ele>1027</ele>
        <time>2019-05-31T10:08:54.543Z</time>
      </trkpt>
      <trkpt lat="45.46041" lon="3.8361">
        <ele>1032</ele>
        <time>2019-05-31T10:08:59.535Z</time>
      </trkpt>
      <trkpt lat="45.46033" lon="3.83616">
        <ele>1032</ele>
        <time>2019-05-31T10:09:03.549Z</time>
      </trkpt>
      <trkpt lat="45.46022" lon="3.83623">
        <ele>1032</ele>
        <time>2019-05-31T10:09:08.540Z</time>
      </trkpt>
      <trkpt lat="45.46017" lon="3.83632">
        <ele>1033</ele>
        <time>2019-05-31T10:09:13.558Z</time>
      </trkpt>
      <trkpt lat="45.46013" lon="3.83639">
        <ele>1037</ele>
        <time>2019-05-31T10:09:17.577Z</time>
      </trkpt>
      <trkpt lat="45.46007" lon="3.83647">
        <ele>1037</ele>
        <time>2019-05-31T10:09:22.565Z</time>
      </trkpt>
      <trkpt lat="45.46007" lon="3.83655">
        <ele>1036</ele>
        <time>2019-05-31T10:09:27.550Z</time>
      </trkpt>
      <trkpt lat="45.46009" lon="3.83666">
        <ele>1036</ele>
        <time>2019-05-31T10:09:32.560Z</time>
      </trkpt>
      <trkpt lat="45.46009" lon="3.83676">
        <ele>1036</ele>
        <time>2019-05-31T10:09:37.551Z</time>
      </trkpt>
      <trkpt lat="45.46001" lon="3.83679">
        <ele>1036</ele>
        <time>2019-05-31T10:09:41.564Z</time>
      </trkpt>
      <trkpt lat="45.45998" lon="3.83691">
        <ele>1035</ele>
        <time>2019-05-31T10:09:46.544Z</time>
      </trkpt>
      <trkpt lat="45.45997" lon="3.837">
        <ele>1035</ele>
        <time>2019-05-31T10:09:50.549Z</time>
      </trkpt>
      <trkpt lat="45.45996" lon="3.83713">
        <ele>1034</ele>
        <time>2019-05-31T10:09:55.554Z</time>
      </trkpt>
      <trkpt lat="45.4599" lon="3.83724">
        <ele>1034</ele>
        <time>2019-05-31T10:10:00.553Z</time>
      </trkpt>
      <trkpt lat="45.45992" lon="3.83736">
        <ele>1033</ele>
        <time>2019-05-31T10:10:05.556Z</time>
      </trkpt>
      <trkpt lat="45.45985" lon="3.83745">
        <ele>1038</ele>
        <time>2019-05-31T10:10:10.558Z</time>
      </trkpt>
      <trkpt lat="45.45982" lon="3.83755">
        <ele>1038</ele>
        <time>2019-05-31T10:10:15.557Z</time>
      </trkpt>
      <trkpt lat="45.4598" lon="3.83764">
        <ele>1038</ele>
        <time>2019-05-31T10:10:20.548Z</time>
      </trkpt>
      <trkpt lat="45.45976" lon="3.83777">
        <ele>1038</ele>
        <time>2019-05-31T10:10:25.557Z</time>
      </trkpt>
      <trkpt lat="45.45969" lon="3.83779">
        <ele>1038</ele>
        <time>2019-05-31T10:10:30.555Z</time>
      </trkpt>
      <trkpt lat="45.45964" lon="3.83765">
        <ele>1038</ele>
        <time>2019-05-31T10:10:35.552Z</time>
      </trkpt>
      <trkpt lat="45.45962" lon="3.83759">
        <ele>1038</ele>
        <time>2019-05-31T10:10:40.548Z</time>
      </trkpt>
      <trkpt lat="45.45963" lon="3.83755">
        <ele>1038</ele>
        <time>2019-05-31T10:10:45.557Z</time>
      </trkpt>
      <trkpt lat="45.45965" lon="3.83743">
        <ele>1038</ele>
        <time>2019-05-31T10:10:50.557Z</time>
      </trkpt>
      <trkpt lat="45.45963" lon="3.83731">
        <ele>1038</ele>
        <time>2019-05-31T10:10:55.564Z</time>
      </trkpt>
      <trkpt lat="45.45963" lon="3.83723">
        <ele>1038</ele>
        <time>2019-05-31T10:11:00.534Z</time>
      </trkpt>
      <trkpt lat="45.45962" lon="3.83717">
        <ele>1038</ele>
        <time>2019-05-31T10:11:04.565Z</time>
      </trkpt>
      <trkpt lat="45.45962" lon="3.83707">
        <ele>1038</ele>
        <time>2019-05-31T10:11:09.555Z</time>
      </trkpt>
      <trkpt lat="45.45959" lon="3.83698">
        <ele>1038</ele>
        <time>2019-05-31T10:11:14.556Z</time>
      </trkpt>
      <trkpt lat="45.45958" lon="3.83688">
        <ele>1043</ele>
        <time>2019-05-31T10:11:19.562Z</time>
      </trkpt>
      <trkpt lat="45.45958" lon="3.83677">
        <ele>1044</ele>
        <time>2019-05-31T10:11:24.541Z</time>
      </trkpt>
      <trkpt lat="45.45961" lon="3.8367">
        <ele>1040</ele>
        <time>2019-05-31T10:11:28.559Z</time>
      </trkpt>
      <trkpt lat="45.45959" lon="3.83657">
        <ele>1040</ele>
        <time>2019-05-31T10:11:33.562Z</time>
      </trkpt>
      <trkpt lat="45.45956" lon="3.83649">
        <ele>1045</ele>
        <time>2019-05-31T10:11:38.563Z</time>
      </trkpt>
      <trkpt lat="45.45954" lon="3.83642">
        <ele>1045</ele>
        <time>2019-05-31T10:11:43.545Z</time>
      </trkpt>
      <trkpt lat="45.45955" lon="3.83632">
        <ele>1045</ele>
        <time>2019-05-31T10:11:48.548Z</time>
      </trkpt>
      <trkpt lat="45.45955" lon="3.83624">
        <ele>1045</ele>
        <time>2019-05-31T10:11:52.561Z</time>
      </trkpt>
      <trkpt lat="45.45953" lon="3.83617">
        <ele>1045</ele>
        <time>2019-05-31T10:11:57.552Z</time>
      </trkpt>
      <trkpt lat="45.45951" lon="3.83611">
        <ele>1045</ele>
        <time>2019-05-31T10:12:02.545Z</time>
      </trkpt>
      <trkpt lat="45.45949" lon="3.83599">
        <ele>1045</ele>
        <time>2019-05-31T10:12:07.552Z</time>
      </trkpt>
      <trkpt lat="45.45949" lon="3.83586">
        <ele>1046</ele>
        <time>2019-05-31T10:12:12.554Z</time>
      </trkpt>
      <trkpt lat="45.45948" lon="3.83569">
        <ele>1047</ele>
        <time>2019-05-31T10:12:17.548Z</time>
      </trkpt>
      <trkpt lat="45.45947" lon="3.83551">
        <ele>1047</ele>
        <time>2019-05-31T10:12:22.548Z</time>
      </trkpt>
      <trkpt lat="45.45946" lon="3.83541">
        <ele>1046</ele>
        <time>2019-05-31T10:12:27.555Z</time>
      </trkpt>
      <trkpt lat="45.45946" lon="3.83541">
        <ele>1046</ele>
        <time>2019-05-31T10:12:32.559Z</time>
      </trkpt>
      <trkpt lat="45.45945" lon="3.8354">
        <ele>1046</ele>
        <time>2019-05-31T10:12:37.559Z</time>
      </trkpt>
      <trkpt lat="45.45945" lon="3.83533">
        <ele>1046</ele>
        <time>2019-05-31T10:12:42.552Z</time>
      </trkpt>
      <trkpt lat="45.45946" lon="3.83522">
        <ele>1046</ele>
        <time>2019-05-31T10:12:47.556Z</time>
      </trkpt>
      <trkpt lat="45.45945" lon="3.83514">
        <ele>1046</ele>
        <time>2019-05-31T10:12:51.561Z</time>
      </trkpt>
      <trkpt lat="45.45943" lon="3.83504">
        <ele>1046</ele>
        <time>2019-05-31T10:12:56.554Z</time>
      </trkpt>
      <trkpt lat="45.45941" lon="3.83492">
        <ele>1046</ele>
        <time>2019-05-31T10:13:01.564Z</time>
      </trkpt>
      <trkpt lat="45.45939" lon="3.83482">
        <ele>1045</ele>
        <time>2019-05-31T10:13:06.569Z</time>
      </trkpt>
      <trkpt lat="45.45942" lon="3.83477">
        <ele>1045</ele>
        <time>2019-05-31T10:13:11.562Z</time>
      </trkpt>
      <trkpt lat="45.45941" lon="3.83466">
        <ele>1045</ele>
        <time>2019-05-31T10:13:16.548Z</time>
      </trkpt>
      <trkpt lat="45.45942" lon="3.83457">
        <ele>1046</ele>
        <time>2019-05-31T10:13:21.553Z</time>
      </trkpt>
      <trkpt lat="45.45944" lon="3.8345">
        <ele>1046</ele>
        <time>2019-05-31T10:13:26.543Z</time>
      </trkpt>
      <trkpt lat="45.45945" lon="3.83445">
        <ele>1046</ele>
        <time>2019-05-31T10:13:30.569Z</time>
      </trkpt>
      <trkpt lat="45.4594" lon="3.83438">
        <ele>1046</ele>
        <time>2019-05-31T10:13:35.556Z</time>
      </trkpt>
      <trkpt lat="45.45936" lon="3.8343">
        <ele>1045</ele>
        <time>2019-05-31T10:13:40.544Z</time>
      </trkpt>
      <trkpt lat="45.45932" lon="3.83421">
        <ele>1045</ele>
        <time>2019-05-31T10:13:45.556Z</time>
      </trkpt>
      <trkpt lat="45.45924" lon="3.83415">
        <ele>1052</ele>
        <time>2019-05-31T10:13:50.550Z</time>
      </trkpt>
      <trkpt lat="45.45921" lon="3.83414">
        <ele>1052</ele>
        <time>2019-05-31T10:13:55.560Z</time>
      </trkpt>
      <trkpt lat="45.45918" lon="3.83416">
        <ele>1052</ele>
        <time>2019-05-31T10:14:00.556Z</time>
      </trkpt>
      <trkpt lat="45.459" lon="3.83413">
        <ele>1057</ele>
        <time>2019-05-31T10:14:05.556Z</time>
      </trkpt>
      <trkpt lat="45.45868" lon="3.83425">
        <ele>1058</ele>
        <time>2019-05-31T10:14:10.559Z</time>
      </trkpt>
      <trkpt lat="45.45852" lon="3.83456">
        <ele>1059</ele>
        <time>2019-05-31T10:14:15.553Z</time>
      </trkpt>
      <trkpt lat="45.45841" lon="3.83489">
        <ele>1067</ele>
        <time>2019-05-31T10:14:20.559Z</time>
      </trkpt>
      <trkpt lat="45.45828" lon="3.83523">
        <ele>1070</ele>
        <time>2019-05-31T10:14:25.547Z</time>
      </trkpt>
      <trkpt lat="45.4582" lon="3.8354">
        <ele>1070</ele>
        <time>2019-05-31T10:14:30.552Z</time>
      </trkpt>
      <trkpt lat="45.45817" lon="3.83552">
        <ele>1076</ele>
        <time>2019-05-31T10:14:35.562Z</time>
      </trkpt>
      <trkpt lat="45.45815" lon="3.83565">
        <ele>1076</ele>
        <time>2019-05-31T10:14:40.550Z</time>
      </trkpt>
      <trkpt lat="45.45804" lon="3.83573">
        <ele>1078</ele>
        <time>2019-05-31T10:14:45.555Z</time>
      </trkpt>
      <trkpt lat="45.45796" lon="3.83579">
        <ele>1078</ele>
        <time>2019-05-31T10:14:50.556Z</time>
      </trkpt>
      <trkpt lat="45.4579" lon="3.83584">
        <ele>1079</ele>
        <time>2019-05-31T10:14:55.553Z</time>
      </trkpt>
      <trkpt lat="45.45792" lon="3.83594">
        <ele>1078</ele>
        <time>2019-05-31T10:15:00.543Z</time>
      </trkpt>
      <trkpt lat="45.45789" lon="3.83603">
        <ele>1081</ele>
        <time>2019-05-31T10:15:05.547Z</time>
      </trkpt>
      <trkpt lat="45.45782" lon="3.83612">
        <ele>1081</ele>
        <time>2019-05-31T10:15:09.566Z</time>
      </trkpt>
      <trkpt lat="45.45777" lon="3.83621">
        <ele>1081</ele>
        <time>2019-05-31T10:15:14.564Z</time>
      </trkpt>
      <trkpt lat="45.45769" lon="3.83624">
        <ele>1081</ele>
        <time>2019-05-31T10:15:19.564Z</time>
      </trkpt>
      <trkpt lat="45.45765" lon="3.8363">
        <ele>1085</ele>
        <time>2019-05-31T10:15:24.554Z</time>
      </trkpt>
      <trkpt lat="45.45758" lon="3.8363">
        <ele>1090</ele>
        <time>2019-05-31T10:15:29.552Z</time>
      </trkpt>
      <trkpt lat="45.45756" lon="3.83636">
        <ele>1090</ele>
        <time>2019-05-31T10:15:34.554Z</time>
      </trkpt>
      <trkpt lat="45.45752" lon="3.83637">
        <ele>1090</ele>
        <time>2019-05-31T10:15:39.556Z</time>
      </trkpt>
      <trkpt lat="45.45743" lon="3.83642">
        <ele>1090</ele>
        <time>2019-05-31T10:15:44.547Z</time>
      </trkpt>
      <trkpt lat="45.45738" lon="3.83649">
        <ele>1090</ele>
        <time>2019-05-31T10:15:48.561Z</time>
      </trkpt>
      <trkpt lat="45.45729" lon="3.83648">
        <ele>1095</ele>
        <time>2019-05-31T10:15:53.548Z</time>
      </trkpt>
      <trkpt lat="45.45722" lon="3.8365">
        <ele>1095</ele>
        <time>2019-05-31T10:15:57.570Z</time>
      </trkpt>
      <trkpt lat="45.45718" lon="3.83655">
        <ele>1095</ele>
        <time>2019-05-31T10:16:02.558Z</time>
      </trkpt>
      <trkpt lat="45.45716" lon="3.83659">
        <ele>1095</ele>
        <time>2019-05-31T10:16:07.558Z</time>
      </trkpt>
      <trkpt lat="45.45711" lon="3.83662">
        <ele>1095</ele>
        <time>2019-05-31T10:16:12.560Z</time>
      </trkpt>
      <trkpt lat="45.45704" lon="3.83667">
        <ele>1097</ele>
        <time>2019-05-31T10:16:17.563Z</time>
      </trkpt>
      <trkpt lat="45.45682" lon="3.83682">
        <ele>1100</ele>
        <time>2019-05-31T10:16:22.545Z</time>
      </trkpt>
      <trkpt lat="45.45647" lon="3.83706">
        <ele>1106</ele>
        <time>2019-05-31T10:16:27.551Z</time>
      </trkpt>
      <trkpt lat="45.4562" lon="3.83727">
        <ele>1112</ele>
        <time>2019-05-31T10:16:32.559Z</time>
      </trkpt>
      <trkpt lat="45.45605" lon="3.83754">
        <ele>1115</ele>
        <time>2019-05-31T10:16:37.560Z</time>
      </trkpt>
      <trkpt lat="45.45592" lon="3.83777">
        <ele>1117</ele>
        <time>2019-05-31T10:16:42.563Z</time>
      </trkpt>
      <trkpt lat="45.45581" lon="3.83784">
        <ele>1117</ele>
        <time>2019-05-31T10:16:47.557Z</time>
      </trkpt>
      <trkpt lat="45.45574" lon="3.83788">
        <ele>1117</ele>
        <time>2019-05-31T10:16:52.564Z</time>
      </trkpt>
      <trkpt lat="45.45575" lon="3.83796">
        <ele>1118</ele>
        <time>2019-05-31T10:16:57.557Z</time>
      </trkpt>
      <trkpt lat="45.45569" lon="3.83803">
        <ele>1121</ele>
        <time>2019-05-31T10:17:02.548Z</time>
      </trkpt>
      <trkpt lat="45.4556" lon="3.83811">
        <ele>1121</ele>
        <time>2019-05-31T10:17:07.553Z</time>
      </trkpt>
      <trkpt lat="45.45556" lon="3.83822">
        <ele>1122</ele>
        <time>2019-05-31T10:17:12.554Z</time>
      </trkpt>
      <trkpt lat="45.45544" lon="3.83832">
        <ele>1122</ele>
        <time>2019-05-31T10:17:17.538Z</time>
      </trkpt>
      <trkpt lat="45.45537" lon="3.83839">
        <ele>1125</ele>
        <time>2019-05-31T10:17:22.553Z</time>
      </trkpt>
      <trkpt lat="45.45532" lon="3.83847">
        <ele>1126</ele>
        <time>2019-05-31T10:17:27.543Z</time>
      </trkpt>
      <trkpt lat="45.45527" lon="3.83855">
        <ele>1126</ele>
        <time>2019-05-31T10:17:32.550Z</time>
      </trkpt>
      <trkpt lat="45.45526" lon="3.83858">
        <ele>1126</ele>
        <time>2019-05-31T10:17:36.546Z</time>
      </trkpt>
      <trkpt lat="45.45528" lon="3.83865">
        <ele>1126</ele>
        <time>2019-05-31T10:17:40.564Z</time>
      </trkpt>
      <trkpt lat="45.45529" lon="3.83873">
        <ele>1126</ele>
        <time>2019-05-31T10:17:45.558Z</time>
      </trkpt>
      <trkpt lat="45.45528" lon="3.83879">
        <ele>1128</ele>
        <time>2019-05-31T10:17:50.542Z</time>
      </trkpt>
      <trkpt lat="45.4552" lon="3.8389">
        <ele>1128</ele>
        <time>2019-05-31T10:17:54.570Z</time>
      </trkpt>
      <trkpt lat="45.45513" lon="3.83906">
        <ele>1129</ele>
        <time>2019-05-31T10:17:59.534Z</time>
      </trkpt>
      <trkpt lat="45.4551" lon="3.83913">
        <ele>1129</ele>
        <time>2019-05-31T10:18:03.558Z</time>
      </trkpt>
      <trkpt lat="45.45499" lon="3.83916">
        <ele>1129</ele>
        <time>2019-05-31T10:18:08.563Z</time>
      </trkpt>
      <trkpt lat="45.45493" lon="3.83919">
        <ele>1129</ele>
        <time>2019-05-31T10:18:13.579Z</time>
      </trkpt>
      <trkpt lat="45.45492" lon="3.83923">
        <ele>1129</ele>
        <time>2019-05-31T10:18:18.545Z</time>
      </trkpt>
      <trkpt lat="45.45492" lon="3.83924">
        <ele>1129</ele>
        <time>2019-05-31T10:18:23.561Z</time>
      </trkpt>
      <trkpt lat="45.45485" lon="3.83927">
        <ele>1129</ele>
        <time>2019-05-31T10:18:28.548Z</time>
      </trkpt>
      <trkpt lat="45.45481" lon="3.83926">
        <ele>1129</ele>
        <time>2019-05-31T10:18:32.563Z</time>
      </trkpt>
      <trkpt lat="45.45481" lon="3.83931">
        <ele>1128</ele>
        <time>2019-05-31T10:18:37.562Z</time>
      </trkpt>
      <trkpt lat="45.45477" lon="3.83932">
        <ele>1128</ele>
        <time>2019-05-31T10:18:42.552Z</time>
      </trkpt>
      <trkpt lat="45.45471" lon="3.8393">
        <ele>1129</ele>
        <time>2019-05-31T10:18:47.541Z</time>
      </trkpt>
      <trkpt lat="45.45469" lon="3.83932">
        <ele>1128</ele>
        <time>2019-05-31T10:18:52.551Z</time>
      </trkpt>
      <trkpt lat="45.45462" lon="3.83937">
        <ele>1128</ele>
        <time>2019-05-31T10:18:56.570Z</time>
      </trkpt>
      <trkpt lat="45.45458" lon="3.83943">
        <ele>1129</ele>
        <time>2019-05-31T10:19:01.567Z</time>
      </trkpt>
      <trkpt lat="45.45447" lon="3.83947">
        <ele>1129</ele>
        <time>2019-05-31T10:19:06.542Z</time>
      </trkpt>
      <trkpt lat="45.45441" lon="3.83954">
        <ele>1129</ele>
        <time>2019-05-31T10:19:11.548Z</time>
      </trkpt>
      <trkpt lat="45.4544" lon="3.83957">
        <ele>1129</ele>
        <time>2019-05-31T10:19:16.539Z</time>
      </trkpt>
      <trkpt lat="45.45437" lon="3.83961">
        <ele>1128</ele>
        <time>2019-05-31T10:19:21.563Z</time>
      </trkpt>
      <trkpt lat="45.45437" lon="3.83966">
        <ele>1128</ele>
        <time>2019-05-31T10:19:26.571Z</time>
      </trkpt>
      <trkpt lat="45.45431" lon="3.83971">
        <ele>1128</ele>
        <time>2019-05-31T10:19:31.554Z</time>
      </trkpt>
      <trkpt lat="45.45425" lon="3.83981">
        <ele>1130</ele>
        <time>2019-05-31T10:19:36.563Z</time>
      </trkpt>
      <trkpt lat="45.45416" lon="3.83986">
        <ele>1130</ele>
        <time>2019-05-31T10:19:41.553Z</time>
      </trkpt>
      <trkpt lat="45.45405" lon="3.83995">
        <ele>1130</ele>
        <time>2019-05-31T10:19:46.547Z</time>
      </trkpt>
      <trkpt lat="45.45401" lon="3.83999">
        <ele>1131</ele>
        <time>2019-05-31T10:19:51.563Z</time>
      </trkpt>
      <trkpt lat="45.45388" lon="3.84008">
        <ele>1131</ele>
        <time>2019-05-31T10:19:56.546Z</time>
      </trkpt>
      <trkpt lat="45.45382" lon="3.84019">
        <ele>1131</ele>
        <time>2019-05-31T10:20:01.562Z</time>
      </trkpt>
      <trkpt lat="45.45376" lon="3.84025">
        <ele>1131</ele>
        <time>2019-05-31T10:20:06.526Z</time>
      </trkpt>
      <trkpt lat="45.45369" lon="3.84026">
        <ele>1131</ele>
        <time>2019-05-31T10:20:10.562Z</time>
      </trkpt>
      <trkpt lat="45.45363" lon="3.84029">
        <ele>1131</ele>
        <time>2019-05-31T10:20:15.549Z</time>
      </trkpt>
      <trkpt lat="45.45343" lon="3.8405">
        <ele>1131</ele>
        <time>2019-05-31T10:20:20.550Z</time>
      </trkpt>
      <trkpt lat="45.45329" lon="3.84087">
        <ele>1131</ele>
        <time>2019-05-31T10:20:25.547Z</time>
      </trkpt>
      <trkpt lat="45.45321" lon="3.84111">
        <ele>1131</ele>
        <time>2019-05-31T10:20:29.597Z</time>
      </trkpt>
      <trkpt lat="45.45311" lon="3.84144">
        <ele>1131</ele>
        <time>2019-05-31T10:20:34.548Z</time>
      </trkpt>
      <trkpt lat="45.45294" lon="3.84172">
        <ele>1132</ele>
        <time>2019-05-31T10:20:39.546Z</time>
      </trkpt>
      <trkpt lat="45.45275" lon="3.84195">
        <ele>1133</ele>
        <time>2019-05-31T10:20:44.540Z</time>
      </trkpt>
      <trkpt lat="45.45255" lon="3.84218">
        <ele>1134</ele>
        <time>2019-05-31T10:20:49.561Z</time>
      </trkpt>
      <trkpt lat="45.4525" lon="3.84235">
        <ele>1134</ele>
        <time>2019-05-31T10:20:54.541Z</time>
      </trkpt>
      <trkpt lat="45.45248" lon="3.84245">
        <ele>1134</ele>
        <time>2019-05-31T10:20:58.553Z</time>
      </trkpt>
      <trkpt lat="45.45247" lon="3.84251">
        <ele>1134</ele>
        <time>2019-05-31T10:21:03.560Z</time>
      </trkpt>
      <trkpt lat="45.45237" lon="3.84262">
        <ele>1134</ele>
        <time>2019-05-31T10:21:08.560Z</time>
      </trkpt>
      <trkpt lat="45.45232" lon="3.84272">
        <ele>1135</ele>
        <time>2019-05-31T10:21:13.545Z</time>
      </trkpt>
      <trkpt lat="45.45224" lon="3.84278">
        <ele>1135</ele>
        <time>2019-05-31T10:21:17.559Z</time>
      </trkpt>
      <trkpt lat="45.45223" lon="3.84291">
        <ele>1135</ele>
        <time>2019-05-31T10:21:22.568Z</time>
      </trkpt>
      <trkpt lat="45.45216" lon="3.84302">
        <ele>1134</ele>
        <time>2019-05-31T10:21:27.549Z</time>
      </trkpt>
      <trkpt lat="45.4521" lon="3.8431">
        <ele>1134</ele>
        <time>2019-05-31T10:21:32.536Z</time>
      </trkpt>
      <trkpt lat="45.45204" lon="3.84308">
        <ele>1136</ele>
        <time>2019-05-31T10:21:36.546Z</time>
      </trkpt>
      <trkpt lat="45.45198" lon="3.8431">
        <ele>1136</ele>
        <time>2019-05-31T10:21:41.547Z</time>
      </trkpt>
      <trkpt lat="45.45194" lon="3.84313">
        <ele>1136</ele>
        <time>2019-05-31T10:21:45.565Z</time>
      </trkpt>
      <trkpt lat="45.45185" lon="3.84325">
        <ele>1134</ele>
        <time>2019-05-31T10:21:50.583Z</time>
      </trkpt>
      <trkpt lat="45.45178" lon="3.84333">
        <ele>1136</ele>
        <time>2019-05-31T10:21:55.548Z</time>
      </trkpt>
      <trkpt lat="45.45171" lon="3.84339">
        <ele>1136</ele>
        <time>2019-05-31T10:22:00.553Z</time>
      </trkpt>
      <trkpt lat="45.45164" lon="3.84341">
        <ele>1136</ele>
        <time>2019-05-31T10:22:05.551Z</time>
      </trkpt>
      <trkpt lat="45.45152" lon="3.84337">
        <ele>1137</ele>
        <time>2019-05-31T10:22:10.558Z</time>
      </trkpt>
      <trkpt lat="45.45143" lon="3.84336">
        <ele>1137</ele>
        <time>2019-05-31T10:22:15.548Z</time>
      </trkpt>
      <trkpt lat="45.45133" lon="3.84337">
        <ele>1137</ele>
        <time>2019-05-31T10:22:20.544Z</time>
      </trkpt>
      <trkpt lat="45.45128" lon="3.84336">
        <ele>1137</ele>
        <time>2019-05-31T10:22:24.551Z</time>
      </trkpt>
      <trkpt lat="45.45125" lon="3.84335">
        <ele>1138</ele>
        <time>2019-05-31T10:22:29.550Z</time>
      </trkpt>
      <trkpt lat="45.45117" lon="3.84329">
        <ele>1138</ele>
        <time>2019-05-31T10:22:34.575Z</time>
      </trkpt>
      <trkpt lat="45.4511" lon="3.84327">
        <ele>1138</ele>
        <time>2019-05-31T10:22:39.543Z</time>
      </trkpt>
      <trkpt lat="45.45101" lon="3.84327">
        <ele>1138</ele>
        <time>2019-05-31T10:22:44.544Z</time>
      </trkpt>
      <trkpt lat="45.45093" lon="3.84327">
        <ele>1139</ele>
        <time>2019-05-31T10:22:48.549Z</time>
      </trkpt>
      <trkpt lat="45.45084" lon="3.84327">
        <ele>1139</ele>
        <time>2019-05-31T10:22:53.556Z</time>
      </trkpt>
      <trkpt lat="45.45083" lon="3.84325">
        <ele>1139</ele>
        <time>2019-05-31T10:22:58.549Z</time>
      </trkpt>
      <trkpt lat="45.45077" lon="3.84315">
        <ele>1139</ele>
        <time>2019-05-31T10:23:03.554Z</time>
      </trkpt>
      <trkpt lat="45.4507" lon="3.84307">
        <ele>1139</ele>
        <time>2019-05-31T10:23:08.572Z</time>
      </trkpt>
      <trkpt lat="45.45065" lon="3.84311">
        <ele>1139</ele>
        <time>2019-05-31T10:23:13.542Z</time>
      </trkpt>
      <trkpt lat="45.45062" lon="3.8431">
        <ele>1139</ele>
        <time>2019-05-31T10:23:18.548Z</time>
      </trkpt>
      <trkpt lat="45.45053" lon="3.84305">
        <ele>1139</ele>
        <time>2019-05-31T10:23:23.566Z</time>
      </trkpt>
      <trkpt lat="45.45045" lon="3.84302">
        <ele>1139</ele>
        <time>2019-05-31T10:23:28.578Z</time>
      </trkpt>
      <trkpt lat="45.45043" lon="3.84309">
        <ele>1139</ele>
        <time>2019-05-31T10:23:32.587Z</time>
      </trkpt>
      <trkpt lat="45.45043" lon="3.84319">
        <ele>1139</ele>
        <time>2019-05-31T10:23:37.558Z</time>
      </trkpt>
      <trkpt lat="45.45035" lon="3.84319">
        <ele>1139</ele>
        <time>2019-05-31T10:23:42.549Z</time>
      </trkpt>
      <trkpt lat="45.45037" lon="3.84323">
        <ele>1139</ele>
        <time>2019-05-31T10:23:47.560Z</time>
      </trkpt>
      <trkpt lat="45.45027" lon="3.84326">
        <ele>1139</ele>
        <time>2019-05-31T10:23:52.555Z</time>
      </trkpt>
      <trkpt lat="45.4502" lon="3.84326">
        <ele>1139</ele>
        <time>2019-05-31T10:23:57.558Z</time>
      </trkpt>
      <trkpt lat="45.4501" lon="3.84331">
        <ele>1141</ele>
        <time>2019-05-31T10:24:02.559Z</time>
      </trkpt>
      <trkpt lat="45.45008" lon="3.84336">
        <ele>1141</ele>
        <time>2019-05-31T10:24:07.560Z</time>
      </trkpt>
      <trkpt lat="45.45009" lon="3.84341">
        <ele>1141</ele>
        <time>2019-05-31T10:24:12.584Z</time>
      </trkpt>
      <trkpt lat="45.45011" lon="3.84351">
        <ele>1140</ele>
        <time>2019-05-31T10:24:17.546Z</time>
      </trkpt>
      <trkpt lat="45.44997" lon="3.84357">
        <ele>1140</ele>
        <time>2019-05-31T10:24:22.518Z</time>
      </trkpt>
      <trkpt lat="45.44997" lon="3.84357">
        <ele>1140</ele>
        <time>2019-05-31T10:24:26.551Z</time>
      </trkpt>
      <trkpt lat="45.44986" lon="3.84358">
        <ele>1138</ele>
        <time>2019-05-31T10:24:31.565Z</time>
      </trkpt>
      <trkpt lat="45.44975" lon="3.84364">
        <ele>1138</ele>
        <time>2019-05-31T10:24:36.558Z</time>
      </trkpt>
      <trkpt lat="45.44971" lon="3.84375">
        <ele>1138</ele>
        <time>2019-05-31T10:24:41.547Z</time>
      </trkpt>
      <trkpt lat="45.44963" lon="3.84384">
        <ele>1136</ele>
        <time>2019-05-31T10:24:45.546Z</time>
      </trkpt>
      <trkpt lat="45.44969" lon="3.84395">
        <ele>1136</ele>
        <time>2019-05-31T10:24:49.562Z</time>
      </trkpt>
      <trkpt lat="45.44973" lon="3.844">
        <ele>1136</ele>
        <time>2019-05-31T10:24:54.563Z</time>
      </trkpt>
      <trkpt lat="45.44968" lon="3.84403">
        <ele>1134</ele>
        <time>2019-05-31T10:24:58.586Z</time>
      </trkpt>
      <trkpt lat="45.44959" lon="3.84405">
        <ele>1134</ele>
        <time>2019-05-31T10:25:03.551Z</time>
      </trkpt>
      <trkpt lat="45.4495" lon="3.84403">
        <ele>1133</ele>
        <time>2019-05-31T10:25:08.550Z</time>
      </trkpt>
      <trkpt lat="45.4494" lon="3.84398">
        <ele>1133</ele>
        <time>2019-05-31T10:25:13.545Z</time>
      </trkpt>
      <trkpt lat="45.44932" lon="3.84393">
        <ele>1133</ele>
        <time>2019-05-31T10:25:18.556Z</time>
      </trkpt>
      <trkpt lat="45.4493" lon="3.84385">
        <ele>1132</ele>
        <time>2019-05-31T10:25:23.560Z</time>
      </trkpt>
      <trkpt lat="45.44925" lon="3.84382">
        <ele>1132</ele>
        <time>2019-05-31T10:25:28.550Z</time>
      </trkpt>
      <trkpt lat="45.44923" lon="3.84382">
        <ele>1132</ele>
        <time>2019-05-31T10:25:32.605Z</time>
      </trkpt>
      <trkpt lat="45.44915" lon="3.84374">
        <ele>1134</ele>
        <time>2019-05-31T10:25:37.563Z</time>
      </trkpt>
      <trkpt lat="45.44905" lon="3.84369">
        <ele>1134</ele>
        <time>2019-05-31T10:25:42.579Z</time>
      </trkpt>
      <trkpt lat="45.44891" lon="3.84368">
        <ele>1133</ele>
        <time>2019-05-31T10:25:47.548Z</time>
      </trkpt>
      <trkpt lat="45.44884" lon="3.84368">
        <ele>1133</ele>
        <time>2019-05-31T10:25:52.545Z</time>
      </trkpt>
      <trkpt lat="45.44877" lon="3.84365">
        <ele>1133</ele>
        <time>2019-05-31T10:25:57.548Z</time>
      </trkpt>
      <trkpt lat="45.44868" lon="3.84362">
        <ele>1132</ele>
        <time>2019-05-31T10:26:02.563Z</time>
      </trkpt>
      <trkpt lat="45.4486" lon="3.84356">
        <ele>1132</ele>
        <time>2019-05-31T10:26:07.558Z</time>
      </trkpt>
      <trkpt lat="45.44844" lon="3.84344">
        <ele>1132</ele>
        <time>2019-05-31T10:26:12.547Z</time>
      </trkpt>
      <trkpt lat="45.44836" lon="3.84343">
        <ele>1132</ele>
        <time>2019-05-31T10:26:16.561Z</time>
      </trkpt>
      <trkpt lat="45.44832" lon="3.84342">
        <ele>1132</ele>
        <time>2019-05-31T10:26:20.573Z</time>
      </trkpt>
      <trkpt lat="45.44826" lon="3.8434">
        <ele>1132</ele>
        <time>2019-05-31T10:26:25.548Z</time>
      </trkpt>
      <trkpt lat="45.44818" lon="3.84343">
        <ele>1134</ele>
        <time>2019-05-31T10:26:30.554Z</time>
      </trkpt>
      <trkpt lat="45.44812" lon="3.84343">
        <ele>1134</ele>
        <time>2019-05-31T10:26:35.552Z</time>
      </trkpt>
      <trkpt lat="45.44808" lon="3.84345">
        <ele>1134</ele>
        <time>2019-05-31T10:26:39.558Z</time>
      </trkpt>
      <trkpt lat="45.448" lon="3.84349">
        <ele>1133</ele>
        <time>2019-05-31T10:26:44.539Z</time>
      </trkpt>
      <trkpt lat="45.44801" lon="3.84354">
        <ele>1133</ele>
        <time>2019-05-31T10:26:48.559Z</time>
      </trkpt>
      <trkpt lat="45.44795" lon="3.84354">
        <ele>1133</ele>
        <time>2019-05-31T10:26:53.556Z</time>
      </trkpt>
      <trkpt lat="45.44787" lon="3.84354">
        <ele>1136</ele>
        <time>2019-05-31T10:26:58.552Z</time>
      </trkpt>
      <trkpt lat="45.44782" lon="3.84358">
        <ele>1136</ele>
        <time>2019-05-31T10:27:03.560Z</time>
      </trkpt>
      <trkpt lat="45.44772" lon="3.8436">
        <ele>1136</ele>
        <time>2019-05-31T10:27:08.547Z</time>
      </trkpt>
      <trkpt lat="45.44763" lon="3.84363">
        <ele>1137</ele>
        <time>2019-05-31T10:27:13.550Z</time>
      </trkpt>
      <trkpt lat="45.44753" lon="3.84367">
        <ele>1137</ele>
        <time>2019-05-31T10:27:18.559Z</time>
      </trkpt>
      <trkpt lat="45.44743" lon="3.8437">
        <ele>1137</ele>
        <time>2019-05-31T10:27:23.554Z</time>
      </trkpt>
      <trkpt lat="45.44734" lon="3.84369">
        <ele>1138</ele>
        <time>2019-05-31T10:27:28.564Z</time>
      </trkpt>
      <trkpt lat="45.44726" lon="3.84375">
        <ele>1138</ele>
        <time>2019-05-31T10:27:33.564Z</time>
      </trkpt>
      <trkpt lat="45.44717" lon="3.84375">
        <ele>1138</ele>
        <time>2019-05-31T10:27:38.553Z</time>
      </trkpt>
      <trkpt lat="45.44709" lon="3.84373">
        <ele>1138</ele>
        <time>2019-05-31T10:27:43.555Z</time>
      </trkpt>
      <trkpt lat="45.44703" lon="3.84371">
        <ele>1138</ele>
        <time>2019-05-31T10:27:48.559Z</time>
      </trkpt>
      <trkpt lat="45.44697" lon="3.8437">
        <ele>1138</ele>
        <time>2019-05-31T10:27:53.557Z</time>
      </trkpt>
      <trkpt lat="45.44692" lon="3.84369">
        <ele>1138</ele>
        <time>2019-05-31T10:27:58.546Z</time>
      </trkpt>
      <trkpt lat="45.44686" lon="3.84365">
        <ele>1138</ele>
        <time>2019-05-31T10:28:03.548Z</time>
      </trkpt>
      <trkpt lat="45.44675" lon="3.84361">
        <ele>1137</ele>
        <time>2019-05-31T10:28:08.551Z</time>
      </trkpt>
      <trkpt lat="45.44669" lon="3.8436">
        <ele>1137</ele>
        <time>2019-05-31T10:28:13.543Z</time>
      </trkpt>
      <trkpt lat="45.4466" lon="3.84356">
        <ele>1137</ele>
        <time>2019-05-31T10:28:17.561Z</time>
      </trkpt>
      <trkpt lat="45.44651" lon="3.84351">
        <ele>1134</ele>
        <time>2019-05-31T10:28:22.560Z</time>
      </trkpt>
      <trkpt lat="45.44639" lon="3.84347">
        <ele>1134</ele>
        <time>2019-05-31T10:28:27.549Z</time>
      </trkpt>
      <trkpt lat="45.44628" lon="3.84343">
        <ele>1135</ele>
        <time>2019-05-31T10:28:32.544Z</time>
      </trkpt>
      <trkpt lat="45.44622" lon="3.84339">
        <ele>1135</ele>
        <time>2019-05-31T10:28:37.541Z</time>
      </trkpt>
      <trkpt lat="45.44615" lon="3.84336">
        <ele>1135</ele>
        <time>2019-05-31T10:28:42.553Z</time>
      </trkpt>
      <trkpt lat="45.4461" lon="3.84331">
        <ele>1135</ele>
        <time>2019-05-31T10:28:47.565Z</time>
      </trkpt>
      <trkpt lat="45.44602" lon="3.84329">
        <ele>1135</ele>
        <time>2019-05-31T10:28:52.542Z</time>
      </trkpt>
      <trkpt lat="45.44594" lon="3.84329">
        <ele>1136</ele>
        <time>2019-05-31T10:28:57.558Z</time>
      </trkpt>
      <trkpt lat="45.44587" lon="3.84328">
        <ele>1136</ele>
        <time>2019-05-31T10:29:02.562Z</time>
      </trkpt>
      <trkpt lat="45.4458" lon="3.84327">
        <ele>1136</ele>
        <time>2019-05-31T10:29:07.544Z</time>
      </trkpt>
      <trkpt lat="45.44574" lon="3.84331">
        <ele>1136</ele>
        <time>2019-05-31T10:29:11.561Z</time>
      </trkpt>
      <trkpt lat="45.44565" lon="3.84335">
        <ele>1137</ele>
        <time>2019-05-31T10:29:16.576Z</time>
      </trkpt>
      <trkpt lat="45.44557" lon="3.84337">
        <ele>1137</ele>
        <time>2019-05-31T10:29:21.540Z</time>
      </trkpt>
      <trkpt lat="45.44552" lon="3.8434">
        <ele>1137</ele>
        <time>2019-05-31T10:29:26.558Z</time>
      </trkpt>
      <trkpt lat="45.44553" lon="3.84342">
        <ele>1137</ele>
        <time>2019-05-31T10:29:31.548Z</time>
      </trkpt>
      <trkpt lat="45.44541" lon="3.84342">
        <ele>1140</ele>
        <time>2019-05-31T10:29:36.555Z</time>
      </trkpt>
      <trkpt lat="45.4453" lon="3.84345">
        <ele>1140</ele>
        <time>2019-05-31T10:29:41.558Z</time>
      </trkpt>
      <trkpt lat="45.4452" lon="3.84347">
        <ele>1140</ele>
        <time>2019-05-31T10:29:46.552Z</time>
      </trkpt>
      <trkpt lat="45.44513" lon="3.84349">
        <ele>1141</ele>
        <time>2019-05-31T10:29:51.546Z</time>
      </trkpt>
      <trkpt lat="45.44508" lon="3.84345">
        <ele>1142</ele>
        <time>2019-05-31T10:29:56.550Z</time>
      </trkpt>
      <trkpt lat="45.44505" lon="3.84343">
        <ele>1142</ele>
        <time>2019-05-31T10:30:00.554Z</time>
      </trkpt>
      <trkpt lat="45.44501" lon="3.84339">
        <ele>1142</ele>
        <time>2019-05-31T10:30:05.556Z</time>
      </trkpt>
      <trkpt lat="45.44491" lon="3.84346">
        <ele>1142</ele>
        <time>2019-05-31T10:30:10.550Z</time>
      </trkpt>
      <trkpt lat="45.4448" lon="3.84351">
        <ele>1142</ele>
        <time>2019-05-31T10:30:15.555Z</time>
      </trkpt>
      <trkpt lat="45.44471" lon="3.84355">
        <ele>1142</ele>
        <time>2019-05-31T10:30:20.556Z</time>
      </trkpt>
      <trkpt lat="45.44466" lon="3.84358">
        <ele>1142</ele>
        <time>2019-05-31T10:30:25.551Z</time>
      </trkpt>
      <trkpt lat="45.4446" lon="3.8436">
        <ele>1142</ele>
        <time>2019-05-31T10:30:30.556Z</time>
      </trkpt>
      <trkpt lat="45.44451" lon="3.8436">
        <ele>1142</ele>
        <time>2019-05-31T10:30:35.556Z</time>
      </trkpt>
      <trkpt lat="45.44442" lon="3.84361">
        <ele>1142</ele>
        <time>2019-05-31T10:30:40.552Z</time>
      </trkpt>
      <trkpt lat="45.44436" lon="3.84363">
        <ele>1142</ele>
        <time>2019-05-31T10:30:45.558Z</time>
      </trkpt>
      <trkpt lat="45.44427" lon="3.84361">
        <ele>1144</ele>
        <time>2019-05-31T10:30:50.554Z</time>
      </trkpt>
      <trkpt lat="45.44416" lon="3.84361">
        <ele>1144</ele>
        <time>2019-05-31T10:30:55.559Z</time>
      </trkpt>
      <trkpt lat="45.4441" lon="3.8436">
        <ele>1144</ele>
        <time>2019-05-31T10:31:00.559Z</time>
      </trkpt>
      <trkpt lat="45.44407" lon="3.84359">
        <ele>1144</ele>
        <time>2019-05-31T10:31:05.531Z</time>
      </trkpt>
      <trkpt lat="45.44409" lon="3.84359">
        <ele>1144</ele>
        <time>2019-05-31T10:31:09.551Z</time>
      </trkpt>
      <trkpt lat="45.44404" lon="3.84358">
        <ele>1144</ele>
        <time>2019-05-31T10:31:14.544Z</time>
      </trkpt>
      <trkpt lat="45.44391" lon="3.84355">
        <ele>1144</ele>
        <time>2019-05-31T10:31:19.552Z</time>
      </trkpt>
      <trkpt lat="45.44382" lon="3.84356">
        <ele>1144</ele>
        <time>2019-05-31T10:31:24.566Z</time>
      </trkpt>
      <trkpt lat="45.44372" lon="3.8436">
        <ele>1144</ele>
        <time>2019-05-31T10:31:29.528Z</time>
      </trkpt>
      <trkpt lat="45.44366" lon="3.8436">
        <ele>1144</ele>
        <time>2019-05-31T10:31:33.559Z</time>
      </trkpt>
      <trkpt lat="45.44356" lon="3.8436">
        <ele>1144</ele>
        <time>2019-05-31T10:31:38.546Z</time>
      </trkpt>
      <trkpt lat="45.44347" lon="3.84362">
        <ele>1144</ele>
        <time>2019-05-31T10:31:42.575Z</time>
      </trkpt>
      <trkpt lat="45.44339" lon="3.84364">
        <ele>1144</ele>
        <time>2019-05-31T10:31:47.574Z</time>
      </trkpt>
      <trkpt lat="45.44331" lon="3.84365">
        <ele>1144</ele>
        <time>2019-05-31T10:31:52.545Z</time>
      </trkpt>
      <trkpt lat="45.44324" lon="3.84364">
        <ele>1144</ele>
        <time>2019-05-31T10:31:56.565Z</time>
      </trkpt>
      <trkpt lat="45.44319" lon="3.84361">
        <ele>1141</ele>
        <time>2019-05-31T10:32:01.544Z</time>
      </trkpt>
      <trkpt lat="45.44311" lon="3.84361">
        <ele>1141</ele>
        <time>2019-05-31T10:32:06.547Z</time>
      </trkpt>
      <trkpt lat="45.44303" lon="3.84361">
        <ele>1141</ele>
        <time>2019-05-31T10:32:10.557Z</time>
      </trkpt>
      <trkpt lat="45.44295" lon="3.84355">
        <ele>1141</ele>
        <time>2019-05-31T10:32:15.560Z</time>
      </trkpt>
      <trkpt lat="45.44286" lon="3.8435">
        <ele>1139</ele>
        <time>2019-05-31T10:32:20.557Z</time>
      </trkpt>
      <trkpt lat="45.44278" lon="3.84346">
        <ele>1141</ele>
        <time>2019-05-31T10:32:25.546Z</time>
      </trkpt>
      <trkpt lat="45.44272" lon="3.84347">
        <ele>1139</ele>
        <time>2019-05-31T10:32:30.548Z</time>
      </trkpt>
      <trkpt lat="45.44271" lon="3.84346">
        <ele>1141</ele>
        <time>2019-05-31T10:32:34.541Z</time>
      </trkpt>
      <trkpt lat="45.44262" lon="3.84343">
        <ele>1142</ele>
        <time>2019-05-31T10:32:39.541Z</time>
      </trkpt>
      <trkpt lat="45.44252" lon="3.84344">
        <ele>1142</ele>
        <time>2019-05-31T10:32:44.556Z</time>
      </trkpt>
      <trkpt lat="45.44248" lon="3.84341">
        <ele>1142</ele>
        <time>2019-05-31T10:32:49.546Z</time>
      </trkpt>
      <trkpt lat="45.4424" lon="3.84339">
        <ele>1142</ele>
        <time>2019-05-31T10:32:54.554Z</time>
      </trkpt>
      <trkpt lat="45.44234" lon="3.84338">
        <ele>1142</ele>
        <time>2019-05-31T10:32:59.562Z</time>
      </trkpt>
      <trkpt lat="45.44226" lon="3.84336">
        <ele>1142</ele>
        <time>2019-05-31T10:33:04.545Z</time>
      </trkpt>
      <trkpt lat="45.44224" lon="3.84337">
        <ele>1142</ele>
        <time>2019-05-31T10:33:09.566Z</time>
      </trkpt>
      <trkpt lat="45.44216" lon="3.84337">
        <ele>1142</ele>
        <time>2019-05-31T10:33:14.555Z</time>
      </trkpt>
      <trkpt lat="45.44206" lon="3.84338">
        <ele>1141</ele>
        <time>2019-05-31T10:33:19.550Z</time>
      </trkpt>
      <trkpt lat="45.44197" lon="3.84344">
        <ele>1141</ele>
        <time>2019-05-31T10:33:24.563Z</time>
      </trkpt>
      <trkpt lat="45.4419" lon="3.84344">
        <ele>1141</ele>
        <time>2019-05-31T10:33:29.554Z</time>
      </trkpt>
      <trkpt lat="45.44184" lon="3.84344">
        <ele>1141</ele>
        <time>2019-05-31T10:33:34.543Z</time>
      </trkpt>
      <trkpt lat="45.4417" lon="3.84345">
        <ele>1141</ele>
        <time>2019-05-31T10:33:39.558Z</time>
      </trkpt>
      <trkpt lat="45.44161" lon="3.84343">
        <ele>1141</ele>
        <time>2019-05-31T10:33:44.557Z</time>
      </trkpt>
      <trkpt lat="45.44151" lon="3.84344">
        <ele>1140</ele>
        <time>2019-05-31T10:33:49.553Z</time>
      </trkpt>
      <trkpt lat="45.44141" lon="3.84349">
        <ele>1140</ele>
        <time>2019-05-31T10:33:54.559Z</time>
      </trkpt>
      <trkpt lat="45.44131" lon="3.84353">
        <ele>1140</ele>
        <time>2019-05-31T10:33:59.561Z</time>
      </trkpt>
      <trkpt lat="45.44123" lon="3.84354">
        <ele>1137</ele>
        <time>2019-05-31T10:34:04.545Z</time>
      </trkpt>
      <trkpt lat="45.44117" lon="3.84354">
        <ele>1137</ele>
        <time>2019-05-31T10:34:08.560Z</time>
      </trkpt>
      <trkpt lat="45.44109" lon="3.84355">
        <ele>1137</ele>
        <time>2019-05-31T10:34:13.547Z</time>
      </trkpt>
      <trkpt lat="45.44101" lon="3.84348">
        <ele>1137</ele>
        <time>2019-05-31T10:34:18.540Z</time>
      </trkpt>
      <trkpt lat="45.44103" lon="3.84348">
        <ele>1137</ele>
        <time>2019-05-31T10:34:22.552Z</time>
      </trkpt>
      <trkpt lat="45.44094" lon="3.84348">
        <ele>1135</ele>
        <time>2019-05-31T10:34:27.556Z</time>
      </trkpt>
      <trkpt lat="45.44084" lon="3.84343">
        <ele>1136</ele>
        <time>2019-05-31T10:34:32.544Z</time>
      </trkpt>
      <trkpt lat="45.4408" lon="3.84344">
        <ele>1136</ele>
        <time>2019-05-31T10:34:37.546Z</time>
      </trkpt>
      <trkpt lat="45.44069" lon="3.84344">
        <ele>1136</ele>
        <time>2019-05-31T10:34:41.557Z</time>
      </trkpt>
      <trkpt lat="45.44058" lon="3.84349">
        <ele>1135</ele>
        <time>2019-05-31T10:34:46.546Z</time>
      </trkpt>
      <trkpt lat="45.4405" lon="3.84351">
        <ele>1135</ele>
        <time>2019-05-31T10:34:51.547Z</time>
      </trkpt>
      <trkpt lat="45.44043" lon="3.84351">
        <ele>1135</ele>
        <time>2019-05-31T10:34:56.555Z</time>
      </trkpt>
      <trkpt lat="45.44034" lon="3.84351">
        <ele>1134</ele>
        <time>2019-05-31T10:35:01.552Z</time>
      </trkpt>
      <trkpt lat="45.44028" lon="3.84348">
        <ele>1134</ele>
        <time>2019-05-31T10:35:06.542Z</time>
      </trkpt>
      <trkpt lat="45.44022" lon="3.84346">
        <ele>1135</ele>
        <time>2019-05-31T10:35:10.562Z</time>
      </trkpt>
      <trkpt lat="45.44013" lon="3.84342">
        <ele>1133</ele>
        <time>2019-05-31T10:35:15.558Z</time>
      </trkpt>
      <trkpt lat="45.44004" lon="3.84341">
        <ele>1133</ele>
        <time>2019-05-31T10:35:19.576Z</time>
      </trkpt>
      <trkpt lat="45.43996" lon="3.84343">
        <ele>1133</ele>
        <time>2019-05-31T10:35:24.569Z</time>
      </trkpt>
      <trkpt lat="45.43988" lon="3.8434">
        <ele>1133</ele>
        <time>2019-05-31T10:35:29.566Z</time>
      </trkpt>
      <trkpt lat="45.43979" lon="3.84345">
        <ele>1130</ele>
        <time>2019-05-31T10:35:34.554Z</time>
      </trkpt>
      <trkpt lat="45.43969" lon="3.84347">
        <ele>1130</ele>
        <time>2019-05-31T10:35:39.550Z</time>
      </trkpt>
      <trkpt lat="45.43963" lon="3.84348">
        <ele>1131</ele>
        <time>2019-05-31T10:35:43.575Z</time>
      </trkpt>
      <trkpt lat="45.43955" lon="3.8435">
        <ele>1130</ele>
        <time>2019-05-31T10:35:48.560Z</time>
      </trkpt>
      <trkpt lat="45.43947" lon="3.84354">
        <ele>1130</ele>
        <time>2019-05-31T10:35:53.554Z</time>
      </trkpt>
      <trkpt lat="45.4394" lon="3.84358">
        <ele>1130</ele>
        <time>2019-05-31T10:35:58.535Z</time>
      </trkpt>
      <trkpt lat="45.43933" lon="3.8436">
        <ele>1130</ele>
        <time>2019-05-31T10:36:02.558Z</time>
      </trkpt>
      <trkpt lat="45.43926" lon="3.84361">
        <ele>1131</ele>
        <time>2019-05-31T10:36:06.567Z</time>
      </trkpt>
      <trkpt lat="45.43916" lon="3.84361">
        <ele>1131</ele>
        <time>2019-05-31T10:36:11.552Z</time>
      </trkpt>
      <trkpt lat="45.43907" lon="3.84363">
        <ele>1131</ele>
        <time>2019-05-31T10:36:16.548Z</time>
      </trkpt>
      <trkpt lat="45.43901" lon="3.84364">
        <ele>1131</ele>
        <time>2019-05-31T10:36:21.539Z</time>
      </trkpt>
      <trkpt lat="45.439" lon="3.84361">
        <ele>1131</ele>
        <time>2019-05-31T10:36:25.555Z</time>
      </trkpt>
      <trkpt lat="45.43898" lon="3.84358">
        <ele>1131</ele>
        <time>2019-05-31T10:36:30.535Z</time>
      </trkpt>
      <trkpt lat="45.43897" lon="3.84358">
        <ele>1131</ele>
        <time>2019-05-31T10:36:34.544Z</time>
      </trkpt>
      <trkpt lat="45.43898" lon="3.84361">
        <ele>1131</ele>
        <time>2019-05-31T10:36:38.559Z</time>
      </trkpt>
      <trkpt lat="45.43893" lon="3.84367">
        <ele>1131</ele>
        <time>2019-05-31T10:36:43.551Z</time>
      </trkpt>
      <trkpt lat="45.4389" lon="3.84376">
        <ele>1130</ele>
        <time>2019-05-31T10:36:48.555Z</time>
      </trkpt>
      <trkpt lat="45.43887" lon="3.84381">
        <ele>1130</ele>
        <time>2019-05-31T10:36:53.524Z</time>
      </trkpt>
      <trkpt lat="45.43881" lon="3.84385">
        <ele>1130</ele>
        <time>2019-05-31T10:36:57.545Z</time>
      </trkpt>
      <trkpt lat="45.43879" lon="3.84393">
        <ele>1130</ele>
        <time>2019-05-31T10:37:01.564Z</time>
      </trkpt>
      <trkpt lat="45.4388" lon="3.84398">
        <ele>1130</ele>
        <time>2019-05-31T10:37:06.547Z</time>
      </trkpt>
      <trkpt lat="45.43869" lon="3.84398">
        <ele>1132</ele>
        <time>2019-05-31T10:37:11.550Z</time>
      </trkpt>
      <trkpt lat="45.43857" lon="3.84403">
        <ele>1132</ele>
        <time>2019-05-31T10:37:16.558Z</time>
      </trkpt>
      <trkpt lat="45.43851" lon="3.84408">
        <ele>1129</ele>
        <time>2019-05-31T10:37:21.577Z</time>
      </trkpt>
      <trkpt lat="45.43847" lon="3.84415">
        <ele>1132</ele>
        <time>2019-05-31T10:37:26.555Z</time>
      </trkpt>
      <trkpt lat="45.43837" lon="3.84418">
        <ele>1132</ele>
        <time>2019-05-31T10:37:31.554Z</time>
      </trkpt>
      <trkpt lat="45.43834" lon="3.84424">
        <ele>1132</ele>
        <time>2019-05-31T10:37:36.519Z</time>
      </trkpt>
      <trkpt lat="45.4383" lon="3.8443">
        <ele>1132</ele>
        <time>2019-05-31T10:37:40.553Z</time>
      </trkpt>
      <trkpt lat="45.43821" lon="3.84434">
        <ele>1129</ele>
        <time>2019-05-31T10:37:45.519Z</time>
      </trkpt>
      <trkpt lat="45.43815" lon="3.84436">
        <ele>1131</ele>
        <time>2019-05-31T10:37:49.561Z</time>
      </trkpt>
      <trkpt lat="45.43809" lon="3.84442">
        <ele>1131</ele>
        <time>2019-05-31T10:37:54.564Z</time>
      </trkpt>
      <trkpt lat="45.43803" lon="3.84441">
        <ele>1131</ele>
        <time>2019-05-31T10:37:59.546Z</time>
      </trkpt>
      <trkpt lat="45.43794" lon="3.84444">
        <ele>1131</ele>
        <time>2019-05-31T10:38:04.540Z</time>
      </trkpt>
      <trkpt lat="45.43791" lon="3.84452">
        <ele>1131</ele>
        <time>2019-05-31T10:38:09.552Z</time>
      </trkpt>
      <trkpt lat="45.43782" lon="3.84453">
        <ele>1131</ele>
        <time>2019-05-31T10:38:14.554Z</time>
      </trkpt>
      <trkpt lat="45.4378" lon="3.84454">
        <ele>1131</ele>
        <time>2019-05-31T10:38:19.551Z</time>
      </trkpt>
      <trkpt lat="45.43775" lon="3.8446">
        <ele>1130</ele>
        <time>2019-05-31T10:38:23.560Z</time>
      </trkpt>
      <trkpt lat="45.43774" lon="3.84471">
        <ele>1130</ele>
        <time>2019-05-31T10:38:28.559Z</time>
      </trkpt>
      <trkpt lat="45.43771" lon="3.8448">
        <ele>1130</ele>
        <time>2019-05-31T10:38:33.556Z</time>
      </trkpt>
      <trkpt lat="45.43771" lon="3.84483">
        <ele>1130</ele>
        <time>2019-05-31T10:38:37.585Z</time>
      </trkpt>
      <trkpt lat="45.43773" lon="3.8449">
        <ele>1129</ele>
        <time>2019-05-31T10:38:42.554Z</time>
      </trkpt>
      <trkpt lat="45.43778" lon="3.84496">
        <ele>1129</ele>
        <time>2019-05-31T10:38:47.551Z</time>
      </trkpt>
      <trkpt lat="45.43775" lon="3.84504">
        <ele>1129</ele>
        <time>2019-05-31T10:38:52.532Z</time>
      </trkpt>
      <trkpt lat="45.43776" lon="3.84514">
        <ele>1130</ele>
        <time>2019-05-31T10:38:56.550Z</time>
      </trkpt>
      <trkpt lat="45.43773" lon="3.84523">
        <ele>1130</ele>
        <time>2019-05-31T10:39:01.520Z</time>
      </trkpt>
      <trkpt lat="45.4377" lon="3.84529">
        <ele>1130</ele>
        <time>2019-05-31T10:39:05.554Z</time>
      </trkpt>
      <trkpt lat="45.43772" lon="3.84538">
        <ele>1130</ele>
        <time>2019-05-31T10:39:10.531Z</time>
      </trkpt>
      <trkpt lat="45.43772" lon="3.84548">
        <ele>1129</ele>
        <time>2019-05-31T10:39:14.557Z</time>
      </trkpt>
      <trkpt lat="45.43768" lon="3.84563">
        <ele>1129</ele>
        <time>2019-05-31T10:39:19.549Z</time>
      </trkpt>
      <trkpt lat="45.43765" lon="3.84574">
        <ele>1127</ele>
        <time>2019-05-31T10:39:24.554Z</time>
      </trkpt>
      <trkpt lat="45.43766" lon="3.84583">
        <ele>1127</ele>
        <time>2019-05-31T10:39:29.560Z</time>
      </trkpt>
      <trkpt lat="45.43764" lon="3.84589">
        <ele>1127</ele>
        <time>2019-05-31T10:39:34.533Z</time>
      </trkpt>
      <trkpt lat="45.43764" lon="3.84595">
        <ele>1128</ele>
        <time>2019-05-31T10:39:38.538Z</time>
      </trkpt>
      <trkpt lat="45.43762" lon="3.84601">
        <ele>1127</ele>
        <time>2019-05-31T10:39:42.554Z</time>
      </trkpt>
      <trkpt lat="45.43763" lon="3.84612">
        <ele>1127</ele>
        <time>2019-05-31T10:39:47.548Z</time>
      </trkpt>
      <trkpt lat="45.43763" lon="3.8462">
        <ele>1127</ele>
        <time>2019-05-31T10:39:52.552Z</time>
      </trkpt>
      <trkpt lat="45.43761" lon="3.84628">
        <ele>1124</ele>
        <time>2019-05-31T10:39:56.571Z</time>
      </trkpt>
      <trkpt lat="45.43758" lon="3.84638">
        <ele>1124</ele>
        <time>2019-05-31T10:40:01.543Z</time>
      </trkpt>
      <trkpt lat="45.43755" lon="3.84652">
        <ele>1124</ele>
        <time>2019-05-31T10:40:06.553Z</time>
      </trkpt>
      <trkpt lat="45.43751" lon="3.84667">
        <ele>1122</ele>
        <time>2019-05-31T10:40:11.523Z</time>
      </trkpt>
      <trkpt lat="45.43751" lon="3.84675">
        <ele>1122</ele>
        <time>2019-05-31T10:40:15.548Z</time>
      </trkpt>
      <trkpt lat="45.43749" lon="3.84682">
        <ele>1119</ele>
        <time>2019-05-31T10:40:19.555Z</time>
      </trkpt>
      <trkpt lat="45.43743" lon="3.84694">
        <ele>1119</ele>
        <time>2019-05-31T10:40:24.548Z</time>
      </trkpt>
      <trkpt lat="45.43743" lon="3.84706">
        <ele>1119</ele>
        <time>2019-05-31T10:40:29.554Z</time>
      </trkpt>
      <trkpt lat="45.43741" lon="3.84714">
        <ele>1117</ele>
        <time>2019-05-31T10:40:34.553Z</time>
      </trkpt>
      <trkpt lat="45.43736" lon="3.84721">
        <ele>1120</ele>
        <time>2019-05-31T10:40:39.544Z</time>
      </trkpt>
      <trkpt lat="45.43734" lon="3.84731">
        <ele>1120</ele>
        <time>2019-05-31T10:40:44.515Z</time>
      </trkpt>
      <trkpt lat="45.43731" lon="3.8474">
        <ele>1117</ele>
        <time>2019-05-31T10:40:48.558Z</time>
      </trkpt>
      <trkpt lat="45.43727" lon="3.8475">
        <ele>1117</ele>
        <time>2019-05-31T10:40:53.515Z</time>
      </trkpt>
      <trkpt lat="45.43724" lon="3.84752">
        <ele>1117</ele>
        <time>2019-05-31T10:40:57.542Z</time>
      </trkpt>
      <trkpt lat="45.43723" lon="3.84754">
        <ele>1117</ele>
        <time>2019-05-31T10:41:02.569Z</time>
      </trkpt>
      <trkpt lat="45.43724" lon="3.84755">
        <ele>1117</ele>
        <time>2019-05-31T10:41:07.553Z</time>
      </trkpt>
      <trkpt lat="45.43726" lon="3.84758">
        <ele>1117</ele>
        <time>2019-05-31T10:41:11.558Z</time>
      </trkpt>
      <trkpt lat="45.43725" lon="3.84765">
        <ele>1113</ele>
        <time>2019-05-31T10:41:16.549Z</time>
      </trkpt>
      <trkpt lat="45.43721" lon="3.84771">
        <ele>1113</ele>
        <time>2019-05-31T10:41:20.562Z</time>
      </trkpt>
      <trkpt lat="45.43718" lon="3.84779">
        <ele>1113</ele>
        <time>2019-05-31T10:41:25.540Z</time>
      </trkpt>
      <trkpt lat="45.43709" lon="3.84787">
        <ele>1113</ele>
        <time>2019-05-31T10:41:29.549Z</time>
      </trkpt>
      <trkpt lat="45.43704" lon="3.84801">
        <ele>1111</ele>
        <time>2019-05-31T10:41:34.559Z</time>
      </trkpt>
      <trkpt lat="45.43699" lon="3.8481">
        <ele>1111</ele>
        <time>2019-05-31T10:41:39.529Z</time>
      </trkpt>
      <trkpt lat="45.43699" lon="3.84815">
        <ele>1111</ele>
        <time>2019-05-31T10:41:43.553Z</time>
      </trkpt>
      <trkpt lat="45.43698" lon="3.8482">
        <ele>1109</ele>
        <time>2019-05-31T10:41:47.563Z</time>
      </trkpt>
      <trkpt lat="45.43696" lon="3.84827">
        <ele>1109</ele>
        <time>2019-05-31T10:41:52.539Z</time>
      </trkpt>
      <trkpt lat="45.43695" lon="3.84832">
        <ele>1109</ele>
        <time>2019-05-31T10:41:57.544Z</time>
      </trkpt>
      <trkpt lat="45.43692" lon="3.84844">
        <ele>1109</ele>
        <time>2019-05-31T10:42:02.521Z</time>
      </trkpt>
      <trkpt lat="45.4369" lon="3.84853">
        <ele>1107</ele>
        <time>2019-05-31T10:42:06.548Z</time>
      </trkpt>
      <trkpt lat="45.43688" lon="3.84861">
        <ele>1107</ele>
        <time>2019-05-31T10:42:11.553Z</time>
      </trkpt>
      <trkpt lat="45.43684" lon="3.84872">
        <ele>1107</ele>
        <time>2019-05-31T10:42:16.549Z</time>
      </trkpt>
      <trkpt lat="45.43678" lon="3.84882">
        <ele>1108</ele>
        <time>2019-05-31T10:42:21.543Z</time>
      </trkpt>
      <trkpt lat="45.43673" lon="3.84893">
        <ele>1108</ele>
        <time>2019-05-31T10:42:26.531Z</time>
      </trkpt>
      <trkpt lat="45.4367" lon="3.84902">
        <ele>1108</ele>
        <time>2019-05-31T10:42:30.550Z</time>
      </trkpt>
      <trkpt lat="45.43668" lon="3.84914">
        <ele>1109</ele>
        <time>2019-05-31T10:42:35.543Z</time>
      </trkpt>
      <trkpt lat="45.43667" lon="3.84925">
        <ele>1109</ele>
        <time>2019-05-31T10:42:40.531Z</time>
      </trkpt>
      <trkpt lat="45.43662" lon="3.84933">
        <ele>1108</ele>
        <time>2019-05-31T10:42:45.558Z</time>
      </trkpt>
      <trkpt lat="45.43657" lon="3.84941">
        <ele>1108</ele>
        <time>2019-05-31T10:42:50.565Z</time>
      </trkpt>
      <trkpt lat="45.43652" lon="3.84947">
        <ele>1110</ele>
        <time>2019-05-31T10:42:55.536Z</time>
      </trkpt>
      <trkpt lat="45.43647" lon="3.84952">
        <ele>1110</ele>
        <time>2019-05-31T10:42:59.561Z</time>
      </trkpt>
      <trkpt lat="45.43644" lon="3.84957">
        <ele>1110</ele>
        <time>2019-05-31T10:43:03.568Z</time>
      </trkpt>
      <trkpt lat="45.43639" lon="3.84962">
        <ele>1105</ele>
        <time>2019-05-31T10:43:08.548Z</time>
      </trkpt>
      <trkpt lat="45.43634" lon="3.8497">
        <ele>1105</ele>
        <time>2019-05-31T10:43:13.554Z</time>
      </trkpt>
      <trkpt lat="45.43631" lon="3.84979">
        <ele>1105</ele>
        <time>2019-05-31T10:43:17.571Z</time>
      </trkpt>
      <trkpt lat="45.43626" lon="3.84993">
        <ele>1099</ele>
        <time>2019-05-31T10:43:22.551Z</time>
      </trkpt>
      <trkpt lat="45.43618" lon="3.85">
        <ele>1100</ele>
        <time>2019-05-31T10:43:27.542Z</time>
      </trkpt>
      <trkpt lat="45.43615" lon="3.85003">
        <ele>1100</ele>
        <time>2019-05-31T10:43:32.550Z</time>
      </trkpt>
      <trkpt lat="45.43612" lon="3.85006">
        <ele>1100</ele>
        <time>2019-05-31T10:43:37.555Z</time>
      </trkpt>
      <trkpt lat="45.43611" lon="3.85006">
        <ele>1100</ele>
        <time>2019-05-31T10:43:42.534Z</time>
      </trkpt>
      <trkpt lat="45.4361" lon="3.85008">
        <ele>1100</ele>
        <time>2019-05-31T10:43:47.551Z</time>
      </trkpt>
      <trkpt lat="45.43604" lon="3.85014">
        <ele>1094</ele>
        <time>2019-05-31T10:43:52.543Z</time>
      </trkpt>
      <trkpt lat="45.43597" lon="3.8502">
        <ele>1094</ele>
        <time>2019-05-31T10:43:57.556Z</time>
      </trkpt>
      <trkpt lat="45.43592" lon="3.85023">
        <ele>1099</ele>
        <time>2019-05-31T10:44:02.584Z</time>
      </trkpt>
      <trkpt lat="45.43586" lon="3.85029">
        <ele>1099</ele>
        <time>2019-05-31T10:44:07.545Z</time>
      </trkpt>
      <trkpt lat="45.43577" lon="3.85033">
        <ele>1099</ele>
        <time>2019-05-31T10:44:12.545Z</time>
      </trkpt>
      <trkpt lat="45.43567" lon="3.85035">
        <ele>1105</ele>
        <time>2019-05-31T10:44:17.529Z</time>
      </trkpt>
      <trkpt lat="45.43563" lon="3.85038">
        <ele>1105</ele>
        <time>2019-05-31T10:44:21.545Z</time>
      </trkpt>
      <trkpt lat="45.43559" lon="3.8504">
        <ele>1105</ele>
        <time>2019-05-31T10:44:25.552Z</time>
      </trkpt>
      <trkpt lat="45.43555" lon="3.85045">
        <ele>1098</ele>
        <time>2019-05-31T10:44:30.549Z</time>
      </trkpt>
      <trkpt lat="45.43548" lon="3.85048">
        <ele>1098</ele>
        <time>2019-05-31T10:44:35.546Z</time>
      </trkpt>
      <trkpt lat="45.43544" lon="3.85052">
        <ele>1098</ele>
        <time>2019-05-31T10:44:40.525Z</time>
      </trkpt>
      <trkpt lat="45.4354" lon="3.85054">
        <ele>1102</ele>
        <time>2019-05-31T10:44:44.562Z</time>
      </trkpt>
      <trkpt lat="45.43533" lon="3.85059">
        <ele>1102</ele>
        <time>2019-05-31T10:44:49.523Z</time>
      </trkpt>
      <trkpt lat="45.43528" lon="3.85065">
        <ele>1102</ele>
        <time>2019-05-31T10:44:53.536Z</time>
      </trkpt>
      <trkpt lat="45.43516" lon="3.85073">
        <ele>1090</ele>
        <time>2019-05-31T10:44:58.527Z</time>
      </trkpt>
      <trkpt lat="45.43513" lon="3.85075">
        <ele>1091</ele>
        <time>2019-05-31T10:45:02.556Z</time>
      </trkpt>
      <trkpt lat="45.43511" lon="3.85079">
        <ele>1091</ele>
        <time>2019-05-31T10:45:07.546Z</time>
      </trkpt>
      <trkpt lat="45.43505" lon="3.85082">
        <ele>1091</ele>
        <time>2019-05-31T10:45:12.626Z</time>
      </trkpt>
      <trkpt lat="45.43499" lon="3.85091">
        <ele>1091</ele>
        <time>2019-05-31T10:45:17.551Z</time>
      </trkpt>
      <trkpt lat="45.4349" lon="3.85098">
        <ele>1074</ele>
        <time>2019-05-31T10:45:22.541Z</time>
      </trkpt>
      <trkpt lat="45.43487" lon="3.85099">
        <ele>1074</ele>
        <time>2019-05-31T10:45:26.601Z</time>
      </trkpt>
      <trkpt lat="45.4348" lon="3.85108">
        <ele>1072</ele>
        <time>2019-05-31T10:46:37.523Z</time>
      </trkpt>
      <trkpt lat="45.43479" lon="3.85109">
        <ele>1072</ele>
        <time>2019-05-31T10:46:41.547Z</time>
      </trkpt>
      <trkpt lat="45.43475" lon="3.8511">
        <ele>1072</ele>
        <time>2019-05-31T10:46:46.543Z</time>
      </trkpt>
      <trkpt lat="45.43471" lon="3.85115">
        <ele>1072</ele>
        <time>2019-05-31T10:46:51.538Z</time>
      </trkpt>
      <trkpt lat="45.43467" lon="3.85115">
        <ele>1072</ele>
        <time>2019-05-31T10:46:55.555Z</time>
      </trkpt>
      <trkpt lat="45.43461" lon="3.85105">
        <ele>1072</ele>
        <time>2019-05-31T10:48:03.547Z</time>
      </trkpt>
      <trkpt lat="45.43451" lon="3.85102">
        <ele>1075</ele>
        <time>2019-05-31T11:38:02.721Z</time>
      </trkpt>
      <trkpt lat="45.43446" lon="3.85103">
        <ele>1075</ele>
        <time>2019-05-31T11:38:08.021Z</time>
      </trkpt>
      <trkpt lat="45.43445" lon="3.85105">
        <ele>1075</ele>
        <time>2019-05-31T11:38:12.980Z</time>
      </trkpt>
      <trkpt lat="45.43437" lon="3.85108">
        <ele>1075</ele>
        <time>2019-05-31T11:38:17.986Z</time>
      </trkpt>
      <trkpt lat="45.43431" lon="3.85112">
        <ele>1075</ele>
        <time>2019-05-31T11:38:21.977Z</time>
      </trkpt>
      <trkpt lat="45.43425" lon="3.85113">
        <ele>1080</ele>
        <time>2019-05-31T11:38:25.983Z</time>
      </trkpt>
      <trkpt lat="45.43417" lon="3.85114">
        <ele>1080</ele>
        <time>2019-05-31T11:38:31.010Z</time>
      </trkpt>
      <trkpt lat="45.43411" lon="3.85113">
        <ele>1080</ele>
        <time>2019-05-31T11:38:36.017Z</time>
      </trkpt>
      <trkpt lat="45.43404" lon="3.8511">
        <ele>1080</ele>
        <time>2019-05-31T11:38:41.008Z</time>
      </trkpt>
      <trkpt lat="45.43398" lon="3.85109">
        <ele>1084</ele>
        <time>2019-05-31T11:38:45.015Z</time>
      </trkpt>
      <trkpt lat="45.43397" lon="3.85112">
        <ele>1084</ele>
        <time>2019-05-31T11:38:49.988Z</time>
      </trkpt>
      <trkpt lat="45.43393" lon="3.85113">
        <ele>1084</ele>
        <time>2019-05-31T11:38:53.984Z</time>
      </trkpt>
      <trkpt lat="45.43384" lon="3.85111">
        <ele>1084</ele>
        <time>2019-05-31T11:39:20.007Z</time>
      </trkpt>
      <trkpt lat="45.43382" lon="3.85112">
        <ele>1084</ele>
        <time>2019-05-31T11:39:24.972Z</time>
      </trkpt>
      <trkpt lat="45.43382" lon="3.85115">
        <ele>1084</ele>
        <time>2019-05-31T11:39:28.977Z</time>
      </trkpt>
      <trkpt lat="45.43377" lon="3.85118">
        <ele>1084</ele>
        <time>2019-05-31T11:39:33.989Z</time>
      </trkpt>
      <trkpt lat="45.4337" lon="3.85125">
        <ele>1089</ele>
        <time>2019-05-31T11:39:38.981Z</time>
      </trkpt>
      <trkpt lat="45.43363" lon="3.85127">
        <ele>1081</ele>
        <time>2019-05-31T11:39:44.014Z</time>
      </trkpt>
      <trkpt lat="45.43357" lon="3.8513">
        <ele>1081</ele>
        <time>2019-05-31T11:39:49.006Z</time>
      </trkpt>
      <trkpt lat="45.43349" lon="3.85136">
        <ele>1081</ele>
        <time>2019-05-31T11:39:54.009Z</time>
      </trkpt>
      <trkpt lat="45.43344" lon="3.85142">
        <ele>1082</ele>
        <time>2019-05-31T11:39:58.010Z</time>
      </trkpt>
      <trkpt lat="45.43335" lon="3.85145">
        <ele>1082</ele>
        <time>2019-05-31T11:40:03.014Z</time>
      </trkpt>
      <trkpt lat="45.4333" lon="3.85148">
        <ele>1082</ele>
        <time>2019-05-31T11:40:07.987Z</time>
      </trkpt>
      <trkpt lat="45.43327" lon="3.8515">
        <ele>1082</ele>
        <time>2019-05-31T11:40:12.002Z</time>
      </trkpt>
      <trkpt lat="45.43322" lon="3.85158">
        <ele>1073</ele>
        <time>2019-05-31T11:40:16.986Z</time>
      </trkpt>
      <trkpt lat="45.43317" lon="3.85159">
        <ele>1071</ele>
        <time>2019-05-31T11:40:20.994Z</time>
      </trkpt>
      <trkpt lat="45.43311" lon="3.85165">
        <ele>1071</ele>
        <time>2019-05-31T11:40:26.008Z</time>
      </trkpt>
      <trkpt lat="45.43303" lon="3.85168">
        <ele>1071</ele>
        <time>2019-05-31T11:40:30.008Z</time>
      </trkpt>
      <trkpt lat="45.43296" lon="3.8517">
        <ele>1071</ele>
        <time>2019-05-31T11:40:35.013Z</time>
      </trkpt>
      <trkpt lat="45.43287" lon="3.85178">
        <ele>1076</ele>
        <time>2019-05-31T11:40:40.013Z</time>
      </trkpt>
      <trkpt lat="45.4328" lon="3.85183">
        <ele>1071</ele>
        <time>2019-05-31T11:40:44.993Z</time>
      </trkpt>
      <trkpt lat="45.43277" lon="3.85193">
        <ele>1071</ele>
        <time>2019-05-31T11:40:49.998Z</time>
      </trkpt>
      <trkpt lat="45.43271" lon="3.85199">
        <ele>1071</ele>
        <time>2019-05-31T11:40:54.999Z</time>
      </trkpt>
      <trkpt lat="45.43265" lon="3.85202">
        <ele>1071</ele>
        <time>2019-05-31T11:41:00.012Z</time>
      </trkpt>
      <trkpt lat="45.43261" lon="3.85204">
        <ele>1079</ele>
        <time>2019-05-31T11:41:04.011Z</time>
      </trkpt>
      <trkpt lat="45.43252" lon="3.85208">
        <ele>1079</ele>
        <time>2019-05-31T11:41:08.018Z</time>
      </trkpt>
      <trkpt lat="45.43245" lon="3.85212">
        <ele>1079</ele>
        <time>2019-05-31T11:41:13.014Z</time>
      </trkpt>
      <trkpt lat="45.43241" lon="3.85219">
        <ele>1079</ele>
        <time>2019-05-31T11:41:18.011Z</time>
      </trkpt>
      <trkpt lat="45.43238" lon="3.85225">
        <ele>1079</ele>
        <time>2019-05-31T11:41:22.972Z</time>
      </trkpt>
      <trkpt lat="45.43236" lon="3.8523">
        <ele>1084</ele>
        <time>2019-05-31T11:41:26.994Z</time>
      </trkpt>
      <trkpt lat="45.43228" lon="3.85235">
        <ele>1084</ele>
        <time>2019-05-31T11:41:31.982Z</time>
      </trkpt>
      <trkpt lat="45.4322" lon="3.8524">
        <ele>1081</ele>
        <time>2019-05-31T11:41:36.988Z</time>
      </trkpt>
      <trkpt lat="45.43214" lon="3.85245">
        <ele>1081</ele>
        <time>2019-05-31T11:41:41.004Z</time>
      </trkpt>
      <trkpt lat="45.43209" lon="3.85249">
        <ele>1081</ele>
        <time>2019-05-31T11:41:45.009Z</time>
      </trkpt>
      <trkpt lat="45.43207" lon="3.85253">
        <ele>1082</ele>
        <time>2019-05-31T11:41:50.009Z</time>
      </trkpt>
      <trkpt lat="45.43197" lon="3.85256">
        <ele>1082</ele>
        <time>2019-05-31T11:41:59.994Z</time>
      </trkpt>
      <trkpt lat="45.43192" lon="3.85251">
        <ele>1082</ele>
        <time>2019-05-31T11:42:04.993Z</time>
      </trkpt>
      <trkpt lat="45.43192" lon="3.85251">
        <ele>1082</ele>
        <time>2019-05-31T11:42:09.986Z</time>
      </trkpt>
      <trkpt lat="45.43192" lon="3.85251">
        <ele>1082</ele>
        <time>2019-05-31T11:42:13.994Z</time>
      </trkpt>
      <trkpt lat="45.43189" lon="3.8525">
        <ele>1082</ele>
        <time>2019-05-31T11:42:18.999Z</time>
      </trkpt>
      <trkpt lat="45.43188" lon="3.8525">
        <ele>1082</ele>
        <time>2019-05-31T11:42:23.018Z</time>
      </trkpt>
      <trkpt lat="45.43188" lon="3.85252">
        <ele>1082</ele>
        <time>2019-05-31T11:42:27.995Z</time>
      </trkpt>
      <trkpt lat="45.43193" lon="3.85264">
        <ele>1077</ele>
        <time>2019-05-31T11:42:32.002Z</time>
      </trkpt>
      <trkpt lat="45.43194" lon="3.85267">
        <ele>1077</ele>
        <time>2019-05-31T11:42:37.001Z</time>
      </trkpt>
      <trkpt lat="45.43194" lon="3.85268">
        <ele>1077</ele>
        <time>2019-05-31T11:42:41.985Z</time>
      </trkpt>
      <trkpt lat="45.43193" lon="3.85269">
        <ele>1077</ele>
        <time>2019-05-31T11:42:45.988Z</time>
      </trkpt>
      <trkpt lat="45.43186" lon="3.8527">
        <ele>1077</ele>
        <time>2019-05-31T11:42:50.982Z</time>
      </trkpt>
      <trkpt lat="45.4318" lon="3.85267">
        <ele>1075</ele>
        <time>2019-05-31T11:42:54.987Z</time>
      </trkpt>
      <trkpt lat="45.43173" lon="3.85265">
        <ele>1075</ele>
        <time>2019-05-31T11:42:58.997Z</time>
      </trkpt>
      <trkpt lat="45.43166" lon="3.85264">
        <ele>1080</ele>
        <time>2019-05-31T11:43:03.011Z</time>
      </trkpt>
      <trkpt lat="45.43156" lon="3.85264">
        <ele>1075</ele>
        <time>2019-05-31T11:43:08.006Z</time>
      </trkpt>
      <trkpt lat="45.43152" lon="3.85259">
        <ele>1077</ele>
        <time>2019-05-31T11:43:13.005Z</time>
      </trkpt>
      <trkpt lat="45.43151" lon="3.85259">
        <ele>1077</ele>
        <time>2019-05-31T11:43:17.026Z</time>
      </trkpt>
      <trkpt lat="45.4315" lon="3.8526">
        <ele>1077</ele>
        <time>2019-05-31T11:43:21.998Z</time>
      </trkpt>
      <trkpt lat="45.43143" lon="3.85257">
        <ele>1077</ele>
        <time>2019-05-31T11:43:26.994Z</time>
      </trkpt>
      <trkpt lat="45.43142" lon="3.85259">
        <ele>1077</ele>
        <time>2019-05-31T11:43:31.982Z</time>
      </trkpt>
      <trkpt lat="45.43141" lon="3.85257">
        <ele>1077</ele>
        <time>2019-05-31T11:43:35.989Z</time>
      </trkpt>
      <trkpt lat="45.43145" lon="3.85256">
        <ele>1077</ele>
        <time>2019-05-31T11:43:41.014Z</time>
      </trkpt>
      <trkpt lat="45.4315" lon="3.8526">
        <ele>1077</ele>
        <time>2019-05-31T11:43:45.995Z</time>
      </trkpt>
      <trkpt lat="45.43152" lon="3.85261">
        <ele>1077</ele>
        <time>2019-05-31T11:43:51.002Z</time>
      </trkpt>
      <trkpt lat="45.43156" lon="3.85252">
        <ele>1080</ele>
        <time>2019-05-31T11:44:41.014Z</time>
      </trkpt>
      <trkpt lat="45.43156" lon="3.85251">
        <ele>1080</ele>
        <time>2019-05-31T11:44:45.986Z</time>
      </trkpt>
      <trkpt lat="45.43155" lon="3.8525">
        <ele>1080</ele>
        <time>2019-05-31T11:44:50.973Z</time>
      </trkpt>
      <trkpt lat="45.43155" lon="3.85249">
        <ele>1080</ele>
        <time>2019-05-31T11:44:55.982Z</time>
      </trkpt>
      <trkpt lat="45.43155" lon="3.85248">
        <ele>1080</ele>
        <time>2019-05-31T11:45:00Z</time>
      </trkpt>
      <trkpt lat="45.43151" lon="3.85252">
        <ele>1077</ele>
        <time>2019-05-31T11:48:24.970Z</time>
      </trkpt>
      <trkpt lat="45.43145" lon="3.85251">
        <ele>1077</ele>
        <time>2019-05-31T11:48:29.989Z</time>
      </trkpt>
      <trkpt lat="45.4314" lon="3.85251">
        <ele>1077</ele>
        <time>2019-05-31T11:48:34.963Z</time>
      </trkpt>
      <trkpt lat="45.43138" lon="3.85253">
        <ele>1077</ele>
        <time>2019-05-31T11:48:39.011Z</time>
      </trkpt>
      <trkpt lat="45.43132" lon="3.85257">
        <ele>1077</ele>
        <time>2019-05-31T11:48:43.999Z</time>
      </trkpt>
      <trkpt lat="45.43128" lon="3.85264">
        <ele>1073</ele>
        <time>2019-05-31T11:48:48.987Z</time>
      </trkpt>
      <trkpt lat="45.43126" lon="3.85265">
        <ele>1073</ele>
        <time>2019-05-31T11:48:53Z</time>
      </trkpt>
      <trkpt lat="45.43122" lon="3.85266">
        <ele>1070</ele>
        <time>2019-05-31T11:48:58.028Z</time>
      </trkpt>
      <trkpt lat="45.43119" lon="3.85267">
        <ele>1070</ele>
        <time>2019-05-31T11:49:03.020Z</time>
      </trkpt>
      <trkpt lat="45.43117" lon="3.85268">
        <ele>1070</ele>
        <time>2019-05-31T11:49:53.962Z</time>
      </trkpt>
      <trkpt lat="45.43116" lon="3.85271">
        <ele>1070</ele>
        <time>2019-05-31T11:49:57.973Z</time>
      </trkpt>
      <trkpt lat="45.43115" lon="3.85278">
        <ele>1070</ele>
        <time>2019-05-31T11:50:01.980Z</time>
      </trkpt>
      <trkpt lat="45.4311" lon="3.85285">
        <ele>1070</ele>
        <time>2019-05-31T11:50:06.966Z</time>
      </trkpt>
      <trkpt lat="45.43108" lon="3.85293">
        <ele>1067</ele>
        <time>2019-05-31T11:50:11.982Z</time>
      </trkpt>
      <trkpt lat="45.43103" lon="3.85299">
        <ele>1067</ele>
        <time>2019-05-31T11:50:16.012Z</time>
      </trkpt>
      <trkpt lat="45.43099" lon="3.85307">
        <ele>1067</ele>
        <time>2019-05-31T11:50:21.009Z</time>
      </trkpt>
      <trkpt lat="45.43096" lon="3.85308">
        <ele>1065</ele>
        <time>2019-05-31T11:50:25.985Z</time>
      </trkpt>
      <trkpt lat="45.43096" lon="3.85308">
        <ele>1065</ele>
        <time>2019-05-31T11:50:30.968Z</time>
      </trkpt>
      <trkpt lat="45.43096" lon="3.85309">
        <ele>1065</ele>
        <time>2019-05-31T11:50:34.982Z</time>
      </trkpt>
      <trkpt lat="45.43096" lon="3.85309">
        <ele>1065</ele>
        <time>2019-05-31T11:50:38.997Z</time>
      </trkpt>
      <trkpt lat="45.43096" lon="3.8531">
        <ele>1065</ele>
        <time>2019-05-31T11:50:43.990Z</time>
      </trkpt>
      <trkpt lat="45.43097" lon="3.85316">
        <ele>1065</ele>
        <time>2019-05-31T11:50:48.010Z</time>
      </trkpt>
      <trkpt lat="45.43094" lon="3.85324">
        <ele>1065</ele>
        <time>2019-05-31T11:50:53.012Z</time>
      </trkpt>
      <trkpt lat="45.43092" lon="3.85331">
        <ele>1065</ele>
        <time>2019-05-31T11:50:57.006Z</time>
      </trkpt>
      <trkpt lat="45.4309" lon="3.8534">
        <ele>1065</ele>
        <time>2019-05-31T11:51:02.028Z</time>
      </trkpt>
      <trkpt lat="45.43088" lon="3.85348">
        <ele>1062</ele>
        <time>2019-05-31T11:51:06.994Z</time>
      </trkpt>
      <trkpt lat="45.43087" lon="3.85357">
        <ele>1062</ele>
        <time>2019-05-31T11:51:11.987Z</time>
      </trkpt>
      <trkpt lat="45.43085" lon="3.85365">
        <ele>1062</ele>
        <time>2019-05-31T11:51:16.988Z</time>
      </trkpt>
      <trkpt lat="45.43084" lon="3.85373">
        <ele>1062</ele>
        <time>2019-05-31T11:51:21.986Z</time>
      </trkpt>
      <trkpt lat="45.43082" lon="3.85381">
        <ele>1065</ele>
        <time>2019-05-31T11:51:27.005Z</time>
      </trkpt>
      <trkpt lat="45.43078" lon="3.85387">
        <ele>1065</ele>
        <time>2019-05-31T11:51:32.004Z</time>
      </trkpt>
      <trkpt lat="45.43075" lon="3.85394">
        <ele>1065</ele>
        <time>2019-05-31T11:51:35.978Z</time>
      </trkpt>
      <trkpt lat="45.43074" lon="3.85403">
        <ele>1064</ele>
        <time>2019-05-31T11:51:41.020Z</time>
      </trkpt>
      <trkpt lat="45.43074" lon="3.85411">
        <ele>1064</ele>
        <time>2019-05-31T11:51:45.987Z</time>
      </trkpt>
      <trkpt lat="45.43074" lon="3.85413">
        <ele>1064</ele>
        <time>2019-05-31T11:51:49.997Z</time>
      </trkpt>
      <trkpt lat="45.4307" lon="3.85423">
        <ele>1064</ele>
        <time>2019-05-31T11:51:55.003Z</time>
      </trkpt>
      <trkpt lat="45.43066" lon="3.85429">
        <ele>1069</ele>
        <time>2019-05-31T11:51:59.993Z</time>
      </trkpt>
      <trkpt lat="45.43059" lon="3.85435">
        <ele>1067</ele>
        <time>2019-05-31T11:52:04.011Z</time>
      </trkpt>
      <trkpt lat="45.43052" lon="3.85441">
        <ele>1067</ele>
        <time>2019-05-31T11:52:09.013Z</time>
      </trkpt>
      <trkpt lat="45.43047" lon="3.85445">
        <ele>1067</ele>
        <time>2019-05-31T11:52:14.002Z</time>
      </trkpt>
      <trkpt lat="45.43042" lon="3.85447">
        <ele>1069</ele>
        <time>2019-05-31T11:52:19.012Z</time>
      </trkpt>
      <trkpt lat="45.43032" lon="3.85448">
        <ele>1069</ele>
        <time>2019-05-31T11:52:24.002Z</time>
      </trkpt>
      <trkpt lat="45.43027" lon="3.85448">
        <ele>1069</ele>
        <time>2019-05-31T11:52:27.986Z</time>
      </trkpt>
      <trkpt lat="45.43023" lon="3.8545">
        <ele>1069</ele>
        <time>2019-05-31T11:52:32.987Z</time>
      </trkpt>
      <trkpt lat="45.43017" lon="3.85453">
        <ele>1069</ele>
        <time>2019-05-31T11:52:37.987Z</time>
      </trkpt>
      <trkpt lat="45.43011" lon="3.85458">
        <ele>1071</ele>
        <time>2019-05-31T11:52:42.964Z</time>
      </trkpt>
      <trkpt lat="45.43006" lon="3.85459">
        <ele>1065</ele>
        <time>2019-05-31T11:52:47.011Z</time>
      </trkpt>
      <trkpt lat="45.43001" lon="3.85463">
        <ele>1065</ele>
        <time>2019-05-31T11:52:52.007Z</time>
      </trkpt>
      <trkpt lat="45.42995" lon="3.85465">
        <ele>1065</ele>
        <time>2019-05-31T11:52:56.024Z</time>
      </trkpt>
      <trkpt lat="45.4299" lon="3.85468">
        <ele>1065</ele>
        <time>2019-05-31T11:52:59.986Z</time>
      </trkpt>
      <trkpt lat="45.42983" lon="3.85472">
        <ele>1067</ele>
        <time>2019-05-31T11:53:04.993Z</time>
      </trkpt>
      <trkpt lat="45.42974" lon="3.85473">
        <ele>1067</ele>
        <time>2019-05-31T11:53:09.981Z</time>
      </trkpt>
      <trkpt lat="45.42966" lon="3.85478">
        <ele>1067</ele>
        <time>2019-05-31T11:53:14.960Z</time>
      </trkpt>
      <trkpt lat="45.42961" lon="3.85482">
        <ele>1067</ele>
        <time>2019-05-31T11:53:19.006Z</time>
      </trkpt>
      <trkpt lat="45.42957" lon="3.85485">
        <ele>1071</ele>
        <time>2019-05-31T11:53:23.022Z</time>
      </trkpt>
      <trkpt lat="45.42952" lon="3.85487">
        <ele>1067</ele>
        <time>2019-05-31T11:53:28.010Z</time>
      </trkpt>
      <trkpt lat="45.42948" lon="3.85493">
        <ele>1067</ele>
        <time>2019-05-31T11:53:33.004Z</time>
      </trkpt>
      <trkpt lat="45.42944" lon="3.85496">
        <ele>1067</ele>
        <time>2019-05-31T11:53:37.005Z</time>
      </trkpt>
      <trkpt lat="45.42939" lon="3.855">
        <ele>1067</ele>
        <time>2019-05-31T11:53:41.988Z</time>
      </trkpt>
      <trkpt lat="45.42938" lon="3.85511">
        <ele>1067</ele>
        <time>2019-05-31T11:53:46.991Z</time>
      </trkpt>
      <trkpt lat="45.42936" lon="3.85521">
        <ele>1062</ele>
        <time>2019-05-31T11:53:51.986Z</time>
      </trkpt>
      <trkpt lat="45.42936" lon="3.85525">
        <ele>1062</ele>
        <time>2019-05-31T11:53:55.986Z</time>
      </trkpt>
      <trkpt lat="45.42935" lon="3.85534">
        <ele>1062</ele>
        <time>2019-05-31T11:54:01.014Z</time>
      </trkpt>
      <trkpt lat="45.42935" lon="3.85539">
        <ele>1062</ele>
        <time>2019-05-31T11:54:05.068Z</time>
      </trkpt>
      <trkpt lat="45.42936" lon="3.85545">
        <ele>1056</ele>
        <time>2019-05-31T11:54:10.003Z</time>
      </trkpt>
      <trkpt lat="45.42937" lon="3.85552">
        <ele>1056</ele>
        <time>2019-05-31T11:54:15.007Z</time>
      </trkpt>
      <trkpt lat="45.42939" lon="3.8556">
        <ele>1056</ele>
        <time>2019-05-31T11:54:18.988Z</time>
      </trkpt>
      <trkpt lat="45.42938" lon="3.85567">
        <ele>1056</ele>
        <time>2019-05-31T11:54:23.987Z</time>
      </trkpt>
      <trkpt lat="45.42934" lon="3.85573">
        <ele>1051</ele>
        <time>2019-05-31T11:54:28.985Z</time>
      </trkpt>
      <trkpt lat="45.4293" lon="3.85578">
        <ele>1052</ele>
        <time>2019-05-31T11:54:34.001Z</time>
      </trkpt>
      <trkpt lat="45.42923" lon="3.85584">
        <ele>1052</ele>
        <time>2019-05-31T11:54:38.997Z</time>
      </trkpt>
      <trkpt lat="45.42917" lon="3.85586">
        <ele>1052</ele>
        <time>2019-05-31T11:54:42.982Z</time>
      </trkpt>
      <trkpt lat="45.42912" lon="3.85588">
        <ele>1052</ele>
        <time>2019-05-31T11:54:46.988Z</time>
      </trkpt>
      <trkpt lat="45.42904" lon="3.85592">
        <ele>1052</ele>
        <time>2019-05-31T11:54:51.974Z</time>
      </trkpt>
      <trkpt lat="45.42895" lon="3.85593">
        <ele>1058</ele>
        <time>2019-05-31T11:54:56.977Z</time>
      </trkpt>
      <trkpt lat="45.42892" lon="3.85597">
        <ele>1058</ele>
        <time>2019-05-31T11:55:01.957Z</time>
      </trkpt>
      <trkpt lat="45.42886" lon="3.856">
        <ele>1050</ele>
        <time>2019-05-31T11:55:05.996Z</time>
      </trkpt>
      <trkpt lat="45.4288" lon="3.85605">
        <ele>1050</ele>
        <time>2019-05-31T11:55:10.981Z</time>
      </trkpt>
      <trkpt lat="45.42874" lon="3.85609">
        <ele>1057</ele>
        <time>2019-05-31T11:55:15.984Z</time>
      </trkpt>
      <trkpt lat="45.42868" lon="3.85614">
        <ele>1057</ele>
        <time>2019-05-31T11:55:20.992Z</time>
      </trkpt>
      <trkpt lat="45.42864" lon="3.85616">
        <ele>1057</ele>
        <time>2019-05-31T11:55:24.989Z</time>
      </trkpt>
      <trkpt lat="45.42863" lon="3.85622">
        <ele>1057</ele>
        <time>2019-05-31T11:55:29.991Z</time>
      </trkpt>
      <trkpt lat="45.42859" lon="3.85628">
        <ele>1052</ele>
        <time>2019-05-31T11:55:34.992Z</time>
      </trkpt>
      <trkpt lat="45.42855" lon="3.85635">
        <ele>1052</ele>
        <time>2019-05-31T11:55:38.993Z</time>
      </trkpt>
      <trkpt lat="45.42848" lon="3.85639">
        <ele>1052</ele>
        <time>2019-05-31T11:55:43.964Z</time>
      </trkpt>
      <trkpt lat="45.42843" lon="3.85646">
        <ele>1059</ele>
        <time>2019-05-31T11:55:47.979Z</time>
      </trkpt>
      <trkpt lat="45.42838" lon="3.85652">
        <ele>1059</ele>
        <time>2019-05-31T11:55:52.980Z</time>
      </trkpt>
      <trkpt lat="45.42834" lon="3.85657">
        <ele>1055</ele>
        <time>2019-05-31T11:55:57.953Z</time>
      </trkpt>
      <trkpt lat="45.4283" lon="3.85664">
        <ele>1055</ele>
        <time>2019-05-31T11:56:01.991Z</time>
      </trkpt>
      <trkpt lat="45.42823" lon="3.85671">
        <ele>1055</ele>
        <time>2019-05-31T11:56:06.989Z</time>
      </trkpt>
      <trkpt lat="45.42818" lon="3.85677">
        <ele>1063</ele>
        <time>2019-05-31T11:56:11.988Z</time>
      </trkpt>
      <trkpt lat="45.42816" lon="3.85682">
        <ele>1058</ele>
        <time>2019-05-31T11:56:16.990Z</time>
      </trkpt>
      <trkpt lat="45.42815" lon="3.85691">
        <ele>1058</ele>
        <time>2019-05-31T11:56:21.991Z</time>
      </trkpt>
      <trkpt lat="45.42811" lon="3.85696">
        <ele>1058</ele>
        <time>2019-05-31T11:56:25.988Z</time>
      </trkpt>
      <trkpt lat="45.42807" lon="3.85704">
        <ele>1058</ele>
        <time>2019-05-31T11:56:30.964Z</time>
      </trkpt>
      <trkpt lat="45.42805" lon="3.85711">
        <ele>1050</ele>
        <time>2019-05-31T11:56:34.982Z</time>
      </trkpt>
      <trkpt lat="45.42803" lon="3.85717">
        <ele>1050</ele>
        <time>2019-05-31T11:56:38.986Z</time>
      </trkpt>
      <trkpt lat="45.42801" lon="3.85725">
        <ele>1050</ele>
        <time>2019-05-31T11:56:43.995Z</time>
      </trkpt>
      <trkpt lat="45.42797" lon="3.8573">
        <ele>1050</ele>
        <time>2019-05-31T11:56:48.981Z</time>
      </trkpt>
      <trkpt lat="45.42794" lon="3.85736">
        <ele>1043</ele>
        <time>2019-05-31T11:56:52.990Z</time>
      </trkpt>
      <trkpt lat="45.42791" lon="3.85746">
        <ele>1055</ele>
        <time>2019-05-31T11:56:57.983Z</time>
      </trkpt>
      <trkpt lat="45.42787" lon="3.85753">
        <ele>1055</ele>
        <time>2019-05-31T11:57:01.996Z</time>
      </trkpt>
      <trkpt lat="45.42784" lon="3.85763">
        <ele>1055</ele>
        <time>2019-05-31T11:57:06.984Z</time>
      </trkpt>
      <trkpt lat="45.4278" lon="3.85773">
        <ele>1051</ele>
        <time>2019-05-31T11:57:10.986Z</time>
      </trkpt>
      <trkpt lat="45.42777" lon="3.85779">
        <ele>1051</ele>
        <time>2019-05-31T11:57:14.991Z</time>
      </trkpt>
      <trkpt lat="45.42775" lon="3.85787">
        <ele>1051</ele>
        <time>2019-05-31T11:57:20.012Z</time>
      </trkpt>
      <trkpt lat="45.42769" lon="3.85797">
        <ele>1048</ele>
        <time>2019-05-31T11:57:25.033Z</time>
      </trkpt>
      <trkpt lat="45.42765" lon="3.85803">
        <ele>1048</ele>
        <time>2019-05-31T11:57:30Z</time>
      </trkpt>
      <trkpt lat="45.42764" lon="3.85807">
        <ele>1048</ele>
        <time>2019-05-31T11:57:34.992Z</time>
      </trkpt>
      <trkpt lat="45.42762" lon="3.85815">
        <ele>1058</ele>
        <time>2019-05-31T11:57:39.983Z</time>
      </trkpt>
      <trkpt lat="45.42761" lon="3.8582">
        <ele>1053</ele>
        <time>2019-05-31T11:57:44.985Z</time>
      </trkpt>
      <trkpt lat="45.42759" lon="3.85824">
        <ele>1053</ele>
        <time>2019-05-31T11:57:48.987Z</time>
      </trkpt>
      <trkpt lat="45.42755" lon="3.85828">
        <ele>1053</ele>
        <time>2019-05-31T11:57:53.989Z</time>
      </trkpt>
      <trkpt lat="45.42752" lon="3.85831">
        <ele>1053</ele>
        <time>2019-05-31T11:57:58.985Z</time>
      </trkpt>
      <trkpt lat="45.42748" lon="3.85836">
        <ele>1053</ele>
        <time>2019-05-31T11:58:03.009Z</time>
      </trkpt>
      <trkpt lat="45.42747" lon="3.85838">
        <ele>1053</ele>
        <time>2019-05-31T11:58:06.989Z</time>
      </trkpt>
      <trkpt lat="45.42744" lon="3.85843">
        <ele>1053</ele>
        <time>2019-05-31T11:58:11.999Z</time>
      </trkpt>
      <trkpt lat="45.4274" lon="3.8585">
        <ele>1048</ele>
        <time>2019-05-31T11:58:16.991Z</time>
      </trkpt>
      <trkpt lat="45.42736" lon="3.85858">
        <ele>1051</ele>
        <time>2019-05-31T11:58:21.995Z</time>
      </trkpt>
      <trkpt lat="45.42731" lon="3.85866">
        <ele>1051</ele>
        <time>2019-05-31T11:58:26.988Z</time>
      </trkpt>
      <trkpt lat="45.42729" lon="3.85868">
        <ele>1051</ele>
        <time>2019-05-31T11:58:31.973Z</time>
      </trkpt>
      <trkpt lat="45.42727" lon="3.85877">
        <ele>1049</ele>
        <time>2019-05-31T11:58:35.980Z</time>
      </trkpt>
      <trkpt lat="45.42719" lon="3.85883">
        <ele>1049</ele>
        <time>2019-05-31T11:58:40.952Z</time>
      </trkpt>
      <trkpt lat="45.42713" lon="3.8589">
        <ele>1049</ele>
        <time>2019-05-31T11:58:44.960Z</time>
      </trkpt>
      <trkpt lat="45.42707" lon="3.85902">
        <ele>1055</ele>
        <time>2019-05-31T11:58:48.973Z</time>
      </trkpt>
      <trkpt lat="45.42698" lon="3.8591">
        <ele>1050</ele>
        <time>2019-05-31T11:58:53.965Z</time>
      </trkpt>
      <trkpt lat="45.42693" lon="3.85914">
        <ele>1050</ele>
        <time>2019-05-31T11:58:58.965Z</time>
      </trkpt>
      <trkpt lat="45.42685" lon="3.85917">
        <ele>1050</ele>
        <time>2019-05-31T11:59:02.967Z</time>
      </trkpt>
      <trkpt lat="45.42683" lon="3.85928">
        <ele>1050</ele>
        <time>2019-05-31T11:59:07.968Z</time>
      </trkpt>
      <trkpt lat="45.42675" lon="3.85931">
        <ele>1047</ele>
        <time>2019-05-31T11:59:12.965Z</time>
      </trkpt>
      <trkpt lat="45.42672" lon="3.85937">
        <ele>1047</ele>
        <time>2019-05-31T11:59:17.966Z</time>
      </trkpt>
      <trkpt lat="45.42667" lon="3.8594">
        <ele>1047</ele>
        <time>2019-05-31T11:59:22.980Z</time>
      </trkpt>
      <trkpt lat="45.42665" lon="3.85946">
        <ele>1047</ele>
        <time>2019-05-31T11:59:26.974Z</time>
      </trkpt>
      <trkpt lat="45.42661" lon="3.8595">
        <ele>1047</ele>
        <time>2019-05-31T11:59:30.966Z</time>
      </trkpt>
      <trkpt lat="45.42657" lon="3.85956">
        <ele>1047</ele>
        <time>2019-05-31T11:59:35.968Z</time>
      </trkpt>
      <trkpt lat="45.42654" lon="3.85959">
        <ele>1044</ele>
        <time>2019-05-31T11:59:40.965Z</time>
      </trkpt>
      <trkpt lat="45.42649" lon="3.85961">
        <ele>1041</ele>
        <time>2019-05-31T11:59:44.967Z</time>
      </trkpt>
      <trkpt lat="45.4264" lon="3.85963">
        <ele>1041</ele>
        <time>2019-05-31T11:59:49.965Z</time>
      </trkpt>
      <trkpt lat="45.42634" lon="3.85956">
        <ele>1044</ele>
        <time>2019-05-31T11:59:54.965Z</time>
      </trkpt>
      <trkpt lat="45.42632" lon="3.85952">
        <ele>1044</ele>
        <time>2019-05-31T11:59:58.962Z</time>
      </trkpt>
      <trkpt lat="45.42629" lon="3.8595">
        <ele>1044</ele>
        <time>2019-05-31T12:00:02.971Z</time>
      </trkpt>
      <trkpt lat="45.42619" lon="3.85943">
        <ele>1041</ele>
        <time>2019-05-31T12:00:07.964Z</time>
      </trkpt>
      <trkpt lat="45.42602" lon="3.85931">
        <ele>1041</ele>
        <time>2019-05-31T12:00:11.966Z</time>
      </trkpt>
      <trkpt lat="45.42584" lon="3.85919">
        <ele>1043</ele>
        <time>2019-05-31T12:00:16.966Z</time>
      </trkpt>
      <trkpt lat="45.4257" lon="3.85911">
        <ele>1043</ele>
        <time>2019-05-31T12:00:20.966Z</time>
      </trkpt>
      <trkpt lat="45.42557" lon="3.85902">
        <ele>1047</ele>
        <time>2019-05-31T12:00:25.969Z</time>
      </trkpt>
      <trkpt lat="45.42543" lon="3.85892">
        <ele>1047</ele>
        <time>2019-05-31T12:00:30.969Z</time>
      </trkpt>
      <trkpt lat="45.42526" lon="3.8588">
        <ele>1047</ele>
        <time>2019-05-31T12:00:34.970Z</time>
      </trkpt>
      <trkpt lat="45.42501" lon="3.85861">
        <ele>1050</ele>
        <time>2019-05-31T12:00:39.970Z</time>
      </trkpt>
      <trkpt lat="45.42474" lon="3.85846">
        <ele>1053</ele>
        <time>2019-05-31T12:00:44.968Z</time>
      </trkpt>
      <trkpt lat="45.42449" lon="3.85841">
        <ele>1055</ele>
        <time>2019-05-31T12:00:49.959Z</time>
      </trkpt>
      <trkpt lat="45.42424" lon="3.8583">
        <ele>1058</ele>
        <time>2019-05-31T12:00:54.966Z</time>
      </trkpt>
      <trkpt lat="45.42407" lon="3.85821">
        <ele>1058</ele>
        <time>2019-05-31T12:00:59.967Z</time>
      </trkpt>
      <trkpt lat="45.42402" lon="3.85819">
        <ele>1063</ele>
        <time>2019-05-31T12:01:03.965Z</time>
      </trkpt>
      <trkpt lat="45.42397" lon="3.85815">
        <ele>1063</ele>
        <time>2019-05-31T12:01:08.988Z</time>
      </trkpt>
      <trkpt lat="45.4239" lon="3.85824">
        <ele>1058</ele>
        <time>2019-05-31T12:01:36.989Z</time>
      </trkpt>
      <trkpt lat="45.42391" lon="3.85825">
        <ele>1058</ele>
        <time>2019-05-31T12:01:41.997Z</time>
      </trkpt>
      <trkpt lat="45.42388" lon="3.85836">
        <ele>1058</ele>
        <time>2019-05-31T12:01:46.973Z</time>
      </trkpt>
      <trkpt lat="45.42385" lon="3.85837">
        <ele>1058</ele>
        <time>2019-05-31T12:01:50.991Z</time>
      </trkpt>
      <trkpt lat="45.42384" lon="3.85836">
        <ele>1058</ele>
        <time>2019-05-31T12:01:55.972Z</time>
      </trkpt>
      <trkpt lat="45.42383" lon="3.85841">
        <ele>1058</ele>
        <time>2019-05-31T12:01:59.990Z</time>
      </trkpt>
      <trkpt lat="45.4238" lon="3.85846">
        <ele>1058</ele>
        <time>2019-05-31T12:02:03.991Z</time>
      </trkpt>
      <trkpt lat="45.42378" lon="3.85849">
        <ele>1056</ele>
        <time>2019-05-31T12:02:08.991Z</time>
      </trkpt>
      <trkpt lat="45.42374" lon="3.85848">
        <ele>1053</ele>
        <time>2019-05-31T12:02:13.994Z</time>
      </trkpt>
      <trkpt lat="45.42373" lon="3.8585">
        <ele>1053</ele>
        <time>2019-05-31T12:03:34.977Z</time>
      </trkpt>
      <trkpt lat="45.42373" lon="3.85852">
        <ele>1053</ele>
        <time>2019-05-31T12:03:39.960Z</time>
      </trkpt>
      <trkpt lat="45.42366" lon="3.85848">
        <ele>1053</ele>
        <time>2019-05-31T12:03:43.980Z</time>
      </trkpt>
      <trkpt lat="45.42362" lon="3.85847">
        <ele>1057</ele>
        <time>2019-05-31T12:03:49.012Z</time>
      </trkpt>
      <trkpt lat="45.42356" lon="3.85846">
        <ele>1057</ele>
        <time>2019-05-31T12:03:53.992Z</time>
      </trkpt>
      <trkpt lat="45.4235" lon="3.85844">
        <ele>1057</ele>
        <time>2019-05-31T12:03:58.005Z</time>
      </trkpt>
      <trkpt lat="45.42342" lon="3.85843">
        <ele>1054</ele>
        <time>2019-05-31T12:04:02.989Z</time>
      </trkpt>
      <trkpt lat="45.42336" lon="3.85844">
        <ele>1054</ele>
        <time>2019-05-31T12:04:07.979Z</time>
      </trkpt>
      <trkpt lat="45.42329" lon="3.85841">
        <ele>1054</ele>
        <time>2019-05-31T12:04:11.991Z</time>
      </trkpt>
      <trkpt lat="45.42324" lon="3.8584">
        <ele>1054</ele>
        <time>2019-05-31T12:04:16.983Z</time>
      </trkpt>
      <trkpt lat="45.4232" lon="3.8584">
        <ele>1054</ele>
        <time>2019-05-31T12:04:20.990Z</time>
      </trkpt>
      <trkpt lat="45.42318" lon="3.8584">
        <ele>1054</ele>
        <time>2019-05-31T12:04:24.985Z</time>
      </trkpt>
      <trkpt lat="45.42317" lon="3.8584">
        <ele>1054</ele>
        <time>2019-05-31T12:04:29.982Z</time>
      </trkpt>
      <trkpt lat="45.42312" lon="3.85836">
        <ele>1054</ele>
        <time>2019-05-31T12:04:34.982Z</time>
      </trkpt>
      <trkpt lat="45.42307" lon="3.85835">
        <ele>1054</ele>
        <time>2019-05-31T12:04:39.015Z</time>
      </trkpt>
      <trkpt lat="45.423" lon="3.85834">
        <ele>1054</ele>
        <time>2019-05-31T12:04:43.982Z</time>
      </trkpt>
      <trkpt lat="45.42292" lon="3.85838">
        <ele>1054</ele>
        <time>2019-05-31T12:04:48.986Z</time>
      </trkpt>
      <trkpt lat="45.42287" lon="3.85838">
        <ele>1062</ele>
        <time>2019-05-31T12:04:52.990Z</time>
      </trkpt>
      <trkpt lat="45.42283" lon="3.85838">
        <ele>1062</ele>
        <time>2019-05-31T12:04:56.995Z</time>
      </trkpt>
      <trkpt lat="45.42276" lon="3.85841">
        <ele>1062</ele>
        <time>2019-05-31T12:05:01.970Z</time>
      </trkpt>
      <trkpt lat="45.42273" lon="3.85842">
        <ele>1062</ele>
        <time>2019-05-31T12:05:06.998Z</time>
      </trkpt>
      <trkpt lat="45.42269" lon="3.85842">
        <ele>1062</ele>
        <time>2019-05-31T12:05:12.011Z</time>
      </trkpt>
      <trkpt lat="45.42266" lon="3.85839">
        <ele>1062</ele>
        <time>2019-05-31T12:05:16.978Z</time>
      </trkpt>
      <trkpt lat="45.42262" lon="3.85837">
        <ele>1070</ele>
        <time>2019-05-31T12:05:21.004Z</time>
      </trkpt>
      <trkpt lat="45.42258" lon="3.85843">
        <ele>1070</ele>
        <time>2019-05-31T12:05:25.991Z</time>
      </trkpt>
      <trkpt lat="45.42253" lon="3.85847">
        <ele>1070</ele>
        <time>2019-05-31T12:05:29.974Z</time>
      </trkpt>
      <trkpt lat="45.42249" lon="3.85847">
        <ele>1070</ele>
        <time>2019-05-31T12:05:34.970Z</time>
      </trkpt>
      <trkpt lat="45.42245" lon="3.8585">
        <ele>1064</ele>
        <time>2019-05-31T12:05:39Z</time>
      </trkpt>
      <trkpt lat="45.42239" lon="3.85849">
        <ele>1064</ele>
        <time>2019-05-31T12:05:43.974Z</time>
      </trkpt>
      <trkpt lat="45.42229" lon="3.85847">
        <ele>1068</ele>
        <time>2019-05-31T12:05:49.031Z</time>
      </trkpt>
      <trkpt lat="45.42217" lon="3.85853">
        <ele>1065</ele>
        <time>2019-05-31T12:06:03.953Z</time>
      </trkpt>
      <trkpt lat="45.42216" lon="3.85853">
        <ele>1065</ele>
        <time>2019-05-31T12:06:07.979Z</time>
      </trkpt>
      <trkpt lat="45.42216" lon="3.85853">
        <ele>1065</ele>
        <time>2019-05-31T12:06:12.979Z</time>
      </trkpt>
      <trkpt lat="45.42215" lon="3.85853">
        <ele>1065</ele>
        <time>2019-05-31T12:06:17.988Z</time>
      </trkpt>
      <trkpt lat="45.42209" lon="3.85854">
        <ele>1065</ele>
        <time>2019-05-31T12:06:22.008Z</time>
      </trkpt>
      <trkpt lat="45.42204" lon="3.85852">
        <ele>1061</ele>
        <time>2019-05-31T12:06:27.015Z</time>
      </trkpt>
      <trkpt lat="45.42198" lon="3.85849">
        <ele>1061</ele>
        <time>2019-05-31T12:06:31.983Z</time>
      </trkpt>
      <trkpt lat="45.42195" lon="3.85847">
        <ele>1061</ele>
        <time>2019-05-31T12:06:35.993Z</time>
      </trkpt>
      <trkpt lat="45.42191" lon="3.85851">
        <ele>1061</ele>
        <time>2019-05-31T12:06:40.986Z</time>
      </trkpt>
      <trkpt lat="45.42184" lon="3.85851">
        <ele>1061</ele>
        <time>2019-05-31T12:06:45.978Z</time>
      </trkpt>
      <trkpt lat="45.42177" lon="3.85848">
        <ele>1060</ele>
        <time>2019-05-31T12:06:50.958Z</time>
      </trkpt>
      <trkpt lat="45.4217" lon="3.85847">
        <ele>1064</ele>
        <time>2019-05-31T12:06:54.995Z</time>
      </trkpt>
      <trkpt lat="45.42163" lon="3.85846">
        <ele>1064</ele>
        <time>2019-05-31T12:06:59.013Z</time>
      </trkpt>
      <trkpt lat="45.4216" lon="3.85845">
        <ele>1064</ele>
        <time>2019-05-31T12:07:03.995Z</time>
      </trkpt>
      <trkpt lat="45.42156" lon="3.85845">
        <ele>1064</ele>
        <time>2019-05-31T12:07:09.008Z</time>
      </trkpt>
      <trkpt lat="45.42153" lon="3.85842">
        <ele>1064</ele>
        <time>2019-05-31T12:07:13.017Z</time>
      </trkpt>
      <trkpt lat="45.42145" lon="3.85843">
        <ele>1067</ele>
        <time>2019-05-31T12:07:17.969Z</time>
      </trkpt>
      <trkpt lat="45.42141" lon="3.85844">
        <ele>1067</ele>
        <time>2019-05-31T12:07:21.988Z</time>
      </trkpt>
      <trkpt lat="45.42138" lon="3.8584">
        <ele>1067</ele>
        <time>2019-05-31T12:07:26.999Z</time>
      </trkpt>
      <trkpt lat="45.42134" lon="3.8584">
        <ele>1067</ele>
        <time>2019-05-31T12:07:31.968Z</time>
      </trkpt>
      <trkpt lat="45.42132" lon="3.85836">
        <ele>1067</ele>
        <time>2019-05-31T12:07:35.994Z</time>
      </trkpt>
      <trkpt lat="45.42131" lon="3.85831">
        <ele>1067</ele>
        <time>2019-05-31T12:07:40.021Z</time>
      </trkpt>
      <trkpt lat="45.42123" lon="3.85829">
        <ele>1068</ele>
        <time>2019-05-31T12:07:45.008Z</time>
      </trkpt>
      <trkpt lat="45.42117" lon="3.85822">
        <ele>1068</ele>
        <time>2019-05-31T12:07:49.010Z</time>
      </trkpt>
      <trkpt lat="45.42111" lon="3.85816">
        <ele>1072</ele>
        <time>2019-05-31T12:07:53.991Z</time>
      </trkpt>
      <trkpt lat="45.42108" lon="3.85811">
        <ele>1072</ele>
        <time>2019-05-31T12:07:58.968Z</time>
      </trkpt>
      <trkpt lat="45.42108" lon="3.85811">
        <ele>1072</ele>
        <time>2019-05-31T12:08:02.986Z</time>
      </trkpt>
      <trkpt lat="45.42105" lon="3.85806">
        <ele>1072</ele>
        <time>2019-05-31T12:08:07.967Z</time>
      </trkpt>
      <trkpt lat="45.42102" lon="3.85795">
        <ele>1072</ele>
        <time>2019-05-31T12:08:11.986Z</time>
      </trkpt>
      <trkpt lat="45.421" lon="3.85789">
        <ele>1076</ele>
        <time>2019-05-31T12:08:15.998Z</time>
      </trkpt>
      <trkpt lat="45.42096" lon="3.85785">
        <ele>1074</ele>
        <time>2019-05-31T12:08:20.004Z</time>
      </trkpt>
      <trkpt lat="45.42091" lon="3.85777">
        <ele>1074</ele>
        <time>2019-05-31T12:08:25.019Z</time>
      </trkpt>
      <trkpt lat="45.42087" lon="3.85773">
        <ele>1074</ele>
        <time>2019-05-31T12:08:29.006Z</time>
      </trkpt>
      <trkpt lat="45.4208" lon="3.85757">
        <ele>1074</ele>
        <time>2019-05-31T12:09:04.972Z</time>
      </trkpt>
      <trkpt lat="45.42079" lon="3.85756">
        <ele>1074</ele>
        <time>2019-05-31T12:09:09.001Z</time>
      </trkpt>
      <trkpt lat="45.42077" lon="3.85755">
        <ele>1074</ele>
        <time>2019-05-31T12:09:13.975Z</time>
      </trkpt>
      <trkpt lat="45.42077" lon="3.85755">
        <ele>1074</ele>
        <time>2019-05-31T12:09:18.997Z</time>
      </trkpt>
      <trkpt lat="45.42077" lon="3.85754">
        <ele>1074</ele>
        <time>2019-05-31T12:09:23.973Z</time>
      </trkpt>
      <trkpt lat="45.42078" lon="3.85751">
        <ele>1074</ele>
        <time>2019-05-31T12:09:28.003Z</time>
      </trkpt>
      <trkpt lat="45.4208" lon="3.85749">
        <ele>1074</ele>
        <time>2019-05-31T12:09:32.975Z</time>
      </trkpt>
      <trkpt lat="45.42081" lon="3.85746">
        <ele>1074</ele>
        <time>2019-05-31T12:09:37.975Z</time>
      </trkpt>
      <trkpt lat="45.42084" lon="3.85741">
        <ele>1074</ele>
        <time>2019-05-31T12:09:41.973Z</time>
      </trkpt>
      <trkpt lat="45.42084" lon="3.8574">
        <ele>1074</ele>
        <time>2019-05-31T12:09:46.963Z</time>
      </trkpt>
      <trkpt lat="45.42084" lon="3.85739">
        <ele>1074</ele>
        <time>2019-05-31T12:09:50.970Z</time>
      </trkpt>
      <trkpt lat="45.42084" lon="3.85733">
        <ele>1074</ele>
        <time>2019-05-31T12:09:55.988Z</time>
      </trkpt>
      <trkpt lat="45.42083" lon="3.85727">
        <ele>1074</ele>
        <time>2019-05-31T12:09:59.998Z</time>
      </trkpt>
      <trkpt lat="45.42082" lon="3.85727">
        <ele>1074</ele>
        <time>2019-05-31T12:10:03.992Z</time>
      </trkpt>
      <trkpt lat="45.42083" lon="3.85723">
        <ele>1074</ele>
        <time>2019-05-31T12:10:08.979Z</time>
      </trkpt>
      <trkpt lat="45.42083" lon="3.85722">
        <ele>1074</ele>
        <time>2019-05-31T12:10:13.977Z</time>
      </trkpt>
      <trkpt lat="45.42086" lon="3.85717">
        <ele>1074</ele>
        <time>2019-05-31T12:10:18.979Z</time>
      </trkpt>
      <trkpt lat="45.42088" lon="3.85711">
        <ele>1074</ele>
        <time>2019-05-31T12:10:23.985Z</time>
      </trkpt>
      <trkpt lat="45.42085" lon="3.85707">
        <ele>1073</ele>
        <time>2019-05-31T12:10:32.973Z</time>
      </trkpt>
      <trkpt lat="45.42082" lon="3.85702">
        <ele>1073</ele>
        <time>2019-05-31T12:10:37.985Z</time>
      </trkpt>
      <trkpt lat="45.42082" lon="3.85701">
        <ele>1073</ele>
        <time>2019-05-31T12:10:41.992Z</time>
      </trkpt>
      <trkpt lat="45.42081" lon="3.85702">
        <ele>1073</ele>
        <time>2019-05-31T12:10:46.006Z</time>
      </trkpt>
      <trkpt lat="45.42078" lon="3.857">
        <ele>1073</ele>
        <time>2019-05-31T12:10:50.989Z</time>
      </trkpt>
      <trkpt lat="45.42075" lon="3.85694">
        <ele>1073</ele>
        <time>2019-05-31T12:10:55.995Z</time>
      </trkpt>
      <trkpt lat="45.42076" lon="3.85683">
        <ele>1073</ele>
        <time>2019-05-31T12:11:00.987Z</time>
      </trkpt>
      <trkpt lat="45.42078" lon="3.85677">
        <ele>1074</ele>
        <time>2019-05-31T12:11:04.976Z</time>
      </trkpt>
      <trkpt lat="45.42077" lon="3.85672">
        <ele>1074</ele>
        <time>2019-05-31T12:11:09.016Z</time>
      </trkpt>
      <trkpt lat="45.42076" lon="3.85672">
        <ele>1074</ele>
        <time>2019-05-31T12:11:13.994Z</time>
      </trkpt>
      <trkpt lat="45.42076" lon="3.85671">
        <ele>1074</ele>
        <time>2019-05-31T12:11:17.990Z</time>
      </trkpt>
      <trkpt lat="45.42077" lon="3.85672">
        <ele>1074</ele>
        <time>2019-05-31T12:11:21.985Z</time>
      </trkpt>
      <trkpt lat="45.4208" lon="3.85679">
        <ele>1074</ele>
        <time>2019-05-31T12:11:26.978Z</time>
      </trkpt>
      <trkpt lat="45.42082" lon="3.85682">
        <ele>1073</ele>
        <time>2019-05-31T12:11:31.994Z</time>
      </trkpt>
      <trkpt lat="45.42082" lon="3.85685">
        <ele>1073</ele>
        <time>2019-05-31T12:11:35.976Z</time>
      </trkpt>
      <trkpt lat="45.42082" lon="3.85687">
        <ele>1073</ele>
        <time>2019-05-31T12:11:40.969Z</time>
      </trkpt>
      <trkpt lat="45.42082" lon="3.85691">
        <ele>1073</ele>
        <time>2019-05-31T12:11:45.006Z</time>
      </trkpt>
      <trkpt lat="45.42077" lon="3.85697">
        <ele>1073</ele>
        <time>2019-05-31T12:11:49.988Z</time>
      </trkpt>
      <trkpt lat="45.42076" lon="3.85698">
        <ele>1073</ele>
        <time>2019-05-31T12:11:54.982Z</time>
      </trkpt>
      <trkpt lat="45.42072" lon="3.85702">
        <ele>1073</ele>
        <time>2019-05-31T12:11:59.962Z</time>
      </trkpt>
      <trkpt lat="45.42069" lon="3.85704">
        <ele>1066</ele>
        <time>2019-05-31T12:12:04Z</time>
      </trkpt>
      <trkpt lat="45.42066" lon="3.85699">
        <ele>1066</ele>
        <time>2019-05-31T12:12:07.971Z</time>
      </trkpt>
      <trkpt lat="45.42062" lon="3.85695">
        <ele>1066</ele>
        <time>2019-05-31T12:12:12.983Z</time>
      </trkpt>
      <trkpt lat="45.42063" lon="3.85688">
        <ele>1066</ele>
        <time>2019-05-31T12:12:16.975Z</time>
      </trkpt>
      <trkpt lat="45.42065" lon="3.85675">
        <ele>1064</ele>
        <time>2019-05-31T12:12:21.971Z</time>
      </trkpt>
      <trkpt lat="45.42067" lon="3.85664">
        <ele>1064</ele>
        <time>2019-05-31T12:12:26.989Z</time>
      </trkpt>
      <trkpt lat="45.42069" lon="3.85656">
        <ele>1064</ele>
        <time>2019-05-31T12:12:31.979Z</time>
      </trkpt>
      <trkpt lat="45.42072" lon="3.85647">
        <ele>1073</ele>
        <time>2019-05-31T12:12:36.972Z</time>
      </trkpt>
      <trkpt lat="45.42073" lon="3.85639">
        <ele>1073</ele>
        <time>2019-05-31T12:12:40.985Z</time>
      </trkpt>
      <trkpt lat="45.42074" lon="3.85632">
        <ele>1073</ele>
        <time>2019-05-31T12:12:44.980Z</time>
      </trkpt>
      <trkpt lat="45.42078" lon="3.85622">
        <ele>1071</ele>
        <time>2019-05-31T12:12:49.975Z</time>
      </trkpt>
      <trkpt lat="45.42079" lon="3.85612">
        <ele>1071</ele>
        <time>2019-05-31T12:12:54.980Z</time>
      </trkpt>
      <trkpt lat="45.42081" lon="3.85603">
        <ele>1071</ele>
        <time>2019-05-31T12:12:59.976Z</time>
      </trkpt>
      <trkpt lat="45.42082" lon="3.85593">
        <ele>1071</ele>
        <time>2019-05-31T12:13:04.973Z</time>
      </trkpt>
      <trkpt lat="45.42081" lon="3.85587">
        <ele>1071</ele>
        <time>2019-05-31T12:13:08.981Z</time>
      </trkpt>
      <trkpt lat="45.42083" lon="3.85579">
        <ele>1071</ele>
        <time>2019-05-31T12:13:13Z</time>
      </trkpt>
      <trkpt lat="45.42081" lon="3.85571">
        <ele>1071</ele>
        <time>2019-05-31T12:13:17.992Z</time>
      </trkpt>
      <trkpt lat="45.42079" lon="3.85566">
        <ele>1073</ele>
        <time>2019-05-31T12:13:21.960Z</time>
      </trkpt>
      <trkpt lat="45.4208" lon="3.85566">
        <ele>1073</ele>
        <time>2019-05-31T12:13:36.983Z</time>
      </trkpt>
      <trkpt lat="45.4208" lon="3.85565">
        <ele>1073</ele>
        <time>2019-05-31T12:13:40.984Z</time>
      </trkpt>
      <trkpt lat="45.4208" lon="3.85565">
        <ele>1073</ele>
        <time>2019-05-31T12:13:44.978Z</time>
      </trkpt>
      <trkpt lat="45.42083" lon="3.8556">
        <ele>1073</ele>
        <time>2019-05-31T12:13:49.973Z</time>
      </trkpt>
      <trkpt lat="45.42083" lon="3.85555">
        <ele>1073</ele>
        <time>2019-05-31T12:13:53.969Z</time>
      </trkpt>
      <trkpt lat="45.42083" lon="3.85551">
        <ele>1073</ele>
        <time>2019-05-31T12:13:57.990Z</time>
      </trkpt>
      <trkpt lat="45.42084" lon="3.85546">
        <ele>1073</ele>
        <time>2019-05-31T12:14:02.980Z</time>
      </trkpt>
      <trkpt lat="45.42086" lon="3.85541">
        <ele>1074</ele>
        <time>2019-05-31T12:14:07.977Z</time>
      </trkpt>
      <trkpt lat="45.42086" lon="3.85534">
        <ele>1074</ele>
        <time>2019-05-31T12:14:12.987Z</time>
      </trkpt>
      <trkpt lat="45.42086" lon="3.85531">
        <ele>1074</ele>
        <time>2019-05-31T12:14:17.989Z</time>
      </trkpt>
      <trkpt lat="45.42088" lon="3.85524">
        <ele>1074</ele>
        <time>2019-05-31T12:14:22.971Z</time>
      </trkpt>
      <trkpt lat="45.42087" lon="3.85516">
        <ele>1074</ele>
        <time>2019-05-31T12:14:26.962Z</time>
      </trkpt>
      <trkpt lat="45.42084" lon="3.85506">
        <ele>1074</ele>
        <time>2019-05-31T12:14:30.968Z</time>
      </trkpt>
      <trkpt lat="45.4208" lon="3.85489">
        <ele>1074</ele>
        <time>2019-05-31T12:15:12.968Z</time>
      </trkpt>
      <trkpt lat="45.4208" lon="3.85488">
        <ele>1074</ele>
        <time>2019-05-31T12:15:17.948Z</time>
      </trkpt>
      <trkpt lat="45.4208" lon="3.85487">
        <ele>1074</ele>
        <time>2019-05-31T12:15:22.951Z</time>
      </trkpt>
      <trkpt lat="45.4208" lon="3.85485">
        <ele>1075</ele>
        <time>2019-05-31T12:15:27.945Z</time>
      </trkpt>
      <trkpt lat="45.4208" lon="3.85484">
        <ele>1075</ele>
        <time>2019-05-31T12:15:32.951Z</time>
      </trkpt>
      <trkpt lat="45.42079" lon="3.85484">
        <ele>1075</ele>
        <time>2019-05-31T12:15:51.945Z</time>
      </trkpt>
      <trkpt lat="45.42078" lon="3.85484">
        <ele>1075</ele>
        <time>2019-05-31T12:15:55.947Z</time>
      </trkpt>
      <trkpt lat="45.42076" lon="3.8548">
        <ele>1075</ele>
        <time>2019-05-31T12:16:00.959Z</time>
      </trkpt>
      <trkpt lat="45.42075" lon="3.8548">
        <ele>1075</ele>
        <time>2019-05-31T12:16:04.953Z</time>
      </trkpt>
      <trkpt lat="45.42073" lon="3.85472">
        <ele>1075</ele>
        <time>2019-05-31T12:16:09.947Z</time>
      </trkpt>
      <trkpt lat="45.4207" lon="3.85467">
        <ele>1075</ele>
        <time>2019-05-31T12:16:14.954Z</time>
      </trkpt>
      <trkpt lat="45.42062" lon="3.85464">
        <ele>1074</ele>
        <time>2019-05-31T12:16:18.958Z</time>
      </trkpt>
      <trkpt lat="45.42055" lon="3.85456">
        <ele>1077</ele>
        <time>2019-05-31T12:16:23.954Z</time>
      </trkpt>
      <trkpt lat="45.42051" lon="3.85444">
        <ele>1077</ele>
        <time>2019-05-31T12:16:28.963Z</time>
      </trkpt>
      <trkpt lat="45.42037" lon="3.8542">
        <ele>1082</ele>
        <time>2019-05-31T12:16:33.952Z</time>
      </trkpt>
      <trkpt lat="45.42016" lon="3.85404">
        <ele>1082</ele>
        <time>2019-05-31T12:16:37.962Z</time>
      </trkpt>
      <trkpt lat="45.41993" lon="3.85398">
        <ele>1089</ele>
        <time>2019-05-31T12:16:42.961Z</time>
      </trkpt>
      <trkpt lat="45.41977" lon="3.85393">
        <ele>1092</ele>
        <time>2019-05-31T12:16:47.945Z</time>
      </trkpt>
      <trkpt lat="45.41964" lon="3.85392">
        <ele>1092</ele>
        <time>2019-05-31T12:16:51.948Z</time>
      </trkpt>
      <trkpt lat="45.41958" lon="3.85395">
        <ele>1097</ele>
        <time>2019-05-31T12:16:55.953Z</time>
      </trkpt>
      <trkpt lat="45.41954" lon="3.85396">
        <ele>1097</ele>
        <time>2019-05-31T12:17:00.959Z</time>
      </trkpt>
      <trkpt lat="45.41949" lon="3.85395">
        <ele>1097</ele>
        <time>2019-05-31T12:17:04.955Z</time>
      </trkpt>
      <trkpt lat="45.41941" lon="3.85396">
        <ele>1097</ele>
        <time>2019-05-31T12:17:08.953Z</time>
      </trkpt>
      <trkpt lat="45.41938" lon="3.85396">
        <ele>1097</ele>
        <time>2019-05-31T12:17:12.962Z</time>
      </trkpt>
      <trkpt lat="45.41932" lon="3.85392">
        <ele>1097</ele>
        <time>2019-05-31T12:17:17.954Z</time>
      </trkpt>
      <trkpt lat="45.41925" lon="3.85389">
        <ele>1101</ele>
        <time>2019-05-31T12:17:22.960Z</time>
      </trkpt>
      <trkpt lat="45.41912" lon="3.85385">
        <ele>1101</ele>
        <time>2019-05-31T12:17:27.948Z</time>
      </trkpt>
      <trkpt lat="45.41908" lon="3.85379">
        <ele>1101</ele>
        <time>2019-05-31T12:17:31.952Z</time>
      </trkpt>
      <trkpt lat="45.41904" lon="3.85369">
        <ele>1106</ele>
        <time>2019-05-31T12:17:36.959Z</time>
      </trkpt>
      <trkpt lat="45.41898" lon="3.85366">
        <ele>1105</ele>
        <time>2019-05-31T12:17:40.957Z</time>
      </trkpt>
      <trkpt lat="45.41893" lon="3.85362">
        <ele>1105</ele>
        <time>2019-05-31T12:17:44.961Z</time>
      </trkpt>
      <trkpt lat="45.41878" lon="3.85346">
        <ele>1109</ele>
        <time>2019-05-31T12:17:49.947Z</time>
      </trkpt>
      <trkpt lat="45.41857" lon="3.85314">
        <ele>1109</ele>
        <time>2019-05-31T12:17:53.962Z</time>
      </trkpt>
      <trkpt lat="45.41833" lon="3.85276">
        <ele>1110</ele>
        <time>2019-05-31T12:17:58.956Z</time>
      </trkpt>
      <trkpt lat="45.4182" lon="3.85236">
        <ele>1112</ele>
        <time>2019-05-31T12:18:03.950Z</time>
      </trkpt>
      <trkpt lat="45.41806" lon="3.85214">
        <ele>1110</ele>
        <time>2019-05-31T12:18:07.947Z</time>
      </trkpt>
      <trkpt lat="45.41804" lon="3.85203">
        <ele>1111</ele>
        <time>2019-05-31T12:18:11.952Z</time>
      </trkpt>
      <trkpt lat="45.41802" lon="3.85194">
        <ele>1111</ele>
        <time>2019-05-31T12:18:16.957Z</time>
      </trkpt>
      <trkpt lat="45.41799" lon="3.85182">
        <ele>1111</ele>
        <time>2019-05-31T12:18:22.943Z</time>
      </trkpt>
      <trkpt lat="45.41796" lon="3.85175">
        <ele>1110</ele>
        <time>2019-05-31T12:18:26.959Z</time>
      </trkpt>
      <trkpt lat="45.41793" lon="3.85169">
        <ele>1110</ele>
        <time>2019-05-31T12:18:30.960Z</time>
      </trkpt>
      <trkpt lat="45.41788" lon="3.85162">
        <ele>1106</ele>
        <time>2019-05-31T12:18:35.966Z</time>
      </trkpt>
      <trkpt lat="45.41787" lon="3.8515">
        <ele>1106</ele>
        <time>2019-05-31T12:18:40.961Z</time>
      </trkpt>
      <trkpt lat="45.41781" lon="3.85141">
        <ele>1106</ele>
        <time>2019-05-31T12:18:45.939Z</time>
      </trkpt>
      <trkpt lat="45.41778" lon="3.85136">
        <ele>1106</ele>
        <time>2019-05-31T12:18:49.959Z</time>
      </trkpt>
      <trkpt lat="45.41773" lon="3.85125">
        <ele>1105</ele>
        <time>2019-05-31T12:18:54.960Z</time>
      </trkpt>
      <trkpt lat="45.4177" lon="3.8511">
        <ele>1105</ele>
        <time>2019-05-31T12:18:59.959Z</time>
      </trkpt>
      <trkpt lat="45.41766" lon="3.85104">
        <ele>1105</ele>
        <time>2019-05-31T12:19:04.962Z</time>
      </trkpt>
      <trkpt lat="45.41762" lon="3.85103">
        <ele>1103</ele>
        <time>2019-05-31T12:19:09.958Z</time>
      </trkpt>
      <trkpt lat="45.41757" lon="3.85105">
        <ele>1103</ele>
        <time>2019-05-31T12:19:13.958Z</time>
      </trkpt>
      <trkpt lat="45.41752" lon="3.85111">
        <ele>1103</ele>
        <time>2019-05-31T12:19:18.968Z</time>
      </trkpt>
      <trkpt lat="45.4175" lon="3.85116">
        <ele>1103</ele>
        <time>2019-05-31T12:19:22.962Z</time>
      </trkpt>
      <trkpt lat="45.41744" lon="3.85124">
        <ele>1103</ele>
        <time>2019-05-31T12:19:27.958Z</time>
      </trkpt>
      <trkpt lat="45.41741" lon="3.85131">
        <ele>1103</ele>
        <time>2019-05-31T12:19:31.963Z</time>
      </trkpt>
      <trkpt lat="45.41736" lon="3.85139">
        <ele>1103</ele>
        <time>2019-05-31T12:19:36.958Z</time>
      </trkpt>
      <trkpt lat="45.41732" lon="3.85147">
        <ele>1102</ele>
        <time>2019-05-31T12:19:41.960Z</time>
      </trkpt>
      <trkpt lat="45.4173" lon="3.8515">
        <ele>1102</ele>
        <time>2019-05-31T12:19:46.959Z</time>
      </trkpt>
      <trkpt lat="45.41728" lon="3.85153">
        <ele>1102</ele>
        <time>2019-05-31T12:19:50.967Z</time>
      </trkpt>
      <trkpt lat="45.41722" lon="3.85166">
        <ele>1102</ele>
        <time>2019-05-31T12:19:54.962Z</time>
      </trkpt>
      <trkpt lat="45.41718" lon="3.85174">
        <ele>1102</ele>
        <time>2019-05-31T12:19:59.954Z</time>
      </trkpt>
      <trkpt lat="45.41715" lon="3.85179">
        <ele>1102</ele>
        <time>2019-05-31T12:20:03.960Z</time>
      </trkpt>
      <trkpt lat="45.41713" lon="3.85181">
        <ele>1102</ele>
        <time>2019-05-31T12:20:07.961Z</time>
      </trkpt>
      <trkpt lat="45.41707" lon="3.85183">
        <ele>1098</ele>
        <time>2019-05-31T12:20:12.961Z</time>
      </trkpt>
      <trkpt lat="45.41702" lon="3.85186">
        <ele>1098</ele>
        <time>2019-05-31T12:20:17.973Z</time>
      </trkpt>
      <trkpt lat="45.41701" lon="3.85191">
        <ele>1098</ele>
        <time>2019-05-31T12:20:22.977Z</time>
      </trkpt>
      <trkpt lat="45.41699" lon="3.85193">
        <ele>1098</ele>
        <time>2019-05-31T12:20:27.958Z</time>
      </trkpt>
      <trkpt lat="45.41698" lon="3.85197">
        <ele>1098</ele>
        <time>2019-05-31T12:20:31.956Z</time>
      </trkpt>
      <trkpt lat="45.41694" lon="3.85204">
        <ele>1098</ele>
        <time>2019-05-31T12:20:36.955Z</time>
      </trkpt>
      <trkpt lat="45.41691" lon="3.85205">
        <ele>1098</ele>
        <time>2019-05-31T12:20:40.957Z</time>
      </trkpt>
      <trkpt lat="45.41686" lon="3.85216">
        <ele>1097</ele>
        <time>2019-05-31T12:20:45.962Z</time>
      </trkpt>
      <trkpt lat="45.41679" lon="3.8522">
        <ele>1094</ele>
        <time>2019-05-31T12:20:50.963Z</time>
      </trkpt>
      <trkpt lat="45.41674" lon="3.85223">
        <ele>1094</ele>
        <time>2019-05-31T12:20:55.960Z</time>
      </trkpt>
      <trkpt lat="45.41668" lon="3.85228">
        <ele>1094</ele>
        <time>2019-05-31T12:20:59.964Z</time>
      </trkpt>
      <trkpt lat="45.41664" lon="3.85232">
        <ele>1094</ele>
        <time>2019-05-31T12:21:04.954Z</time>
      </trkpt>
      <trkpt lat="45.41661" lon="3.85232">
        <ele>1094</ele>
        <time>2019-05-31T12:21:08.965Z</time>
      </trkpt>
      <trkpt lat="45.41654" lon="3.85223">
        <ele>1094</ele>
        <time>2019-05-31T12:21:13.959Z</time>
      </trkpt>
      <trkpt lat="45.4165" lon="3.85217">
        <ele>1090</ele>
        <time>2019-05-31T12:21:17.963Z</time>
      </trkpt>
      <trkpt lat="45.41644" lon="3.8521">
        <ele>1090</ele>
        <time>2019-05-31T12:21:22.966Z</time>
      </trkpt>
      <trkpt lat="45.41639" lon="3.85206">
        <ele>1091</ele>
        <time>2019-05-31T12:21:27.962Z</time>
      </trkpt>
      <trkpt lat="45.41632" lon="3.85201">
        <ele>1091</ele>
        <time>2019-05-31T12:21:32.962Z</time>
      </trkpt>
      <trkpt lat="45.41623" lon="3.85191">
        <ele>1087</ele>
        <time>2019-05-31T12:21:37.963Z</time>
      </trkpt>
      <trkpt lat="45.4162" lon="3.85184">
        <ele>1087</ele>
        <time>2019-05-31T12:21:41.964Z</time>
      </trkpt>
      <trkpt lat="45.41615" lon="3.85181">
        <ele>1087</ele>
        <time>2019-05-31T12:21:46.961Z</time>
      </trkpt>
      <trkpt lat="45.41608" lon="3.8517">
        <ele>1089</ele>
        <time>2019-05-31T12:21:50.960Z</time>
      </trkpt>
      <trkpt lat="45.41601" lon="3.85162">
        <ele>1089</ele>
        <time>2019-05-31T12:21:54.963Z</time>
      </trkpt>
      <trkpt lat="45.41596" lon="3.85157">
        <ele>1087</ele>
        <time>2019-05-31T12:21:59.957Z</time>
      </trkpt>
      <trkpt lat="45.4159" lon="3.85151">
        <ele>1089</ele>
        <time>2019-05-31T12:22:03.963Z</time>
      </trkpt>
      <trkpt lat="45.41584" lon="3.85144">
        <ele>1089</ele>
        <time>2019-05-31T12:22:08.963Z</time>
      </trkpt>
      <trkpt lat="45.41579" lon="3.85137">
        <ele>1089</ele>
        <time>2019-05-31T12:22:13.961Z</time>
      </trkpt>
      <trkpt lat="45.41574" lon="3.85134">
        <ele>1089</ele>
        <time>2019-05-31T12:22:17.968Z</time>
      </trkpt>
      <trkpt lat="45.41566" lon="3.85131">
        <ele>1084</ele>
        <time>2019-05-31T12:22:22.964Z</time>
      </trkpt>
      <trkpt lat="45.41557" lon="3.85129">
        <ele>1084</ele>
        <time>2019-05-31T12:22:27.969Z</time>
      </trkpt>
      <trkpt lat="45.41548" lon="3.85126">
        <ele>1084</ele>
        <time>2019-05-31T12:22:32.962Z</time>
      </trkpt>
      <trkpt lat="45.41539" lon="3.85125">
        <ele>1081</ele>
        <time>2019-05-31T12:22:36.974Z</time>
      </trkpt>
      <trkpt lat="45.41529" lon="3.85125">
        <ele>1081</ele>
        <time>2019-05-31T12:22:41.963Z</time>
      </trkpt>
      <trkpt lat="45.41523" lon="3.8512">
        <ele>1081</ele>
        <time>2019-05-31T12:22:46.964Z</time>
      </trkpt>
      <trkpt lat="45.41517" lon="3.85118">
        <ele>1081</ele>
        <time>2019-05-31T12:22:51.965Z</time>
      </trkpt>
      <trkpt lat="45.41511" lon="3.85119">
        <ele>1082</ele>
        <time>2019-05-31T12:22:55.962Z</time>
      </trkpt>
      <trkpt lat="45.41503" lon="3.85117">
        <ele>1082</ele>
        <time>2019-05-31T12:23:00.959Z</time>
      </trkpt>
      <trkpt lat="45.41486" lon="3.85107">
        <ele>1082</ele>
        <time>2019-05-31T12:23:04.962Z</time>
      </trkpt>
      <trkpt lat="45.41466" lon="3.85095">
        <ele>1085</ele>
        <time>2019-05-31T12:23:09.958Z</time>
      </trkpt>
      <trkpt lat="45.41445" lon="3.85087">
        <ele>1082</ele>
        <time>2019-05-31T12:23:14.956Z</time>
      </trkpt>
      <trkpt lat="45.41429" lon="3.8508">
        <ele>1079</ele>
        <time>2019-05-31T12:23:19.959Z</time>
      </trkpt>
      <trkpt lat="45.41418" lon="3.85077">
        <ele>1079</ele>
        <time>2019-05-31T12:23:24.958Z</time>
      </trkpt>
      <trkpt lat="45.41399" lon="3.85069">
        <ele>1076</ele>
        <time>2019-05-31T12:23:29.974Z</time>
      </trkpt>
      <trkpt lat="45.41391" lon="3.85068">
        <ele>1076</ele>
        <time>2019-05-31T12:23:34.959Z</time>
      </trkpt>
      <trkpt lat="45.41382" lon="3.85067">
        <ele>1076</ele>
        <time>2019-05-31T12:23:38.958Z</time>
      </trkpt>
      <trkpt lat="45.41377" lon="3.85068">
        <ele>1076</ele>
        <time>2019-05-31T12:23:42.960Z</time>
      </trkpt>
      <trkpt lat="45.4137" lon="3.85068">
        <ele>1075</ele>
        <time>2019-05-31T12:23:46.968Z</time>
      </trkpt>
      <trkpt lat="45.41361" lon="3.85077">
        <ele>1077</ele>
        <time>2019-05-31T12:23:51.961Z</time>
      </trkpt>
      <trkpt lat="45.41358" lon="3.85081">
        <ele>1077</ele>
        <time>2019-05-31T12:23:55.963Z</time>
      </trkpt>
      <trkpt lat="45.41353" lon="3.85075">
        <ele>1077</ele>
        <time>2019-05-31T12:24:00.960Z</time>
      </trkpt>
      <trkpt lat="45.41351" lon="3.85071">
        <ele>1077</ele>
        <time>2019-05-31T12:24:04.962Z</time>
      </trkpt>
      <trkpt lat="45.41348" lon="3.85067">
        <ele>1075</ele>
        <time>2019-05-31T12:24:09.963Z</time>
      </trkpt>
      <trkpt lat="45.41346" lon="3.85062">
        <ele>1074</ele>
        <time>2019-05-31T12:24:13.964Z</time>
      </trkpt>
      <trkpt lat="45.41343" lon="3.85053">
        <ele>1074</ele>
        <time>2019-05-31T12:24:18.963Z</time>
      </trkpt>
      <trkpt lat="45.4134" lon="3.85044">
        <ele>1074</ele>
        <time>2019-05-31T12:24:23.960Z</time>
      </trkpt>
      <trkpt lat="45.4134" lon="3.85042">
        <ele>1074</ele>
        <time>2019-05-31T12:24:28.961Z</time>
      </trkpt>
      <trkpt lat="45.4134" lon="3.85042">
        <ele>1074</ele>
        <time>2019-05-31T12:24:33.974Z</time>
      </trkpt>
      <trkpt lat="45.41338" lon="3.85036">
        <ele>1074</ele>
        <time>2019-05-31T12:24:37.957Z</time>
      </trkpt>
      <trkpt lat="45.41337" lon="3.85031">
        <ele>1074</ele>
        <time>2019-05-31T12:24:42.959Z</time>
      </trkpt>
      <trkpt lat="45.41336" lon="3.8503">
        <ele>1074</ele>
        <time>2019-05-31T12:24:47.960Z</time>
      </trkpt>
      <trkpt lat="45.41334" lon="3.85035">
        <ele>1074</ele>
        <time>2019-05-31T12:25:25.960Z</time>
      </trkpt>
      <trkpt lat="45.41338" lon="3.85038">
        <ele>1074</ele>
        <time>2019-05-31T12:25:30.959Z</time>
      </trkpt>
      <trkpt lat="45.41338" lon="3.8504">
        <ele>1074</ele>
        <time>2019-05-31T12:25:35.960Z</time>
      </trkpt>
      <trkpt lat="45.4134" lon="3.85046">
        <ele>1074</ele>
        <time>2019-05-31T12:25:40.955Z</time>
      </trkpt>
      <trkpt lat="45.41341" lon="3.85046">
        <ele>1074</ele>
        <time>2019-05-31T12:25:45.957Z</time>
      </trkpt>
      <trkpt lat="45.41342" lon="3.85045">
        <ele>1074</ele>
        <time>2019-05-31T12:26:05.952Z</time>
      </trkpt>
      <trkpt lat="45.41342" lon="3.85045">
        <ele>1074</ele>
        <time>2019-05-31T12:26:10.960Z</time>
      </trkpt>
      <trkpt lat="45.41344" lon="3.85045">
        <ele>1074</ele>
        <time>2019-05-31T12:26:15.954Z</time>
      </trkpt>
      <trkpt lat="45.41347" lon="3.85046">
        <ele>1075</ele>
        <time>2019-05-31T12:26:20.964Z</time>
      </trkpt>
      <trkpt lat="45.41352" lon="3.85038">
        <ele>1075</ele>
        <time>2019-05-31T12:26:25.963Z</time>
      </trkpt>
      <trkpt lat="45.41353" lon="3.85038">
        <ele>1075</ele>
        <time>2019-05-31T12:27:26.953Z</time>
      </trkpt>
      <trkpt lat="45.41353" lon="3.85039">
        <ele>1075</ele>
        <time>2019-05-31T12:27:30.953Z</time>
      </trkpt>
      <trkpt lat="45.41354" lon="3.85041">
        <ele>1075</ele>
        <time>2019-05-31T12:27:35.954Z</time>
      </trkpt>
      <trkpt lat="45.41354" lon="3.85044">
        <ele>1075</ele>
        <time>2019-05-31T12:27:40.955Z</time>
      </trkpt>
      <trkpt lat="45.41355" lon="3.85046">
        <ele>1075</ele>
        <time>2019-05-31T12:27:45.953Z</time>
      </trkpt>
      <trkpt lat="45.41352" lon="3.85051">
        <ele>1075</ele>
        <time>2019-05-31T12:28:12.955Z</time>
      </trkpt>
      <trkpt lat="45.41355" lon="3.85056">
        <ele>1075</ele>
        <time>2019-05-31T12:28:17.971Z</time>
      </trkpt>
      <trkpt lat="45.41355" lon="3.85062">
        <ele>1075</ele>
        <time>2019-05-31T12:28:22.957Z</time>
      </trkpt>
      <trkpt lat="45.41353" lon="3.85069">
        <ele>1075</ele>
        <time>2019-05-31T12:28:27.953Z</time>
      </trkpt>
      <trkpt lat="45.41354" lon="3.85071">
        <ele>1077</ele>
        <time>2019-05-31T12:28:31.958Z</time>
      </trkpt>
      <trkpt lat="45.41354" lon="3.8508">
        <ele>1077</ele>
        <time>2019-05-31T12:29:00.965Z</time>
      </trkpt>
      <trkpt lat="45.41355" lon="3.85081">
        <ele>1077</ele>
        <time>2019-05-31T12:29:05.956Z</time>
      </trkpt>
      <trkpt lat="45.41354" lon="3.85084">
        <ele>1077</ele>
        <time>2019-05-31T12:29:10.959Z</time>
      </trkpt>
      <trkpt lat="45.41355" lon="3.85086">
        <ele>1077</ele>
        <time>2019-05-31T12:29:15.953Z</time>
      </trkpt>
      <trkpt lat="45.41355" lon="3.85088">
        <ele>1077</ele>
        <time>2019-05-31T12:29:19.957Z</time>
      </trkpt>
      <trkpt lat="45.41356" lon="3.85096">
        <ele>1077</ele>
        <time>2019-05-31T12:29:24.957Z</time>
      </trkpt>
      <trkpt lat="45.41354" lon="3.85099">
        <ele>1079</ele>
        <time>2019-05-31T12:29:29.961Z</time>
      </trkpt>
      <trkpt lat="45.41351" lon="3.85102">
        <ele>1079</ele>
        <time>2019-05-31T12:29:33.962Z</time>
      </trkpt>
      <trkpt lat="45.41345" lon="3.85101">
        <ele>1077</ele>
        <time>2019-05-31T12:29:37.960Z</time>
      </trkpt>
      <trkpt lat="45.4134" lon="3.85103">
        <ele>1077</ele>
        <time>2019-05-31T12:29:42.959Z</time>
      </trkpt>
      <trkpt lat="45.41335" lon="3.85108">
        <ele>1077</ele>
        <time>2019-05-31T12:29:47.964Z</time>
      </trkpt>
      <trkpt lat="45.41331" lon="3.85111">
        <ele>1077</ele>
        <time>2019-05-31T12:29:51.961Z</time>
      </trkpt>
      <trkpt lat="45.41329" lon="3.85114">
        <ele>1077</ele>
        <time>2019-05-31T12:29:56.961Z</time>
      </trkpt>
      <trkpt lat="45.41326" lon="3.85114">
        <ele>1077</ele>
        <time>2019-05-31T12:30:00.968Z</time>
      </trkpt>
      <trkpt lat="45.41327" lon="3.8512">
        <ele>1077</ele>
        <time>2019-05-31T12:30:05.961Z</time>
      </trkpt>
      <trkpt lat="45.41327" lon="3.85127">
        <ele>1080</ele>
        <time>2019-05-31T12:30:09.957Z</time>
      </trkpt>
      <trkpt lat="45.41324" lon="3.85136">
        <ele>1080</ele>
        <time>2019-05-31T12:30:14.961Z</time>
      </trkpt>
      <trkpt lat="45.41319" lon="3.85139">
        <ele>1077</ele>
        <time>2019-05-31T12:30:18.967Z</time>
      </trkpt>
      <trkpt lat="45.41315" lon="3.85147">
        <ele>1077</ele>
        <time>2019-05-31T12:30:23.958Z</time>
      </trkpt>
      <trkpt lat="45.41312" lon="3.8515">
        <ele>1077</ele>
        <time>2019-05-31T12:30:27.964Z</time>
      </trkpt>
      <trkpt lat="45.41307" lon="3.85152">
        <ele>1077</ele>
        <time>2019-05-31T12:30:32.959Z</time>
      </trkpt>
      <trkpt lat="45.41303" lon="3.85157">
        <ele>1078</ele>
        <time>2019-05-31T12:30:37.961Z</time>
      </trkpt>
      <trkpt lat="45.41297" lon="3.85159">
        <ele>1078</ele>
        <time>2019-05-31T12:30:42.961Z</time>
      </trkpt>
      <trkpt lat="45.41295" lon="3.85159">
        <ele>1078</ele>
        <time>2019-05-31T12:30:46.960Z</time>
      </trkpt>
      <trkpt lat="45.41294" lon="3.85159">
        <ele>1078</ele>
        <time>2019-05-31T12:30:51.959Z</time>
      </trkpt>
      <trkpt lat="45.41291" lon="3.85161">
        <ele>1074</ele>
        <time>2019-05-31T12:30:56.959Z</time>
      </trkpt>
      <trkpt lat="45.4129" lon="3.8516">
        <ele>1074</ele>
        <time>2019-05-31T12:31:01.959Z</time>
      </trkpt>
      <trkpt lat="45.41288" lon="3.85165">
        <ele>1074</ele>
        <time>2019-05-31T12:31:06.964Z</time>
      </trkpt>
      <trkpt lat="45.41287" lon="3.85174">
        <ele>1074</ele>
        <time>2019-05-31T12:31:11.969Z</time>
      </trkpt>
      <trkpt lat="45.41284" lon="3.85181">
        <ele>1074</ele>
        <time>2019-05-31T12:31:16.962Z</time>
      </trkpt>
      <trkpt lat="45.41283" lon="3.8519">
        <ele>1074</ele>
        <time>2019-05-31T12:31:20.966Z</time>
      </trkpt>
      <trkpt lat="45.41282" lon="3.85194">
        <ele>1074</ele>
        <time>2019-05-31T12:31:25.968Z</time>
      </trkpt>
      <trkpt lat="45.41278" lon="3.85207">
        <ele>1074</ele>
        <time>2019-05-31T12:31:30.969Z</time>
      </trkpt>
      <trkpt lat="45.41277" lon="3.8521">
        <ele>1073</ele>
        <time>2019-05-31T12:31:35.973Z</time>
      </trkpt>
      <trkpt lat="45.41274" lon="3.85214">
        <ele>1073</ele>
        <time>2019-05-31T12:31:39.972Z</time>
      </trkpt>
      <trkpt lat="45.41266" lon="3.85225">
        <ele>1073</ele>
        <time>2019-05-31T12:31:44.975Z</time>
      </trkpt>
      <trkpt lat="45.41257" lon="3.85238">
        <ele>1069</ele>
        <time>2019-05-31T12:31:49.971Z</time>
      </trkpt>
      <trkpt lat="45.41251" lon="3.8525">
        <ele>1069</ele>
        <time>2019-05-31T12:31:54.965Z</time>
      </trkpt>
      <trkpt lat="45.41251" lon="3.85251">
        <ele>1069</ele>
        <time>2019-05-31T12:31:59.963Z</time>
      </trkpt>
      <trkpt lat="45.41251" lon="3.85262">
        <ele>1069</ele>
        <time>2019-05-31T12:32:04.968Z</time>
      </trkpt>
      <trkpt lat="45.41246" lon="3.85262">
        <ele>1069</ele>
        <time>2019-05-31T12:32:09.959Z</time>
      </trkpt>
      <trkpt lat="45.41243" lon="3.85263">
        <ele>1069</ele>
        <time>2019-05-31T12:32:14.967Z</time>
      </trkpt>
      <trkpt lat="45.41243" lon="3.85263">
        <ele>1069</ele>
        <time>2019-05-31T12:32:18.963Z</time>
      </trkpt>
      <trkpt lat="45.4124" lon="3.85263">
        <ele>1069</ele>
        <time>2019-05-31T12:32:23.962Z</time>
      </trkpt>
      <trkpt lat="45.41239" lon="3.85263">
        <ele>1069</ele>
        <time>2019-05-31T12:32:28.955Z</time>
      </trkpt>
      <trkpt lat="45.41237" lon="3.85262">
        <ele>1069</ele>
        <time>2019-05-31T12:32:33.952Z</time>
      </trkpt>
      <trkpt lat="45.41227" lon="3.8526">
        <ele>1067</ele>
        <time>2019-05-31T12:32:38.972Z</time>
      </trkpt>
      <trkpt lat="45.41223" lon="3.85251">
        <ele>1067</ele>
        <time>2019-05-31T12:32:43.948Z</time>
      </trkpt>
      <trkpt lat="45.41217" lon="3.85244">
        <ele>1067</ele>
        <time>2019-05-31T12:32:47.962Z</time>
      </trkpt>
      <trkpt lat="45.4121" lon="3.85233">
        <ele>1069</ele>
        <time>2019-05-31T12:32:52.950Z</time>
      </trkpt>
      <trkpt lat="45.41206" lon="3.85226">
        <ele>1068</ele>
        <time>2019-05-31T12:32:56.961Z</time>
      </trkpt>
      <trkpt lat="45.41205" lon="3.85212">
        <ele>1068</ele>
        <time>2019-05-31T12:33:01.964Z</time>
      </trkpt>
      <trkpt lat="45.412" lon="3.85201">
        <ele>1068</ele>
        <time>2019-05-31T12:33:06.967Z</time>
      </trkpt>
      <trkpt lat="45.41197" lon="3.85196">
        <ele>1068</ele>
        <time>2019-05-31T12:33:11.955Z</time>
      </trkpt>
      <trkpt lat="45.41196" lon="3.85195">
        <ele>1068</ele>
        <time>2019-05-31T12:33:15.963Z</time>
      </trkpt>
      <trkpt lat="45.41194" lon="3.8519">
        <ele>1068</ele>
        <time>2019-05-31T12:33:20.968Z</time>
      </trkpt>
      <trkpt lat="45.41191" lon="3.85182">
        <ele>1068</ele>
        <time>2019-05-31T12:33:24.964Z</time>
      </trkpt>
      <trkpt lat="45.41184" lon="3.85171">
        <ele>1070</ele>
        <time>2019-05-31T12:33:29.965Z</time>
      </trkpt>
      <trkpt lat="45.41178" lon="3.85159">
        <ele>1069</ele>
        <time>2019-05-31T12:33:34.963Z</time>
      </trkpt>
      <trkpt lat="45.41175" lon="3.85153">
        <ele>1069</ele>
        <time>2019-05-31T12:33:39.945Z</time>
      </trkpt>
      <trkpt lat="45.41172" lon="3.85147">
        <ele>1070</ele>
        <time>2019-05-31T12:33:43.948Z</time>
      </trkpt>
      <trkpt lat="45.41169" lon="3.85138">
        <ele>1070</ele>
        <time>2019-05-31T12:33:48.964Z</time>
      </trkpt>
      <trkpt lat="45.41166" lon="3.85126">
        <ele>1070</ele>
        <time>2019-05-31T12:33:52.977Z</time>
      </trkpt>
      <trkpt lat="45.41164" lon="3.85117">
        <ele>1071</ele>
        <time>2019-05-31T12:33:56.974Z</time>
      </trkpt>
      <trkpt lat="45.41163" lon="3.85113">
        <ele>1071</ele>
        <time>2019-05-31T12:34:01.967Z</time>
      </trkpt>
      <trkpt lat="45.4116" lon="3.85102">
        <ele>1071</ele>
        <time>2019-05-31T12:34:05.965Z</time>
      </trkpt>
      <trkpt lat="45.4116" lon="3.85091">
        <ele>1072</ele>
        <time>2019-05-31T12:34:09.976Z</time>
      </trkpt>
      <trkpt lat="45.41155" lon="3.85081">
        <ele>1072</ele>
        <time>2019-05-31T12:34:14.974Z</time>
      </trkpt>
      <trkpt lat="45.41151" lon="3.85069">
        <ele>1072</ele>
        <time>2019-05-31T12:34:19.971Z</time>
      </trkpt>
      <trkpt lat="45.41148" lon="3.85062">
        <ele>1072</ele>
        <time>2019-05-31T12:34:23.959Z</time>
      </trkpt>
      <trkpt lat="45.41145" lon="3.85054">
        <ele>1072</ele>
        <time>2019-05-31T12:34:27.966Z</time>
      </trkpt>
      <trkpt lat="45.4114" lon="3.8505">
        <ele>1072</ele>
        <time>2019-05-31T12:34:32.964Z</time>
      </trkpt>
      <trkpt lat="45.41135" lon="3.85044">
        <ele>1072</ele>
        <time>2019-05-31T12:34:37.972Z</time>
      </trkpt>
      <trkpt lat="45.41131" lon="3.85035">
        <ele>1072</ele>
        <time>2019-05-31T12:34:42.970Z</time>
      </trkpt>
      <trkpt lat="45.41122" lon="3.85028">
        <ele>1072</ele>
        <time>2019-05-31T12:34:47.965Z</time>
      </trkpt>
      <trkpt lat="45.41116" lon="3.85025">
        <ele>1072</ele>
        <time>2019-05-31T12:34:51.963Z</time>
      </trkpt>
      <trkpt lat="45.41106" lon="3.85021">
        <ele>1072</ele>
        <time>2019-05-31T12:34:56.965Z</time>
      </trkpt>
      <trkpt lat="45.41097" lon="3.85014">
        <ele>1072</ele>
        <time>2019-05-31T12:35:01.966Z</time>
      </trkpt>
      <trkpt lat="45.41091" lon="3.8501">
        <ele>1072</ele>
        <time>2019-05-31T12:35:05.960Z</time>
      </trkpt>
      <trkpt lat="45.41085" lon="3.85006">
        <ele>1072</ele>
        <time>2019-05-31T12:35:09.961Z</time>
      </trkpt>
      <trkpt lat="45.41079" lon="3.84997">
        <ele>1072</ele>
        <time>2019-05-31T12:35:15.982Z</time>
      </trkpt>
      <trkpt lat="45.41075" lon="3.84991">
        <ele>1072</ele>
        <time>2019-05-31T12:35:19.984Z</time>
      </trkpt>
      <trkpt lat="45.41068" lon="3.84984">
        <ele>1071</ele>
        <time>2019-05-31T12:35:24.981Z</time>
      </trkpt>
      <trkpt lat="45.41062" lon="3.84978">
        <ele>1071</ele>
        <time>2019-05-31T12:35:28.978Z</time>
      </trkpt>
      <trkpt lat="45.41053" lon="3.84974">
        <ele>1071</ele>
        <time>2019-05-31T12:35:33.970Z</time>
      </trkpt>
      <trkpt lat="45.41048" lon="3.84969">
        <ele>1071</ele>
        <time>2019-05-31T12:35:37.986Z</time>
      </trkpt>
      <trkpt lat="45.41043" lon="3.84963">
        <ele>1071</ele>
        <time>2019-05-31T12:35:41.985Z</time>
      </trkpt>
      <trkpt lat="45.41036" lon="3.84958">
        <ele>1070</ele>
        <time>2019-05-31T12:35:45.989Z</time>
      </trkpt>
      <trkpt lat="45.41024" lon="3.8495">
        <ele>1070</ele>
        <time>2019-05-31T12:35:50.987Z</time>
      </trkpt>
      <trkpt lat="45.41013" lon="3.84946">
        <ele>1070</ele>
        <time>2019-05-31T12:35:55.978Z</time>
      </trkpt>
      <trkpt lat="45.41007" lon="3.84943">
        <ele>1070</ele>
        <time>2019-05-31T12:36:00.983Z</time>
      </trkpt>
      <trkpt lat="45.41" lon="3.84939">
        <ele>1070</ele>
        <time>2019-05-31T12:36:04.983Z</time>
      </trkpt>
      <trkpt lat="45.40994" lon="3.84933">
        <ele>1070</ele>
        <time>2019-05-31T12:36:09.985Z</time>
      </trkpt>
      <trkpt lat="45.4099" lon="3.84933">
        <ele>1070</ele>
        <time>2019-05-31T12:36:13.975Z</time>
      </trkpt>
      <trkpt lat="45.40983" lon="3.84929">
        <ele>1073</ele>
        <time>2019-05-31T12:36:19.019Z</time>
      </trkpt>
      <trkpt lat="45.40975" lon="3.84931">
        <ele>1074</ele>
        <time>2019-05-31T12:36:23.962Z</time>
      </trkpt>
      <trkpt lat="45.40969" lon="3.8493">
        <ele>1073</ele>
        <time>2019-05-31T12:36:27.973Z</time>
      </trkpt>
      <trkpt lat="45.40965" lon="3.84929">
        <ele>1073</ele>
        <time>2019-05-31T12:36:31.981Z</time>
      </trkpt>
      <trkpt lat="45.40957" lon="3.84925">
        <ele>1074</ele>
        <time>2019-05-31T12:36:36.983Z</time>
      </trkpt>
      <trkpt lat="45.40952" lon="3.84917">
        <ele>1074</ele>
        <time>2019-05-31T12:36:41.019Z</time>
      </trkpt>
      <trkpt lat="45.40946" lon="3.84912">
        <ele>1074</ele>
        <time>2019-05-31T12:36:45.983Z</time>
      </trkpt>
      <trkpt lat="45.40934" lon="3.84909">
        <ele>1074</ele>
        <time>2019-05-31T12:36:49.988Z</time>
      </trkpt>
      <trkpt lat="45.40924" lon="3.8491">
        <ele>1075</ele>
        <time>2019-05-31T12:36:54.963Z</time>
      </trkpt>
      <trkpt lat="45.40916" lon="3.8491">
        <ele>1075</ele>
        <time>2019-05-31T12:36:58.972Z</time>
      </trkpt>
      <trkpt lat="45.40908" lon="3.84911">
        <ele>1075</ele>
        <time>2019-05-31T12:37:03.976Z</time>
      </trkpt>
      <trkpt lat="45.40901" lon="3.84909">
        <ele>1077</ele>
        <time>2019-05-31T12:37:07.987Z</time>
      </trkpt>
      <trkpt lat="45.40893" lon="3.84907">
        <ele>1077</ele>
        <time>2019-05-31T12:37:12.975Z</time>
      </trkpt>
      <trkpt lat="45.40886" lon="3.84904">
        <ele>1077</ele>
        <time>2019-05-31T12:37:16.980Z</time>
      </trkpt>
      <trkpt lat="45.40877" lon="3.84904">
        <ele>1077</ele>
        <time>2019-05-31T12:37:22.024Z</time>
      </trkpt>
      <trkpt lat="45.4087" lon="3.84902">
        <ele>1079</ele>
        <time>2019-05-31T12:37:27.001Z</time>
      </trkpt>
      <trkpt lat="45.40866" lon="3.84898">
        <ele>1079</ele>
        <time>2019-05-31T12:37:31.987Z</time>
      </trkpt>
      <trkpt lat="45.40859" lon="3.84896">
        <ele>1079</ele>
        <time>2019-05-31T12:37:35.992Z</time>
      </trkpt>
      <trkpt lat="45.40856" lon="3.84892">
        <ele>1079</ele>
        <time>2019-05-31T12:37:40.975Z</time>
      </trkpt>
      <trkpt lat="45.4085" lon="3.84888">
        <ele>1079</ele>
        <time>2019-05-31T12:37:44.974Z</time>
      </trkpt>
      <trkpt lat="45.40843" lon="3.84887">
        <ele>1078</ele>
        <time>2019-05-31T12:37:48.991Z</time>
      </trkpt>
      <trkpt lat="45.40835" lon="3.84887">
        <ele>1078</ele>
        <time>2019-05-31T12:37:53.968Z</time>
      </trkpt>
      <trkpt lat="45.40831" lon="3.84886">
        <ele>1078</ele>
        <time>2019-05-31T12:37:57.975Z</time>
      </trkpt>
      <trkpt lat="45.40826" lon="3.84886">
        <ele>1078</ele>
        <time>2019-05-31T12:38:01.978Z</time>
      </trkpt>
      <trkpt lat="45.40816" lon="3.84885">
        <ele>1077</ele>
        <time>2019-05-31T12:38:06.975Z</time>
      </trkpt>
      <trkpt lat="45.4081" lon="3.84885">
        <ele>1077</ele>
        <time>2019-05-31T12:38:10.968Z</time>
      </trkpt>
      <trkpt lat="45.40803" lon="3.84881">
        <ele>1077</ele>
        <time>2019-05-31T12:38:14.985Z</time>
      </trkpt>
      <trkpt lat="45.40789" lon="3.84878">
        <ele>1075</ele>
        <time>2019-05-31T12:38:19.982Z</time>
      </trkpt>
      <trkpt lat="45.40782" lon="3.84881">
        <ele>1075</ele>
        <time>2019-05-31T12:38:23.982Z</time>
      </trkpt>
      <trkpt lat="45.40772" lon="3.84878">
        <ele>1075</ele>
        <time>2019-05-31T12:38:28.952Z</time>
      </trkpt>
      <trkpt lat="45.40766" lon="3.84874">
        <ele>1073</ele>
        <time>2019-05-31T12:38:32.962Z</time>
      </trkpt>
      <trkpt lat="45.40756" lon="3.8487">
        <ele>1073</ele>
        <time>2019-05-31T12:38:37.959Z</time>
      </trkpt>
      <trkpt lat="45.40746" lon="3.84864">
        <ele>1073</ele>
        <time>2019-05-31T12:38:42.966Z</time>
      </trkpt>
      <trkpt lat="45.40737" lon="3.84857">
        <ele>1073</ele>
        <time>2019-05-31T12:38:47.949Z</time>
      </trkpt>
      <trkpt lat="45.40729" lon="3.84853">
        <ele>1074</ele>
        <time>2019-05-31T12:38:51.957Z</time>
      </trkpt>
      <trkpt lat="45.40722" lon="3.84848">
        <ele>1074</ele>
        <time>2019-05-31T12:38:55.971Z</time>
      </trkpt>
      <trkpt lat="45.40716" lon="3.84843">
        <ele>1073</ele>
        <time>2019-05-31T12:38:59.963Z</time>
      </trkpt>
      <trkpt lat="45.40707" lon="3.84839">
        <ele>1077</ele>
        <time>2019-05-31T12:39:04.964Z</time>
      </trkpt>
      <trkpt lat="45.407" lon="3.84836">
        <ele>1077</ele>
        <time>2019-05-31T12:39:08.965Z</time>
      </trkpt>
      <trkpt lat="45.40693" lon="3.84831">
        <ele>1077</ele>
        <time>2019-05-31T12:39:13.967Z</time>
      </trkpt>
      <trkpt lat="45.40686" lon="3.84828">
        <ele>1077</ele>
        <time>2019-05-31T12:39:18.974Z</time>
      </trkpt>
      <trkpt lat="45.4068" lon="3.84825">
        <ele>1079</ele>
        <time>2019-05-31T12:39:23.969Z</time>
      </trkpt>
      <trkpt lat="45.40676" lon="3.84821">
        <ele>1079</ele>
        <time>2019-05-31T12:39:27.971Z</time>
      </trkpt>
      <trkpt lat="45.40671" lon="3.84817">
        <ele>1077</ele>
        <time>2019-05-31T12:39:32.962Z</time>
      </trkpt>
      <trkpt lat="45.40667" lon="3.84813">
        <ele>1077</ele>
        <time>2019-05-31T12:39:36.960Z</time>
      </trkpt>
      <trkpt lat="45.40659" lon="3.84806">
        <ele>1077</ele>
        <time>2019-05-31T12:39:41.963Z</time>
      </trkpt>
      <trkpt lat="45.40651" lon="3.84801">
        <ele>1074</ele>
        <time>2019-05-31T12:39:46.962Z</time>
      </trkpt>
      <trkpt lat="45.40642" lon="3.84797">
        <ele>1074</ele>
        <time>2019-05-31T12:39:51.961Z</time>
      </trkpt>
      <trkpt lat="45.40634" lon="3.84791">
        <ele>1071</ele>
        <time>2019-05-31T12:39:56.961Z</time>
      </trkpt>
      <trkpt lat="45.40628" lon="3.84786">
        <ele>1071</ele>
        <time>2019-05-31T12:40:01.964Z</time>
      </trkpt>
      <trkpt lat="45.40618" lon="3.84783">
        <ele>1070</ele>
        <time>2019-05-31T12:40:06.963Z</time>
      </trkpt>
      <trkpt lat="45.40609" lon="3.84782">
        <ele>1070</ele>
        <time>2019-05-31T12:40:11.962Z</time>
      </trkpt>
      <trkpt lat="45.40602" lon="3.84781">
        <ele>1070</ele>
        <time>2019-05-31T12:40:15.962Z</time>
      </trkpt>
      <trkpt lat="45.40594" lon="3.84782">
        <ele>1068</ele>
        <time>2019-05-31T12:40:20.963Z</time>
      </trkpt>
      <trkpt lat="45.40588" lon="3.84783">
        <ele>1068</ele>
        <time>2019-05-31T12:40:24.966Z</time>
      </trkpt>
      <trkpt lat="45.4058" lon="3.84784">
        <ele>1068</ele>
        <time>2019-05-31T12:40:29.958Z</time>
      </trkpt>
      <trkpt lat="45.40571" lon="3.84781">
        <ele>1068</ele>
        <time>2019-05-31T12:40:33.963Z</time>
      </trkpt>
      <trkpt lat="45.40568" lon="3.8478">
        <ele>1068</ele>
        <time>2019-05-31T12:40:37.959Z</time>
      </trkpt>
      <trkpt lat="45.40561" lon="3.84775">
        <ele>1068</ele>
        <time>2019-05-31T12:40:42.963Z</time>
      </trkpt>
      <trkpt lat="45.40553" lon="3.84771">
        <ele>1068</ele>
        <time>2019-05-31T12:40:47.962Z</time>
      </trkpt>
      <trkpt lat="45.40542" lon="3.84768">
        <ele>1069</ele>
        <time>2019-05-31T12:40:52.965Z</time>
      </trkpt>
      <trkpt lat="45.40534" lon="3.84767">
        <ele>1069</ele>
        <time>2019-05-31T12:40:56.963Z</time>
      </trkpt>
      <trkpt lat="45.40527" lon="3.84764">
        <ele>1069</ele>
        <time>2019-05-31T12:41:01.962Z</time>
      </trkpt>
      <trkpt lat="45.4052" lon="3.8476">
        <ele>1067</ele>
        <time>2019-05-31T12:41:05.964Z</time>
      </trkpt>
      <trkpt lat="45.40513" lon="3.84758">
        <ele>1067</ele>
        <time>2019-05-31T12:41:09.966Z</time>
      </trkpt>
      <trkpt lat="45.40506" lon="3.84757">
        <ele>1067</ele>
        <time>2019-05-31T12:41:13.964Z</time>
      </trkpt>
      <trkpt lat="45.405" lon="3.84757">
        <ele>1067</ele>
        <time>2019-05-31T12:41:17.976Z</time>
      </trkpt>
      <trkpt lat="45.40487" lon="3.84756">
        <ele>1067</ele>
        <time>2019-05-31T12:41:22.964Z</time>
      </trkpt>
      <trkpt lat="45.40478" lon="3.84756">
        <ele>1064</ele>
        <time>2019-05-31T12:41:27.964Z</time>
      </trkpt>
      <trkpt lat="45.40471" lon="3.84756">
        <ele>1064</ele>
        <time>2019-05-31T12:41:31.961Z</time>
      </trkpt>
      <trkpt lat="45.40459" lon="3.84755">
        <ele>1064</ele>
        <time>2019-05-31T12:41:36.962Z</time>
      </trkpt>
      <trkpt lat="45.40451" lon="3.84759">
        <ele>1064</ele>
        <time>2019-05-31T12:41:41.961Z</time>
      </trkpt>
      <trkpt lat="45.40446" lon="3.8476">
        <ele>1064</ele>
        <time>2019-05-31T12:41:45.976Z</time>
      </trkpt>
      <trkpt lat="45.40438" lon="3.84758">
        <ele>1064</ele>
        <time>2019-05-31T12:41:49.964Z</time>
      </trkpt>
      <trkpt lat="45.4043" lon="3.84755">
        <ele>1062</ele>
        <time>2019-05-31T12:41:54.965Z</time>
      </trkpt>
      <trkpt lat="45.4042" lon="3.8475">
        <ele>1062</ele>
        <time>2019-05-31T12:41:59.962Z</time>
      </trkpt>
      <trkpt lat="45.40413" lon="3.84752">
        <ele>1062</ele>
        <time>2019-05-31T12:42:03.969Z</time>
      </trkpt>
      <trkpt lat="45.40409" lon="3.84753">
        <ele>1062</ele>
        <time>2019-05-31T12:42:07.967Z</time>
      </trkpt>
      <trkpt lat="45.40403" lon="3.84752">
        <ele>1062</ele>
        <time>2019-05-31T12:42:12.964Z</time>
      </trkpt>
      <trkpt lat="45.40398" lon="3.84754">
        <ele>1059</ele>
        <time>2019-05-31T12:42:17.966Z</time>
      </trkpt>
      <trkpt lat="45.40394" lon="3.84752">
        <ele>1059</ele>
        <time>2019-05-31T12:42:22.961Z</time>
      </trkpt>
      <trkpt lat="45.40389" lon="3.84751">
        <ele>1059</ele>
        <time>2019-05-31T12:42:26.964Z</time>
      </trkpt>
      <trkpt lat="45.40376" lon="3.8476">
        <ele>1059</ele>
        <time>2019-05-31T12:42:31.965Z</time>
      </trkpt>
      <trkpt lat="45.40368" lon="3.84761">
        <ele>1054</ele>
        <time>2019-05-31T12:42:35.967Z</time>
      </trkpt>
      <trkpt lat="45.40353" lon="3.84764">
        <ele>1055</ele>
        <time>2019-05-31T12:42:40.960Z</time>
      </trkpt>
      <trkpt lat="45.40344" lon="3.84764">
        <ele>1051</ele>
        <time>2019-05-31T12:42:45.963Z</time>
      </trkpt>
      <trkpt lat="45.40333" lon="3.84771">
        <ele>1051</ele>
        <time>2019-05-31T12:42:49.963Z</time>
      </trkpt>
      <trkpt lat="45.40329" lon="3.84775">
        <ele>1051</ele>
        <time>2019-05-31T12:42:54.958Z</time>
      </trkpt>
      <trkpt lat="45.40329" lon="3.84775">
        <ele>1051</ele>
        <time>2019-05-31T12:42:59.952Z</time>
      </trkpt>
      <trkpt lat="45.40328" lon="3.84774">
        <ele>1051</ele>
        <time>2019-05-31T12:43:03.965Z</time>
      </trkpt>
      <trkpt lat="45.40328" lon="3.84774">
        <ele>1051</ele>
        <time>2019-05-31T12:43:08.959Z</time>
      </trkpt>
      <trkpt lat="45.40328" lon="3.84771">
        <ele>1051</ele>
        <time>2019-05-31T12:43:13.966Z</time>
      </trkpt>
      <trkpt lat="45.40322" lon="3.84772">
        <ele>1051</ele>
        <time>2019-05-31T12:43:18.958Z</time>
      </trkpt>
      <trkpt lat="45.40316" lon="3.84779">
        <ele>1048</ele>
        <time>2019-05-31T12:43:22.955Z</time>
      </trkpt>
      <trkpt lat="45.4031" lon="3.84787">
        <ele>1048</ele>
        <time>2019-05-31T12:43:27.963Z</time>
      </trkpt>
      <trkpt lat="45.40303" lon="3.8479">
        <ele>1048</ele>
        <time>2019-05-31T12:43:32.962Z</time>
      </trkpt>
      <trkpt lat="45.40293" lon="3.84793">
        <ele>1053</ele>
        <time>2019-05-31T12:43:37.965Z</time>
      </trkpt>
      <trkpt lat="45.40285" lon="3.84791">
        <ele>1049</ele>
        <time>2019-05-31T12:43:42.963Z</time>
      </trkpt>
      <trkpt lat="45.40276" lon="3.84785">
        <ele>1049</ele>
        <time>2019-05-31T12:43:47.965Z</time>
      </trkpt>
      <trkpt lat="45.40269" lon="3.8478">
        <ele>1049</ele>
        <time>2019-05-31T12:43:52.952Z</time>
      </trkpt>
      <trkpt lat="45.40263" lon="3.84777">
        <ele>1052</ele>
        <time>2019-05-31T12:43:56.955Z</time>
      </trkpt>
      <trkpt lat="45.40254" lon="3.84776">
        <ele>1052</ele>
        <time>2019-05-31T12:44:01.963Z</time>
      </trkpt>
      <trkpt lat="45.40248" lon="3.84772">
        <ele>1052</ele>
        <time>2019-05-31T12:44:05.973Z</time>
      </trkpt>
      <trkpt lat="45.40242" lon="3.84766">
        <ele>1052</ele>
        <time>2019-05-31T12:44:09.966Z</time>
      </trkpt>
      <trkpt lat="45.40236" lon="3.84755">
        <ele>1050</ele>
        <time>2019-05-31T12:44:14.953Z</time>
      </trkpt>
      <trkpt lat="45.40232" lon="3.84746">
        <ele>1053</ele>
        <time>2019-05-31T12:44:18.962Z</time>
      </trkpt>
      <trkpt lat="45.40228" lon="3.84736">
        <ele>1050</ele>
        <time>2019-05-31T12:44:23.966Z</time>
      </trkpt>
      <trkpt lat="45.4022" lon="3.84725">
        <ele>1050</ele>
        <time>2019-05-31T12:44:27.968Z</time>
      </trkpt>
      <trkpt lat="45.40213" lon="3.84717">
        <ele>1050</ele>
        <time>2019-05-31T12:44:32.960Z</time>
      </trkpt>
      <trkpt lat="45.40207" lon="3.8471">
        <ele>1051</ele>
        <time>2019-05-31T12:44:37.968Z</time>
      </trkpt>
      <trkpt lat="45.40196" lon="3.8471">
        <ele>1051</ele>
        <time>2019-05-31T12:44:41.968Z</time>
      </trkpt>
      <trkpt lat="45.40187" lon="3.84708">
        <ele>1047</ele>
        <time>2019-05-31T12:44:46.955Z</time>
      </trkpt>
      <trkpt lat="45.40182" lon="3.84695">
        <ele>1047</ele>
        <time>2019-05-31T12:44:50.961Z</time>
      </trkpt>
      <trkpt lat="45.40175" lon="3.8468">
        <ele>1046</ele>
        <time>2019-05-31T12:44:55.968Z</time>
      </trkpt>
      <trkpt lat="45.40168" lon="3.84674">
        <ele>1046</ele>
        <time>2019-05-31T12:45:00.956Z</time>
      </trkpt>
      <trkpt lat="45.40165" lon="3.84661">
        <ele>1046</ele>
        <time>2019-05-31T12:45:05.965Z</time>
      </trkpt>
      <trkpt lat="45.40163" lon="3.84653">
        <ele>1044</ele>
        <time>2019-05-31T12:45:09.969Z</time>
      </trkpt>
      <trkpt lat="45.40162" lon="3.8464">
        <ele>1044</ele>
        <time>2019-05-31T12:45:14.958Z</time>
      </trkpt>
      <trkpt lat="45.40157" lon="3.84626">
        <ele>1044</ele>
        <time>2019-05-31T12:45:19.967Z</time>
      </trkpt>
      <trkpt lat="45.40149" lon="3.84607">
        <ele>1044</ele>
        <time>2019-05-31T12:45:23.968Z</time>
      </trkpt>
      <trkpt lat="45.40139" lon="3.84586">
        <ele>1041</ele>
        <time>2019-05-31T12:45:28.958Z</time>
      </trkpt>
      <trkpt lat="45.40129" lon="3.84568">
        <ele>1038</ele>
        <time>2019-05-31T12:45:33.966Z</time>
      </trkpt>
      <trkpt lat="45.40114" lon="3.84544">
        <ele>1038</ele>
        <time>2019-05-31T12:45:38.960Z</time>
      </trkpt>
      <trkpt lat="45.40094" lon="3.84524">
        <ele>1039</ele>
        <time>2019-05-31T12:45:43.969Z</time>
      </trkpt>
      <trkpt lat="45.40071" lon="3.84502">
        <ele>1038</ele>
        <time>2019-05-31T12:45:48.959Z</time>
      </trkpt>
      <trkpt lat="45.40055" lon="3.84485">
        <ele>1041</ele>
        <time>2019-05-31T12:45:53.958Z</time>
      </trkpt>
      <trkpt lat="45.40042" lon="3.8448">
        <ele>1041</ele>
        <time>2019-05-31T12:45:57.969Z</time>
      </trkpt>
      <trkpt lat="45.40025" lon="3.84472">
        <ele>1039</ele>
        <time>2019-05-31T12:46:02.963Z</time>
      </trkpt>
      <trkpt lat="45.40002" lon="3.84459">
        <ele>1040</ele>
        <time>2019-05-31T12:46:07.968Z</time>
      </trkpt>
      <trkpt lat="45.3999" lon="3.84454">
        <ele>1036</ele>
        <time>2019-05-31T12:46:11.970Z</time>
      </trkpt>
      <trkpt lat="45.39981" lon="3.84452">
        <ele>1036</ele>
        <time>2019-05-31T12:46:16.956Z</time>
      </trkpt>
      <trkpt lat="45.39976" lon="3.84451">
        <ele>1036</ele>
        <time>2019-05-31T12:46:21.974Z</time>
      </trkpt>
      <trkpt lat="45.39967" lon="3.8445">
        <ele>1036</ele>
        <time>2019-05-31T12:46:26.957Z</time>
      </trkpt>
      <trkpt lat="45.39961" lon="3.84447">
        <ele>1036</ele>
        <time>2019-05-31T12:46:30.962Z</time>
      </trkpt>
      <trkpt lat="45.39952" lon="3.84445">
        <ele>1037</ele>
        <time>2019-05-31T12:46:35.973Z</time>
      </trkpt>
      <trkpt lat="45.39943" lon="3.84441">
        <ele>1037</ele>
        <time>2019-05-31T12:46:40.958Z</time>
      </trkpt>
      <trkpt lat="45.39934" lon="3.84438">
        <ele>1037</ele>
        <time>2019-05-31T12:46:45.968Z</time>
      </trkpt>
      <trkpt lat="45.39925" lon="3.84439">
        <ele>1035</ele>
        <time>2019-05-31T12:46:50.959Z</time>
      </trkpt>
      <trkpt lat="45.39918" lon="3.8444">
        <ele>1035</ele>
        <time>2019-05-31T12:46:54.959Z</time>
      </trkpt>
      <trkpt lat="45.3991" lon="3.84445">
        <ele>1035</ele>
        <time>2019-05-31T12:46:59.967Z</time>
      </trkpt>
      <trkpt lat="45.39904" lon="3.84444">
        <ele>1035</ele>
        <time>2019-05-31T12:47:04.954Z</time>
      </trkpt>
      <trkpt lat="45.39899" lon="3.84447">
        <ele>1035</ele>
        <time>2019-05-31T12:47:08.955Z</time>
      </trkpt>
      <trkpt lat="45.39893" lon="3.8445">
        <ele>1035</ele>
        <time>2019-05-31T12:47:13.976Z</time>
      </trkpt>
      <trkpt lat="45.39888" lon="3.8445">
        <ele>1035</ele>
        <time>2019-05-31T12:47:17.968Z</time>
      </trkpt>
      <trkpt lat="45.39879" lon="3.84457">
        <ele>1035</ele>
        <time>2019-05-31T12:47:22.959Z</time>
      </trkpt>
      <trkpt lat="45.39873" lon="3.84464">
        <ele>1036</ele>
        <time>2019-05-31T12:47:27.970Z</time>
      </trkpt>
      <trkpt lat="45.3987" lon="3.84468">
        <ele>1036</ele>
        <time>2019-05-31T12:47:31.970Z</time>
      </trkpt>
      <trkpt lat="45.39862" lon="3.84481">
        <ele>1036</ele>
        <time>2019-05-31T12:47:36.960Z</time>
      </trkpt>
      <trkpt lat="45.39858" lon="3.84495">
        <ele>1037</ele>
        <time>2019-05-31T12:47:41.968Z</time>
      </trkpt>
      <trkpt lat="45.39852" lon="3.84505">
        <ele>1037</ele>
        <time>2019-05-31T12:47:46.969Z</time>
      </trkpt>
      <trkpt lat="45.39848" lon="3.84513">
        <ele>1037</ele>
        <time>2019-05-31T12:47:51.974Z</time>
      </trkpt>
      <trkpt lat="45.3984" lon="3.84516">
        <ele>1036</ele>
        <time>2019-05-31T12:47:56.958Z</time>
      </trkpt>
      <trkpt lat="45.39835" lon="3.84523">
        <ele>1036</ele>
        <time>2019-05-31T12:48:00.957Z</time>
      </trkpt>
      <trkpt lat="45.39831" lon="3.84535">
        <ele>1036</ele>
        <time>2019-05-31T12:48:05.973Z</time>
      </trkpt>
      <trkpt lat="45.39826" lon="3.84543">
        <ele>1037</ele>
        <time>2019-05-31T12:48:10.965Z</time>
      </trkpt>
      <trkpt lat="45.39821" lon="3.84554">
        <ele>1037</ele>
        <time>2019-05-31T12:48:15.974Z</time>
      </trkpt>
      <trkpt lat="45.3982" lon="3.8456">
        <ele>1037</ele>
        <time>2019-05-31T12:48:19.969Z</time>
      </trkpt>
      <trkpt lat="45.39816" lon="3.84569">
        <ele>1035</ele>
        <time>2019-05-31T12:48:24.967Z</time>
      </trkpt>
      <trkpt lat="45.39812" lon="3.84573">
        <ele>1035</ele>
        <time>2019-05-31T12:48:29.963Z</time>
      </trkpt>
      <trkpt lat="45.39809" lon="3.84577">
        <ele>1035</ele>
        <time>2019-05-31T12:48:33.972Z</time>
      </trkpt>
      <trkpt lat="45.39803" lon="3.84574">
        <ele>1035</ele>
        <time>2019-05-31T12:48:37.968Z</time>
      </trkpt>
      <trkpt lat="45.39798" lon="3.8457">
        <ele>1035</ele>
        <time>2019-05-31T12:48:41.971Z</time>
      </trkpt>
      <trkpt lat="45.39792" lon="3.84562">
        <ele>1035</ele>
        <time>2019-05-31T12:48:46.958Z</time>
      </trkpt>
      <trkpt lat="45.39785" lon="3.84555">
        <ele>1035</ele>
        <time>2019-05-31T12:48:50.962Z</time>
      </trkpt>
      <trkpt lat="45.3978" lon="3.84547">
        <ele>1035</ele>
        <time>2019-05-31T12:48:55.955Z</time>
      </trkpt>
      <trkpt lat="45.39777" lon="3.84541">
        <ele>1036</ele>
        <time>2019-05-31T12:48:59.962Z</time>
      </trkpt>
      <trkpt lat="45.39773" lon="3.84534">
        <ele>1036</ele>
        <time>2019-05-31T12:49:03.973Z</time>
      </trkpt>
      <trkpt lat="45.39768" lon="3.84528">
        <ele>1036</ele>
        <time>2019-05-31T12:49:08.967Z</time>
      </trkpt>
      <trkpt lat="45.39761" lon="3.84523">
        <ele>1037</ele>
        <time>2019-05-31T12:49:13.971Z</time>
      </trkpt>
      <trkpt lat="45.39756" lon="3.84515">
        <ele>1037</ele>
        <time>2019-05-31T12:49:17.967Z</time>
      </trkpt>
      <trkpt lat="45.39752" lon="3.84508">
        <ele>1037</ele>
        <time>2019-05-31T12:49:21.970Z</time>
      </trkpt>
      <trkpt lat="45.39745" lon="3.84504">
        <ele>1037</ele>
        <time>2019-05-31T12:49:26.959Z</time>
      </trkpt>
      <trkpt lat="45.3974" lon="3.84499">
        <ele>1037</ele>
        <time>2019-05-31T12:49:30.961Z</time>
      </trkpt>
      <trkpt lat="45.39734" lon="3.84485">
        <ele>1041</ele>
        <time>2019-05-31T12:49:35.973Z</time>
      </trkpt>
      <trkpt lat="45.39729" lon="3.84476">
        <ele>1041</ele>
        <time>2019-05-31T12:49:39.964Z</time>
      </trkpt>
      <trkpt lat="45.39724" lon="3.84468">
        <ele>1041</ele>
        <time>2019-05-31T12:49:43.963Z</time>
      </trkpt>
      <trkpt lat="45.39708" lon="3.84437">
        <ele>1042</ele>
        <time>2019-05-31T12:49:48.950Z</time>
      </trkpt>
      <trkpt lat="45.39692" lon="3.84415">
        <ele>1041</ele>
        <time>2019-05-31T12:49:52.971Z</time>
      </trkpt>
      <trkpt lat="45.39683" lon="3.84399">
        <ele>1041</ele>
        <time>2019-05-31T12:49:56.967Z</time>
      </trkpt>
      <trkpt lat="45.39676" lon="3.84383">
        <ele>1045</ele>
        <time>2019-05-31T12:50:01.961Z</time>
      </trkpt>
      <trkpt lat="45.39676" lon="3.84371">
        <ele>1045</ele>
        <time>2019-05-31T12:50:06.968Z</time>
      </trkpt>
      <trkpt lat="45.39675" lon="3.84358">
        <ele>1045</ele>
        <time>2019-05-31T12:50:11.967Z</time>
      </trkpt>
      <trkpt lat="45.39674" lon="3.84344">
        <ele>1044</ele>
        <time>2019-05-31T12:50:16.961Z</time>
      </trkpt>
      <trkpt lat="45.39671" lon="3.84331">
        <ele>1044</ele>
        <time>2019-05-31T12:50:21.966Z</time>
      </trkpt>
      <trkpt lat="45.39668" lon="3.84324">
        <ele>1044</ele>
        <time>2019-05-31T12:50:25.976Z</time>
      </trkpt>
      <trkpt lat="45.39661" lon="3.84314">
        <ele>1040</ele>
        <time>2019-05-31T12:50:30.975Z</time>
      </trkpt>
      <trkpt lat="45.39649" lon="3.843">
        <ele>1042</ele>
        <time>2019-05-31T12:50:34.974Z</time>
      </trkpt>
      <trkpt lat="45.39619" lon="3.84281">
        <ele>1036</ele>
        <time>2019-05-31T12:50:39.981Z</time>
      </trkpt>
      <trkpt lat="45.39601" lon="3.84267">
        <ele>1036</ele>
        <time>2019-05-31T12:50:44.964Z</time>
      </trkpt>
      <trkpt lat="45.39592" lon="3.84261">
        <ele>1031</ele>
        <time>2019-05-31T12:50:49.966Z</time>
      </trkpt>
      <trkpt lat="45.39587" lon="3.84256">
        <ele>1031</ele>
        <time>2019-05-31T12:50:53.967Z</time>
      </trkpt>
      <trkpt lat="45.39581" lon="3.84249">
        <ele>1031</ele>
        <time>2019-05-31T12:50:58.977Z</time>
      </trkpt>
      <trkpt lat="45.39573" lon="3.84243">
        <ele>1031</ele>
        <time>2019-05-31T12:51:03.966Z</time>
      </trkpt>
      <trkpt lat="45.39562" lon="3.84237">
        <ele>1030</ele>
        <time>2019-05-31T12:51:08.971Z</time>
      </trkpt>
      <trkpt lat="45.39555" lon="3.84232">
        <ele>1031</ele>
        <time>2019-05-31T12:51:12.967Z</time>
      </trkpt>
      <trkpt lat="45.39549" lon="3.8423">
        <ele>1031</ele>
        <time>2019-05-31T12:51:17.969Z</time>
      </trkpt>
      <trkpt lat="45.3954" lon="3.84224">
        <ele>1030</ele>
        <time>2019-05-31T12:51:22.964Z</time>
      </trkpt>
      <trkpt lat="45.39533" lon="3.8422">
        <ele>1030</ele>
        <time>2019-05-31T12:51:26.968Z</time>
      </trkpt>
      <trkpt lat="45.39526" lon="3.84215">
        <ele>1030</ele>
        <time>2019-05-31T12:51:31.975Z</time>
      </trkpt>
      <trkpt lat="45.39519" lon="3.84211">
        <ele>1030</ele>
        <time>2019-05-31T12:51:36.970Z</time>
      </trkpt>
      <trkpt lat="45.39512" lon="3.8421">
        <ele>1028</ele>
        <time>2019-05-31T12:51:41.968Z</time>
      </trkpt>
      <trkpt lat="45.39508" lon="3.84209">
        <ele>1028</ele>
        <time>2019-05-31T12:51:45.971Z</time>
      </trkpt>
      <trkpt lat="45.39507" lon="3.84209">
        <ele>1028</ele>
        <time>2019-05-31T12:51:49.975Z</time>
      </trkpt>
      <trkpt lat="45.39506" lon="3.84212">
        <ele>1028</ele>
        <time>2019-05-31T12:51:54.980Z</time>
      </trkpt>
      <trkpt lat="45.395" lon="3.84212">
        <ele>1028</ele>
        <time>2019-05-31T12:51:59.965Z</time>
      </trkpt>
      <trkpt lat="45.39495" lon="3.84215">
        <ele>1028</ele>
        <time>2019-05-31T12:52:04.965Z</time>
      </trkpt>
      <trkpt lat="45.39489" lon="3.84215">
        <ele>1028</ele>
        <time>2019-05-31T12:52:09.966Z</time>
      </trkpt>
      <trkpt lat="45.39482" lon="3.84214">
        <ele>1026</ele>
        <time>2019-05-31T12:52:14.970Z</time>
      </trkpt>
      <trkpt lat="45.39475" lon="3.84212">
        <ele>1026</ele>
        <time>2019-05-31T12:52:19.970Z</time>
      </trkpt>
      <trkpt lat="45.39467" lon="3.8421">
        <ele>1026</ele>
        <time>2019-05-31T12:52:24.974Z</time>
      </trkpt>
      <trkpt lat="45.39459" lon="3.84205">
        <ele>1027</ele>
        <time>2019-05-31T12:52:29.974Z</time>
      </trkpt>
      <trkpt lat="45.39451" lon="3.84199">
        <ele>1023</ele>
        <time>2019-05-31T12:52:34.976Z</time>
      </trkpt>
      <trkpt lat="45.39445" lon="3.84194">
        <ele>1023</ele>
        <time>2019-05-31T12:52:38.978Z</time>
      </trkpt>
      <trkpt lat="45.3944" lon="3.8419">
        <ele>1023</ele>
        <time>2019-05-31T12:52:42.972Z</time>
      </trkpt>
      <trkpt lat="45.39433" lon="3.84186">
        <ele>1023</ele>
        <time>2019-05-31T12:52:47.980Z</time>
      </trkpt>
      <trkpt lat="45.39427" lon="3.84182">
        <ele>1018</ele>
        <time>2019-05-31T12:52:51.966Z</time>
      </trkpt>
      <trkpt lat="45.39421" lon="3.84178">
        <ele>1019</ele>
        <time>2019-05-31T12:52:55.967Z</time>
      </trkpt>
      <trkpt lat="45.39414" lon="3.84172">
        <ele>1019</ele>
        <time>2019-05-31T12:53:00.965Z</time>
      </trkpt>
      <trkpt lat="45.39405" lon="3.84166">
        <ele>1019</ele>
        <time>2019-05-31T12:53:14.962Z</time>
      </trkpt>
      <trkpt lat="45.39404" lon="3.84165">
        <ele>1019</ele>
        <time>2019-05-31T12:53:18.967Z</time>
      </trkpt>
      <trkpt lat="45.39399" lon="3.8416">
        <ele>1019</ele>
        <time>2019-05-31T12:53:23.966Z</time>
      </trkpt>
      <trkpt lat="45.39396" lon="3.84157">
        <ele>1019</ele>
        <time>2019-05-31T12:53:28.965Z</time>
      </trkpt>
      <trkpt lat="45.39394" lon="3.84154">
        <ele>1019</ele>
        <time>2019-05-31T12:53:32.968Z</time>
      </trkpt>
      <trkpt lat="45.39394" lon="3.84153">
        <ele>1019</ele>
        <time>2019-05-31T12:53:36.970Z</time>
      </trkpt>
      <trkpt lat="45.39393" lon="3.84152">
        <ele>1020</ele>
        <time>2019-05-31T12:53:41.971Z</time>
      </trkpt>
      <trkpt lat="45.39386" lon="3.8415">
        <ele>1020</ele>
        <time>2019-05-31T12:53:46.970Z</time>
      </trkpt>
      <trkpt lat="45.39381" lon="3.84148">
        <ele>1020</ele>
        <time>2019-05-31T12:53:50.974Z</time>
      </trkpt>
      <trkpt lat="45.39375" lon="3.84146">
        <ele>1019</ele>
        <time>2019-05-31T12:53:55.977Z</time>
      </trkpt>
      <trkpt lat="45.39368" lon="3.84142">
        <ele>1019</ele>
        <time>2019-05-31T12:54:00.969Z</time>
      </trkpt>
      <trkpt lat="45.39363" lon="3.84139">
        <ele>1019</ele>
        <time>2019-05-31T12:54:04.970Z</time>
      </trkpt>
      <trkpt lat="45.39357" lon="3.84135">
        <ele>1019</ele>
        <time>2019-05-31T12:54:09.971Z</time>
      </trkpt>
      <trkpt lat="45.3935" lon="3.84131">
        <ele>1019</ele>
        <time>2019-05-31T12:54:14.968Z</time>
      </trkpt>
      <trkpt lat="45.39343" lon="3.84125">
        <ele>1013</ele>
        <time>2019-05-31T12:54:19.972Z</time>
      </trkpt>
      <trkpt lat="45.39338" lon="3.84122">
        <ele>1015</ele>
        <time>2019-05-31T12:54:23.974Z</time>
      </trkpt>
      <trkpt lat="45.39332" lon="3.84118">
        <ele>1015</ele>
        <time>2019-05-31T12:54:28.965Z</time>
      </trkpt>
      <trkpt lat="45.39327" lon="3.84114">
        <ele>1015</ele>
        <time>2019-05-31T12:54:32.979Z</time>
      </trkpt>
      <trkpt lat="45.39323" lon="3.84111">
        <ele>1015</ele>
        <time>2019-05-31T12:54:36.970Z</time>
      </trkpt>
      <trkpt lat="45.39318" lon="3.84106">
        <ele>1011</ele>
        <time>2019-05-31T12:54:41.973Z</time>
      </trkpt>
      <trkpt lat="45.39311" lon="3.84103">
        <ele>1011</ele>
        <time>2019-05-31T12:54:46.971Z</time>
      </trkpt>
      <trkpt lat="45.39305" lon="3.84099">
        <ele>1011</ele>
        <time>2019-05-31T12:54:51.967Z</time>
      </trkpt>
      <trkpt lat="45.393" lon="3.84096">
        <ele>1010</ele>
        <time>2019-05-31T12:54:55.981Z</time>
      </trkpt>
      <trkpt lat="45.39297" lon="3.84094">
        <ele>1010</ele>
        <time>2019-05-31T12:54:59.972Z</time>
      </trkpt>
      <trkpt lat="45.39293" lon="3.8409">
        <ele>1010</ele>
        <time>2019-05-31T12:55:04.957Z</time>
      </trkpt>
      <trkpt lat="45.39288" lon="3.84085">
        <ele>1008</ele>
        <time>2019-05-31T12:55:08.964Z</time>
      </trkpt>
      <trkpt lat="45.39283" lon="3.84079">
        <ele>1008</ele>
        <time>2019-05-31T12:55:13.970Z</time>
      </trkpt>
      <trkpt lat="45.39278" lon="3.84075">
        <ele>1008</ele>
        <time>2019-05-31T12:55:18.971Z</time>
      </trkpt>
      <trkpt lat="45.3927" lon="3.84072">
        <ele>1008</ele>
        <time>2019-05-31T12:55:23.964Z</time>
      </trkpt>
      <trkpt lat="45.39264" lon="3.84067">
        <ele>1005</ele>
        <time>2019-05-31T12:55:28.958Z</time>
      </trkpt>
      <trkpt lat="45.39259" lon="3.84063">
        <ele>1002</ele>
        <time>2019-05-31T12:55:32.968Z</time>
      </trkpt>
      <trkpt lat="45.39254" lon="3.8406">
        <ele>1002</ele>
        <time>2019-05-31T12:55:36.964Z</time>
      </trkpt>
      <trkpt lat="45.39247" lon="3.84058">
        <ele>1002</ele>
        <time>2019-05-31T12:55:41.967Z</time>
      </trkpt>
      <trkpt lat="45.39239" lon="3.84058">
        <ele>1002</ele>
        <time>2019-05-31T12:55:46.966Z</time>
      </trkpt>
      <trkpt lat="45.39234" lon="3.84058">
        <ele>1001</ele>
        <time>2019-05-31T12:55:51.962Z</time>
      </trkpt>
      <trkpt lat="45.39229" lon="3.84056">
        <ele>1001</ele>
        <time>2019-05-31T12:55:55.964Z</time>
      </trkpt>
      <trkpt lat="45.39225" lon="3.84055">
        <ele>1001</ele>
        <time>2019-05-31T12:55:59.966Z</time>
      </trkpt>
      <trkpt lat="45.39219" lon="3.84051">
        <ele>1001</ele>
        <time>2019-05-31T12:56:04.963Z</time>
      </trkpt>
      <trkpt lat="45.39214" lon="3.84049">
        <ele>1001</ele>
        <time>2019-05-31T12:56:09.963Z</time>
      </trkpt>
      <trkpt lat="45.39209" lon="3.84049">
        <ele>1001</ele>
        <time>2019-05-31T12:56:13.973Z</time>
      </trkpt>
      <trkpt lat="45.39203" lon="3.84045">
        <ele>1001</ele>
        <time>2019-05-31T12:56:18.974Z</time>
      </trkpt>
      <trkpt lat="45.39196" lon="3.84044">
        <ele>1001</ele>
        <time>2019-05-31T12:56:23.968Z</time>
      </trkpt>
      <trkpt lat="45.39189" lon="3.84044">
        <ele>1001</ele>
        <time>2019-05-31T12:56:28.970Z</time>
      </trkpt>
      <trkpt lat="45.39182" lon="3.84043">
        <ele>1001</ele>
        <time>2019-05-31T12:56:33.972Z</time>
      </trkpt>
      <trkpt lat="45.39175" lon="3.84043">
        <ele>1000</ele>
        <time>2019-05-31T12:56:38.969Z</time>
      </trkpt>
      <trkpt lat="45.3917" lon="3.84043">
        <ele>1000</ele>
        <time>2019-05-31T12:56:42.974Z</time>
      </trkpt>
      <trkpt lat="45.39165" lon="3.84041">
        <ele>997</ele>
        <time>2019-05-31T12:56:47.970Z</time>
      </trkpt>
      <trkpt lat="45.39164" lon="3.84033">
        <ele>997</ele>
        <time>2019-05-31T12:56:52.977Z</time>
      </trkpt>
      <trkpt lat="45.39165" lon="3.84023">
        <ele>997</ele>
        <time>2019-05-31T12:56:57.967Z</time>
      </trkpt>
      <trkpt lat="45.39166" lon="3.84014">
        <ele>997</ele>
        <time>2019-05-31T12:57:01.967Z</time>
      </trkpt>
      <trkpt lat="45.39166" lon="3.84004">
        <ele>995</ele>
        <time>2019-05-31T12:57:06.967Z</time>
      </trkpt>
      <trkpt lat="45.39168" lon="3.83992">
        <ele>995</ele>
        <time>2019-05-31T12:57:11.975Z</time>
      </trkpt>
      <trkpt lat="45.39169" lon="3.83982">
        <ele>995</ele>
        <time>2019-05-31T12:57:16.963Z</time>
      </trkpt>
      <trkpt lat="45.3917" lon="3.83975">
        <ele>995</ele>
        <time>2019-05-31T12:57:20.974Z</time>
      </trkpt>
      <trkpt lat="45.39171" lon="3.83965">
        <ele>995</ele>
        <time>2019-05-31T12:57:25.968Z</time>
      </trkpt>
      <trkpt lat="45.39173" lon="3.83956">
        <ele>994</ele>
        <time>2019-05-31T12:57:30.971Z</time>
      </trkpt>
      <trkpt lat="45.39174" lon="3.83946">
        <ele>994</ele>
        <time>2019-05-31T12:57:35.966Z</time>
      </trkpt>
      <trkpt lat="45.39175" lon="3.83938">
        <ele>994</ele>
        <time>2019-05-31T12:57:39.982Z</time>
      </trkpt>
      <trkpt lat="45.39176" lon="3.83929">
        <ele>993</ele>
        <time>2019-05-31T12:57:44.959Z</time>
      </trkpt>
      <trkpt lat="45.39178" lon="3.83922">
        <ele>993</ele>
        <time>2019-05-31T12:57:48.981Z</time>
      </trkpt>
      <trkpt lat="45.39181" lon="3.83914">
        <ele>995</ele>
        <time>2019-05-31T12:57:52.980Z</time>
      </trkpt>
      <trkpt lat="45.39183" lon="3.83903">
        <ele>995</ele>
        <time>2019-05-31T12:57:57.958Z</time>
      </trkpt>
      <trkpt lat="45.39183" lon="3.83897">
        <ele>994</ele>
        <time>2019-05-31T12:58:01.974Z</time>
      </trkpt>
      <trkpt lat="45.39185" lon="3.83888">
        <ele>994</ele>
        <time>2019-05-31T12:58:06.969Z</time>
      </trkpt>
      <trkpt lat="45.39187" lon="3.83878">
        <ele>994</ele>
        <time>2019-05-31T12:58:11.968Z</time>
      </trkpt>
      <trkpt lat="45.39189" lon="3.83868">
        <ele>993</ele>
        <time>2019-05-31T12:58:16.969Z</time>
      </trkpt>
      <trkpt lat="45.39192" lon="3.83857">
        <ele>993</ele>
        <time>2019-05-31T12:58:21.972Z</time>
      </trkpt>
      <trkpt lat="45.39193" lon="3.83848">
        <ele>993</ele>
        <time>2019-05-31T12:58:26.970Z</time>
      </trkpt>
      <trkpt lat="45.39195" lon="3.8384">
        <ele>991</ele>
        <time>2019-05-31T12:58:30.972Z</time>
      </trkpt>
      <trkpt lat="45.39198" lon="3.83829">
        <ele>991</ele>
        <time>2019-05-31T12:58:35.972Z</time>
      </trkpt>
      <trkpt lat="45.39201" lon="3.83819">
        <ele>988</ele>
        <time>2019-05-31T12:58:40.976Z</time>
      </trkpt>
      <trkpt lat="45.39202" lon="3.83811">
        <ele>988</ele>
        <time>2019-05-31T12:58:45.975Z</time>
      </trkpt>
      <trkpt lat="45.39203" lon="3.83801">
        <ele>988</ele>
        <time>2019-05-31T12:58:50.975Z</time>
      </trkpt>
      <trkpt lat="45.39205" lon="3.83792">
        <ele>988</ele>
        <time>2019-05-31T12:58:55.973Z</time>
      </trkpt>
      <trkpt lat="45.39207" lon="3.83782">
        <ele>987</ele>
        <time>2019-05-31T12:59:00.984Z</time>
      </trkpt>
      <trkpt lat="45.39209" lon="3.83773">
        <ele>985</ele>
        <time>2019-05-31T12:59:05.976Z</time>
      </trkpt>
      <trkpt lat="45.39211" lon="3.83769">
        <ele>985</ele>
        <time>2019-05-31T12:59:10.971Z</time>
      </trkpt>
      <trkpt lat="45.39212" lon="3.83759">
        <ele>984</ele>
        <time>2019-05-31T12:59:15.970Z</time>
      </trkpt>
      <trkpt lat="45.39214" lon="3.83747">
        <ele>984</ele>
        <time>2019-05-31T12:59:20.968Z</time>
      </trkpt>
      <trkpt lat="45.39215" lon="3.83737">
        <ele>984</ele>
        <time>2019-05-31T12:59:25.958Z</time>
      </trkpt>
      <trkpt lat="45.39215" lon="3.83734">
        <ele>982</ele>
        <time>2019-05-31T12:59:29.966Z</time>
      </trkpt>
      <trkpt lat="45.39216" lon="3.83725">
        <ele>982</ele>
        <time>2019-05-31T12:59:34.963Z</time>
      </trkpt>
      <trkpt lat="45.39216" lon="3.83718">
        <ele>982</ele>
        <time>2019-05-31T12:59:38.978Z</time>
      </trkpt>
      <trkpt lat="45.39216" lon="3.83709">
        <ele>982</ele>
        <time>2019-05-31T12:59:43.976Z</time>
      </trkpt>
      <trkpt lat="45.39218" lon="3.83699">
        <ele>980</ele>
        <time>2019-05-31T12:59:48.958Z</time>
      </trkpt>
      <trkpt lat="45.3922" lon="3.83691">
        <ele>980</ele>
        <time>2019-05-31T12:59:52.968Z</time>
      </trkpt>
      <trkpt lat="45.3922" lon="3.83683">
        <ele>980</ele>
        <time>2019-05-31T12:59:57.970Z</time>
      </trkpt>
      <trkpt lat="45.39221" lon="3.83675">
        <ele>978</ele>
        <time>2019-05-31T13:00:02.966Z</time>
      </trkpt>
      <trkpt lat="45.39222" lon="3.83668">
        <ele>978</ele>
        <time>2019-05-31T13:00:07.968Z</time>
      </trkpt>
      <trkpt lat="45.39223" lon="3.83661">
        <ele>978</ele>
        <time>2019-05-31T13:00:12.973Z</time>
      </trkpt>
      <trkpt lat="45.39225" lon="3.83657">
        <ele>978</ele>
        <time>2019-05-31T13:00:17.973Z</time>
      </trkpt>
      <trkpt lat="45.39227" lon="3.83648">
        <ele>979</ele>
        <time>2019-05-31T13:00:21.969Z</time>
      </trkpt>
      <trkpt lat="45.39231" lon="3.83638">
        <ele>979</ele>
        <time>2019-05-31T13:00:26.971Z</time>
      </trkpt>
      <trkpt lat="45.39234" lon="3.83631">
        <ele>979</ele>
        <time>2019-05-31T13:00:31.973Z</time>
      </trkpt>
      <trkpt lat="45.39236" lon="3.83626">
        <ele>976</ele>
        <time>2019-05-31T13:00:36.962Z</time>
      </trkpt>
      <trkpt lat="45.39238" lon="3.83619">
        <ele>976</ele>
        <time>2019-05-31T13:00:41.969Z</time>
      </trkpt>
      <trkpt lat="45.39242" lon="3.83611">
        <ele>976</ele>
        <time>2019-05-31T13:00:46.965Z</time>
      </trkpt>
      <trkpt lat="45.39247" lon="3.836">
        <ele>976</ele>
        <time>2019-05-31T13:00:51.964Z</time>
      </trkpt>
      <trkpt lat="45.39249" lon="3.83595">
        <ele>976</ele>
        <time>2019-05-31T13:00:55.975Z</time>
      </trkpt>
      <trkpt lat="45.3925" lon="3.83591">
        <ele>976</ele>
        <time>2019-05-31T13:01:00.981Z</time>
      </trkpt>
      <trkpt lat="45.39252" lon="3.83582">
        <ele>976</ele>
        <time>2019-05-31T13:01:05.954Z</time>
      </trkpt>
      <trkpt lat="45.39255" lon="3.83573">
        <ele>976</ele>
        <time>2019-05-31T13:01:09.974Z</time>
      </trkpt>
      <trkpt lat="45.3926" lon="3.83563">
        <ele>975</ele>
        <time>2019-05-31T13:01:14.967Z</time>
      </trkpt>
      <trkpt lat="45.39265" lon="3.83555">
        <ele>974</ele>
        <time>2019-05-31T13:01:18.962Z</time>
      </trkpt>
      <trkpt lat="45.39268" lon="3.83545">
        <ele>974</ele>
        <time>2019-05-31T13:01:23.961Z</time>
      </trkpt>
      <trkpt lat="45.39269" lon="3.83537">
        <ele>972</ele>
        <time>2019-05-31T13:01:27.970Z</time>
      </trkpt>
      <trkpt lat="45.39271" lon="3.83529">
        <ele>972</ele>
        <time>2019-05-31T13:01:31.983Z</time>
      </trkpt>
      <trkpt lat="45.39272" lon="3.83518">
        <ele>972</ele>
        <time>2019-05-31T13:01:36.971Z</time>
      </trkpt>
      <trkpt lat="45.39273" lon="3.83506">
        <ele>970</ele>
        <time>2019-05-31T13:01:41.957Z</time>
      </trkpt>
      <trkpt lat="45.39274" lon="3.83498">
        <ele>970</ele>
        <time>2019-05-31T13:01:45.968Z</time>
      </trkpt>
      <trkpt lat="45.39275" lon="3.83488">
        <ele>970</ele>
        <time>2019-05-31T13:01:50.969Z</time>
      </trkpt>
      <trkpt lat="45.39276" lon="3.8348">
        <ele>970</ele>
        <time>2019-05-31T13:01:54.957Z</time>
      </trkpt>
      <trkpt lat="45.39278" lon="3.83473">
        <ele>970</ele>
        <time>2019-05-31T13:01:58.976Z</time>
      </trkpt>
      <trkpt lat="45.39279" lon="3.83462">
        <ele>970</ele>
        <time>2019-05-31T13:02:03.974Z</time>
      </trkpt>
      <trkpt lat="45.3928" lon="3.83451">
        <ele>971</ele>
        <time>2019-05-31T13:02:08.956Z</time>
      </trkpt>
      <trkpt lat="45.39282" lon="3.83442">
        <ele>971</ele>
        <time>2019-05-31T13:02:12.985Z</time>
      </trkpt>
      <trkpt lat="45.39283" lon="3.83433">
        <ele>971</ele>
        <time>2019-05-31T13:02:16.981Z</time>
      </trkpt>
      <trkpt lat="45.39284" lon="3.83422">
        <ele>972</ele>
        <time>2019-05-31T13:02:21.974Z</time>
      </trkpt>
      <trkpt lat="45.39286" lon="3.8341">
        <ele>972</ele>
        <time>2019-05-31T13:02:26.972Z</time>
      </trkpt>
      <trkpt lat="45.39288" lon="3.834">
        <ele>975</ele>
        <time>2019-05-31T13:02:31.969Z</time>
      </trkpt>
      <trkpt lat="45.39291" lon="3.83394">
        <ele>975</ele>
        <time>2019-05-31T13:02:35.968Z</time>
      </trkpt>
      <trkpt lat="45.39297" lon="3.83387">
        <ele>973</ele>
        <time>2019-05-31T13:02:40.971Z</time>
      </trkpt>
      <trkpt lat="45.39303" lon="3.83379">
        <ele>973</ele>
        <time>2019-05-31T13:02:45.966Z</time>
      </trkpt>
      <trkpt lat="45.39309" lon="3.83374">
        <ele>978</ele>
        <time>2019-05-31T13:02:50.972Z</time>
      </trkpt>
      <trkpt lat="45.39313" lon="3.83366">
        <ele>978</ele>
        <time>2019-05-31T13:02:54.970Z</time>
      </trkpt>
      <trkpt lat="45.39319" lon="3.83359">
        <ele>978</ele>
        <time>2019-05-31T13:02:59.966Z</time>
      </trkpt>
      <trkpt lat="45.39323" lon="3.83353">
        <ele>972</ele>
        <time>2019-05-31T13:03:04.958Z</time>
      </trkpt>
      <trkpt lat="45.39328" lon="3.83348">
        <ele>972</ele>
        <time>2019-05-31T13:03:08.969Z</time>
      </trkpt>
      <trkpt lat="45.39336" lon="3.8334">
        <ele>975</ele>
        <time>2019-05-31T13:03:13.969Z</time>
      </trkpt>
      <trkpt lat="45.39349" lon="3.83321">
        <ele>971</ele>
        <time>2019-05-31T13:03:17.971Z</time>
      </trkpt>
      <trkpt lat="45.39365" lon="3.83283">
        <ele>980</ele>
        <time>2019-05-31T13:03:22.967Z</time>
      </trkpt>
      <trkpt lat="45.39382" lon="3.83246">
        <ele>979</ele>
        <time>2019-05-31T13:03:27.977Z</time>
      </trkpt>
      <trkpt lat="45.39397" lon="3.83219">
        <ele>982</ele>
        <time>2019-05-31T13:03:32.978Z</time>
      </trkpt>
      <trkpt lat="45.39401" lon="3.83213">
        <ele>982</ele>
        <time>2019-05-31T13:03:36.970Z</time>
      </trkpt>
      <trkpt lat="45.39406" lon="3.83206">
        <ele>979</ele>
        <time>2019-05-31T13:03:41.974Z</time>
      </trkpt>
      <trkpt lat="45.39411" lon="3.83198">
        <ele>979</ele>
        <time>2019-05-31T13:03:46.970Z</time>
      </trkpt>
      <trkpt lat="45.39416" lon="3.83189">
        <ele>979</ele>
        <time>2019-05-31T13:03:51.968Z</time>
      </trkpt>
      <trkpt lat="45.3942" lon="3.83177">
        <ele>981</ele>
        <time>2019-05-31T13:03:56.971Z</time>
      </trkpt>
      <trkpt lat="45.39424" lon="3.83167">
        <ele>981</ele>
        <time>2019-05-31T13:04:01.974Z</time>
      </trkpt>
      <trkpt lat="45.39427" lon="3.8316">
        <ele>981</ele>
        <time>2019-05-31T13:04:05.970Z</time>
      </trkpt>
      <trkpt lat="45.39431" lon="3.83149">
        <ele>981</ele>
        <time>2019-05-31T13:04:10.969Z</time>
      </trkpt>
      <trkpt lat="45.39436" lon="3.83139">
        <ele>981</ele>
        <time>2019-05-31T13:04:15.990Z</time>
      </trkpt>
      <trkpt lat="45.39441" lon="3.83131">
        <ele>981</ele>
        <time>2019-05-31T13:04:20.972Z</time>
      </trkpt>
      <trkpt lat="45.39446" lon="3.83122">
        <ele>982</ele>
        <time>2019-05-31T13:04:25.970Z</time>
      </trkpt>
      <trkpt lat="45.3945" lon="3.83116">
        <ele>982</ele>
        <time>2019-05-31T13:04:30.967Z</time>
      </trkpt>
      <trkpt lat="45.39456" lon="3.83108">
        <ele>982</ele>
        <time>2019-05-31T13:04:35.971Z</time>
      </trkpt>
      <trkpt lat="45.39462" lon="3.83101">
        <ele>981</ele>
        <time>2019-05-31T13:04:40.976Z</time>
      </trkpt>
      <trkpt lat="45.39468" lon="3.83094">
        <ele>982</ele>
        <time>2019-05-31T13:04:45.982Z</time>
      </trkpt>
      <trkpt lat="45.39474" lon="3.83086">
        <ele>982</ele>
        <time>2019-05-31T13:04:50.978Z</time>
      </trkpt>
      <trkpt lat="45.3948" lon="3.83077">
        <ele>982</ele>
        <time>2019-05-31T13:04:55.980Z</time>
      </trkpt>
      <trkpt lat="45.39487" lon="3.8307">
        <ele>981</ele>
        <time>2019-05-31T13:05:00.964Z</time>
      </trkpt>
      <trkpt lat="45.39493" lon="3.83062">
        <ele>982</ele>
        <time>2019-05-31T13:05:05.967Z</time>
      </trkpt>
      <trkpt lat="45.39498" lon="3.83055">
        <ele>982</ele>
        <time>2019-05-31T13:05:10.970Z</time>
      </trkpt>
      <trkpt lat="45.39504" lon="3.83047">
        <ele>982</ele>
        <time>2019-05-31T13:05:15.967Z</time>
      </trkpt>
      <trkpt lat="45.39511" lon="3.83039">
        <ele>984</ele>
        <time>2019-05-31T13:05:20.964Z</time>
      </trkpt>
      <trkpt lat="45.39515" lon="3.83033">
        <ele>984</ele>
        <time>2019-05-31T13:05:24.968Z</time>
      </trkpt>
      <trkpt lat="45.39522" lon="3.83025">
        <ele>984</ele>
        <time>2019-05-31T13:05:29.972Z</time>
      </trkpt>
      <trkpt lat="45.39528" lon="3.83016">
        <ele>984</ele>
        <time>2019-05-31T13:05:34.966Z</time>
      </trkpt>
      <trkpt lat="45.39534" lon="3.83007">
        <ele>987</ele>
        <time>2019-05-31T13:05:39.957Z</time>
      </trkpt>
      <trkpt lat="45.39537" lon="3.82998">
        <ele>987</ele>
        <time>2019-05-31T13:05:43.971Z</time>
      </trkpt>
      <trkpt lat="45.39542" lon="3.82988">
        <ele>987</ele>
        <time>2019-05-31T13:05:48.966Z</time>
      </trkpt>
      <trkpt lat="45.39546" lon="3.8298">
        <ele>986</ele>
        <time>2019-05-31T13:05:52.970Z</time>
      </trkpt>
      <trkpt lat="45.39549" lon="3.82969">
        <ele>986</ele>
        <time>2019-05-31T13:05:57.966Z</time>
      </trkpt>
      <trkpt lat="45.39554" lon="3.8296">
        <ele>986</ele>
        <time>2019-05-31T13:06:02.972Z</time>
      </trkpt>
      <trkpt lat="45.39557" lon="3.82952">
        <ele>986</ele>
        <time>2019-05-31T13:06:07.970Z</time>
      </trkpt>
      <trkpt lat="45.39562" lon="3.82948">
        <ele>986</ele>
        <time>2019-05-31T13:06:12.971Z</time>
      </trkpt>
      <trkpt lat="45.39565" lon="3.82938">
        <ele>986</ele>
        <time>2019-05-31T13:06:17.969Z</time>
      </trkpt>
      <trkpt lat="45.39567" lon="3.82927">
        <ele>987</ele>
        <time>2019-05-31T13:06:21.971Z</time>
      </trkpt>
      <trkpt lat="45.39569" lon="3.82917">
        <ele>987</ele>
        <time>2019-05-31T13:06:26.972Z</time>
      </trkpt>
      <trkpt lat="45.39569" lon="3.82906">
        <ele>987</ele>
        <time>2019-05-31T13:06:31.968Z</time>
      </trkpt>
      <trkpt lat="45.39568" lon="3.82895">
        <ele>988</ele>
        <time>2019-05-31T13:06:36.974Z</time>
      </trkpt>
      <trkpt lat="45.39566" lon="3.82885">
        <ele>988</ele>
        <time>2019-05-31T13:06:41.968Z</time>
      </trkpt>
      <trkpt lat="45.39562" lon="3.82878">
        <ele>988</ele>
        <time>2019-05-31T13:06:45.969Z</time>
      </trkpt>
      <trkpt lat="45.39555" lon="3.82874">
        <ele>990</ele>
        <time>2019-05-31T13:06:50.970Z</time>
      </trkpt>
      <trkpt lat="45.3955" lon="3.82866">
        <ele>990</ele>
        <time>2019-05-31T13:06:55.972Z</time>
      </trkpt>
      <trkpt lat="45.39549" lon="3.82856">
        <ele>990</ele>
        <time>2019-05-31T13:07:00.973Z</time>
      </trkpt>
      <trkpt lat="45.39548" lon="3.82846">
        <ele>992</ele>
        <time>2019-05-31T13:07:05.957Z</time>
      </trkpt>
      <trkpt lat="45.39549" lon="3.82838">
        <ele>992</ele>
        <time>2019-05-31T13:07:09.972Z</time>
      </trkpt>
      <trkpt lat="45.39547" lon="3.8283">
        <ele>992</ele>
        <time>2019-05-31T13:07:14.969Z</time>
      </trkpt>
      <trkpt lat="45.39548" lon="3.82822">
        <ele>992</ele>
        <time>2019-05-31T13:07:19.972Z</time>
      </trkpt>
      <trkpt lat="45.39548" lon="3.82811">
        <ele>994</ele>
        <time>2019-05-31T13:07:24.959Z</time>
      </trkpt>
      <trkpt lat="45.39548" lon="3.82801">
        <ele>994</ele>
        <time>2019-05-31T13:07:28.967Z</time>
      </trkpt>
      <trkpt lat="45.39548" lon="3.82792">
        <ele>994</ele>
        <time>2019-05-31T13:07:32.967Z</time>
      </trkpt>
      <trkpt lat="45.39549" lon="3.82782">
        <ele>996</ele>
        <time>2019-05-31T13:07:37.972Z</time>
      </trkpt>
      <trkpt lat="45.39549" lon="3.8277">
        <ele>996</ele>
        <time>2019-05-31T13:07:42.972Z</time>
      </trkpt>
      <trkpt lat="45.39547" lon="3.8276">
        <ele>997</ele>
        <time>2019-05-31T13:07:47.969Z</time>
      </trkpt>
      <trkpt lat="45.39546" lon="3.82751">
        <ele>997</ele>
        <time>2019-05-31T13:07:52.982Z</time>
      </trkpt>
      <trkpt lat="45.39543" lon="3.82744">
        <ele>997</ele>
        <time>2019-05-31T13:07:57.972Z</time>
      </trkpt>
      <trkpt lat="45.39539" lon="3.82737">
        <ele>995</ele>
        <time>2019-05-31T13:08:02.968Z</time>
      </trkpt>
      <trkpt lat="45.39535" lon="3.82732">
        <ele>996</ele>
        <time>2019-05-31T13:08:06.971Z</time>
      </trkpt>
      <trkpt lat="45.39529" lon="3.8273">
        <ele>996</ele>
        <time>2019-05-31T13:08:11.968Z</time>
      </trkpt>
      <trkpt lat="45.39524" lon="3.82726">
        <ele>996</ele>
        <time>2019-05-31T13:08:15.977Z</time>
      </trkpt>
      <trkpt lat="45.39519" lon="3.82722">
        <ele>996</ele>
        <time>2019-05-31T13:08:20.967Z</time>
      </trkpt>
      <trkpt lat="45.39515" lon="3.82717">
        <ele>996</ele>
        <time>2019-05-31T13:08:24.972Z</time>
      </trkpt>
      <trkpt lat="45.39511" lon="3.82712">
        <ele>993</ele>
        <time>2019-05-31T13:08:28.968Z</time>
      </trkpt>
      <trkpt lat="45.39506" lon="3.82706">
        <ele>994</ele>
        <time>2019-05-31T13:08:33.960Z</time>
      </trkpt>
      <trkpt lat="45.39501" lon="3.82701">
        <ele>994</ele>
        <time>2019-05-31T13:08:37.967Z</time>
      </trkpt>
      <trkpt lat="45.39496" lon="3.82694">
        <ele>994</ele>
        <time>2019-05-31T13:08:42.969Z</time>
      </trkpt>
      <trkpt lat="45.39492" lon="3.82685">
        <ele>994</ele>
        <time>2019-05-31T13:08:47.972Z</time>
      </trkpt>
      <trkpt lat="45.39489" lon="3.82677">
        <ele>993</ele>
        <time>2019-05-31T13:08:52.967Z</time>
      </trkpt>
      <trkpt lat="45.39488" lon="3.82669">
        <ele>993</ele>
        <time>2019-05-31T13:08:56.970Z</time>
      </trkpt>
      <trkpt lat="45.39486" lon="3.8266">
        <ele>992</ele>
        <time>2019-05-31T13:09:01.978Z</time>
      </trkpt>
      <trkpt lat="45.39484" lon="3.8265">
        <ele>992</ele>
        <time>2019-05-31T13:09:06.978Z</time>
      </trkpt>
      <trkpt lat="45.39483" lon="3.82643">
        <ele>992</ele>
        <time>2019-05-31T13:09:10.972Z</time>
      </trkpt>
      <trkpt lat="45.39483" lon="3.82632">
        <ele>992</ele>
        <time>2019-05-31T13:09:15.973Z</time>
      </trkpt>
      <trkpt lat="45.39482" lon="3.82622">
        <ele>992</ele>
        <time>2019-05-31T13:09:20.973Z</time>
      </trkpt>
      <trkpt lat="45.3948" lon="3.82614">
        <ele>992</ele>
        <time>2019-05-31T13:09:25.972Z</time>
      </trkpt>
      <trkpt lat="45.39479" lon="3.82605">
        <ele>992</ele>
        <time>2019-05-31T13:09:29.972Z</time>
      </trkpt>
      <trkpt lat="45.39478" lon="3.82598">
        <ele>992</ele>
        <time>2019-05-31T13:09:34.974Z</time>
      </trkpt>
      <trkpt lat="45.39477" lon="3.82594">
        <ele>993</ele>
        <time>2019-05-31T13:09:39.960Z</time>
      </trkpt>
      <trkpt lat="45.39476" lon="3.82584">
        <ele>993</ele>
        <time>2019-05-31T13:09:44.963Z</time>
      </trkpt>
      <trkpt lat="45.39475" lon="3.82576">
        <ele>993</ele>
        <time>2019-05-31T13:09:48.973Z</time>
      </trkpt>
      <trkpt lat="45.39473" lon="3.82564">
        <ele>993</ele>
        <time>2019-05-31T13:09:53.972Z</time>
      </trkpt>
      <trkpt lat="45.39471" lon="3.82554">
        <ele>993</ele>
        <time>2019-05-31T13:09:58.970Z</time>
      </trkpt>
      <trkpt lat="45.39469" lon="3.82544">
        <ele>993</ele>
        <time>2019-05-31T13:10:03.972Z</time>
      </trkpt>
      <trkpt lat="45.39467" lon="3.82534">
        <ele>995</ele>
        <time>2019-05-31T13:10:08.971Z</time>
      </trkpt>
      <trkpt lat="45.39465" lon="3.82525">
        <ele>995</ele>
        <time>2019-05-31T13:10:13.977Z</time>
      </trkpt>
      <trkpt lat="45.39462" lon="3.82517">
        <ele>995</ele>
        <time>2019-05-31T13:10:18.959Z</time>
      </trkpt>
      <trkpt lat="45.39459" lon="3.82507">
        <ele>998</ele>
        <time>2019-05-31T13:10:23.960Z</time>
      </trkpt>
      <trkpt lat="45.39455" lon="3.82498">
        <ele>996</ele>
        <time>2019-05-31T13:10:28.972Z</time>
      </trkpt>
      <trkpt lat="45.39451" lon="3.82492">
        <ele>996</ele>
        <time>2019-05-31T13:10:33.971Z</time>
      </trkpt>
      <trkpt lat="45.39448" lon="3.82484">
        <ele>998</ele>
        <time>2019-05-31T13:10:38.972Z</time>
      </trkpt>
      <trkpt lat="45.39442" lon="3.8248">
        <ele>998</ele>
        <time>2019-05-31T13:10:43.970Z</time>
      </trkpt>
      <trkpt lat="45.39435" lon="3.82477">
        <ele>998</ele>
        <time>2019-05-31T13:10:48.977Z</time>
      </trkpt>
      <trkpt lat="45.39429" lon="3.82476">
        <ele>998</ele>
        <time>2019-05-31T13:10:53.958Z</time>
      </trkpt>
      <trkpt lat="45.39425" lon="3.82477">
        <ele>998</ele>
        <time>2019-05-31T13:10:57.970Z</time>
      </trkpt>
      <trkpt lat="45.3942" lon="3.82476">
        <ele>998</ele>
        <time>2019-05-31T13:11:01.968Z</time>
      </trkpt>
      <trkpt lat="45.39415" lon="3.82476">
        <ele>998</ele>
        <time>2019-05-31T13:11:05.974Z</time>
      </trkpt>
      <trkpt lat="45.3941" lon="3.82475">
        <ele>998</ele>
        <time>2019-05-31T13:11:10.973Z</time>
      </trkpt>
      <trkpt lat="45.39405" lon="3.82476">
        <ele>998</ele>
        <time>2019-05-31T13:11:14.973Z</time>
      </trkpt>
      <trkpt lat="45.394" lon="3.82476">
        <ele>999</ele>
        <time>2019-05-31T13:11:18.971Z</time>
      </trkpt>
      <trkpt lat="45.39391" lon="3.82477">
        <ele>999</ele>
        <time>2019-05-31T13:11:23.973Z</time>
      </trkpt>
      <trkpt lat="45.39381" lon="3.82481">
        <ele>999</ele>
        <time>2019-05-31T13:11:28.960Z</time>
      </trkpt>
      <trkpt lat="45.39373" lon="3.82487">
        <ele>1000</ele>
        <time>2019-05-31T13:11:37.971Z</time>
      </trkpt>
      <trkpt lat="45.39372" lon="3.82487">
        <ele>1000</ele>
        <time>2019-05-31T13:11:41.971Z</time>
      </trkpt>
      <trkpt lat="45.39372" lon="3.82487">
        <ele>1000</ele>
        <time>2019-05-31T13:11:45.971Z</time>
      </trkpt>
      <trkpt lat="45.39368" lon="3.8249">
        <ele>1000</ele>
        <time>2019-05-31T13:11:50.969Z</time>
      </trkpt>
      <trkpt lat="45.3936" lon="3.82495">
        <ele>1000</ele>
        <time>2019-05-31T13:11:55.972Z</time>
      </trkpt>
      <trkpt lat="45.39354" lon="3.82497">
        <ele>1000</ele>
        <time>2019-05-31T13:12:00.961Z</time>
      </trkpt>
      <trkpt lat="45.39348" lon="3.82498">
        <ele>1000</ele>
        <time>2019-05-31T13:12:05.970Z</time>
      </trkpt>
      <trkpt lat="45.3934" lon="3.82499">
        <ele>1004</ele>
        <time>2019-05-31T13:12:10.970Z</time>
      </trkpt>
      <trkpt lat="45.39332" lon="3.82497">
        <ele>1004</ele>
        <time>2019-05-31T13:12:15.974Z</time>
      </trkpt>
      <trkpt lat="45.39324" lon="3.82496">
        <ele>1004</ele>
        <time>2019-05-31T13:12:20.971Z</time>
      </trkpt>
      <trkpt lat="45.39316" lon="3.82497">
        <ele>1005</ele>
        <time>2019-05-31T13:12:25.969Z</time>
      </trkpt>
      <trkpt lat="45.39311" lon="3.82498">
        <ele>1005</ele>
        <time>2019-05-31T13:12:29.968Z</time>
      </trkpt>
      <trkpt lat="45.39306" lon="3.82497">
        <ele>1005</ele>
        <time>2019-05-31T13:12:33.973Z</time>
      </trkpt>
      <trkpt lat="45.39296" lon="3.82488">
        <ele>1005</ele>
        <time>2019-05-31T13:13:45.968Z</time>
      </trkpt>
      <trkpt lat="45.39295" lon="3.82487">
        <ele>1005</ele>
        <time>2019-05-31T13:13:49.949Z</time>
      </trkpt>
      <trkpt lat="45.39294" lon="3.82487">
        <ele>1005</ele>
        <time>2019-05-31T13:13:54.965Z</time>
      </trkpt>
      <trkpt lat="45.39294" lon="3.82486">
        <ele>1005</ele>
        <time>2019-05-31T13:13:59.975Z</time>
      </trkpt>
      <trkpt lat="45.39292" lon="3.82472">
        <ele>1007</ele>
        <time>2019-05-31T13:14:04.973Z</time>
      </trkpt>
      <trkpt lat="45.39289" lon="3.8246">
        <ele>1006</ele>
        <time>2019-05-31T13:14:09.971Z</time>
      </trkpt>
      <trkpt lat="45.39288" lon="3.8245">
        <ele>1007</ele>
        <time>2019-05-31T13:14:13.976Z</time>
      </trkpt>
      <trkpt lat="45.39287" lon="3.82439">
        <ele>1007</ele>
        <time>2019-05-31T13:14:18.978Z</time>
      </trkpt>
      <trkpt lat="45.39286" lon="3.82432">
        <ele>1007</ele>
        <time>2019-05-31T13:14:23.963Z</time>
      </trkpt>
      <trkpt lat="45.39285" lon="3.82424">
        <ele>1008</ele>
        <time>2019-05-31T13:14:27.973Z</time>
      </trkpt>
      <trkpt lat="45.39285" lon="3.82416">
        <ele>1008</ele>
        <time>2019-05-31T13:14:31.974Z</time>
      </trkpt>
      <trkpt lat="45.39283" lon="3.82407">
        <ele>1008</ele>
        <time>2019-05-31T13:14:36.972Z</time>
      </trkpt>
      <trkpt lat="45.39283" lon="3.82399">
        <ele>1009</ele>
        <time>2019-05-31T13:14:40.975Z</time>
      </trkpt>
      <trkpt lat="45.39283" lon="3.8239">
        <ele>1009</ele>
        <time>2019-05-31T13:14:45.973Z</time>
      </trkpt>
      <trkpt lat="45.39283" lon="3.82385">
        <ele>1009</ele>
        <time>2019-05-31T13:14:50.970Z</time>
      </trkpt>
      <trkpt lat="45.39282" lon="3.82377">
        <ele>1009</ele>
        <time>2019-05-31T13:14:54.976Z</time>
      </trkpt>
      <trkpt lat="45.39279" lon="3.82369">
        <ele>1012</ele>
        <time>2019-05-31T13:14:59.975Z</time>
      </trkpt>
      <trkpt lat="45.39275" lon="3.8236">
        <ele>1012</ele>
        <time>2019-05-31T13:15:04.962Z</time>
      </trkpt>
      <trkpt lat="45.39271" lon="3.82354">
        <ele>1012</ele>
        <time>2019-05-31T13:15:08.978Z</time>
      </trkpt>
      <trkpt lat="45.39268" lon="3.82349">
        <ele>1012</ele>
        <time>2019-05-31T13:15:12.976Z</time>
      </trkpt>
      <trkpt lat="45.39264" lon="3.82342">
        <ele>1014</ele>
        <time>2019-05-31T13:15:17.974Z</time>
      </trkpt>
      <trkpt lat="45.39259" lon="3.82334">
        <ele>1014</ele>
        <time>2019-05-31T13:15:22.961Z</time>
      </trkpt>
      <trkpt lat="45.39253" lon="3.82329">
        <ele>1014</ele>
        <time>2019-05-31T13:15:26.978Z</time>
      </trkpt>
      <trkpt lat="45.39248" lon="3.82324">
        <ele>1014</ele>
        <time>2019-05-31T13:15:31.962Z</time>
      </trkpt>
      <trkpt lat="45.39241" lon="3.8232">
        <ele>1014</ele>
        <time>2019-05-31T13:15:36.972Z</time>
      </trkpt>
      <trkpt lat="45.39235" lon="3.82317">
        <ele>1017</ele>
        <time>2019-05-31T13:15:41.956Z</time>
      </trkpt>
      <trkpt lat="45.3923" lon="3.82315">
        <ele>1017</ele>
        <time>2019-05-31T13:15:45.993Z</time>
      </trkpt>
      <trkpt lat="45.39224" lon="3.82311">
        <ele>1017</ele>
        <time>2019-05-31T13:15:50.970Z</time>
      </trkpt>
      <trkpt lat="45.39218" lon="3.82305">
        <ele>1017</ele>
        <time>2019-05-31T13:15:55.970Z</time>
      </trkpt>
      <trkpt lat="45.39213" lon="3.82299">
        <ele>1017</ele>
        <time>2019-05-31T13:16:00.962Z</time>
      </trkpt>
      <trkpt lat="45.39207" lon="3.82292">
        <ele>1020</ele>
        <time>2019-05-31T13:16:05.965Z</time>
      </trkpt>
      <trkpt lat="45.39204" lon="3.82288">
        <ele>1022</ele>
        <time>2019-05-31T13:16:09.966Z</time>
      </trkpt>
      <trkpt lat="45.392" lon="3.8228">
        <ele>1022</ele>
        <time>2019-05-31T13:16:14.960Z</time>
      </trkpt>
      <trkpt lat="45.39197" lon="3.82272">
        <ele>1022</ele>
        <time>2019-05-31T13:16:18.972Z</time>
      </trkpt>
      <trkpt lat="45.39193" lon="3.82266">
        <ele>1022</ele>
        <time>2019-05-31T13:16:23.958Z</time>
      </trkpt>
      <trkpt lat="45.39189" lon="3.82259">
        <ele>1026</ele>
        <time>2019-05-31T13:16:27.970Z</time>
      </trkpt>
      <trkpt lat="45.39184" lon="3.82253">
        <ele>1026</ele>
        <time>2019-05-31T13:16:31.986Z</time>
      </trkpt>
      <trkpt lat="45.39177" lon="3.82248">
        <ele>1026</ele>
        <time>2019-05-31T13:16:36.975Z</time>
      </trkpt>
      <trkpt lat="45.39164" lon="3.8224">
        <ele>1026</ele>
        <time>2019-05-31T13:16:41.971Z</time>
      </trkpt>
      <trkpt lat="45.39142" lon="3.82219">
        <ele>1031</ele>
        <time>2019-05-31T13:16:46.973Z</time>
      </trkpt>
      <trkpt lat="45.39127" lon="3.82199">
        <ele>1035</ele>
        <time>2019-05-31T13:16:51.971Z</time>
      </trkpt>
      <trkpt lat="45.3912" lon="3.82173">
        <ele>1041</ele>
        <time>2019-05-31T13:16:56.969Z</time>
      </trkpt>
      <trkpt lat="45.39114" lon="3.82158">
        <ele>1041</ele>
        <time>2019-05-31T13:17:01.972Z</time>
      </trkpt>
      <trkpt lat="45.39104" lon="3.82135">
        <ele>1041</ele>
        <time>2019-05-31T13:17:06.970Z</time>
      </trkpt>
      <trkpt lat="45.39091" lon="3.82116">
        <ele>1039</ele>
        <time>2019-05-31T13:17:11.977Z</time>
      </trkpt>
      <trkpt lat="45.39084" lon="3.82103">
        <ele>1039</ele>
        <time>2019-05-31T13:17:16.958Z</time>
      </trkpt>
      <trkpt lat="45.39079" lon="3.82091">
        <ele>1037</ele>
        <time>2019-05-31T13:17:21.978Z</time>
      </trkpt>
      <trkpt lat="45.39074" lon="3.8208">
        <ele>1037</ele>
        <time>2019-05-31T13:17:26.966Z</time>
      </trkpt>
      <trkpt lat="45.39067" lon="3.82069">
        <ele>1035</ele>
        <time>2019-05-31T13:17:31.970Z</time>
      </trkpt>
      <trkpt lat="45.39061" lon="3.82058">
        <ele>1035</ele>
        <time>2019-05-31T13:17:36.976Z</time>
      </trkpt>
      <trkpt lat="45.39056" lon="3.8205">
        <ele>1035</ele>
        <time>2019-05-31T13:17:41.973Z</time>
      </trkpt>
      <trkpt lat="45.3905" lon="3.82041">
        <ele>1035</ele>
        <time>2019-05-31T13:17:46.970Z</time>
      </trkpt>
      <trkpt lat="45.39046" lon="3.82035">
        <ele>1035</ele>
        <time>2019-05-31T13:17:50.971Z</time>
      </trkpt>
      <trkpt lat="45.3904" lon="3.82027">
        <ele>1036</ele>
        <time>2019-05-31T13:17:55.971Z</time>
      </trkpt>
      <trkpt lat="45.39033" lon="3.82015">
        <ele>1036</ele>
        <time>2019-05-31T13:18:00.963Z</time>
      </trkpt>
      <trkpt lat="45.39029" lon="3.82005">
        <ele>1038</ele>
        <time>2019-05-31T13:18:05.975Z</time>
      </trkpt>
      <trkpt lat="45.39024" lon="3.81996">
        <ele>1038</ele>
        <time>2019-05-31T13:18:10.976Z</time>
      </trkpt>
      <trkpt lat="45.3902" lon="3.8199">
        <ele>1038</ele>
        <time>2019-05-31T13:18:15.970Z</time>
      </trkpt>
      <trkpt lat="45.39017" lon="3.81984">
        <ele>1040</ele>
        <time>2019-05-31T13:18:19.975Z</time>
      </trkpt>
      <trkpt lat="45.39013" lon="3.81976">
        <ele>1040</ele>
        <time>2019-05-31T13:18:24.970Z</time>
      </trkpt>
      <trkpt lat="45.39009" lon="3.81969">
        <ele>1040</ele>
        <time>2019-05-31T13:18:29.970Z</time>
      </trkpt>
      <trkpt lat="45.39005" lon="3.81963">
        <ele>1040</ele>
        <time>2019-05-31T13:18:33.964Z</time>
      </trkpt>
      <trkpt lat="45.39001" lon="3.81958">
        <ele>1045</ele>
        <time>2019-05-31T13:18:37.973Z</time>
      </trkpt>
      <trkpt lat="45.38994" lon="3.81949">
        <ele>1045</ele>
        <time>2019-05-31T13:18:42.973Z</time>
      </trkpt>
      <trkpt lat="45.38985" lon="3.8194">
        <ele>1043</ele>
        <time>2019-05-31T13:18:47.978Z</time>
      </trkpt>
      <trkpt lat="45.38978" lon="3.81932">
        <ele>1043</ele>
        <time>2019-05-31T13:18:52.959Z</time>
      </trkpt>
      <trkpt lat="45.38972" lon="3.81926">
        <ele>1047</ele>
        <time>2019-05-31T13:18:56.973Z</time>
      </trkpt>
      <trkpt lat="45.38964" lon="3.81922">
        <ele>1047</ele>
        <time>2019-05-31T13:19:01.977Z</time>
      </trkpt>
      <trkpt lat="45.38959" lon="3.81919">
        <ele>1047</ele>
        <time>2019-05-31T13:19:06.975Z</time>
      </trkpt>
      <trkpt lat="45.38953" lon="3.81916">
        <ele>1045</ele>
        <time>2019-05-31T13:19:11.963Z</time>
      </trkpt>
      <trkpt lat="45.3895" lon="3.81912">
        <ele>1045</ele>
        <time>2019-05-31T13:19:15.974Z</time>
      </trkpt>
      <trkpt lat="45.38946" lon="3.81907">
        <ele>1045</ele>
        <time>2019-05-31T13:19:19.972Z</time>
      </trkpt>
      <trkpt lat="45.3894" lon="3.819">
        <ele>1049</ele>
        <time>2019-05-31T13:19:24.974Z</time>
      </trkpt>
      <trkpt lat="45.38932" lon="3.81895">
        <ele>1049</ele>
        <time>2019-05-31T13:19:29.970Z</time>
      </trkpt>
      <trkpt lat="45.38928" lon="3.81892">
        <ele>1048</ele>
        <time>2019-05-31T13:19:33.974Z</time>
      </trkpt>
      <trkpt lat="45.38921" lon="3.81886">
        <ele>1048</ele>
        <time>2019-05-31T13:19:38.974Z</time>
      </trkpt>
      <trkpt lat="45.38914" lon="3.81877">
        <ele>1048</ele>
        <time>2019-05-31T13:19:43.975Z</time>
      </trkpt>
      <trkpt lat="45.3891" lon="3.81876">
        <ele>1048</ele>
        <time>2019-05-31T13:19:48.981Z</time>
      </trkpt>
      <trkpt lat="45.38906" lon="3.81873">
        <ele>1051</ele>
        <time>2019-05-31T13:19:53.960Z</time>
      </trkpt>
      <trkpt lat="45.38899" lon="3.81871">
        <ele>1051</ele>
        <time>2019-05-31T13:19:57.979Z</time>
      </trkpt>
      <trkpt lat="45.38896" lon="3.81872">
        <ele>1051</ele>
        <time>2019-05-31T13:20:01.975Z</time>
      </trkpt>
      <trkpt lat="45.3889" lon="3.8187">
        <ele>1051</ele>
        <time>2019-05-31T13:20:06.970Z</time>
      </trkpt>
      <trkpt lat="45.38885" lon="3.81863">
        <ele>1051</ele>
        <time>2019-05-31T13:20:11.978Z</time>
      </trkpt>
      <trkpt lat="45.38879" lon="3.81858">
        <ele>1051</ele>
        <time>2019-05-31T13:20:16.975Z</time>
      </trkpt>
      <trkpt lat="45.38874" lon="3.81852">
        <ele>1049</ele>
        <time>2019-05-31T13:20:21.961Z</time>
      </trkpt>
      <trkpt lat="45.38867" lon="3.81847">
        <ele>1053</ele>
        <time>2019-05-31T13:20:26.963Z</time>
      </trkpt>
      <trkpt lat="45.3886" lon="3.81841">
        <ele>1053</ele>
        <time>2019-05-31T13:20:31.978Z</time>
      </trkpt>
      <trkpt lat="45.38854" lon="3.81833">
        <ele>1053</ele>
        <time>2019-05-31T13:20:36.974Z</time>
      </trkpt>
      <trkpt lat="45.3885" lon="3.81825">
        <ele>1053</ele>
        <time>2019-05-31T13:20:41.962Z</time>
      </trkpt>
      <trkpt lat="45.38844" lon="3.81821">
        <ele>1052</ele>
        <time>2019-05-31T13:20:45.978Z</time>
      </trkpt>
      <trkpt lat="45.38837" lon="3.81817">
        <ele>1055</ele>
        <time>2019-05-31T13:20:49.975Z</time>
      </trkpt>
      <trkpt lat="45.38832" lon="3.81813">
        <ele>1055</ele>
        <time>2019-05-31T13:20:54.963Z</time>
      </trkpt>
      <trkpt lat="45.38826" lon="3.81809">
        <ele>1055</ele>
        <time>2019-05-31T13:20:59.978Z</time>
      </trkpt>
      <trkpt lat="45.38821" lon="3.81803">
        <ele>1055</ele>
        <time>2019-05-31T13:21:04.977Z</time>
      </trkpt>
      <trkpt lat="45.38814" lon="3.81797">
        <ele>1054</ele>
        <time>2019-05-31T13:21:09.981Z</time>
      </trkpt>
      <trkpt lat="45.38812" lon="3.81793">
        <ele>1054</ele>
        <time>2019-05-31T13:21:13.976Z</time>
      </trkpt>
      <trkpt lat="45.38808" lon="3.81791">
        <ele>1056</ele>
        <time>2019-05-31T13:21:17.977Z</time>
      </trkpt>
      <trkpt lat="45.38805" lon="3.81784">
        <ele>1056</ele>
        <time>2019-05-31T13:21:22.976Z</time>
      </trkpt>
      <trkpt lat="45.388" lon="3.8177">
        <ele>1056</ele>
        <time>2019-05-31T13:21:27.973Z</time>
      </trkpt>
      <trkpt lat="45.388" lon="3.81766">
        <ele>1056</ele>
        <time>2019-05-31T13:21:31.974Z</time>
      </trkpt>
      <trkpt lat="45.38798" lon="3.81755">
        <ele>1060</ele>
        <time>2019-05-31T13:21:36.974Z</time>
      </trkpt>
      <trkpt lat="45.38796" lon="3.81744">
        <ele>1060</ele>
        <time>2019-05-31T13:21:41.977Z</time>
      </trkpt>
      <trkpt lat="45.38792" lon="3.81734">
        <ele>1063</ele>
        <time>2019-05-31T13:21:46.975Z</time>
      </trkpt>
      <trkpt lat="45.38791" lon="3.81717">
        <ele>1062</ele>
        <time>2019-05-31T13:21:51.977Z</time>
      </trkpt>
      <trkpt lat="45.3879" lon="3.81708">
        <ele>1065</ele>
        <time>2019-05-31T13:21:55.975Z</time>
      </trkpt>
      <trkpt lat="45.38787" lon="3.81697">
        <ele>1065</ele>
        <time>2019-05-31T13:22:00.974Z</time>
      </trkpt>
      <trkpt lat="45.38784" lon="3.81691">
        <ele>1065</ele>
        <time>2019-05-31T13:22:05.963Z</time>
      </trkpt>
      <trkpt lat="45.38782" lon="3.8169">
        <ele>1065</ele>
        <time>2019-05-31T13:22:10.964Z</time>
      </trkpt>
      <trkpt lat="45.3877" lon="3.81687">
        <ele>1065</ele>
        <time>2019-05-31T13:22:15.978Z</time>
      </trkpt>
      <trkpt lat="45.38761" lon="3.81681">
        <ele>1064</ele>
        <time>2019-05-31T13:22:20.975Z</time>
      </trkpt>
      <trkpt lat="45.38755" lon="3.81676">
        <ele>1068</ele>
        <time>2019-05-31T13:22:25.977Z</time>
      </trkpt>
      <trkpt lat="45.38748" lon="3.81672">
        <ele>1068</ele>
        <time>2019-05-31T13:22:30.974Z</time>
      </trkpt>
      <trkpt lat="45.38742" lon="3.81668">
        <ele>1068</ele>
        <time>2019-05-31T13:22:35.964Z</time>
      </trkpt>
      <trkpt lat="45.38735" lon="3.81667">
        <ele>1070</ele>
        <time>2019-05-31T13:22:40.969Z</time>
      </trkpt>
      <trkpt lat="45.38727" lon="3.81669">
        <ele>1070</ele>
        <time>2019-05-31T13:22:45.975Z</time>
      </trkpt>
      <trkpt lat="45.38719" lon="3.8167">
        <ele>1070</ele>
        <time>2019-05-31T13:22:50.975Z</time>
      </trkpt>
      <trkpt lat="45.38713" lon="3.81673">
        <ele>1070</ele>
        <time>2019-05-31T13:22:55.977Z</time>
      </trkpt>
      <trkpt lat="45.38706" lon="3.81668">
        <ele>1073</ele>
        <time>2019-05-31T13:23:00.973Z</time>
      </trkpt>
      <trkpt lat="45.38698" lon="3.81664">
        <ele>1073</ele>
        <time>2019-05-31T13:23:05.969Z</time>
      </trkpt>
      <trkpt lat="45.38691" lon="3.81663">
        <ele>1073</ele>
        <time>2019-05-31T13:23:10.971Z</time>
      </trkpt>
      <trkpt lat="45.38684" lon="3.81662">
        <ele>1073</ele>
        <time>2019-05-31T13:23:15.959Z</time>
      </trkpt>
      <trkpt lat="45.38675" lon="3.81656">
        <ele>1074</ele>
        <time>2019-05-31T13:23:20.969Z</time>
      </trkpt>
      <trkpt lat="45.38667" lon="3.81653">
        <ele>1077</ele>
        <time>2019-05-31T13:23:25.967Z</time>
      </trkpt>
      <trkpt lat="45.3866" lon="3.81648">
        <ele>1077</ele>
        <time>2019-05-31T13:23:30.970Z</time>
      </trkpt>
      <trkpt lat="45.38654" lon="3.81642">
        <ele>1077</ele>
        <time>2019-05-31T13:23:35.963Z</time>
      </trkpt>
      <trkpt lat="45.38648" lon="3.81638">
        <ele>1076</ele>
        <time>2019-05-31T13:23:40.977Z</time>
      </trkpt>
      <trkpt lat="45.38643" lon="3.81632">
        <ele>1076</ele>
        <time>2019-05-31T13:23:45.964Z</time>
      </trkpt>
      <trkpt lat="45.38638" lon="3.81625">
        <ele>1076</ele>
        <time>2019-05-31T13:23:50.963Z</time>
      </trkpt>
      <trkpt lat="45.38635" lon="3.81622">
        <ele>1078</ele>
        <time>2019-05-31T13:23:54.970Z</time>
      </trkpt>
      <trkpt lat="45.38629" lon="3.8162">
        <ele>1078</ele>
        <time>2019-05-31T13:23:59.971Z</time>
      </trkpt>
      <trkpt lat="45.38624" lon="3.81609">
        <ele>1076</ele>
        <time>2019-05-31T13:24:04.966Z</time>
      </trkpt>
      <trkpt lat="45.38617" lon="3.816">
        <ele>1076</ele>
        <time>2019-05-31T13:24:08.974Z</time>
      </trkpt>
      <trkpt lat="45.38609" lon="3.81592">
        <ele>1077</ele>
        <time>2019-05-31T13:24:12.970Z</time>
      </trkpt>
      <trkpt lat="45.38603" lon="3.81587">
        <ele>1077</ele>
        <time>2019-05-31T13:24:17.970Z</time>
      </trkpt>
      <trkpt lat="45.38592" lon="3.81576">
        <ele>1075</ele>
        <time>2019-05-31T13:24:22.969Z</time>
      </trkpt>
      <trkpt lat="45.3857" lon="3.81556">
        <ele>1077</ele>
        <time>2019-05-31T13:24:26.962Z</time>
      </trkpt>
      <trkpt lat="45.38544" lon="3.81524">
        <ele>1077</ele>
        <time>2019-05-31T13:24:31.976Z</time>
      </trkpt>
      <trkpt lat="45.38533" lon="3.81475">
        <ele>1086</ele>
        <time>2019-05-31T13:24:36.971Z</time>
      </trkpt>
      <trkpt lat="45.38527" lon="3.81447">
        <ele>1088</ele>
        <time>2019-05-31T13:24:41.971Z</time>
      </trkpt>
      <trkpt lat="45.38521" lon="3.81435">
        <ele>1088</ele>
        <time>2019-05-31T13:24:46.976Z</time>
      </trkpt>
      <trkpt lat="45.38517" lon="3.81429">
        <ele>1090</ele>
        <time>2019-05-31T13:24:51.971Z</time>
      </trkpt>
      <trkpt lat="45.38513" lon="3.81423">
        <ele>1090</ele>
        <time>2019-05-31T13:24:56.970Z</time>
      </trkpt>
      <trkpt lat="45.38511" lon="3.81417">
        <ele>1090</ele>
        <time>2019-05-31T13:25:01.960Z</time>
      </trkpt>
      <trkpt lat="45.38509" lon="3.81411">
        <ele>1090</ele>
        <time>2019-05-31T13:25:05.961Z</time>
      </trkpt>
      <trkpt lat="45.38504" lon="3.81404">
        <ele>1090</ele>
        <time>2019-05-31T13:25:10.967Z</time>
      </trkpt>
      <trkpt lat="45.38501" lon="3.81397">
        <ele>1095</ele>
        <time>2019-05-31T13:25:15.962Z</time>
      </trkpt>
      <trkpt lat="45.38497" lon="3.81392">
        <ele>1095</ele>
        <time>2019-05-31T13:25:20.970Z</time>
      </trkpt>
      <trkpt lat="45.38489" lon="3.81381">
        <ele>1095</ele>
        <time>2019-05-31T13:25:25.952Z</time>
      </trkpt>
      <trkpt lat="45.38482" lon="3.8137">
        <ele>1101</ele>
        <time>2019-05-31T13:25:30.972Z</time>
      </trkpt>
      <trkpt lat="45.38477" lon="3.81364">
        <ele>1101</ele>
        <time>2019-05-31T13:25:35.963Z</time>
      </trkpt>
      <trkpt lat="45.38473" lon="3.81365">
        <ele>1101</ele>
        <time>2019-05-31T13:25:39.972Z</time>
      </trkpt>
      <trkpt lat="45.38469" lon="3.81365">
        <ele>1101</ele>
        <time>2019-05-31T13:25:44.965Z</time>
      </trkpt>
      <trkpt lat="45.3846" lon="3.81366">
        <ele>1101</ele>
        <time>2019-05-31T13:25:49.968Z</time>
      </trkpt>
      <trkpt lat="45.38455" lon="3.81364">
        <ele>1100</ele>
        <time>2019-05-31T13:25:54.011Z</time>
      </trkpt>
      <trkpt lat="45.38451" lon="3.81362">
        <ele>1100</ele>
        <time>2019-05-31T13:25:58.996Z</time>
      </trkpt>
      <trkpt lat="45.38442" lon="3.81356">
        <ele>1100</ele>
        <time>2019-05-31T13:26:04.019Z</time>
      </trkpt>
      <trkpt lat="45.38434" lon="3.81351">
        <ele>1100</ele>
        <time>2019-05-31T13:26:08.986Z</time>
      </trkpt>
      <trkpt lat="45.38429" lon="3.81353">
        <ele>1100</ele>
        <time>2019-05-31T13:26:12.989Z</time>
      </trkpt>
      <trkpt lat="45.38424" lon="3.81353">
        <ele>1100</ele>
        <time>2019-05-31T13:26:17Z</time>
      </trkpt>
      <trkpt lat="45.38417" lon="3.81357">
        <ele>1100</ele>
        <time>2019-05-31T13:26:22.001Z</time>
      </trkpt>
      <trkpt lat="45.38412" lon="3.81354">
        <ele>1100</ele>
        <time>2019-05-31T13:26:26.980Z</time>
      </trkpt>
      <trkpt lat="45.38406" lon="3.81355">
        <ele>1100</ele>
        <time>2019-05-31T13:26:31.966Z</time>
      </trkpt>
      <trkpt lat="45.384" lon="3.81348">
        <ele>1100</ele>
        <time>2019-05-31T13:26:35.980Z</time>
      </trkpt>
      <trkpt lat="45.3839" lon="3.81348">
        <ele>1100</ele>
        <time>2019-05-31T13:26:40.967Z</time>
      </trkpt>
      <trkpt lat="45.38384" lon="3.81349">
        <ele>1100</ele>
        <time>2019-05-31T13:26:44.989Z</time>
      </trkpt>
      <trkpt lat="45.38375" lon="3.81342">
        <ele>1104</ele>
        <time>2019-05-31T13:26:48.988Z</time>
      </trkpt>
      <trkpt lat="45.38368" lon="3.81336">
        <ele>1103</ele>
        <time>2019-05-31T13:26:54.002Z</time>
      </trkpt>
      <trkpt lat="45.38365" lon="3.81336">
        <ele>1103</ele>
        <time>2019-05-31T13:26:59.009Z</time>
      </trkpt>
      <trkpt lat="45.38363" lon="3.81332">
        <ele>1103</ele>
        <time>2019-05-31T13:27:03.987Z</time>
      </trkpt>
      <trkpt lat="45.38363" lon="3.81325">
        <ele>1103</ele>
        <time>2019-05-31T13:27:07.980Z</time>
      </trkpt>
      <trkpt lat="45.38363" lon="3.81321">
        <ele>1103</ele>
        <time>2019-05-31T13:27:12Z</time>
      </trkpt>
      <trkpt lat="45.38361" lon="3.81318">
        <ele>1106</ele>
        <time>2019-05-31T13:27:16.982Z</time>
      </trkpt>
      <trkpt lat="45.38356" lon="3.8131">
        <ele>1106</ele>
        <time>2019-05-31T13:27:20.993Z</time>
      </trkpt>
      <trkpt lat="45.38348" lon="3.81295">
        <ele>1106</ele>
        <time>2019-05-31T13:27:25.004Z</time>
      </trkpt>
      <trkpt lat="45.38332" lon="3.81274">
        <ele>1107</ele>
        <time>2019-05-31T13:27:29.016Z</time>
      </trkpt>
      <trkpt lat="45.38319" lon="3.81256">
        <ele>1111</ele>
        <time>2019-05-31T13:27:33.994Z</time>
      </trkpt>
      <trkpt lat="45.38316" lon="3.81251">
        <ele>1111</ele>
        <time>2019-05-31T13:27:37.995Z</time>
      </trkpt>
      <trkpt lat="45.38318" lon="3.81245">
        <ele>1111</ele>
        <time>2019-05-31T13:27:43.011Z</time>
      </trkpt>
      <trkpt lat="45.38321" lon="3.81242">
        <ele>1113</ele>
        <time>2019-05-31T13:27:47.986Z</time>
      </trkpt>
      <trkpt lat="45.38327" lon="3.81239">
        <ele>1113</ele>
        <time>2019-05-31T13:27:52.977Z</time>
      </trkpt>
      <trkpt lat="45.38331" lon="3.81237">
        <ele>1113</ele>
        <time>2019-05-31T13:27:56.973Z</time>
      </trkpt>
      <trkpt lat="45.38333" lon="3.81236">
        <ele>1118</ele>
        <time>2019-05-31T13:28:01.977Z</time>
      </trkpt>
      <trkpt lat="45.38335" lon="3.81234">
        <ele>1118</ele>
        <time>2019-05-31T13:28:07.008Z</time>
      </trkpt>
      <trkpt lat="45.38337" lon="3.81232">
        <ele>1118</ele>
        <time>2019-05-31T13:28:11.988Z</time>
      </trkpt>
      <trkpt lat="45.38345" lon="3.8123">
        <ele>1118</ele>
        <time>2019-05-31T13:28:17.003Z</time>
      </trkpt>
      <trkpt lat="45.38354" lon="3.81223">
        <ele>1118</ele>
        <time>2019-05-31T13:28:21.002Z</time>
      </trkpt>
      <trkpt lat="45.38363" lon="3.81216">
        <ele>1118</ele>
        <time>2019-05-31T13:28:26.001Z</time>
      </trkpt>
      <trkpt lat="45.38372" lon="3.81212">
        <ele>1118</ele>
        <time>2019-05-31T13:28:30.972Z</time>
      </trkpt>
      <trkpt lat="45.38378" lon="3.81208">
        <ele>1121</ele>
        <time>2019-05-31T13:28:35.002Z</time>
      </trkpt>
      <trkpt lat="45.38381" lon="3.81205">
        <ele>1121</ele>
        <time>2019-05-31T13:28:39.002Z</time>
      </trkpt>
      <trkpt lat="45.38385" lon="3.81199">
        <ele>1121</ele>
        <time>2019-05-31T13:28:43.997Z</time>
      </trkpt>
      <trkpt lat="45.38391" lon="3.81195">
        <ele>1121</ele>
        <time>2019-05-31T13:28:49.021Z</time>
      </trkpt>
      <trkpt lat="45.38397" lon="3.81185">
        <ele>1121</ele>
        <time>2019-05-31T13:28:54.014Z</time>
      </trkpt>
      <trkpt lat="45.38404" lon="3.81178">
        <ele>1122</ele>
        <time>2019-05-31T13:28:58.993Z</time>
      </trkpt>
      <trkpt lat="45.38411" lon="3.81169">
        <ele>1122</ele>
        <time>2019-05-31T13:29:04.008Z</time>
      </trkpt>
      <trkpt lat="45.38412" lon="3.81163">
        <ele>1122</ele>
        <time>2019-05-31T13:29:08.998Z</time>
      </trkpt>
      <trkpt lat="45.38415" lon="3.81155">
        <ele>1122</ele>
        <time>2019-05-31T13:29:13.012Z</time>
      </trkpt>
      <trkpt lat="45.38419" lon="3.81144">
        <ele>1125</ele>
        <time>2019-05-31T13:29:17.998Z</time>
      </trkpt>
      <trkpt lat="45.38422" lon="3.81137">
        <ele>1125</ele>
        <time>2019-05-31T13:29:23Z</time>
      </trkpt>
      <trkpt lat="45.38423" lon="3.81131">
        <ele>1125</ele>
        <time>2019-05-31T13:29:28.001Z</time>
      </trkpt>
      <trkpt lat="45.38426" lon="3.81122">
        <ele>1129</ele>
        <time>2019-05-31T13:29:33.005Z</time>
      </trkpt>
      <trkpt lat="45.3843" lon="3.81112">
        <ele>1129</ele>
        <time>2019-05-31T13:29:37.974Z</time>
      </trkpt>
      <trkpt lat="45.38435" lon="3.81104">
        <ele>1130</ele>
        <time>2019-05-31T13:29:41.989Z</time>
      </trkpt>
      <trkpt lat="45.38439" lon="3.81097">
        <ele>1130</ele>
        <time>2019-05-31T13:29:45.992Z</time>
      </trkpt>
      <trkpt lat="45.38446" lon="3.81092">
        <ele>1133</ele>
        <time>2019-05-31T13:29:50.987Z</time>
      </trkpt>
      <trkpt lat="45.38452" lon="3.81084">
        <ele>1133</ele>
        <time>2019-05-31T13:29:55Z</time>
      </trkpt>
      <trkpt lat="45.38456" lon="3.81077">
        <ele>1133</ele>
        <time>2019-05-31T13:29:58.993Z</time>
      </trkpt>
      <trkpt lat="45.38458" lon="3.81071">
        <ele>1133</ele>
        <time>2019-05-31T13:30:03.005Z</time>
      </trkpt>
      <trkpt lat="45.3846" lon="3.81065">
        <ele>1135</ele>
        <time>2019-05-31T13:30:07.991Z</time>
      </trkpt>
      <trkpt lat="45.38466" lon="3.81058">
        <ele>1135</ele>
        <time>2019-05-31T13:30:12.976Z</time>
      </trkpt>
      <trkpt lat="45.38471" lon="3.81054">
        <ele>1135</ele>
        <time>2019-05-31T13:30:16.982Z</time>
      </trkpt>
      <trkpt lat="45.38479" lon="3.81046">
        <ele>1135</ele>
        <time>2019-05-31T13:30:21.001Z</time>
      </trkpt>
      <trkpt lat="45.38485" lon="3.81039">
        <ele>1136</ele>
        <time>2019-05-31T13:30:26.008Z</time>
      </trkpt>
      <trkpt lat="45.38488" lon="3.81034">
        <ele>1137</ele>
        <time>2019-05-31T13:30:30.988Z</time>
      </trkpt>
      <trkpt lat="45.38493" lon="3.81029">
        <ele>1137</ele>
        <time>2019-05-31T13:30:36Z</time>
      </trkpt>
      <trkpt lat="45.38499" lon="3.81027">
        <ele>1137</ele>
        <time>2019-05-31T13:30:41.005Z</time>
      </trkpt>
      <trkpt lat="45.38503" lon="3.81024">
        <ele>1137</ele>
        <time>2019-05-31T13:30:45.979Z</time>
      </trkpt>
      <trkpt lat="45.38509" lon="3.81016">
        <ele>1137</ele>
        <time>2019-05-31T13:30:49.994Z</time>
      </trkpt>
      <trkpt lat="45.38526" lon="3.81002">
        <ele>1142</ele>
        <time>2019-05-31T13:30:54.983Z</time>
      </trkpt>
      <trkpt lat="45.38545" lon="3.81">
        <ele>1146</ele>
        <time>2019-05-31T13:30:58.991Z</time>
      </trkpt>
      <trkpt lat="45.38562" lon="3.80997">
        <ele>1146</ele>
        <time>2019-05-31T13:31:03.013Z</time>
      </trkpt>
      <trkpt lat="45.38579" lon="3.80995">
        <ele>1148</ele>
        <time>2019-05-31T13:31:08.004Z</time>
      </trkpt>
      <trkpt lat="45.38587" lon="3.80992">
        <ele>1148</ele>
        <time>2019-05-31T13:31:12.984Z</time>
      </trkpt>
      <trkpt lat="45.3859" lon="3.80991">
        <ele>1148</ele>
        <time>2019-05-31T13:31:18.007Z</time>
      </trkpt>
      <trkpt lat="45.38591" lon="3.8099">
        <ele>1148</ele>
        <time>2019-05-31T13:31:22.979Z</time>
      </trkpt>
      <trkpt lat="45.38593" lon="3.8099">
        <ele>1148</ele>
        <time>2019-05-31T13:31:26.977Z</time>
      </trkpt>
      <trkpt lat="45.38596" lon="3.80992">
        <ele>1148</ele>
        <time>2019-05-31T13:31:30.999Z</time>
      </trkpt>
      <trkpt lat="45.38602" lon="3.80991">
        <ele>1147</ele>
        <time>2019-05-31T13:31:35.993Z</time>
      </trkpt>
      <trkpt lat="45.38612" lon="3.80989">
        <ele>1147</ele>
        <time>2019-05-31T13:31:41.015Z</time>
      </trkpt>
      <trkpt lat="45.38623" lon="3.80995">
        <ele>1147</ele>
        <time>2019-05-31T13:31:45.997Z</time>
      </trkpt>
      <trkpt lat="45.38632" lon="3.81002">
        <ele>1146</ele>
        <time>2019-05-31T13:31:51.009Z</time>
      </trkpt>
      <trkpt lat="45.38639" lon="3.81012">
        <ele>1146</ele>
        <time>2019-05-31T13:31:55.993Z</time>
      </trkpt>
      <trkpt lat="45.38644" lon="3.81018">
        <ele>1146</ele>
        <time>2019-05-31T13:32:01.014Z</time>
      </trkpt>
      <trkpt lat="45.38651" lon="3.81023">
        <ele>1146</ele>
        <time>2019-05-31T13:32:05.981Z</time>
      </trkpt>
      <trkpt lat="45.38654" lon="3.81026">
        <ele>1149</ele>
        <time>2019-05-31T13:32:09.990Z</time>
      </trkpt>
      <trkpt lat="45.3866" lon="3.8103">
        <ele>1149</ele>
        <time>2019-05-31T13:32:15.016Z</time>
      </trkpt>
      <trkpt lat="45.38669" lon="3.81031">
        <ele>1149</ele>
        <time>2019-05-31T13:32:19.979Z</time>
      </trkpt>
      <trkpt lat="45.38675" lon="3.81035">
        <ele>1149</ele>
        <time>2019-05-31T13:32:23.972Z</time>
      </trkpt>
      <trkpt lat="45.38683" lon="3.81035">
        <ele>1151</ele>
        <time>2019-05-31T13:32:27.996Z</time>
      </trkpt>
      <trkpt lat="45.38693" lon="3.8104">
        <ele>1151</ele>
        <time>2019-05-31T13:32:33.001Z</time>
      </trkpt>
      <trkpt lat="45.38703" lon="3.81041">
        <ele>1151</ele>
        <time>2019-05-31T13:32:37.981Z</time>
      </trkpt>
      <trkpt lat="45.38713" lon="3.81048">
        <ele>1148</ele>
        <time>2019-05-31T13:32:42.975Z</time>
      </trkpt>
      <trkpt lat="45.38724" lon="3.81048">
        <ele>1148</ele>
        <time>2019-05-31T13:32:47.973Z</time>
      </trkpt>
      <trkpt lat="45.38733" lon="3.81048">
        <ele>1148</ele>
        <time>2019-05-31T13:32:52.974Z</time>
      </trkpt>
      <trkpt lat="45.3874" lon="3.81048">
        <ele>1149</ele>
        <time>2019-05-31T13:32:56.973Z</time>
      </trkpt>
      <trkpt lat="45.38752" lon="3.81046">
        <ele>1149</ele>
        <time>2019-05-31T13:33:01.976Z</time>
      </trkpt>
      <trkpt lat="45.38784" lon="3.81047">
        <ele>1152</ele>
        <time>2019-05-31T13:33:06.970Z</time>
      </trkpt>
      <trkpt lat="45.38812" lon="3.81039">
        <ele>1160</ele>
        <time>2019-05-31T13:33:10.975Z</time>
      </trkpt>
      <trkpt lat="45.38836" lon="3.81033">
        <ele>1160</ele>
        <time>2019-05-31T13:33:14.972Z</time>
      </trkpt>
      <trkpt lat="45.38862" lon="3.81021">
        <ele>1158</ele>
        <time>2019-05-31T13:33:19.970Z</time>
      </trkpt>
      <trkpt lat="45.38878" lon="3.81012">
        <ele>1159</ele>
        <time>2019-05-31T13:33:24.971Z</time>
      </trkpt>
      <trkpt lat="45.38887" lon="3.80999">
        <ele>1159</ele>
        <time>2019-05-31T13:33:29.969Z</time>
      </trkpt>
      <trkpt lat="45.38892" lon="3.80988">
        <ele>1159</ele>
        <time>2019-05-31T13:33:33.972Z</time>
      </trkpt>
      <trkpt lat="45.38897" lon="3.8098">
        <ele>1159</ele>
        <time>2019-05-31T13:33:38.973Z</time>
      </trkpt>
      <trkpt lat="45.38901" lon="3.80966">
        <ele>1159</ele>
        <time>2019-05-31T13:33:43.956Z</time>
      </trkpt>
      <trkpt lat="45.38905" lon="3.80959">
        <ele>1159</ele>
        <time>2019-05-31T13:33:47.978Z</time>
      </trkpt>
      <trkpt lat="45.38908" lon="3.80954">
        <ele>1160</ele>
        <time>2019-05-31T13:33:51.977Z</time>
      </trkpt>
      <trkpt lat="45.38917" lon="3.8094">
        <ele>1160</ele>
        <time>2019-05-31T13:33:56.968Z</time>
      </trkpt>
      <trkpt lat="45.38936" lon="3.80913">
        <ele>1163</ele>
        <time>2019-05-31T13:34:01.972Z</time>
      </trkpt>
      <trkpt lat="45.38931" lon="3.809">
        <ele>1164</ele>
        <time>2019-05-31T13:34:06.971Z</time>
      </trkpt>
      <trkpt lat="45.38912" lon="3.80868">
        <ele>1164</ele>
        <time>2019-05-31T13:34:11.971Z</time>
      </trkpt>
      <trkpt lat="45.38891" lon="3.80852">
        <ele>1163</ele>
        <time>2019-05-31T13:34:16.975Z</time>
      </trkpt>
      <trkpt lat="45.38878" lon="3.80844">
        <ele>1163</ele>
        <time>2019-05-31T13:34:21.973Z</time>
      </trkpt>
      <trkpt lat="45.3887" lon="3.80836">
        <ele>1164</ele>
        <time>2019-05-31T13:34:26.968Z</time>
      </trkpt>
      <trkpt lat="45.38866" lon="3.80829">
        <ele>1164</ele>
        <time>2019-05-31T13:34:30.968Z</time>
      </trkpt>
      <trkpt lat="45.38863" lon="3.80823">
        <ele>1164</ele>
        <time>2019-05-31T13:34:35.974Z</time>
      </trkpt>
      <trkpt lat="45.38854" lon="3.80816">
        <ele>1166</ele>
        <time>2019-05-31T13:34:40.979Z</time>
      </trkpt>
      <trkpt lat="45.38852" lon="3.80814">
        <ele>1166</ele>
        <time>2019-05-31T13:34:45.978Z</time>
      </trkpt>
      <trkpt lat="45.38851" lon="3.8081">
        <ele>1166</ele>
        <time>2019-05-31T13:34:49.975Z</time>
      </trkpt>
      <trkpt lat="45.38847" lon="3.80802">
        <ele>1166</ele>
        <time>2019-05-31T13:34:54.971Z</time>
      </trkpt>
      <trkpt lat="45.38844" lon="3.80801">
        <ele>1164</ele>
        <time>2019-05-31T13:34:59.971Z</time>
      </trkpt>
      <trkpt lat="45.38831" lon="3.80794">
        <ele>1164</ele>
        <time>2019-05-31T13:35:04.967Z</time>
      </trkpt>
      <trkpt lat="45.38818" lon="3.80781">
        <ele>1161</ele>
        <time>2019-05-31T13:35:09.969Z</time>
      </trkpt>
      <trkpt lat="45.3881" lon="3.80771">
        <ele>1161</ele>
        <time>2019-05-31T13:35:14.966Z</time>
      </trkpt>
      <trkpt lat="45.38801" lon="3.8076">
        <ele>1161</ele>
        <time>2019-05-31T13:35:19.969Z</time>
      </trkpt>
      <trkpt lat="45.38795" lon="3.8075">
        <ele>1161</ele>
        <time>2019-05-31T13:35:23.974Z</time>
      </trkpt>
      <trkpt lat="45.3879" lon="3.80739">
        <ele>1161</ele>
        <time>2019-05-31T13:35:28.984Z</time>
      </trkpt>
      <trkpt lat="45.38783" lon="3.80726">
        <ele>1158</ele>
        <time>2019-05-31T13:35:33.978Z</time>
      </trkpt>
      <trkpt lat="45.38779" lon="3.80714">
        <ele>1158</ele>
        <time>2019-05-31T13:35:38.978Z</time>
      </trkpt>
      <trkpt lat="45.38779" lon="3.80704">
        <ele>1157</ele>
        <time>2019-05-31T13:35:42.981Z</time>
      </trkpt>
      <trkpt lat="45.3878" lon="3.80695">
        <ele>1157</ele>
        <time>2019-05-31T13:35:47.973Z</time>
      </trkpt>
      <trkpt lat="45.3878" lon="3.80684">
        <ele>1157</ele>
        <time>2019-05-31T13:35:52.984Z</time>
      </trkpt>
      <trkpt lat="45.38786" lon="3.80672">
        <ele>1157</ele>
        <time>2019-05-31T13:35:57.969Z</time>
      </trkpt>
      <trkpt lat="45.38794" lon="3.80665">
        <ele>1158</ele>
        <time>2019-05-31T13:36:02.956Z</time>
      </trkpt>
      <trkpt lat="45.38799" lon="3.80662">
        <ele>1158</ele>
        <time>2019-05-31T13:36:06.972Z</time>
      </trkpt>
      <trkpt lat="45.38807" lon="3.80654">
        <ele>1158</ele>
        <time>2019-05-31T13:36:15.957Z</time>
      </trkpt>
      <trkpt lat="45.38807" lon="3.80654">
        <ele>1158</ele>
        <time>2019-05-31T13:36:20.959Z</time>
      </trkpt>
      <trkpt lat="45.38807" lon="3.80654">
        <ele>1158</ele>
        <time>2019-05-31T13:36:24.960Z</time>
      </trkpt>
      <trkpt lat="45.38808" lon="3.80654">
        <ele>1158</ele>
        <time>2019-05-31T13:36:28.972Z</time>
      </trkpt>
      <trkpt lat="45.38812" lon="3.80647">
        <ele>1159</ele>
        <time>2019-05-31T13:36:33.976Z</time>
      </trkpt>
      <trkpt lat="45.38817" lon="3.80639">
        <ele>1159</ele>
        <time>2019-05-31T13:36:38.968Z</time>
      </trkpt>
      <trkpt lat="45.38822" lon="3.80633">
        <ele>1160</ele>
        <time>2019-05-31T13:36:42.979Z</time>
      </trkpt>
      <trkpt lat="45.38829" lon="3.80627">
        <ele>1160</ele>
        <time>2019-05-31T13:36:47.964Z</time>
      </trkpt>
      <trkpt lat="45.38833" lon="3.80621">
        <ele>1161</ele>
        <time>2019-05-31T13:36:51.964Z</time>
      </trkpt>
      <trkpt lat="45.38837" lon="3.80614">
        <ele>1161</ele>
        <time>2019-05-31T13:36:55.973Z</time>
      </trkpt>
      <trkpt lat="45.38842" lon="3.80606">
        <ele>1161</ele>
        <time>2019-05-31T13:37:00.976Z</time>
      </trkpt>
      <trkpt lat="45.38848" lon="3.806">
        <ele>1162</ele>
        <time>2019-05-31T13:37:05.977Z</time>
      </trkpt>
      <trkpt lat="45.38856" lon="3.80594">
        <ele>1162</ele>
        <time>2019-05-31T13:37:10.978Z</time>
      </trkpt>
      <trkpt lat="45.38863" lon="3.80589">
        <ele>1162</ele>
        <time>2019-05-31T13:37:15.970Z</time>
      </trkpt>
      <trkpt lat="45.38871" lon="3.80582">
        <ele>1162</ele>
        <time>2019-05-31T13:37:20.980Z</time>
      </trkpt>
      <trkpt lat="45.38878" lon="3.80574">
        <ele>1162</ele>
        <time>2019-05-31T13:37:25.964Z</time>
      </trkpt>
      <trkpt lat="45.38884" lon="3.80568">
        <ele>1160</ele>
        <time>2019-05-31T13:37:29.966Z</time>
      </trkpt>
      <trkpt lat="45.38889" lon="3.80561">
        <ele>1160</ele>
        <time>2019-05-31T13:37:33.970Z</time>
      </trkpt>
      <trkpt lat="45.38894" lon="3.80553">
        <ele>1160</ele>
        <time>2019-05-31T13:37:38.975Z</time>
      </trkpt>
      <trkpt lat="45.389" lon="3.80545">
        <ele>1160</ele>
        <time>2019-05-31T13:37:43.970Z</time>
      </trkpt>
      <trkpt lat="45.38907" lon="3.80537">
        <ele>1156</ele>
        <time>2019-05-31T13:37:48.986Z</time>
      </trkpt>
      <trkpt lat="45.38913" lon="3.80529">
        <ele>1156</ele>
        <time>2019-05-31T13:37:53.974Z</time>
      </trkpt>
      <trkpt lat="45.38918" lon="3.80519">
        <ele>1156</ele>
        <time>2019-05-31T13:37:58.970Z</time>
      </trkpt>
      <trkpt lat="45.38922" lon="3.80513">
        <ele>1153</ele>
        <time>2019-05-31T13:38:02.977Z</time>
      </trkpt>
      <trkpt lat="45.38925" lon="3.80505">
        <ele>1153</ele>
        <time>2019-05-31T13:38:07.965Z</time>
      </trkpt>
      <trkpt lat="45.38928" lon="3.80496">
        <ele>1153</ele>
        <time>2019-05-31T13:38:11.966Z</time>
      </trkpt>
      <trkpt lat="45.38932" lon="3.80486">
        <ele>1152</ele>
        <time>2019-05-31T13:38:16.977Z</time>
      </trkpt>
      <trkpt lat="45.38935" lon="3.80476">
        <ele>1150</ele>
        <time>2019-05-31T13:38:21.968Z</time>
      </trkpt>
      <trkpt lat="45.38938" lon="3.80469">
        <ele>1150</ele>
        <time>2019-05-31T13:38:25.973Z</time>
      </trkpt>
      <trkpt lat="45.38941" lon="3.80458">
        <ele>1150</ele>
        <time>2019-05-31T13:38:30.976Z</time>
      </trkpt>
      <trkpt lat="45.38945" lon="3.80449">
        <ele>1150</ele>
        <time>2019-05-31T13:38:35.967Z</time>
      </trkpt>
      <trkpt lat="45.38954" lon="3.80436">
        <ele>1150</ele>
        <time>2019-05-31T13:38:40.978Z</time>
      </trkpt>
      <trkpt lat="45.38961" lon="3.80427">
        <ele>1148</ele>
        <time>2019-05-31T13:38:45.966Z</time>
      </trkpt>
      <trkpt lat="45.38967" lon="3.80423">
        <ele>1148</ele>
        <time>2019-05-31T13:38:49.961Z</time>
      </trkpt>
      <trkpt lat="45.38972" lon="3.80413">
        <ele>1148</ele>
        <time>2019-05-31T13:38:54.975Z</time>
      </trkpt>
      <trkpt lat="45.38975" lon="3.80403">
        <ele>1148</ele>
        <time>2019-05-31T13:38:59.958Z</time>
      </trkpt>
      <trkpt lat="45.3898" lon="3.80395">
        <ele>1147</ele>
        <time>2019-05-31T13:39:03.967Z</time>
      </trkpt>
      <trkpt lat="45.38986" lon="3.80388">
        <ele>1145</ele>
        <time>2019-05-31T13:39:08.977Z</time>
      </trkpt>
      <trkpt lat="45.38993" lon="3.80386">
        <ele>1145</ele>
        <time>2019-05-31T13:39:12.976Z</time>
      </trkpt>
      <trkpt lat="45.38998" lon="3.80379">
        <ele>1145</ele>
        <time>2019-05-31T13:39:17.960Z</time>
      </trkpt>
      <trkpt lat="45.39001" lon="3.80371">
        <ele>1143</ele>
        <time>2019-05-31T13:39:21.968Z</time>
      </trkpt>
      <trkpt lat="45.39006" lon="3.80362">
        <ele>1143</ele>
        <time>2019-05-31T13:39:26.996Z</time>
      </trkpt>
      <trkpt lat="45.39014" lon="3.80354">
        <ele>1143</ele>
        <time>2019-05-31T13:39:31.966Z</time>
      </trkpt>
      <trkpt lat="45.39019" lon="3.80348">
        <ele>1141</ele>
        <time>2019-05-31T13:39:35.965Z</time>
      </trkpt>
      <trkpt lat="45.39021" lon="3.80342">
        <ele>1139</ele>
        <time>2019-05-31T13:39:39.966Z</time>
      </trkpt>
      <trkpt lat="45.39021" lon="3.80333">
        <ele>1139</ele>
        <time>2019-05-31T13:39:44.969Z</time>
      </trkpt>
      <trkpt lat="45.39022" lon="3.80331">
        <ele>1139</ele>
        <time>2019-05-31T13:39:48.974Z</time>
      </trkpt>
      <trkpt lat="45.39022" lon="3.80331">
        <ele>1139</ele>
        <time>2019-05-31T13:39:53.966Z</time>
      </trkpt>
      <trkpt lat="45.39023" lon="3.80326">
        <ele>1139</ele>
        <time>2019-05-31T13:39:58.970Z</time>
      </trkpt>
      <trkpt lat="45.39026" lon="3.8032">
        <ele>1139</ele>
        <time>2019-05-31T13:40:03.962Z</time>
      </trkpt>
      <trkpt lat="45.39031" lon="3.80315">
        <ele>1137</ele>
        <time>2019-05-31T13:40:08.969Z</time>
      </trkpt>
      <trkpt lat="45.39038" lon="3.80311">
        <ele>1137</ele>
        <time>2019-05-31T13:40:12.968Z</time>
      </trkpt>
      <trkpt lat="45.39044" lon="3.80305">
        <ele>1131</ele>
        <time>2019-05-31T13:40:17.964Z</time>
      </trkpt>
      <trkpt lat="45.39048" lon="3.80301">
        <ele>1131</ele>
        <time>2019-05-31T13:40:21.965Z</time>
      </trkpt>
      <trkpt lat="45.39053" lon="3.80295">
        <ele>1131</ele>
        <time>2019-05-31T13:40:26.969Z</time>
      </trkpt>
      <trkpt lat="45.39058" lon="3.80287">
        <ele>1128</ele>
        <time>2019-05-31T13:40:30.972Z</time>
      </trkpt>
      <trkpt lat="45.3906" lon="3.80279">
        <ele>1128</ele>
        <time>2019-05-31T13:40:35.955Z</time>
      </trkpt>
      <trkpt lat="45.39063" lon="3.80272">
        <ele>1128</ele>
        <time>2019-05-31T13:40:39.967Z</time>
      </trkpt>
      <trkpt lat="45.39065" lon="3.80263">
        <ele>1124</ele>
        <time>2019-05-31T13:40:44.960Z</time>
      </trkpt>
      <trkpt lat="45.39065" lon="3.80261">
        <ele>1124</ele>
        <time>2019-05-31T13:40:48.959Z</time>
      </trkpt>
      <trkpt lat="45.39066" lon="3.80258">
        <ele>1124</ele>
        <time>2019-05-31T13:40:53.961Z</time>
      </trkpt>
      <trkpt lat="45.39067" lon="3.80252">
        <ele>1124</ele>
        <time>2019-05-31T13:40:58.964Z</time>
      </trkpt>
      <trkpt lat="45.3907" lon="3.80248">
        <ele>1122</ele>
        <time>2019-05-31T13:41:02.976Z</time>
      </trkpt>
      <trkpt lat="45.39073" lon="3.8024">
        <ele>1122</ele>
        <time>2019-05-31T13:41:07.960Z</time>
      </trkpt>
      <trkpt lat="45.39077" lon="3.80235">
        <ele>1118</ele>
        <time>2019-05-31T13:41:11.975Z</time>
      </trkpt>
      <trkpt lat="45.39079" lon="3.80229">
        <ele>1118</ele>
        <time>2019-05-31T13:41:16.971Z</time>
      </trkpt>
      <trkpt lat="45.39085" lon="3.80224">
        <ele>1118</ele>
        <time>2019-05-31T13:41:20.973Z</time>
      </trkpt>
      <trkpt lat="45.3909" lon="3.80217">
        <ele>1118</ele>
        <time>2019-05-31T13:41:25.960Z</time>
      </trkpt>
      <trkpt lat="45.39093" lon="3.80212">
        <ele>1118</ele>
        <time>2019-05-31T13:41:29.996Z</time>
      </trkpt>
      <trkpt lat="45.39093" lon="3.80211">
        <ele>1118</ele>
        <time>2019-05-31T13:41:34.995Z</time>
      </trkpt>
      <trkpt lat="45.39094" lon="3.8021">
        <ele>1118</ele>
        <time>2019-05-31T13:41:38.994Z</time>
      </trkpt>
      <trkpt lat="45.39101" lon="3.802">
        <ele>1116</ele>
        <time>2019-05-31T13:41:43.977Z</time>
      </trkpt>
      <trkpt lat="45.39106" lon="3.80193">
        <ele>1116</ele>
        <time>2019-05-31T13:41:48.989Z</time>
      </trkpt>
      <trkpt lat="45.39107" lon="3.80187">
        <ele>1116</ele>
        <time>2019-05-31T13:41:52.985Z</time>
      </trkpt>
      <trkpt lat="45.39107" lon="3.80184">
        <ele>1116</ele>
        <time>2019-05-31T13:41:57.991Z</time>
      </trkpt>
      <trkpt lat="45.39109" lon="3.80182">
        <ele>1116</ele>
        <time>2019-05-31T13:42:01.991Z</time>
      </trkpt>
      <trkpt lat="45.39112" lon="3.80178">
        <ele>1114</ele>
        <time>2019-05-31T13:42:06.032Z</time>
      </trkpt>
      <trkpt lat="45.39121" lon="3.80161">
        <ele>1114</ele>
        <time>2019-05-31T13:42:26.003Z</time>
      </trkpt>
      <trkpt lat="45.39123" lon="3.80157">
        <ele>1114</ele>
        <time>2019-05-31T13:42:30.977Z</time>
      </trkpt>
      <trkpt lat="45.39127" lon="3.80154">
        <ele>1110</ele>
        <time>2019-05-31T13:42:34.983Z</time>
      </trkpt>
      <trkpt lat="45.39132" lon="3.80149">
        <ele>1108</ele>
        <time>2019-05-31T13:42:40.003Z</time>
      </trkpt>
      <trkpt lat="45.39136" lon="3.80145">
        <ele>1108</ele>
        <time>2019-05-31T13:42:44.972Z</time>
      </trkpt>
      <trkpt lat="45.3914" lon="3.80139">
        <ele>1108</ele>
        <time>2019-05-31T13:42:48.993Z</time>
      </trkpt>
      <trkpt lat="45.39144" lon="3.80132">
        <ele>1108</ele>
        <time>2019-05-31T13:42:53.984Z</time>
      </trkpt>
      <trkpt lat="45.39147" lon="3.80125">
        <ele>1107</ele>
        <time>2019-05-31T13:42:58.008Z</time>
      </trkpt>
      <trkpt lat="45.39147" lon="3.80117">
        <ele>1107</ele>
        <time>2019-05-31T13:43:02.993Z</time>
      </trkpt>
      <trkpt lat="45.39147" lon="3.80117">
        <ele>1107</ele>
        <time>2019-05-31T13:43:07.985Z</time>
      </trkpt>
      <trkpt lat="45.39154" lon="3.8011">
        <ele>1102</ele>
        <time>2019-05-31T13:43:12.974Z</time>
      </trkpt>
      <trkpt lat="45.39161" lon="3.80109">
        <ele>1102</ele>
        <time>2019-05-31T13:43:17.987Z</time>
      </trkpt>
      <trkpt lat="45.39166" lon="3.80108">
        <ele>1102</ele>
        <time>2019-05-31T13:43:21.995Z</time>
      </trkpt>
      <trkpt lat="45.3917" lon="3.80108">
        <ele>1102</ele>
        <time>2019-05-31T13:43:25.998Z</time>
      </trkpt>
      <trkpt lat="45.39174" lon="3.80106">
        <ele>1102</ele>
        <time>2019-05-31T13:43:30.975Z</time>
      </trkpt>
      <trkpt lat="45.39177" lon="3.80102">
        <ele>1102</ele>
        <time>2019-05-31T13:43:35.978Z</time>
      </trkpt>
      <trkpt lat="45.39183" lon="3.80101">
        <ele>1098</ele>
        <time>2019-05-31T13:43:39.987Z</time>
      </trkpt>
      <trkpt lat="45.39187" lon="3.801">
        <ele>1098</ele>
        <time>2019-05-31T13:43:44.969Z</time>
      </trkpt>
      <trkpt lat="45.39189" lon="3.80099">
        <ele>1098</ele>
        <time>2019-05-31T13:43:49.996Z</time>
      </trkpt>
      <trkpt lat="45.39191" lon="3.801">
        <ele>1098</ele>
        <time>2019-05-31T13:43:53.989Z</time>
      </trkpt>
      <trkpt lat="45.39196" lon="3.80102">
        <ele>1098</ele>
        <time>2019-05-31T13:43:57.990Z</time>
      </trkpt>
      <trkpt lat="45.39202" lon="3.80097">
        <ele>1098</ele>
        <time>2019-05-31T13:45:51.964Z</time>
      </trkpt>
      <trkpt lat="45.39208" lon="3.80103">
        <ele>1098</ele>
        <time>2019-05-31T13:45:56.971Z</time>
      </trkpt>
      <trkpt lat="45.39211" lon="3.80104">
        <ele>1095</ele>
        <time>2019-05-31T13:46:01.971Z</time>
      </trkpt>
      <trkpt lat="45.39211" lon="3.80103">
        <ele>1095</ele>
        <time>2019-05-31T13:46:06.969Z</time>
      </trkpt>
      <trkpt lat="45.39212" lon="3.80103">
        <ele>1095</ele>
        <time>2019-05-31T13:46:10.981Z</time>
      </trkpt>
      <trkpt lat="45.39212" lon="3.80102">
        <ele>1095</ele>
        <time>2019-05-31T13:46:15.967Z</time>
      </trkpt>
      <trkpt lat="45.39212" lon="3.80101">
        <ele>1095</ele>
        <time>2019-05-31T13:46:19.987Z</time>
      </trkpt>
      <trkpt lat="45.39212" lon="3.80098">
        <ele>1095</ele>
        <time>2019-05-31T13:46:24.961Z</time>
      </trkpt>
      <trkpt lat="45.39215" lon="3.80096">
        <ele>1091</ele>
        <time>2019-05-31T13:46:28.965Z</time>
      </trkpt>
      <trkpt lat="45.3922" lon="3.80096">
        <ele>1091</ele>
        <time>2019-05-31T13:46:32.968Z</time>
      </trkpt>
      <trkpt lat="45.39225" lon="3.80099">
        <ele>1095</ele>
        <time>2019-05-31T13:46:37.968Z</time>
      </trkpt>
      <trkpt lat="45.39231" lon="3.80099">
        <ele>1095</ele>
        <time>2019-05-31T13:46:42.972Z</time>
      </trkpt>
      <trkpt lat="45.39239" lon="3.80101">
        <ele>1092</ele>
        <time>2019-05-31T13:46:47.967Z</time>
      </trkpt>
      <trkpt lat="45.39246" lon="3.80103">
        <ele>1092</ele>
        <time>2019-05-31T13:46:52.969Z</time>
      </trkpt>
      <trkpt lat="45.3925" lon="3.80105">
        <ele>1092</ele>
        <time>2019-05-31T13:46:57.973Z</time>
      </trkpt>
      <trkpt lat="45.39257" lon="3.80105">
        <ele>1092</ele>
        <time>2019-05-31T13:47:02.969Z</time>
      </trkpt>
      <trkpt lat="45.39261" lon="3.80103">
        <ele>1092</ele>
        <time>2019-05-31T13:47:06.971Z</time>
      </trkpt>
      <trkpt lat="45.3927" lon="3.80095">
        <ele>1088</ele>
        <time>2019-05-31T13:47:11.969Z</time>
      </trkpt>
      <trkpt lat="45.39279" lon="3.80091">
        <ele>1088</ele>
        <time>2019-05-31T13:47:16.966Z</time>
      </trkpt>
      <trkpt lat="45.39283" lon="3.80088">
        <ele>1088</ele>
        <time>2019-05-31T13:47:21.970Z</time>
      </trkpt>
      <trkpt lat="45.39291" lon="3.80089">
        <ele>1088</ele>
        <time>2019-05-31T13:47:26.966Z</time>
      </trkpt>
      <trkpt lat="45.39301" lon="3.80083">
        <ele>1086</ele>
        <time>2019-05-31T13:47:31.971Z</time>
      </trkpt>
      <trkpt lat="45.39308" lon="3.8008">
        <ele>1086</ele>
        <time>2019-05-31T13:47:35.972Z</time>
      </trkpt>
      <trkpt lat="45.39315" lon="3.80074">
        <ele>1086</ele>
        <time>2019-05-31T13:47:39.991Z</time>
      </trkpt>
      <trkpt lat="45.39322" lon="3.80073">
        <ele>1083</ele>
        <time>2019-05-31T13:47:44.966Z</time>
      </trkpt>
      <trkpt lat="45.3933" lon="3.80067">
        <ele>1080</ele>
        <time>2019-05-31T13:47:49.968Z</time>
      </trkpt>
      <trkpt lat="45.39347" lon="3.80047">
        <ele>1080</ele>
        <time>2019-05-31T13:48:08.966Z</time>
      </trkpt>
      <trkpt lat="45.3935" lon="3.80047">
        <ele>1080</ele>
        <time>2019-05-31T13:48:13.957Z</time>
      </trkpt>
      <trkpt lat="45.39352" lon="3.80047">
        <ele>1080</ele>
        <time>2019-05-31T13:48:17.974Z</time>
      </trkpt>
      <trkpt lat="45.39353" lon="3.80043">
        <ele>1080</ele>
        <time>2019-05-31T13:48:21.968Z</time>
      </trkpt>
      <trkpt lat="45.39359" lon="3.8004">
        <ele>1077</ele>
        <time>2019-05-31T13:48:26.964Z</time>
      </trkpt>
      <trkpt lat="45.39369" lon="3.80039">
        <ele>1077</ele>
        <time>2019-05-31T13:48:31.981Z</time>
      </trkpt>
      <trkpt lat="45.39377" lon="3.80036">
        <ele>1077</ele>
        <time>2019-05-31T13:48:36.962Z</time>
      </trkpt>
      <trkpt lat="45.39383" lon="3.80036">
        <ele>1077</ele>
        <time>2019-05-31T13:48:41.968Z</time>
      </trkpt>
      <trkpt lat="45.3939" lon="3.8004">
        <ele>1077</ele>
        <time>2019-05-31T13:48:46.954Z</time>
      </trkpt>
      <trkpt lat="45.39392" lon="3.80045">
        <ele>1081</ele>
        <time>2019-05-31T13:48:50.958Z</time>
      </trkpt>
      <trkpt lat="45.394" lon="3.80052">
        <ele>1081</ele>
        <time>2019-05-31T13:48:55.967Z</time>
      </trkpt>
      <trkpt lat="45.3941" lon="3.80054">
        <ele>1081</ele>
        <time>2019-05-31T13:49:00.960Z</time>
      </trkpt>
      <trkpt lat="45.39415" lon="3.80054">
        <ele>1081</ele>
        <time>2019-05-31T13:49:05.964Z</time>
      </trkpt>
      <trkpt lat="45.39421" lon="3.8005">
        <ele>1081</ele>
        <time>2019-05-31T13:49:09.966Z</time>
      </trkpt>
      <trkpt lat="45.39428" lon="3.8005">
        <ele>1081</ele>
        <time>2019-05-31T13:49:13.970Z</time>
      </trkpt>
      <trkpt lat="45.39437" lon="3.80046">
        <ele>1079</ele>
        <time>2019-05-31T13:49:18.964Z</time>
      </trkpt>
      <trkpt lat="45.39446" lon="3.80047">
        <ele>1079</ele>
        <time>2019-05-31T13:49:23.986Z</time>
      </trkpt>
      <trkpt lat="45.39454" lon="3.80047">
        <ele>1079</ele>
        <time>2019-05-31T13:49:28.965Z</time>
      </trkpt>
      <trkpt lat="45.39462" lon="3.80045">
        <ele>1075</ele>
        <time>2019-05-31T13:49:32.977Z</time>
      </trkpt>
      <trkpt lat="45.39471" lon="3.8004">
        <ele>1073</ele>
        <time>2019-05-31T13:49:37.979Z</time>
      </trkpt>
      <trkpt lat="45.39477" lon="3.80036">
        <ele>1073</ele>
        <time>2019-05-31T13:49:42.976Z</time>
      </trkpt>
      <trkpt lat="45.39486" lon="3.80032">
        <ele>1075</ele>
        <time>2019-05-31T13:49:47.975Z</time>
      </trkpt>
      <trkpt lat="45.39494" lon="3.80025">
        <ele>1075</ele>
        <time>2019-05-31T13:49:52.958Z</time>
      </trkpt>
      <trkpt lat="45.39501" lon="3.80023">
        <ele>1075</ele>
        <time>2019-05-31T13:49:56.965Z</time>
      </trkpt>
      <trkpt lat="45.39506" lon="3.80021">
        <ele>1075</ele>
        <time>2019-05-31T13:50:01.971Z</time>
      </trkpt>
      <trkpt lat="45.3951" lon="3.80015">
        <ele>1075</ele>
        <time>2019-05-31T13:50:05.969Z</time>
      </trkpt>
      <trkpt lat="45.39515" lon="3.8001">
        <ele>1077</ele>
        <time>2019-05-31T13:50:10.958Z</time>
      </trkpt>
      <trkpt lat="45.3952" lon="3.80004">
        <ele>1077</ele>
        <time>2019-05-31T13:50:14.968Z</time>
      </trkpt>
      <trkpt lat="45.39527" lon="3.79998">
        <ele>1077</ele>
        <time>2019-05-31T13:50:19.977Z</time>
      </trkpt>
      <trkpt lat="45.39534" lon="3.79991">
        <ele>1077</ele>
        <time>2019-05-31T13:50:24.974Z</time>
      </trkpt>
      <trkpt lat="45.3954" lon="3.79985">
        <ele>1076</ele>
        <time>2019-05-31T13:50:29.973Z</time>
      </trkpt>
      <trkpt lat="45.39546" lon="3.79983">
        <ele>1076</ele>
        <time>2019-05-31T13:50:34.957Z</time>
      </trkpt>
      <trkpt lat="45.39552" lon="3.79982">
        <ele>1076</ele>
        <time>2019-05-31T13:50:38.958Z</time>
      </trkpt>
      <trkpt lat="45.39558" lon="3.79981">
        <ele>1076</ele>
        <time>2019-05-31T13:50:42.962Z</time>
      </trkpt>
      <trkpt lat="45.39566" lon="3.79978">
        <ele>1076</ele>
        <time>2019-05-31T13:50:47.970Z</time>
      </trkpt>
      <trkpt lat="45.39574" lon="3.79977">
        <ele>1075</ele>
        <time>2019-05-31T13:50:52.958Z</time>
      </trkpt>
      <trkpt lat="45.3958" lon="3.79976">
        <ele>1075</ele>
        <time>2019-05-31T13:50:56.963Z</time>
      </trkpt>
      <trkpt lat="45.39589" lon="3.79976">
        <ele>1075</ele>
        <time>2019-05-31T13:51:01.974Z</time>
      </trkpt>
      <trkpt lat="45.39596" lon="3.79976">
        <ele>1075</ele>
        <time>2019-05-31T13:51:06.970Z</time>
      </trkpt>
      <trkpt lat="45.39604" lon="3.79974">
        <ele>1075</ele>
        <time>2019-05-31T13:51:11.972Z</time>
      </trkpt>
      <trkpt lat="45.39608" lon="3.79975">
        <ele>1075</ele>
        <time>2019-05-31T13:51:15.972Z</time>
      </trkpt>
      <trkpt lat="45.3961" lon="3.79976">
        <ele>1075</ele>
        <time>2019-05-31T13:51:20.965Z</time>
      </trkpt>
      <trkpt lat="45.39614" lon="3.79979">
        <ele>1075</ele>
        <time>2019-05-31T13:51:25.972Z</time>
      </trkpt>
      <trkpt lat="45.39621" lon="3.79976">
        <ele>1075</ele>
        <time>2019-05-31T13:51:30.971Z</time>
      </trkpt>
      <trkpt lat="45.39621" lon="3.79974">
        <ele>1075</ele>
        <time>2019-05-31T13:51:35.972Z</time>
      </trkpt>
      <trkpt lat="45.39621" lon="3.79974">
        <ele>1075</ele>
        <time>2019-05-31T13:51:40.957Z</time>
      </trkpt>
      <trkpt lat="45.39624" lon="3.79973">
        <ele>1075</ele>
        <time>2019-05-31T13:51:45.976Z</time>
      </trkpt>
      <trkpt lat="45.39633" lon="3.79976">
        <ele>1074</ele>
        <time>2019-05-31T13:51:50.965Z</time>
      </trkpt>
      <trkpt lat="45.39641" lon="3.79979">
        <ele>1074</ele>
        <time>2019-05-31T13:51:55.971Z</time>
      </trkpt>
      <trkpt lat="45.39647" lon="3.79978">
        <ele>1074</ele>
        <time>2019-05-31T13:51:59.973Z</time>
      </trkpt>
      <trkpt lat="45.39655" lon="3.79975">
        <ele>1071</ele>
        <time>2019-05-31T13:52:04.965Z</time>
      </trkpt>
      <trkpt lat="45.39662" lon="3.79969">
        <ele>1071</ele>
        <time>2019-05-31T13:52:09.970Z</time>
      </trkpt>
      <trkpt lat="45.39667" lon="3.79961">
        <ele>1071</ele>
        <time>2019-05-31T13:52:13.969Z</time>
      </trkpt>
      <trkpt lat="45.39669" lon="3.79957">
        <ele>1070</ele>
        <time>2019-05-31T13:52:18.960Z</time>
      </trkpt>
      <trkpt lat="45.39671" lon="3.79952">
        <ele>1070</ele>
        <time>2019-05-31T13:52:22.964Z</time>
      </trkpt>
      <trkpt lat="45.39678" lon="3.79947">
        <ele>1070</ele>
        <time>2019-05-31T13:52:27.970Z</time>
      </trkpt>
      <trkpt lat="45.39686" lon="3.79942">
        <ele>1068</ele>
        <time>2019-05-31T13:52:32.962Z</time>
      </trkpt>
      <trkpt lat="45.39693" lon="3.79942">
        <ele>1068</ele>
        <time>2019-05-31T13:52:37.973Z</time>
      </trkpt>
      <trkpt lat="45.39695" lon="3.79943">
        <ele>1068</ele>
        <time>2019-05-31T13:52:42.958Z</time>
      </trkpt>
      <trkpt lat="45.39695" lon="3.79939">
        <ele>1068</ele>
        <time>2019-05-31T13:52:47.970Z</time>
      </trkpt>
      <trkpt lat="45.39699" lon="3.79939">
        <ele>1068</ele>
        <time>2019-05-31T13:52:52.970Z</time>
      </trkpt>
      <trkpt lat="45.39707" lon="3.7994">
        <ele>1068</ele>
        <time>2019-05-31T13:52:57.980Z</time>
      </trkpt>
      <trkpt lat="45.39713" lon="3.79942">
        <ele>1069</ele>
        <time>2019-05-31T13:53:01.987Z</time>
      </trkpt>
      <trkpt lat="45.39722" lon="3.7994">
        <ele>1069</ele>
        <time>2019-05-31T13:53:06.981Z</time>
      </trkpt>
      <trkpt lat="45.39729" lon="3.79942">
        <ele>1069</ele>
        <time>2019-05-31T13:53:11.989Z</time>
      </trkpt>
      <trkpt lat="45.39735" lon="3.79944">
        <ele>1069</ele>
        <time>2019-05-31T13:53:16.965Z</time>
      </trkpt>
      <trkpt lat="45.39738" lon="3.79945">
        <ele>1069</ele>
        <time>2019-05-31T13:53:20.976Z</time>
      </trkpt>
      <trkpt lat="45.39742" lon="3.79947">
        <ele>1069</ele>
        <time>2019-05-31T13:53:25.975Z</time>
      </trkpt>
      <trkpt lat="45.39748" lon="3.79948">
        <ele>1069</ele>
        <time>2019-05-31T13:53:30.976Z</time>
      </trkpt>
      <trkpt lat="45.39755" lon="3.79949">
        <ele>1069</ele>
        <time>2019-05-31T13:53:34.974Z</time>
      </trkpt>
      <trkpt lat="45.3976" lon="3.79951">
        <ele>1069</ele>
        <time>2019-05-31T13:53:39.974Z</time>
      </trkpt>
      <trkpt lat="45.39762" lon="3.79951">
        <ele>1069</ele>
        <time>2019-05-31T13:53:44.970Z</time>
      </trkpt>
      <trkpt lat="45.39763" lon="3.79951">
        <ele>1069</ele>
        <time>2019-05-31T13:53:49.974Z</time>
      </trkpt>
      <trkpt lat="45.39768" lon="3.79947">
        <ele>1065</ele>
        <time>2019-05-31T13:53:54.971Z</time>
      </trkpt>
      <trkpt lat="45.39775" lon="3.79947">
        <ele>1065</ele>
        <time>2019-05-31T13:53:58.972Z</time>
      </trkpt>
      <trkpt lat="45.3978" lon="3.79949">
        <ele>1065</ele>
        <time>2019-05-31T13:54:02.977Z</time>
      </trkpt>
      <trkpt lat="45.39786" lon="3.79954">
        <ele>1065</ele>
        <time>2019-05-31T13:54:06.970Z</time>
      </trkpt>
      <trkpt lat="45.39796" lon="3.79962">
        <ele>1063</ele>
        <time>2019-05-31T13:54:11.972Z</time>
      </trkpt>
      <trkpt lat="45.39806" lon="3.79969">
        <ele>1063</ele>
        <time>2019-05-31T13:54:16.972Z</time>
      </trkpt>
      <trkpt lat="45.39813" lon="3.79977">
        <ele>1063</ele>
        <time>2019-05-31T13:54:21.976Z</time>
      </trkpt>
      <trkpt lat="45.39822" lon="3.79984">
        <ele>1060</ele>
        <time>2019-05-31T13:54:26.989Z</time>
      </trkpt>
      <trkpt lat="45.39828" lon="3.79989">
        <ele>1060</ele>
        <time>2019-05-31T13:54:30.972Z</time>
      </trkpt>
      <trkpt lat="45.39835" lon="3.79996">
        <ele>1060</ele>
        <time>2019-05-31T13:54:35.972Z</time>
      </trkpt>
      <trkpt lat="45.39841" lon="3.80002">
        <ele>1060</ele>
        <time>2019-05-31T13:54:39.986Z</time>
      </trkpt>
      <trkpt lat="45.39847" lon="3.80011">
        <ele>1060</ele>
        <time>2019-05-31T13:54:44.976Z</time>
      </trkpt>
      <trkpt lat="45.3985" lon="3.80019">
        <ele>1057</ele>
        <time>2019-05-31T13:54:49.009Z</time>
      </trkpt>
      <trkpt lat="45.39855" lon="3.80028">
        <ele>1057</ele>
        <time>2019-05-31T13:54:53.983Z</time>
      </trkpt>
      <trkpt lat="45.3986" lon="3.80034">
        <ele>1057</ele>
        <time>2019-05-31T13:54:58.981Z</time>
      </trkpt>
      <trkpt lat="45.39866" lon="3.80044">
        <ele>1056</ele>
        <time>2019-05-31T13:55:03.987Z</time>
      </trkpt>
      <trkpt lat="45.39871" lon="3.80054">
        <ele>1056</ele>
        <time>2019-05-31T13:55:07.994Z</time>
      </trkpt>
      <trkpt lat="45.39877" lon="3.80061">
        <ele>1051</ele>
        <time>2019-05-31T13:55:12.995Z</time>
      </trkpt>
      <trkpt lat="45.39879" lon="3.80069">
        <ele>1051</ele>
        <time>2019-05-31T13:55:16.988Z</time>
      </trkpt>
      <trkpt lat="45.39884" lon="3.80081">
        <ele>1052</ele>
        <time>2019-05-31T13:55:21.965Z</time>
      </trkpt>
      <trkpt lat="45.39887" lon="3.8009">
        <ele>1052</ele>
        <time>2019-05-31T13:55:25.986Z</time>
      </trkpt>
      <trkpt lat="45.3989" lon="3.80099">
        <ele>1053</ele>
        <time>2019-05-31T13:55:30Z</time>
      </trkpt>
      <trkpt lat="45.39893" lon="3.8011">
        <ele>1053</ele>
        <time>2019-05-31T13:55:35.022Z</time>
      </trkpt>
      <trkpt lat="45.39898" lon="3.80118">
        <ele>1053</ele>
        <time>2019-05-31T13:55:40.030Z</time>
      </trkpt>
      <trkpt lat="45.39902" lon="3.80125">
        <ele>1053</ele>
        <time>2019-05-31T13:55:44.033Z</time>
      </trkpt>
      <trkpt lat="45.39911" lon="3.80133">
        <ele>1053</ele>
        <time>2019-05-31T13:55:48.994Z</time>
      </trkpt>
      <trkpt lat="45.39919" lon="3.80135">
        <ele>1053</ele>
        <time>2019-05-31T13:55:53.998Z</time>
      </trkpt>
      <trkpt lat="45.39928" lon="3.80138">
        <ele>1053</ele>
        <time>2019-05-31T13:55:58.999Z</time>
      </trkpt>
      <trkpt lat="45.39934" lon="3.80145">
        <ele>1046</ele>
        <time>2019-05-31T13:56:03.989Z</time>
      </trkpt>
      <trkpt lat="45.3994" lon="3.80149">
        <ele>1046</ele>
        <time>2019-05-31T13:56:08.967Z</time>
      </trkpt>
      <trkpt lat="45.39943" lon="3.80152">
        <ele>1046</ele>
        <time>2019-05-31T13:56:13.012Z</time>
      </trkpt>
      <trkpt lat="45.39948" lon="3.80161">
        <ele>1051</ele>
        <time>2019-05-31T13:56:17.992Z</time>
      </trkpt>
      <trkpt lat="45.39956" lon="3.8017">
        <ele>1051</ele>
        <time>2019-05-31T13:56:22.989Z</time>
      </trkpt>
      <trkpt lat="45.39962" lon="3.80175">
        <ele>1044</ele>
        <time>2019-05-31T13:56:26.995Z</time>
      </trkpt>
      <trkpt lat="45.39968" lon="3.80183">
        <ele>1048</ele>
        <time>2019-05-31T13:56:31.991Z</time>
      </trkpt>
      <trkpt lat="45.39978" lon="3.80193">
        <ele>1048</ele>
        <time>2019-05-31T13:56:36.990Z</time>
      </trkpt>
      <trkpt lat="45.39986" lon="3.80202">
        <ele>1041</ele>
        <time>2019-05-31T13:56:41.992Z</time>
      </trkpt>
      <trkpt lat="45.39995" lon="3.80206">
        <ele>1041</ele>
        <time>2019-05-31T13:56:46.995Z</time>
      </trkpt>
      <trkpt lat="45.40001" lon="3.80211">
        <ele>1043</ele>
        <time>2019-05-31T13:57:06.032Z</time>
      </trkpt>
      <trkpt lat="45.40001" lon="3.8021">
        <ele>1043</ele>
        <time>2019-05-31T13:57:10.962Z</time>
      </trkpt>
      <trkpt lat="45.40002" lon="3.8021">
        <ele>1043</ele>
        <time>2019-05-31T13:57:14.990Z</time>
      </trkpt>
      <trkpt lat="45.40004" lon="3.8021">
        <ele>1043</ele>
        <time>2019-05-31T13:57:18.997Z</time>
      </trkpt>
      <trkpt lat="45.40011" lon="3.80213">
        <ele>1043</ele>
        <time>2019-05-31T13:57:23.997Z</time>
      </trkpt>
      <trkpt lat="45.40015" lon="3.80218">
        <ele>1034</ele>
        <time>2019-05-31T13:57:27.993Z</time>
      </trkpt>
      <trkpt lat="45.40023" lon="3.80224">
        <ele>1034</ele>
        <time>2019-05-31T13:57:33.020Z</time>
      </trkpt>
      <trkpt lat="45.40029" lon="3.80229">
        <ele>1034</ele>
        <time>2019-05-31T13:57:38.005Z</time>
      </trkpt>
      <trkpt lat="45.40034" lon="3.80237">
        <ele>1034</ele>
        <time>2019-05-31T13:57:42.988Z</time>
      </trkpt>
      <trkpt lat="45.40037" lon="3.80243">
        <ele>1034</ele>
        <time>2019-05-31T13:57:47.996Z</time>
      </trkpt>
      <trkpt lat="45.40042" lon="3.80253">
        <ele>1032</ele>
        <time>2019-05-31T13:57:53.002Z</time>
      </trkpt>
      <trkpt lat="45.40044" lon="3.8026">
        <ele>1032</ele>
        <time>2019-05-31T13:57:56.995Z</time>
      </trkpt>
      <trkpt lat="45.40047" lon="3.80268">
        <ele>1032</ele>
        <time>2019-05-31T13:58:01.987Z</time>
      </trkpt>
      <trkpt lat="45.40049" lon="3.80273">
        <ele>1032</ele>
        <time>2019-05-31T13:58:06.021Z</time>
      </trkpt>
      <trkpt lat="45.40054" lon="3.80283">
        <ele>1032</ele>
        <time>2019-05-31T13:58:10.979Z</time>
      </trkpt>
      <trkpt lat="45.40058" lon="3.80301">
        <ele>1030</ele>
        <time>2019-05-31T13:58:16.010Z</time>
      </trkpt>
      <trkpt lat="45.40064" lon="3.8031">
        <ele>1030</ele>
        <time>2019-05-31T13:58:20.972Z</time>
      </trkpt>
      <trkpt lat="45.40073" lon="3.80319">
        <ele>1024</ele>
        <time>2019-05-31T13:58:25.026Z</time>
      </trkpt>
      <trkpt lat="45.40079" lon="3.80331">
        <ele>1024</ele>
        <time>2019-05-31T13:58:30.006Z</time>
      </trkpt>
      <trkpt lat="45.4008" lon="3.80339">
        <ele>1024</ele>
        <time>2019-05-31T13:58:33.997Z</time>
      </trkpt>
      <trkpt lat="45.40082" lon="3.80348">
        <ele>1025</ele>
        <time>2019-05-31T13:58:37.994Z</time>
      </trkpt>
      <trkpt lat="45.40084" lon="3.80358">
        <ele>1025</ele>
        <time>2019-05-31T13:58:42.001Z</time>
      </trkpt>
      <trkpt lat="45.40087" lon="3.80369">
        <ele>1025</ele>
        <time>2019-05-31T13:58:46.962Z</time>
      </trkpt>
      <trkpt lat="45.40091" lon="3.80375">
        <ele>1025</ele>
        <time>2019-05-31T13:58:50.969Z</time>
      </trkpt>
      <trkpt lat="45.40098" lon="3.80381">
        <ele>1023</ele>
        <time>2019-05-31T13:58:54.981Z</time>
      </trkpt>
      <trkpt lat="45.40112" lon="3.8039">
        <ele>1023</ele>
        <time>2019-05-31T13:59:13.977Z</time>
      </trkpt>
      <trkpt lat="45.40113" lon="3.80389">
        <ele>1023</ele>
        <time>2019-05-31T13:59:18.966Z</time>
      </trkpt>
      <trkpt lat="45.40113" lon="3.80389">
        <ele>1023</ele>
        <time>2019-05-31T13:59:23.971Z</time>
      </trkpt>
      <trkpt lat="45.40114" lon="3.80388">
        <ele>1023</ele>
        <time>2019-05-31T13:59:28.971Z</time>
      </trkpt>
      <trkpt lat="45.40119" lon="3.80392">
        <ele>1023</ele>
        <time>2019-05-31T13:59:33.965Z</time>
      </trkpt>
      <trkpt lat="45.40121" lon="3.80399">
        <ele>1023</ele>
        <time>2019-05-31T13:59:37.964Z</time>
      </trkpt>
      <trkpt lat="45.40128" lon="3.80406">
        <ele>1023</ele>
        <time>2019-05-31T13:59:42.981Z</time>
      </trkpt>
      <trkpt lat="45.40135" lon="3.80408">
        <ele>1023</ele>
        <time>2019-05-31T13:59:46.981Z</time>
      </trkpt>
      <trkpt lat="45.40144" lon="3.80407">
        <ele>1023</ele>
        <time>2019-05-31T13:59:51.977Z</time>
      </trkpt>
      <trkpt lat="45.4015" lon="3.80405">
        <ele>1023</ele>
        <time>2019-05-31T13:59:55.958Z</time>
      </trkpt>
      <trkpt lat="45.40159" lon="3.804">
        <ele>1022</ele>
        <time>2019-05-31T14:00:00.975Z</time>
      </trkpt>
      <trkpt lat="45.40167" lon="3.80393">
        <ele>1022</ele>
        <time>2019-05-31T14:00:05.970Z</time>
      </trkpt>
      <trkpt lat="45.40171" lon="3.80387">
        <ele>1022</ele>
        <time>2019-05-31T14:00:09.969Z</time>
      </trkpt>
      <trkpt lat="45.40178" lon="3.80379">
        <ele>1022</ele>
        <time>2019-05-31T14:00:14.974Z</time>
      </trkpt>
      <trkpt lat="45.40184" lon="3.80373">
        <ele>1023</ele>
        <time>2019-05-31T14:00:19.976Z</time>
      </trkpt>
      <trkpt lat="45.4019" lon="3.80368">
        <ele>1023</ele>
        <time>2019-05-31T14:00:24.969Z</time>
      </trkpt>
      <trkpt lat="45.40196" lon="3.8036">
        <ele>1023</ele>
        <time>2019-05-31T14:00:29.973Z</time>
      </trkpt>
      <trkpt lat="45.40203" lon="3.80355">
        <ele>1023</ele>
        <time>2019-05-31T14:00:34.961Z</time>
      </trkpt>
      <trkpt lat="45.4021" lon="3.80351">
        <ele>1027</ele>
        <time>2019-05-31T14:00:39.979Z</time>
      </trkpt>
      <trkpt lat="45.40215" lon="3.80347">
        <ele>1027</ele>
        <time>2019-05-31T14:00:44.970Z</time>
      </trkpt>
      <trkpt lat="45.40221" lon="3.80342">
        <ele>1026</ele>
        <time>2019-05-31T14:00:49.974Z</time>
      </trkpt>
      <trkpt lat="45.40228" lon="3.80336">
        <ele>1026</ele>
        <time>2019-05-31T14:00:54.970Z</time>
      </trkpt>
      <trkpt lat="45.40235" lon="3.80328">
        <ele>1026</ele>
        <time>2019-05-31T14:00:59.975Z</time>
      </trkpt>
      <trkpt lat="45.40241" lon="3.80323">
        <ele>1029</ele>
        <time>2019-05-31T14:01:04.964Z</time>
      </trkpt>
      <trkpt lat="45.40246" lon="3.80317">
        <ele>1027</ele>
        <time>2019-05-31T14:01:09.988Z</time>
      </trkpt>
      <trkpt lat="45.40258" lon="3.80314">
        <ele>1027</ele>
        <time>2019-05-31T14:02:07.966Z</time>
      </trkpt>
      <trkpt lat="45.40258" lon="3.80315">
        <ele>1027</ele>
        <time>2019-05-31T14:02:11.966Z</time>
      </trkpt>
      <trkpt lat="45.4026" lon="3.80314">
        <ele>1027</ele>
        <time>2019-05-31T14:02:16.972Z</time>
      </trkpt>
      <trkpt lat="45.40269" lon="3.80314">
        <ele>1029</ele>
        <time>2019-05-31T14:02:21.981Z</time>
      </trkpt>
      <trkpt lat="45.40277" lon="3.80312">
        <ele>1029</ele>
        <time>2019-05-31T14:02:26.974Z</time>
      </trkpt>
      <trkpt lat="45.40284" lon="3.80311">
        <ele>1029</ele>
        <time>2019-05-31T14:02:30.978Z</time>
      </trkpt>
      <trkpt lat="45.40289" lon="3.8031">
        <ele>1029</ele>
        <time>2019-05-31T14:02:34.979Z</time>
      </trkpt>
      <trkpt lat="45.40295" lon="3.8031">
        <ele>1030</ele>
        <time>2019-05-31T14:02:39.993Z</time>
      </trkpt>
      <trkpt lat="45.40302" lon="3.80311">
        <ele>1030</ele>
        <time>2019-05-31T14:02:44.977Z</time>
      </trkpt>
      <trkpt lat="45.40309" lon="3.80311">
        <ele>1030</ele>
        <time>2019-05-31T14:02:49.970Z</time>
      </trkpt>
      <trkpt lat="45.40316" lon="3.80313">
        <ele>1030</ele>
        <time>2019-05-31T14:02:54.976Z</time>
      </trkpt>
      <trkpt lat="45.40322" lon="3.80314">
        <ele>1031</ele>
        <time>2019-05-31T14:02:59.977Z</time>
      </trkpt>
      <trkpt lat="45.4033" lon="3.80313">
        <ele>1031</ele>
        <time>2019-05-31T14:03:04.967Z</time>
      </trkpt>
      <trkpt lat="45.40336" lon="3.80313">
        <ele>1031</ele>
        <time>2019-05-31T14:03:08.976Z</time>
      </trkpt>
      <trkpt lat="45.40343" lon="3.80313">
        <ele>1031</ele>
        <time>2019-05-31T14:03:13.975Z</time>
      </trkpt>
      <trkpt lat="45.4035" lon="3.80312">
        <ele>1033</ele>
        <time>2019-05-31T14:03:18.975Z</time>
      </trkpt>
      <trkpt lat="45.40356" lon="3.80315">
        <ele>1033</ele>
        <time>2019-05-31T14:03:23.971Z</time>
      </trkpt>
      <trkpt lat="45.40363" lon="3.80317">
        <ele>1033</ele>
        <time>2019-05-31T14:03:28.971Z</time>
      </trkpt>
      <trkpt lat="45.40365" lon="3.80316">
        <ele>1033</ele>
        <time>2019-05-31T14:03:33.957Z</time>
      </trkpt>
      <trkpt lat="45.40365" lon="3.80315">
        <ele>1033</ele>
        <time>2019-05-31T14:03:37.977Z</time>
      </trkpt>
      <trkpt lat="45.40368" lon="3.80313">
        <ele>1033</ele>
        <time>2019-05-31T14:03:41.974Z</time>
      </trkpt>
      <trkpt lat="45.40376" lon="3.80309">
        <ele>1035</ele>
        <time>2019-05-31T14:03:46.982Z</time>
      </trkpt>
      <trkpt lat="45.40383" lon="3.80305">
        <ele>1035</ele>
        <time>2019-05-31T14:03:51.973Z</time>
      </trkpt>
      <trkpt lat="45.4039" lon="3.803">
        <ele>1035</ele>
        <time>2019-05-31T14:03:56.965Z</time>
      </trkpt>
      <trkpt lat="45.40396" lon="3.80296">
        <ele>1035</ele>
        <time>2019-05-31T14:04:00.982Z</time>
      </trkpt>
      <trkpt lat="45.40401" lon="3.80291">
        <ele>1033</ele>
        <time>2019-05-31T14:04:05.973Z</time>
      </trkpt>
      <trkpt lat="45.40407" lon="3.80288">
        <ele>1035</ele>
        <time>2019-05-31T14:04:10.973Z</time>
      </trkpt>
      <trkpt lat="45.40413" lon="3.80285">
        <ele>1035</ele>
        <time>2019-05-31T14:04:15.970Z</time>
      </trkpt>
      <trkpt lat="45.40418" lon="3.80282">
        <ele>1035</ele>
        <time>2019-05-31T14:04:19.973Z</time>
      </trkpt>
      <trkpt lat="45.40423" lon="3.80276">
        <ele>1035</ele>
        <time>2019-05-31T14:04:23.974Z</time>
      </trkpt>
      <trkpt lat="45.4043" lon="3.80271">
        <ele>1035</ele>
        <time>2019-05-31T14:04:28.968Z</time>
      </trkpt>
      <trkpt lat="45.40437" lon="3.80266">
        <ele>1038</ele>
        <time>2019-05-31T14:04:32.978Z</time>
      </trkpt>
      <trkpt lat="45.40445" lon="3.80267">
        <ele>1038</ele>
        <time>2019-05-31T14:04:37.975Z</time>
      </trkpt>
      <trkpt lat="45.40452" lon="3.8027">
        <ele>1038</ele>
        <time>2019-05-31T14:04:42.970Z</time>
      </trkpt>
      <trkpt lat="45.40456" lon="3.80275">
        <ele>1038</ele>
        <time>2019-05-31T14:04:46.972Z</time>
      </trkpt>
      <trkpt lat="45.40462" lon="3.80281">
        <ele>1040</ele>
        <time>2019-05-31T14:04:51.978Z</time>
      </trkpt>
      <trkpt lat="45.40466" lon="3.80289">
        <ele>1040</ele>
        <time>2019-05-31T14:04:56.977Z</time>
      </trkpt>
      <trkpt lat="45.40468" lon="3.80301">
        <ele>1041</ele>
        <time>2019-05-31T14:05:01.978Z</time>
      </trkpt>
      <trkpt lat="45.40468" lon="3.8031">
        <ele>1041</ele>
        <time>2019-05-31T14:05:05.972Z</time>
      </trkpt>
      <trkpt lat="45.40467" lon="3.8032">
        <ele>1041</ele>
        <time>2019-05-31T14:05:10.983Z</time>
      </trkpt>
      <trkpt lat="45.40464" lon="3.80329">
        <ele>1041</ele>
        <time>2019-05-31T14:05:14.974Z</time>
      </trkpt>
      <trkpt lat="45.40461" lon="3.80338">
        <ele>1041</ele>
        <time>2019-05-31T14:05:18.974Z</time>
      </trkpt>
      <trkpt lat="45.40457" lon="3.80347">
        <ele>1042</ele>
        <time>2019-05-31T14:05:23.971Z</time>
      </trkpt>
      <trkpt lat="45.40452" lon="3.80357">
        <ele>1044</ele>
        <time>2019-05-31T14:05:28.975Z</time>
      </trkpt>
      <trkpt lat="45.4045" lon="3.80365">
        <ele>1044</ele>
        <time>2019-05-31T14:05:33.973Z</time>
      </trkpt>
      <trkpt lat="45.40448" lon="3.80371">
        <ele>1044</ele>
        <time>2019-05-31T14:05:37.974Z</time>
      </trkpt>
      <trkpt lat="45.40451" lon="3.80367">
        <ele>1044</ele>
        <time>2019-05-31T14:06:05.971Z</time>
      </trkpt>
      <trkpt lat="45.40452" lon="3.80366">
        <ele>1044</ele>
        <time>2019-05-31T14:06:10.974Z</time>
      </trkpt>
      <trkpt lat="45.40456" lon="3.80364">
        <ele>1044</ele>
        <time>2019-05-31T14:06:15.961Z</time>
      </trkpt>
      <trkpt lat="45.40458" lon="3.8037">
        <ele>1044</ele>
        <time>2019-05-31T14:06:19.975Z</time>
      </trkpt>
      <trkpt lat="45.40458" lon="3.80381">
        <ele>1044</ele>
        <time>2019-05-31T14:06:24.977Z</time>
      </trkpt>
      <trkpt lat="45.40456" lon="3.80391">
        <ele>1044</ele>
        <time>2019-05-31T14:06:29.974Z</time>
      </trkpt>
      <trkpt lat="45.40452" lon="3.804">
        <ele>1044</ele>
        <time>2019-05-31T14:06:34.982Z</time>
      </trkpt>
      <trkpt lat="45.40458" lon="3.80403">
        <ele>1045</ele>
        <time>2019-05-31T14:06:39.995Z</time>
      </trkpt>
      <trkpt lat="45.40462" lon="3.80402">
        <ele>1046</ele>
        <time>2019-05-31T14:06:44.977Z</time>
      </trkpt>
    </trkseg>
  </trk>
</gpx>